<?xml version="1.0" encoding="UTF-8" standalone="no" ?>
<gpx xmlns="http://www.topografix.com/GPX/1/1" xmlns:xsi="http://www.w3.org/2001/XMLSchema-instance" xsi:schemaLocation="http://www.topografix.com/GPX/1/1 http://www.topografix.com/GPX/1/1/gpx.xsd" version="1.1" creator="VisuGPX - https://www.visugpx.com">
  <metadata>
    <name>CDS j9</name>
    <desc><![CDATA[Chemin du soleil]]></desc>
  </metadata>
  <trk>
    <name><![CDATA[ACTIVE LOG072252]]></name>
    <trkseg>
      <trkpt lat="44.19591" lon="5.94653">
        <ele>471</ele>
        <time>2011-08-17T05:22:51Z</time>
      </trkpt>
      <trkpt lat="44.19591" lon="5.94653">
        <ele>471</ele>
        <time>2011-08-17T05:23:15Z</time>
      </trkpt>
      <trkpt lat="44.19596" lon="5.94657">
        <ele>471</ele>
        <time>2011-08-17T05:23:19Z</time>
      </trkpt>
      <trkpt lat="44.19639" lon="5.94653">
        <ele>469</ele>
        <time>2011-08-17T05:23:32Z</time>
      </trkpt>
      <trkpt lat="44.1965" lon="5.94644">
        <ele>469</ele>
        <time>2011-08-17T05:23:36Z</time>
      </trkpt>
      <trkpt lat="44.19659" lon="5.94643">
        <ele>468</ele>
        <time>2011-08-17T05:23:40Z</time>
      </trkpt>
      <trkpt lat="44.19691" lon="5.94665">
        <ele>466</ele>
        <time>2011-08-17T05:23:52Z</time>
      </trkpt>
      <trkpt lat="44.19753" lon="5.94634">
        <ele>467</ele>
        <time>2011-08-17T05:24:09Z</time>
      </trkpt>
      <trkpt lat="44.1981" lon="5.94599">
        <ele>469</ele>
        <time>2011-08-17T05:24:26Z</time>
      </trkpt>
      <trkpt lat="44.19847" lon="5.94583">
        <ele>474</ele>
        <time>2011-08-17T05:24:37Z</time>
      </trkpt>
      <trkpt lat="44.19847" lon="5.94574">
        <ele>475</ele>
        <time>2011-08-17T05:24:46Z</time>
      </trkpt>
      <trkpt lat="44.19845" lon="5.94568">
        <ele>476</ele>
        <time>2011-08-17T05:25:04Z</time>
      </trkpt>
      <trkpt lat="44.19845" lon="5.94562">
        <ele>477</ele>
        <time>2011-08-17T05:25:16Z</time>
      </trkpt>
      <trkpt lat="44.19847" lon="5.94558">
        <ele>478</ele>
        <time>2011-08-17T05:25:29Z</time>
      </trkpt>
      <trkpt lat="44.19872" lon="5.94539">
        <ele>482</ele>
        <time>2011-08-17T05:25:42Z</time>
      </trkpt>
      <trkpt lat="44.19924" lon="5.94537">
        <ele>479</ele>
        <time>2011-08-17T05:25:59Z</time>
      </trkpt>
      <trkpt lat="44.19941" lon="5.94539">
        <ele>478</ele>
        <time>2011-08-17T05:26:05Z</time>
      </trkpt>
      <trkpt lat="44.19948" lon="5.94555">
        <ele>476</ele>
        <time>2011-08-17T05:26:10Z</time>
      </trkpt>
      <trkpt lat="44.19958" lon="5.94608">
        <ele>476</ele>
        <time>2011-08-17T05:26:22Z</time>
      </trkpt>
      <trkpt lat="44.1995" lon="5.9462">
        <ele>476</ele>
        <time>2011-08-17T05:26:27Z</time>
      </trkpt>
      <trkpt lat="44.19922" lon="5.94667">
        <ele>476</ele>
        <time>2011-08-17T05:26:45Z</time>
      </trkpt>
      <trkpt lat="44.19884" lon="5.94728">
        <ele>482</ele>
        <time>2011-08-17T05:27:02Z</time>
      </trkpt>
      <trkpt lat="44.19849" lon="5.94795">
        <ele>494</ele>
        <time>2011-08-17T05:27:18Z</time>
      </trkpt>
      <trkpt lat="44.19843" lon="5.94816">
        <ele>493</ele>
        <time>2011-08-17T05:27:24Z</time>
      </trkpt>
      <trkpt lat="44.19843" lon="5.94824">
        <ele>491</ele>
        <time>2011-08-17T05:27:27Z</time>
      </trkpt>
      <trkpt lat="44.19815" lon="5.94868">
        <ele>488</ele>
        <time>2011-08-17T05:27:44Z</time>
      </trkpt>
      <trkpt lat="44.1979" lon="5.94919">
        <ele>502</ele>
        <time>2011-08-17T05:28:02Z</time>
      </trkpt>
      <trkpt lat="44.19768" lon="5.94965">
        <ele>502</ele>
        <time>2011-08-17T05:28:19Z</time>
      </trkpt>
      <trkpt lat="44.19746" lon="5.95013">
        <ele>491</ele>
        <time>2011-08-17T05:28:36Z</time>
      </trkpt>
      <trkpt lat="44.19727" lon="5.95069">
        <ele>497</ele>
        <time>2011-08-17T05:28:54Z</time>
      </trkpt>
      <trkpt lat="44.19724" lon="5.95075">
        <ele>497</ele>
        <time>2011-08-17T05:28:57Z</time>
      </trkpt>
      <trkpt lat="44.19686" lon="5.9512">
        <ele>508</ele>
        <time>2011-08-17T05:29:19Z</time>
      </trkpt>
      <trkpt lat="44.19656" lon="5.95158">
        <ele>501</ele>
        <time>2011-08-17T05:29:38Z</time>
      </trkpt>
      <trkpt lat="44.19628" lon="5.95199">
        <ele>510</ele>
        <time>2011-08-17T05:29:56Z</time>
      </trkpt>
      <trkpt lat="44.19601" lon="5.95238">
        <ele>511</ele>
        <time>2011-08-17T05:30:13Z</time>
      </trkpt>
      <trkpt lat="44.19586" lon="5.95279">
        <ele>525</ele>
        <time>2011-08-17T05:30:29Z</time>
      </trkpt>
      <trkpt lat="44.19574" lon="5.95316">
        <ele>516</ele>
        <time>2011-08-17T05:30:43Z</time>
      </trkpt>
      <trkpt lat="44.19567" lon="5.95328">
        <ele>517</ele>
        <time>2011-08-17T05:30:48Z</time>
      </trkpt>
      <trkpt lat="44.19563" lon="5.95338">
        <ele>526</ele>
        <time>2011-08-17T05:30:52Z</time>
      </trkpt>
      <trkpt lat="44.19529" lon="5.9539">
        <ele>529</ele>
        <time>2011-08-17T05:31:15Z</time>
      </trkpt>
      <trkpt lat="44.19518" lon="5.95397">
        <ele>530</ele>
        <time>2011-08-17T05:31:21Z</time>
      </trkpt>
      <trkpt lat="44.19507" lon="5.95391">
        <ele>529</ele>
        <time>2011-08-17T05:31:26Z</time>
      </trkpt>
      <trkpt lat="44.19472" lon="5.95382">
        <ele>518</ele>
        <time>2011-08-17T05:31:43Z</time>
      </trkpt>
      <trkpt lat="44.19433" lon="5.95409">
        <ele>521</ele>
        <time>2011-08-17T05:32:03Z</time>
      </trkpt>
      <trkpt lat="44.19393" lon="5.95431">
        <ele>527</ele>
        <time>2011-08-17T05:32:23Z</time>
      </trkpt>
      <trkpt lat="44.19359" lon="5.95438">
        <ele>522</ele>
        <time>2011-08-17T05:32:40Z</time>
      </trkpt>
      <trkpt lat="44.1934" lon="5.95449">
        <ele>522</ele>
        <time>2011-08-17T05:32:51Z</time>
      </trkpt>
      <trkpt lat="44.19345" lon="5.95496">
        <ele>529</ele>
        <time>2011-08-17T05:33:09Z</time>
      </trkpt>
      <trkpt lat="44.19352" lon="5.95559">
        <ele>547</ele>
        <time>2011-08-17T05:33:31Z</time>
      </trkpt>
      <trkpt lat="44.19364" lon="5.95619">
        <ele>558</ele>
        <time>2011-08-17T05:33:51Z</time>
      </trkpt>
      <trkpt lat="44.19397" lon="5.95645">
        <ele>563</ele>
        <time>2011-08-17T05:34:10Z</time>
      </trkpt>
      <trkpt lat="44.19408" lon="5.95683">
        <ele>571</ele>
        <time>2011-08-17T05:34:25Z</time>
      </trkpt>
      <trkpt lat="44.1939" lon="5.95687">
        <ele>571</ele>
        <time>2011-08-17T05:34:33Z</time>
      </trkpt>
      <trkpt lat="44.19382" lon="5.95691">
        <ele>571</ele>
        <time>2011-08-17T05:34:37Z</time>
      </trkpt>
      <trkpt lat="44.19348" lon="5.9572">
        <ele>575</ele>
        <time>2011-08-17T05:34:58Z</time>
      </trkpt>
      <trkpt lat="44.1934" lon="5.95716">
        <ele>574</ele>
        <time>2011-08-17T05:35:02Z</time>
      </trkpt>
      <trkpt lat="44.19306" lon="5.95697">
        <ele>573</ele>
        <time>2011-08-17T05:35:21Z</time>
      </trkpt>
      <trkpt lat="44.19276" lon="5.95672">
        <ele>573</ele>
        <time>2011-08-17T05:35:39Z</time>
      </trkpt>
      <trkpt lat="44.19246" lon="5.95636">
        <ele>554</ele>
        <time>2011-08-17T05:35:58Z</time>
      </trkpt>
      <trkpt lat="44.19232" lon="5.95602">
        <ele>547</ele>
        <time>2011-08-17T05:36:11Z</time>
      </trkpt>
      <trkpt lat="44.19223" lon="5.95607">
        <ele>547</ele>
        <time>2011-08-17T05:36:16Z</time>
      </trkpt>
      <trkpt lat="44.19219" lon="5.95648">
        <ele>553</ele>
        <time>2011-08-17T05:36:30Z</time>
      </trkpt>
      <trkpt lat="44.19228" lon="5.95695">
        <ele>570</ele>
        <time>2011-08-17T05:36:47Z</time>
      </trkpt>
      <trkpt lat="44.19213" lon="5.95749">
        <ele>575</ele>
        <time>2011-08-17T05:37:07Z</time>
      </trkpt>
      <trkpt lat="44.19187" lon="5.9579">
        <ele>587</ele>
        <time>2011-08-17T05:37:26Z</time>
      </trkpt>
      <trkpt lat="44.1917" lon="5.95839">
        <ele>591</ele>
        <time>2011-08-17T05:37:46Z</time>
      </trkpt>
      <trkpt lat="44.19139" lon="5.95876">
        <ele>587</ele>
        <time>2011-08-17T05:38:05Z</time>
      </trkpt>
      <trkpt lat="44.19104" lon="5.95891">
        <ele>585</ele>
        <time>2011-08-17T05:38:21Z</time>
      </trkpt>
      <trkpt lat="44.19085" lon="5.95923">
        <ele>591</ele>
        <time>2011-08-17T05:38:34Z</time>
      </trkpt>
      <trkpt lat="44.19055" lon="5.95988">
        <ele>586</ele>
        <time>2011-08-17T05:38:50Z</time>
      </trkpt>
      <trkpt lat="44.19036" lon="5.96022">
        <ele>587</ele>
        <time>2011-08-17T05:39:00Z</time>
      </trkpt>
      <trkpt lat="44.19025" lon="5.96054">
        <ele>586</ele>
        <time>2011-08-17T05:39:07Z</time>
      </trkpt>
      <trkpt lat="44.19028" lon="5.96077">
        <ele>586</ele>
        <time>2011-08-17T05:39:11Z</time>
      </trkpt>
      <trkpt lat="44.19032" lon="5.96089">
        <ele>590</ele>
        <time>2011-08-17T05:39:13Z</time>
      </trkpt>
      <trkpt lat="44.19029" lon="5.96129">
        <ele>591</ele>
        <time>2011-08-17T05:39:19Z</time>
      </trkpt>
      <trkpt lat="44.19015" lon="5.9617">
        <ele>590</ele>
        <time>2011-08-17T05:39:28Z</time>
      </trkpt>
      <trkpt lat="44.19012" lon="5.96224">
        <ele>596</ele>
        <time>2011-08-17T05:39:42Z</time>
      </trkpt>
      <trkpt lat="44.18985" lon="5.96237">
        <ele>586</ele>
        <time>2011-08-17T05:39:52Z</time>
      </trkpt>
      <trkpt lat="44.1895" lon="5.96249">
        <ele>582</ele>
        <time>2011-08-17T05:40:01Z</time>
      </trkpt>
      <trkpt lat="44.18935" lon="5.96268">
        <ele>587</ele>
        <time>2011-08-17T05:40:05Z</time>
      </trkpt>
      <trkpt lat="44.18936" lon="5.96317">
        <ele>589</ele>
        <time>2011-08-17T05:40:16Z</time>
      </trkpt>
      <trkpt lat="44.18941" lon="5.96324">
        <ele>590</ele>
        <time>2011-08-17T05:40:19Z</time>
      </trkpt>
      <trkpt lat="44.18943" lon="5.96339">
        <ele>594</ele>
        <time>2011-08-17T05:40:24Z</time>
      </trkpt>
      <trkpt lat="44.18941" lon="5.96349">
        <ele>594</ele>
        <time>2011-08-17T05:40:27Z</time>
      </trkpt>
      <trkpt lat="44.18926" lon="5.96382">
        <ele>595</ele>
        <time>2011-08-17T05:40:39Z</time>
      </trkpt>
      <trkpt lat="44.18921" lon="5.96442">
        <ele>598</ele>
        <time>2011-08-17T05:41:01Z</time>
      </trkpt>
      <trkpt lat="44.18938" lon="5.96488">
        <ele>601</ele>
        <time>2011-08-17T05:41:18Z</time>
      </trkpt>
      <trkpt lat="44.1892" lon="5.96527">
        <ele>605</ele>
        <time>2011-08-17T05:41:33Z</time>
      </trkpt>
      <trkpt lat="44.18922" lon="5.96567">
        <ele>607</ele>
        <time>2011-08-17T05:41:49Z</time>
      </trkpt>
      <trkpt lat="44.18918" lon="5.96577">
        <ele>606</ele>
        <time>2011-08-17T05:41:54Z</time>
      </trkpt>
      <trkpt lat="44.18911" lon="5.9658">
        <ele>604</ele>
        <time>2011-08-17T05:41:58Z</time>
      </trkpt>
      <trkpt lat="44.18908" lon="5.96587">
        <ele>607</ele>
        <time>2011-08-17T05:42:02Z</time>
      </trkpt>
      <trkpt lat="44.18906" lon="5.96592">
        <ele>607</ele>
        <time>2011-08-17T05:42:04Z</time>
      </trkpt>
      <trkpt lat="44.18892" lon="5.96644">
        <ele>611</ele>
        <time>2011-08-17T05:42:26Z</time>
      </trkpt>
      <trkpt lat="44.18888" lon="5.96689">
        <ele>619</ele>
        <time>2011-08-17T05:42:40Z</time>
      </trkpt>
      <trkpt lat="44.18884" lon="5.96701">
        <ele>620</ele>
        <time>2011-08-17T05:42:44Z</time>
      </trkpt>
      <trkpt lat="44.18871" lon="5.96694">
        <ele>620</ele>
        <time>2011-08-17T05:42:51Z</time>
      </trkpt>
      <trkpt lat="44.18862" lon="5.96671">
        <ele>619</ele>
        <time>2011-08-17T05:43:01Z</time>
      </trkpt>
      <trkpt lat="44.18847" lon="5.9667">
        <ele>618</ele>
        <time>2011-08-17T05:43:09Z</time>
      </trkpt>
      <trkpt lat="44.18828" lon="5.96652">
        <ele>619</ele>
        <time>2011-08-17T05:43:21Z</time>
      </trkpt>
      <trkpt lat="44.18797" lon="5.96637">
        <ele>622</ele>
        <time>2011-08-17T05:43:41Z</time>
      </trkpt>
      <trkpt lat="44.18771" lon="5.96617">
        <ele>623</ele>
        <time>2011-08-17T05:44:00Z</time>
      </trkpt>
      <trkpt lat="44.18757" lon="5.96605">
        <ele>623</ele>
        <time>2011-08-17T05:44:10Z</time>
      </trkpt>
      <trkpt lat="44.18755" lon="5.96606">
        <ele>623</ele>
        <time>2011-08-17T05:44:12Z</time>
      </trkpt>
      <trkpt lat="44.18754" lon="5.96612">
        <ele>623</ele>
        <time>2011-08-17T05:44:16Z</time>
      </trkpt>
      <trkpt lat="44.18759" lon="5.96659">
        <ele>633</ele>
        <time>2011-08-17T05:44:40Z</time>
      </trkpt>
      <trkpt lat="44.1877" lon="5.96706">
        <ele>638</ele>
        <time>2011-08-17T05:45:03Z</time>
      </trkpt>
      <trkpt lat="44.18784" lon="5.96747">
        <ele>639</ele>
        <time>2011-08-17T05:45:24Z</time>
      </trkpt>
      <trkpt lat="44.18792" lon="5.9679">
        <ele>648</ele>
        <time>2011-08-17T05:45:46Z</time>
      </trkpt>
      <trkpt lat="44.18806" lon="5.96835">
        <ele>657</ele>
        <time>2011-08-17T05:46:08Z</time>
      </trkpt>
      <trkpt lat="44.18832" lon="5.96868">
        <ele>659</ele>
        <time>2011-08-17T05:46:30Z</time>
      </trkpt>
      <trkpt lat="44.18838" lon="5.96882">
        <ele>653</ele>
        <time>2011-08-17T05:46:38Z</time>
      </trkpt>
      <trkpt lat="44.18831" lon="5.96885">
        <ele>661</ele>
        <time>2011-08-17T05:46:44Z</time>
      </trkpt>
      <trkpt lat="44.18797" lon="5.96877">
        <ele>661</ele>
        <time>2011-08-17T05:47:05Z</time>
      </trkpt>
      <trkpt lat="44.18762" lon="5.96876">
        <ele>662</ele>
        <time>2011-08-17T05:47:26Z</time>
      </trkpt>
      <trkpt lat="44.1875" lon="5.96904">
        <ele>662</ele>
        <time>2011-08-17T05:47:40Z</time>
      </trkpt>
      <trkpt lat="44.18744" lon="5.96955">
        <ele>660</ele>
        <time>2011-08-17T05:47:53Z</time>
      </trkpt>
      <trkpt lat="44.18735" lon="5.9703">
        <ele>658</ele>
        <time>2011-08-17T05:48:08Z</time>
      </trkpt>
      <trkpt lat="44.18733" lon="5.97046">
        <ele>656</ele>
        <time>2011-08-17T05:48:11Z</time>
      </trkpt>
      <trkpt lat="44.1873" lon="5.97063">
        <ele>656</ele>
        <time>2011-08-17T05:48:14Z</time>
      </trkpt>
      <trkpt lat="44.18717" lon="5.97126">
        <ele>649</ele>
        <time>2011-08-17T05:48:26Z</time>
      </trkpt>
      <trkpt lat="44.18716" lon="5.97132">
        <ele>649</ele>
        <time>2011-08-17T05:48:27Z</time>
      </trkpt>
      <trkpt lat="44.18711" lon="5.97233">
        <ele>649</ele>
        <time>2011-08-17T05:48:41Z</time>
      </trkpt>
      <trkpt lat="44.18708" lon="5.97247">
        <ele>648</ele>
        <time>2011-08-17T05:48:43Z</time>
      </trkpt>
      <trkpt lat="44.18695" lon="5.97291">
        <ele>650</ele>
        <time>2011-08-17T05:48:49Z</time>
      </trkpt>
      <trkpt lat="44.18661" lon="5.9733">
        <ele>640</ele>
        <time>2011-08-17T05:48:55Z</time>
      </trkpt>
      <trkpt lat="44.18616" lon="5.97356">
        <ele>636</ele>
        <time>2011-08-17T05:49:06Z</time>
      </trkpt>
      <trkpt lat="44.18592" lon="5.97421">
        <ele>640</ele>
        <time>2011-08-17T05:49:16Z</time>
      </trkpt>
      <trkpt lat="44.18572" lon="5.97545">
        <ele>633</ele>
        <time>2011-08-17T05:49:27Z</time>
      </trkpt>
      <trkpt lat="44.18571" lon="5.97557">
        <ele>633</ele>
        <time>2011-08-17T05:49:28Z</time>
      </trkpt>
      <trkpt lat="44.18576" lon="5.9759">
        <ele>631</ele>
        <time>2011-08-17T05:49:31Z</time>
      </trkpt>
      <trkpt lat="44.1859" lon="5.97634">
        <ele>634</ele>
        <time>2011-08-17T05:49:35Z</time>
      </trkpt>
      <trkpt lat="44.18604" lon="5.97753">
        <ele>625</ele>
        <time>2011-08-17T05:49:46Z</time>
      </trkpt>
      <trkpt lat="44.18616" lon="5.97799">
        <ele>625</ele>
        <time>2011-08-17T05:49:50Z</time>
      </trkpt>
      <trkpt lat="44.18614" lon="5.97836">
        <ele>623</ele>
        <time>2011-08-17T05:49:54Z</time>
      </trkpt>
      <trkpt lat="44.1862" lon="5.97862">
        <ele>624</ele>
        <time>2011-08-17T05:49:57Z</time>
      </trkpt>
      <trkpt lat="44.18619" lon="5.97927">
        <ele>625</ele>
        <time>2011-08-17T05:50:08Z</time>
      </trkpt>
      <trkpt lat="44.18622" lon="5.98003">
        <ele>629</ele>
        <time>2011-08-17T05:50:25Z</time>
      </trkpt>
      <trkpt lat="44.18609" lon="5.98076">
        <ele>629</ele>
        <time>2011-08-17T05:50:44Z</time>
      </trkpt>
      <trkpt lat="44.18593" lon="5.98102">
        <ele>628</ele>
        <time>2011-08-17T05:50:51Z</time>
      </trkpt>
      <trkpt lat="44.18586" lon="5.9814">
        <ele>628</ele>
        <time>2011-08-17T05:50:57Z</time>
      </trkpt>
      <trkpt lat="44.18591" lon="5.98263">
        <ele>622</ele>
        <time>2011-08-17T05:51:13Z</time>
      </trkpt>
      <trkpt lat="44.1862" lon="5.98369">
        <ele>618</ele>
        <time>2011-08-17T05:51:26Z</time>
      </trkpt>
      <trkpt lat="44.18633" lon="5.98428">
        <ele>612</ele>
        <time>2011-08-17T05:51:33Z</time>
      </trkpt>
      <trkpt lat="44.18643" lon="5.98461">
        <ele>610</ele>
        <time>2011-08-17T05:51:37Z</time>
      </trkpt>
      <trkpt lat="44.18642" lon="5.98492">
        <ele>609</ele>
        <time>2011-08-17T05:51:41Z</time>
      </trkpt>
      <trkpt lat="44.18645" lon="5.98541">
        <ele>601</ele>
        <time>2011-08-17T05:51:47Z</time>
      </trkpt>
      <trkpt lat="44.18645" lon="5.98558">
        <ele>600</ele>
        <time>2011-08-17T05:51:49Z</time>
      </trkpt>
      <trkpt lat="44.1865" lon="5.98664">
        <ele>591</ele>
        <time>2011-08-17T05:51:58Z</time>
      </trkpt>
      <trkpt lat="44.18652" lon="5.9871">
        <ele>587</ele>
        <time>2011-08-17T05:52:02Z</time>
      </trkpt>
      <trkpt lat="44.18647" lon="5.98749">
        <ele>585</ele>
        <time>2011-08-17T05:52:07Z</time>
      </trkpt>
      <trkpt lat="44.18668" lon="5.98748">
        <ele>584</ele>
        <time>2011-08-17T05:52:14Z</time>
      </trkpt>
      <trkpt lat="44.18677" lon="5.98779">
        <ele>582</ele>
        <time>2011-08-17T05:52:19Z</time>
      </trkpt>
      <trkpt lat="44.18667" lon="5.98805">
        <ele>580</ele>
        <time>2011-08-17T05:52:22Z</time>
      </trkpt>
      <trkpt lat="44.18661" lon="5.9882">
        <ele>578</ele>
        <time>2011-08-17T05:52:24Z</time>
      </trkpt>
      <trkpt lat="44.18654" lon="5.98914">
        <ele>570</ele>
        <time>2011-08-17T05:52:33Z</time>
      </trkpt>
      <trkpt lat="44.18665" lon="5.98948">
        <ele>567</ele>
        <time>2011-08-17T05:52:37Z</time>
      </trkpt>
      <trkpt lat="44.18681" lon="5.99009">
        <ele>566</ele>
        <time>2011-08-17T05:52:43Z</time>
      </trkpt>
      <trkpt lat="44.187" lon="5.99046">
        <ele>566</ele>
        <time>2011-08-17T05:52:49Z</time>
      </trkpt>
      <trkpt lat="44.18708" lon="5.99055">
        <ele>566</ele>
        <time>2011-08-17T05:52:51Z</time>
      </trkpt>
      <trkpt lat="44.1872" lon="5.99079">
        <ele>567</ele>
        <time>2011-08-17T05:52:55Z</time>
      </trkpt>
      <trkpt lat="44.18726" lon="5.99105">
        <ele>565</ele>
        <time>2011-08-17T05:52:59Z</time>
      </trkpt>
      <trkpt lat="44.18722" lon="5.99148">
        <ele>564</ele>
        <time>2011-08-17T05:53:05Z</time>
      </trkpt>
      <trkpt lat="44.18708" lon="5.99243">
        <ele>561</ele>
        <time>2011-08-17T05:53:19Z</time>
      </trkpt>
      <trkpt lat="44.18703" lon="5.99276">
        <ele>557</ele>
        <time>2011-08-17T05:53:23Z</time>
      </trkpt>
      <trkpt lat="44.18704" lon="5.9929">
        <ele>557</ele>
        <time>2011-08-17T05:53:25Z</time>
      </trkpt>
      <trkpt lat="44.18718" lon="5.99304">
        <ele>556</ele>
        <time>2011-08-17T05:53:30Z</time>
      </trkpt>
      <trkpt lat="44.18757" lon="5.99292">
        <ele>559</ele>
        <time>2011-08-17T05:53:45Z</time>
      </trkpt>
      <trkpt lat="44.18818" lon="5.99278">
        <ele>560</ele>
        <time>2011-08-17T05:54:05Z</time>
      </trkpt>
      <trkpt lat="44.18878" lon="5.9926">
        <ele>560</ele>
        <time>2011-08-17T05:54:20Z</time>
      </trkpt>
      <trkpt lat="44.18882" lon="5.99256">
        <ele>560</ele>
        <time>2011-08-17T05:54:21Z</time>
      </trkpt>
      <trkpt lat="44.18941" lon="5.99214">
        <ele>563</ele>
        <time>2011-08-17T05:54:38Z</time>
      </trkpt>
      <trkpt lat="44.1895" lon="5.99204">
        <ele>563</ele>
        <time>2011-08-17T05:54:41Z</time>
      </trkpt>
      <trkpt lat="44.18971" lon="5.99199">
        <ele>564</ele>
        <time>2011-08-17T05:54:46Z</time>
      </trkpt>
      <trkpt lat="44.1905" lon="5.99237">
        <ele>568</ele>
        <time>2011-08-17T05:55:08Z</time>
      </trkpt>
      <trkpt lat="44.19103" lon="5.9927">
        <ele>568</ele>
        <time>2011-08-17T05:55:25Z</time>
      </trkpt>
      <trkpt lat="44.19168" lon="5.99254">
        <ele>572</ele>
        <time>2011-08-17T05:55:44Z</time>
      </trkpt>
      <trkpt lat="44.19224" lon="5.99231">
        <ele>576</ele>
        <time>2011-08-17T05:56:02Z</time>
      </trkpt>
      <trkpt lat="44.19283" lon="5.99228">
        <ele>575</ele>
        <time>2011-08-17T05:56:21Z</time>
      </trkpt>
      <trkpt lat="44.19325" lon="5.99183">
        <ele>579</ele>
        <time>2011-08-17T05:56:38Z</time>
      </trkpt>
      <trkpt lat="44.1936" lon="5.99174">
        <ele>580</ele>
        <time>2011-08-17T05:56:50Z</time>
      </trkpt>
      <trkpt lat="44.19421" lon="5.99185">
        <ele>583</ele>
        <time>2011-08-17T05:57:10Z</time>
      </trkpt>
      <trkpt lat="44.19466" lon="5.9917">
        <ele>584</ele>
        <time>2011-08-17T05:57:26Z</time>
      </trkpt>
      <trkpt lat="44.19523" lon="5.99176">
        <ele>587</ele>
        <time>2011-08-17T05:57:45Z</time>
      </trkpt>
      <trkpt lat="44.19583" lon="5.9917">
        <ele>593</ele>
        <time>2011-08-17T05:58:05Z</time>
      </trkpt>
      <trkpt lat="44.19634" lon="5.99166">
        <ele>601</ele>
        <time>2011-08-17T05:58:24Z</time>
      </trkpt>
      <trkpt lat="44.1968" lon="5.99157">
        <ele>598</ele>
        <time>2011-08-17T05:58:41Z</time>
      </trkpt>
      <trkpt lat="44.19725" lon="5.99118">
        <ele>599</ele>
        <time>2011-08-17T05:59:01Z</time>
      </trkpt>
      <trkpt lat="44.19764" lon="5.99073">
        <ele>600</ele>
        <time>2011-08-17T05:59:12Z</time>
      </trkpt>
      <trkpt lat="44.19774" lon="5.99057">
        <ele>600</ele>
        <time>2011-08-17T05:59:14Z</time>
      </trkpt>
      <trkpt lat="44.19797" lon="5.99028">
        <ele>600</ele>
        <time>2011-08-17T05:59:18Z</time>
      </trkpt>
      <trkpt lat="44.19813" lon="5.98995">
        <ele>608</ele>
        <time>2011-08-17T05:59:22Z</time>
      </trkpt>
      <trkpt lat="44.19822" lon="5.98989">
        <ele>606</ele>
        <time>2011-08-17T05:59:24Z</time>
      </trkpt>
      <trkpt lat="44.19847" lon="5.98991">
        <ele>603</ele>
        <time>2011-08-17T05:59:32Z</time>
      </trkpt>
      <trkpt lat="44.1986" lon="5.98986">
        <ele>605</ele>
        <time>2011-08-17T05:59:37Z</time>
      </trkpt>
      <trkpt lat="44.19896" lon="5.98973">
        <ele>606</ele>
        <time>2011-08-17T05:59:50Z</time>
      </trkpt>
      <trkpt lat="44.19931" lon="5.98958">
        <ele>607</ele>
        <time>2011-08-17T06:00:08Z</time>
      </trkpt>
      <trkpt lat="44.19953" lon="5.98935">
        <ele>609</ele>
        <time>2011-08-17T06:00:22Z</time>
      </trkpt>
      <trkpt lat="44.19976" lon="5.98898">
        <ele>621</ele>
        <time>2011-08-17T06:00:43Z</time>
      </trkpt>
      <trkpt lat="44.19994" lon="5.98868">
        <ele>625</ele>
        <time>2011-08-17T06:00:59Z</time>
      </trkpt>
      <trkpt lat="44.20023" lon="5.98845">
        <ele>619</ele>
        <time>2011-08-17T06:01:17Z</time>
      </trkpt>
      <trkpt lat="44.20048" lon="5.98825">
        <ele>630</ele>
        <time>2011-08-17T06:01:34Z</time>
      </trkpt>
      <trkpt lat="44.2008" lon="5.98827">
        <ele>615</ele>
        <time>2011-08-17T06:01:44Z</time>
      </trkpt>
      <trkpt lat="44.20093" lon="5.98829">
        <ele>613</ele>
        <time>2011-08-17T06:01:47Z</time>
      </trkpt>
      <trkpt lat="44.2011" lon="5.9882">
        <ele>618</ele>
        <time>2011-08-17T06:01:51Z</time>
      </trkpt>
      <trkpt lat="44.20126" lon="5.98789">
        <ele>621</ele>
        <time>2011-08-17T06:01:58Z</time>
      </trkpt>
      <trkpt lat="44.20125" lon="5.98771">
        <ele>623</ele>
        <time>2011-08-17T06:02:03Z</time>
      </trkpt>
      <trkpt lat="44.20126" lon="5.98765">
        <ele>624</ele>
        <time>2011-08-17T06:02:05Z</time>
      </trkpt>
      <trkpt lat="44.20128" lon="5.9876">
        <ele>624</ele>
        <time>2011-08-17T06:02:07Z</time>
      </trkpt>
      <trkpt lat="44.20128" lon="5.98751">
        <ele>624</ele>
        <time>2011-08-17T06:02:19Z</time>
      </trkpt>
      <trkpt lat="44.20129" lon="5.98741">
        <ele>636</ele>
        <time>2011-08-17T06:02:28Z</time>
      </trkpt>
      <trkpt lat="44.20135" lon="5.98721">
        <ele>637</ele>
        <time>2011-08-17T06:02:43Z</time>
      </trkpt>
      <trkpt lat="44.2015" lon="5.98684">
        <ele>635</ele>
        <time>2011-08-17T06:03:01Z</time>
      </trkpt>
      <trkpt lat="44.20159" lon="5.98647">
        <ele>651</ele>
        <time>2011-08-17T06:03:18Z</time>
      </trkpt>
      <trkpt lat="44.20167" lon="5.98634">
        <ele>635</ele>
        <time>2011-08-17T06:03:26Z</time>
      </trkpt>
      <trkpt lat="44.20189" lon="5.98622">
        <ele>636</ele>
        <time>2011-08-17T06:03:37Z</time>
      </trkpt>
      <trkpt lat="44.20205" lon="5.98618">
        <ele>635</ele>
        <time>2011-08-17T06:03:49Z</time>
      </trkpt>
      <trkpt lat="44.20211" lon="5.98609">
        <ele>635</ele>
        <time>2011-08-17T06:04:03Z</time>
      </trkpt>
      <trkpt lat="44.20213" lon="5.98607">
        <ele>635</ele>
        <time>2011-08-17T06:04:19Z</time>
      </trkpt>
      <trkpt lat="44.20214" lon="5.986">
        <ele>635</ele>
        <time>2011-08-17T06:04:32Z</time>
      </trkpt>
      <trkpt lat="44.20214" lon="5.986">
        <ele>635</ele>
        <time>2011-08-17T06:04:35Z</time>
      </trkpt>
      <trkpt lat="44.20212" lon="5.98592">
        <ele>635</ele>
        <time>2011-08-17T06:04:52Z</time>
      </trkpt>
      <trkpt lat="44.20214" lon="5.98587">
        <ele>635</ele>
        <time>2011-08-17T06:05:03Z</time>
      </trkpt>
      <trkpt lat="44.20218" lon="5.98579">
        <ele>644</ele>
        <time>2011-08-17T06:05:17Z</time>
      </trkpt>
      <trkpt lat="44.20224" lon="5.98569">
        <ele>643</ele>
        <time>2011-08-17T06:05:35Z</time>
      </trkpt>
      <trkpt lat="44.2022" lon="5.98564">
        <ele>646</ele>
        <time>2011-08-17T06:05:50Z</time>
      </trkpt>
      <trkpt lat="44.2022" lon="5.98555">
        <ele>648</ele>
        <time>2011-08-17T06:06:08Z</time>
      </trkpt>
      <trkpt lat="44.20225" lon="5.98542">
        <ele>649</ele>
        <time>2011-08-17T06:06:24Z</time>
      </trkpt>
      <trkpt lat="44.20227" lon="5.98532">
        <ele>650</ele>
        <time>2011-08-17T06:06:37Z</time>
      </trkpt>
      <trkpt lat="44.20233" lon="5.98518">
        <ele>649</ele>
        <time>2011-08-17T06:06:54Z</time>
      </trkpt>
      <trkpt lat="44.2024" lon="5.98507">
        <ele>646</ele>
        <time>2011-08-17T06:07:08Z</time>
      </trkpt>
      <trkpt lat="44.20253" lon="5.98497">
        <ele>643</ele>
        <time>2011-08-17T06:07:28Z</time>
      </trkpt>
      <trkpt lat="44.20261" lon="5.98481">
        <ele>647</ele>
        <time>2011-08-17T06:07:48Z</time>
      </trkpt>
      <trkpt lat="44.2027" lon="5.98474">
        <ele>648</ele>
        <time>2011-08-17T06:08:01Z</time>
      </trkpt>
      <trkpt lat="44.20272" lon="5.98474">
        <ele>648</ele>
        <time>2011-08-17T06:08:03Z</time>
      </trkpt>
      <trkpt lat="44.20278" lon="5.98475">
        <ele>647</ele>
        <time>2011-08-17T06:08:17Z</time>
      </trkpt>
      <trkpt lat="44.20283" lon="5.98473">
        <ele>647</ele>
        <time>2011-08-17T06:10:01Z</time>
      </trkpt>
      <trkpt lat="44.20313" lon="5.98454">
        <ele>647</ele>
        <time>2011-08-17T06:10:13Z</time>
      </trkpt>
      <trkpt lat="44.20329" lon="5.98431">
        <ele>649</ele>
        <time>2011-08-17T06:10:18Z</time>
      </trkpt>
      <trkpt lat="44.20341" lon="5.98406">
        <ele>655</ele>
        <time>2011-08-17T06:10:24Z</time>
      </trkpt>
      <trkpt lat="44.20348" lon="5.98407">
        <ele>657</ele>
        <time>2011-08-17T06:10:29Z</time>
      </trkpt>
      <trkpt lat="44.20361" lon="5.98455">
        <ele>644</ele>
        <time>2011-08-17T06:10:43Z</time>
      </trkpt>
      <trkpt lat="44.20379" lon="5.98481">
        <ele>643</ele>
        <time>2011-08-17T06:10:55Z</time>
      </trkpt>
      <trkpt lat="44.20383" lon="5.98489">
        <ele>643</ele>
        <time>2011-08-17T06:11:03Z</time>
      </trkpt>
      <trkpt lat="44.20386" lon="5.98493">
        <ele>643</ele>
        <time>2011-08-17T06:11:11Z</time>
      </trkpt>
      <trkpt lat="44.20414" lon="5.98517">
        <ele>636</ele>
        <time>2011-08-17T06:11:24Z</time>
      </trkpt>
      <trkpt lat="44.20451" lon="5.9854">
        <ele>642</ele>
        <time>2011-08-17T06:11:39Z</time>
      </trkpt>
      <trkpt lat="44.20482" lon="5.9855">
        <ele>643</ele>
        <time>2011-08-17T06:11:56Z</time>
      </trkpt>
      <trkpt lat="44.20492" lon="5.98553">
        <ele>643</ele>
        <time>2011-08-17T06:11:59Z</time>
      </trkpt>
      <trkpt lat="44.20516" lon="5.98556">
        <ele>656</ele>
        <time>2011-08-17T06:12:10Z</time>
      </trkpt>
      <trkpt lat="44.20516" lon="5.98557">
        <ele>656</ele>
        <time>2011-08-17T06:12:12Z</time>
      </trkpt>
      <trkpt lat="44.20527" lon="5.98587">
        <ele>642</ele>
        <time>2011-08-17T06:12:24Z</time>
      </trkpt>
      <trkpt lat="44.20548" lon="5.98621">
        <ele>644</ele>
        <time>2011-08-17T06:12:36Z</time>
      </trkpt>
      <trkpt lat="44.20559" lon="5.98629">
        <ele>645</ele>
        <time>2011-08-17T06:12:49Z</time>
      </trkpt>
      <trkpt lat="44.20576" lon="5.98644">
        <ele>645</ele>
        <time>2011-08-17T06:13:08Z</time>
      </trkpt>
      <trkpt lat="44.2059" lon="5.98657">
        <ele>651</ele>
        <time>2011-08-17T06:13:25Z</time>
      </trkpt>
      <trkpt lat="44.20595" lon="5.98669">
        <ele>647</ele>
        <time>2011-08-17T06:13:32Z</time>
      </trkpt>
      <trkpt lat="44.20593" lon="5.98677">
        <ele>647</ele>
        <time>2011-08-17T06:13:34Z</time>
      </trkpt>
      <trkpt lat="44.20613" lon="5.98702">
        <ele>649</ele>
        <time>2011-08-17T06:13:47Z</time>
      </trkpt>
      <trkpt lat="44.20637" lon="5.9874">
        <ele>650</ele>
        <time>2011-08-17T06:14:04Z</time>
      </trkpt>
      <trkpt lat="44.20658" lon="5.98777">
        <ele>648</ele>
        <time>2011-08-17T06:14:19Z</time>
      </trkpt>
      <trkpt lat="44.20683" lon="5.98828">
        <ele>654</ele>
        <time>2011-08-17T06:14:37Z</time>
      </trkpt>
      <trkpt lat="44.20715" lon="5.98887">
        <ele>654</ele>
        <time>2011-08-17T06:14:59Z</time>
      </trkpt>
      <trkpt lat="44.20763" lon="5.98919">
        <ele>658</ele>
        <time>2011-08-17T06:15:22Z</time>
      </trkpt>
      <trkpt lat="44.20817" lon="5.9892">
        <ele>664</ele>
        <time>2011-08-17T06:15:44Z</time>
      </trkpt>
      <trkpt lat="44.20832" lon="5.98958">
        <ele>660</ele>
        <time>2011-08-17T06:15:57Z</time>
      </trkpt>
      <trkpt lat="44.20866" lon="5.98993">
        <ele>673</ele>
        <time>2011-08-17T06:16:14Z</time>
      </trkpt>
      <trkpt lat="44.20899" lon="5.9903">
        <ele>670</ele>
        <time>2011-08-17T06:16:32Z</time>
      </trkpt>
      <trkpt lat="44.20926" lon="5.9906">
        <ele>680</ele>
        <time>2011-08-17T06:16:50Z</time>
      </trkpt>
      <trkpt lat="44.20963" lon="5.99075">
        <ele>685</ele>
        <time>2011-08-17T06:17:10Z</time>
      </trkpt>
      <trkpt lat="44.20996" lon="5.99104">
        <ele>682</ele>
        <time>2011-08-17T06:17:30Z</time>
      </trkpt>
      <trkpt lat="44.21028" lon="5.99124">
        <ele>694</ele>
        <time>2011-08-17T06:17:47Z</time>
      </trkpt>
      <trkpt lat="44.21056" lon="5.9917">
        <ele>690</ele>
        <time>2011-08-17T06:18:10Z</time>
      </trkpt>
      <trkpt lat="44.21082" lon="5.99218">
        <ele>689</ele>
        <time>2011-08-17T06:18:33Z</time>
      </trkpt>
      <trkpt lat="44.21111" lon="5.99248">
        <ele>700</ele>
        <time>2011-08-17T06:18:52Z</time>
      </trkpt>
      <trkpt lat="44.21157" lon="5.99268">
        <ele>699</ele>
        <time>2011-08-17T06:19:18Z</time>
      </trkpt>
      <trkpt lat="44.21197" lon="5.99278">
        <ele>705</ele>
        <time>2011-08-17T06:19:38Z</time>
      </trkpt>
      <trkpt lat="44.21243" lon="5.99286">
        <ele>707</ele>
        <time>2011-08-17T06:19:59Z</time>
      </trkpt>
      <trkpt lat="44.21255" lon="5.99287">
        <ele>714</ele>
        <time>2011-08-17T06:20:05Z</time>
      </trkpt>
      <trkpt lat="44.21294" lon="5.993">
        <ele>714</ele>
        <time>2011-08-17T06:20:24Z</time>
      </trkpt>
      <trkpt lat="44.21345" lon="5.99319">
        <ele>719</ele>
        <time>2011-08-17T06:20:41Z</time>
      </trkpt>
      <trkpt lat="44.21355" lon="5.99319">
        <ele>720</ele>
        <time>2011-08-17T06:20:45Z</time>
      </trkpt>
      <trkpt lat="44.21357" lon="5.9933">
        <ele>719</ele>
        <time>2011-08-17T06:20:50Z</time>
      </trkpt>
      <trkpt lat="44.21364" lon="5.99342">
        <ele>713</ele>
        <time>2011-08-17T06:20:54Z</time>
      </trkpt>
      <trkpt lat="44.21386" lon="5.99359">
        <ele>713</ele>
        <time>2011-08-17T06:21:03Z</time>
      </trkpt>
      <trkpt lat="44.21411" lon="5.99386">
        <ele>711</ele>
        <time>2011-08-17T06:21:14Z</time>
      </trkpt>
      <trkpt lat="44.21459" lon="5.9941">
        <ele>715</ele>
        <time>2011-08-17T06:21:29Z</time>
      </trkpt>
      <trkpt lat="44.21523" lon="5.99446">
        <ele>714</ele>
        <time>2011-08-17T06:21:46Z</time>
      </trkpt>
      <trkpt lat="44.21555" lon="5.99472">
        <ele>715</ele>
        <time>2011-08-17T06:21:58Z</time>
      </trkpt>
      <trkpt lat="44.2159" lon="5.99481">
        <ele>720</ele>
        <time>2011-08-17T06:22:13Z</time>
      </trkpt>
      <trkpt lat="44.21627" lon="5.99478">
        <ele>723</ele>
        <time>2011-08-17T06:22:30Z</time>
      </trkpt>
      <trkpt lat="44.21665" lon="5.99467">
        <ele>725</ele>
        <time>2011-08-17T06:22:52Z</time>
      </trkpt>
      <trkpt lat="44.21694" lon="5.99489">
        <ele>734</ele>
        <time>2011-08-17T06:23:10Z</time>
      </trkpt>
      <trkpt lat="44.21721" lon="5.9952">
        <ele>733</ele>
        <time>2011-08-17T06:23:29Z</time>
      </trkpt>
      <trkpt lat="44.21729" lon="5.9953">
        <ele>734</ele>
        <time>2011-08-17T06:23:35Z</time>
      </trkpt>
      <trkpt lat="44.21753" lon="5.99563">
        <ele>739</ele>
        <time>2011-08-17T06:23:49Z</time>
      </trkpt>
      <trkpt lat="44.21775" lon="5.99608">
        <ele>738</ele>
        <time>2011-08-17T06:24:05Z</time>
      </trkpt>
      <trkpt lat="44.21777" lon="5.99665">
        <ele>738</ele>
        <time>2011-08-17T06:24:24Z</time>
      </trkpt>
      <trkpt lat="44.21787" lon="5.99692">
        <ele>740</ele>
        <time>2011-08-17T06:24:33Z</time>
      </trkpt>
      <trkpt lat="44.218" lon="5.99702">
        <ele>741</ele>
        <time>2011-08-17T06:24:36Z</time>
      </trkpt>
      <trkpt lat="44.2181" lon="5.99718">
        <ele>742</ele>
        <time>2011-08-17T06:24:39Z</time>
      </trkpt>
      <trkpt lat="44.21826" lon="5.99722">
        <ele>742</ele>
        <time>2011-08-17T06:24:44Z</time>
      </trkpt>
      <trkpt lat="44.21851" lon="5.99732">
        <ele>748</ele>
        <time>2011-08-17T06:24:58Z</time>
      </trkpt>
      <trkpt lat="44.21881" lon="5.99749">
        <ele>749</ele>
        <time>2011-08-17T06:25:17Z</time>
      </trkpt>
      <trkpt lat="44.21908" lon="5.9975">
        <ele>752</ele>
        <time>2011-08-17T06:25:34Z</time>
      </trkpt>
      <trkpt lat="44.21922" lon="5.99754">
        <ele>753</ele>
        <time>2011-08-17T06:25:43Z</time>
      </trkpt>
      <trkpt lat="44.21918" lon="5.99764">
        <ele>755</ele>
        <time>2011-08-17T06:25:49Z</time>
      </trkpt>
      <trkpt lat="44.21883" lon="5.99776">
        <ele>753</ele>
        <time>2011-08-17T06:26:10Z</time>
      </trkpt>
      <trkpt lat="44.21873" lon="5.99787">
        <ele>753</ele>
        <time>2011-08-17T06:26:18Z</time>
      </trkpt>
      <trkpt lat="44.21881" lon="5.99796">
        <ele>754</ele>
        <time>2011-08-17T06:26:24Z</time>
      </trkpt>
      <trkpt lat="44.21926" lon="5.99805">
        <ele>760</ele>
        <time>2011-08-17T06:26:47Z</time>
      </trkpt>
      <trkpt lat="44.21961" lon="5.99835">
        <ele>767</ele>
        <time>2011-08-17T06:27:07Z</time>
      </trkpt>
      <trkpt lat="44.21963" lon="5.99873">
        <ele>770</ele>
        <time>2011-08-17T06:27:22Z</time>
      </trkpt>
      <trkpt lat="44.21959" lon="5.9988">
        <ele>770</ele>
        <time>2011-08-17T06:27:25Z</time>
      </trkpt>
      <trkpt lat="44.21954" lon="5.99885">
        <ele>771</ele>
        <time>2011-08-17T06:27:29Z</time>
      </trkpt>
      <trkpt lat="44.21918" lon="5.99896">
        <ele>773</ele>
        <time>2011-08-17T06:27:50Z</time>
      </trkpt>
      <trkpt lat="44.21912" lon="5.99924">
        <ele>779</ele>
        <time>2011-08-17T06:28:03Z</time>
      </trkpt>
      <trkpt lat="44.21947" lon="5.99945">
        <ele>782</ele>
        <time>2011-08-17T06:28:23Z</time>
      </trkpt>
      <trkpt lat="44.21972" lon="5.99949">
        <ele>782</ele>
        <time>2011-08-17T06:28:36Z</time>
      </trkpt>
      <trkpt lat="44.21976" lon="5.9995">
        <ele>782</ele>
        <time>2011-08-17T06:28:38Z</time>
      </trkpt>
      <trkpt lat="44.21977" lon="5.99966">
        <ele>783</ele>
        <time>2011-08-17T06:28:45Z</time>
      </trkpt>
      <trkpt lat="44.21955" lon="6.00012">
        <ele>790</ele>
        <time>2011-08-17T06:29:06Z</time>
      </trkpt>
      <trkpt lat="44.21954" lon="6.00043">
        <ele>791</ele>
        <time>2011-08-17T06:29:18Z</time>
      </trkpt>
      <trkpt lat="44.21935" lon="6.00079">
        <ele>792</ele>
        <time>2011-08-17T06:29:34Z</time>
      </trkpt>
      <trkpt lat="44.21898" lon="6.00103">
        <ele>796</ele>
        <time>2011-08-17T06:29:52Z</time>
      </trkpt>
      <trkpt lat="44.2185" lon="6.00122">
        <ele>797</ele>
        <time>2011-08-17T06:30:16Z</time>
      </trkpt>
      <trkpt lat="44.21833" lon="6.00129">
        <ele>796</ele>
        <time>2011-08-17T06:30:26Z</time>
      </trkpt>
      <trkpt lat="44.21832" lon="6.00138">
        <ele>797</ele>
        <time>2011-08-17T06:30:30Z</time>
      </trkpt>
      <trkpt lat="44.21849" lon="6.00185">
        <ele>802</ele>
        <time>2011-08-17T06:30:48Z</time>
      </trkpt>
      <trkpt lat="44.21867" lon="6.00209">
        <ele>804</ele>
        <time>2011-08-17T06:31:00Z</time>
      </trkpt>
      <trkpt lat="44.21892" lon="6.00234">
        <ele>805</ele>
        <time>2011-08-17T06:31:12Z</time>
      </trkpt>
      <trkpt lat="44.21927" lon="6.00256">
        <ele>811</ele>
        <time>2011-08-17T06:31:28Z</time>
      </trkpt>
      <trkpt lat="44.21969" lon="6.00257">
        <ele>815</ele>
        <time>2011-08-17T06:31:47Z</time>
      </trkpt>
      <trkpt lat="44.22004" lon="6.00227">
        <ele>813</ele>
        <time>2011-08-17T06:32:03Z</time>
      </trkpt>
      <trkpt lat="44.22033" lon="6.00195">
        <ele>811</ele>
        <time>2011-08-17T06:32:17Z</time>
      </trkpt>
      <trkpt lat="44.22078" lon="6.00158">
        <ele>808</ele>
        <time>2011-08-17T06:32:36Z</time>
      </trkpt>
      <trkpt lat="44.22128" lon="6.00123">
        <ele>813</ele>
        <time>2011-08-17T06:32:57Z</time>
      </trkpt>
      <trkpt lat="44.22168" lon="6.00095">
        <ele>818</ele>
        <time>2011-08-17T06:33:15Z</time>
      </trkpt>
      <trkpt lat="44.22193" lon="6.001">
        <ele>820</ele>
        <time>2011-08-17T06:33:29Z</time>
      </trkpt>
      <trkpt lat="44.22217" lon="6.00129">
        <ele>822</ele>
        <time>2011-08-17T06:33:46Z</time>
      </trkpt>
      <trkpt lat="44.22208" lon="6.00165">
        <ele>823</ele>
        <time>2011-08-17T06:34:02Z</time>
      </trkpt>
      <trkpt lat="44.22189" lon="6.00219">
        <ele>830</ele>
        <time>2011-08-17T06:34:26Z</time>
      </trkpt>
      <trkpt lat="44.22171" lon="6.00254">
        <ele>835</ele>
        <time>2011-08-17T06:34:43Z</time>
      </trkpt>
      <trkpt lat="44.22161" lon="6.003">
        <ele>834</ele>
        <time>2011-08-17T06:35:02Z</time>
      </trkpt>
      <trkpt lat="44.22153" lon="6.00355">
        <ele>841</ele>
        <time>2011-08-17T06:35:22Z</time>
      </trkpt>
      <trkpt lat="44.22148" lon="6.00404">
        <ele>845</ele>
        <time>2011-08-17T06:35:39Z</time>
      </trkpt>
      <trkpt lat="44.22128" lon="6.00442">
        <ele>852</ele>
        <time>2011-08-17T06:35:57Z</time>
      </trkpt>
      <trkpt lat="44.22103" lon="6.00493">
        <ele>855</ele>
        <time>2011-08-17T06:36:20Z</time>
      </trkpt>
      <trkpt lat="44.22081" lon="6.00542">
        <ele>861</ele>
        <time>2011-08-17T06:36:41Z</time>
      </trkpt>
      <trkpt lat="44.2204" lon="6.00548">
        <ele>860</ele>
        <time>2011-08-17T06:37:02Z</time>
      </trkpt>
      <trkpt lat="44.22007" lon="6.00559">
        <ele>860</ele>
        <time>2011-08-17T06:37:19Z</time>
      </trkpt>
      <trkpt lat="44.21992" lon="6.00571">
        <ele>857</ele>
        <time>2011-08-17T06:37:28Z</time>
      </trkpt>
      <trkpt lat="44.21997" lon="6.00581">
        <ele>861</ele>
        <time>2011-08-17T06:37:33Z</time>
      </trkpt>
      <trkpt lat="44.22016" lon="6.00595">
        <ele>868</ele>
        <time>2011-08-17T06:37:45Z</time>
      </trkpt>
      <trkpt lat="44.22041" lon="6.00604">
        <ele>870</ele>
        <time>2011-08-17T06:37:59Z</time>
      </trkpt>
      <trkpt lat="44.22045" lon="6.00623">
        <ele>872</ele>
        <time>2011-08-17T06:38:07Z</time>
      </trkpt>
      <trkpt lat="44.22021" lon="6.00681">
        <ele>878</ele>
        <time>2011-08-17T06:38:29Z</time>
      </trkpt>
      <trkpt lat="44.21993" lon="6.00727">
        <ele>876</ele>
        <time>2011-08-17T06:38:49Z</time>
      </trkpt>
      <trkpt lat="44.21976" lon="6.00756">
        <ele>882</ele>
        <time>2011-08-17T06:39:01Z</time>
      </trkpt>
      <trkpt lat="44.21953" lon="6.00785">
        <ele>882</ele>
        <time>2011-08-17T06:39:16Z</time>
      </trkpt>
      <trkpt lat="44.21929" lon="6.00808">
        <ele>882</ele>
        <time>2011-08-17T06:39:31Z</time>
      </trkpt>
      <trkpt lat="44.21911" lon="6.00844">
        <ele>884</ele>
        <time>2011-08-17T06:39:46Z</time>
      </trkpt>
      <trkpt lat="44.21871" lon="6.00866">
        <ele>885</ele>
        <time>2011-08-17T06:40:04Z</time>
      </trkpt>
      <trkpt lat="44.21869" lon="6.00867">
        <ele>885</ele>
        <time>2011-08-17T06:40:05Z</time>
      </trkpt>
      <trkpt lat="44.21846" lon="6.00895">
        <ele>886</ele>
        <time>2011-08-17T06:40:20Z</time>
      </trkpt>
      <trkpt lat="44.21829" lon="6.00943">
        <ele>889</ele>
        <time>2011-08-17T06:40:39Z</time>
      </trkpt>
      <trkpt lat="44.21827" lon="6.01002">
        <ele>895</ele>
        <time>2011-08-17T06:40:58Z</time>
      </trkpt>
      <trkpt lat="44.218" lon="6.01023">
        <ele>896</ele>
        <time>2011-08-17T06:41:13Z</time>
      </trkpt>
      <trkpt lat="44.21772" lon="6.01058">
        <ele>897</ele>
        <time>2011-08-17T06:41:30Z</time>
      </trkpt>
      <trkpt lat="44.21764" lon="6.01117">
        <ele>903</ele>
        <time>2011-08-17T06:41:50Z</time>
      </trkpt>
      <trkpt lat="44.21759" lon="6.01164">
        <ele>905</ele>
        <time>2011-08-17T06:42:06Z</time>
      </trkpt>
      <trkpt lat="44.21746" lon="6.01212">
        <ele>907</ele>
        <time>2011-08-17T06:42:23Z</time>
      </trkpt>
      <trkpt lat="44.21732" lon="6.0126">
        <ele>913</ele>
        <time>2011-08-17T06:42:41Z</time>
      </trkpt>
      <trkpt lat="44.21724" lon="6.013">
        <ele>914</ele>
        <time>2011-08-17T06:42:57Z</time>
      </trkpt>
      <trkpt lat="44.21731" lon="6.01299">
        <ele>914</ele>
        <time>2011-08-17T06:43:01Z</time>
      </trkpt>
      <trkpt lat="44.21752" lon="6.01279">
        <ele>920</ele>
        <time>2011-08-17T06:43:15Z</time>
      </trkpt>
      <trkpt lat="44.21771" lon="6.01273">
        <ele>921</ele>
        <time>2011-08-17T06:43:24Z</time>
      </trkpt>
      <trkpt lat="44.21779" lon="6.0129">
        <ele>922</ele>
        <time>2011-08-17T06:43:34Z</time>
      </trkpt>
      <trkpt lat="44.21778" lon="6.01337">
        <ele>928</ele>
        <time>2011-08-17T06:43:54Z</time>
      </trkpt>
      <trkpt lat="44.21782" lon="6.01382">
        <ele>930</ele>
        <time>2011-08-17T06:44:12Z</time>
      </trkpt>
      <trkpt lat="44.2179" lon="6.01404">
        <ele>931</ele>
        <time>2011-08-17T06:44:22Z</time>
      </trkpt>
      <trkpt lat="44.21796" lon="6.01396">
        <ele>931</ele>
        <time>2011-08-17T06:44:28Z</time>
      </trkpt>
      <trkpt lat="44.21811" lon="6.01352">
        <ele>931</ele>
        <time>2011-08-17T06:44:46Z</time>
      </trkpt>
      <trkpt lat="44.21832" lon="6.01361">
        <ele>931</ele>
        <time>2011-08-17T06:44:59Z</time>
      </trkpt>
      <trkpt lat="44.21837" lon="6.01406">
        <ele>938</ele>
        <time>2011-08-17T06:45:16Z</time>
      </trkpt>
      <trkpt lat="44.21847" lon="6.01464">
        <ele>945</ele>
        <time>2011-08-17T06:45:38Z</time>
      </trkpt>
      <trkpt lat="44.21856" lon="6.01502">
        <ele>950</ele>
        <time>2011-08-17T06:45:54Z</time>
      </trkpt>
      <trkpt lat="44.21864" lon="6.01543">
        <ele>953</ele>
        <time>2011-08-17T06:46:11Z</time>
      </trkpt>
      <trkpt lat="44.21845" lon="6.01564">
        <ele>954</ele>
        <time>2011-08-17T06:46:24Z</time>
      </trkpt>
      <trkpt lat="44.21832" lon="6.01606">
        <ele>954</ele>
        <time>2011-08-17T06:46:42Z</time>
      </trkpt>
      <trkpt lat="44.21823" lon="6.01657">
        <ele>958</ele>
        <time>2011-08-17T06:47:00Z</time>
      </trkpt>
      <trkpt lat="44.21817" lon="6.01707">
        <ele>963</ele>
        <time>2011-08-17T06:47:18Z</time>
      </trkpt>
      <trkpt lat="44.21817" lon="6.01723">
        <ele>964</ele>
        <time>2011-08-17T06:47:23Z</time>
      </trkpt>
      <trkpt lat="44.21811" lon="6.01777">
        <ele>970</ele>
        <time>2011-08-17T06:47:42Z</time>
      </trkpt>
      <trkpt lat="44.21814" lon="6.018">
        <ele>971</ele>
        <time>2011-08-17T06:47:50Z</time>
      </trkpt>
      <trkpt lat="44.21797" lon="6.01812">
        <ele>972</ele>
        <time>2011-08-17T06:48:02Z</time>
      </trkpt>
      <trkpt lat="44.2176" lon="6.01812">
        <ele>973</ele>
        <time>2011-08-17T06:48:23Z</time>
      </trkpt>
      <trkpt lat="44.21729" lon="6.01813">
        <ele>977</ele>
        <time>2011-08-17T06:48:42Z</time>
      </trkpt>
      <trkpt lat="44.21687" lon="6.01809">
        <ele>980</ele>
        <time>2011-08-17T06:49:05Z</time>
      </trkpt>
      <trkpt lat="44.21661" lon="6.01781">
        <ele>982</ele>
        <time>2011-08-17T06:49:23Z</time>
      </trkpt>
      <trkpt lat="44.21629" lon="6.01765">
        <ele>982</ele>
        <time>2011-08-17T06:49:41Z</time>
      </trkpt>
      <trkpt lat="44.21603" lon="6.01775">
        <ele>983</ele>
        <time>2011-08-17T06:49:58Z</time>
      </trkpt>
      <trkpt lat="44.21598" lon="6.01819">
        <ele>986</ele>
        <time>2011-08-17T06:50:15Z</time>
      </trkpt>
      <trkpt lat="44.21592" lon="6.01871">
        <ele>993</ele>
        <time>2011-08-17T06:50:35Z</time>
      </trkpt>
      <trkpt lat="44.21593" lon="6.01878">
        <ele>993</ele>
        <time>2011-08-17T06:50:38Z</time>
      </trkpt>
      <trkpt lat="44.21603" lon="6.01879">
        <ele>993</ele>
        <time>2011-08-17T06:50:45Z</time>
      </trkpt>
      <trkpt lat="44.21623" lon="6.01859">
        <ele>993</ele>
        <time>2011-08-17T06:50:59Z</time>
      </trkpt>
      <trkpt lat="44.21622" lon="6.01882">
        <ele>994</ele>
        <time>2011-08-17T06:51:09Z</time>
      </trkpt>
      <trkpt lat="44.21605" lon="6.01941">
        <ele>1001</ele>
        <time>2011-08-17T06:51:32Z</time>
      </trkpt>
      <trkpt lat="44.21593" lon="6.01996">
        <ele>1004</ele>
        <time>2011-08-17T06:51:52Z</time>
      </trkpt>
      <trkpt lat="44.21597" lon="6.02017">
        <ele>1009</ele>
        <time>2011-08-17T06:52:01Z</time>
      </trkpt>
      <trkpt lat="44.21605" lon="6.02011">
        <ele>1009</ele>
        <time>2011-08-17T06:52:08Z</time>
      </trkpt>
      <trkpt lat="44.21614" lon="6.01985">
        <ele>1004</ele>
        <time>2011-08-17T06:52:21Z</time>
      </trkpt>
      <trkpt lat="44.2164" lon="6.01985">
        <ele>1006</ele>
        <time>2011-08-17T06:52:37Z</time>
      </trkpt>
      <trkpt lat="44.2164" lon="6.0202">
        <ele>1012</ele>
        <time>2011-08-17T06:52:52Z</time>
      </trkpt>
      <trkpt lat="44.21647" lon="6.02067">
        <ele>1016</ele>
        <time>2011-08-17T06:53:14Z</time>
      </trkpt>
      <trkpt lat="44.21642" lon="6.02112">
        <ele>1020</ele>
        <time>2011-08-17T06:53:33Z</time>
      </trkpt>
      <trkpt lat="44.21632" lon="6.02162">
        <ele>1021</ele>
        <time>2011-08-17T06:53:53Z</time>
      </trkpt>
      <trkpt lat="44.21633" lon="6.02211">
        <ele>1025</ele>
        <time>2011-08-17T06:54:13Z</time>
      </trkpt>
      <trkpt lat="44.21646" lon="6.02287">
        <ele>1032</ele>
        <time>2011-08-17T06:54:42Z</time>
      </trkpt>
      <trkpt lat="44.2165" lon="6.02347">
        <ele>1039</ele>
        <time>2011-08-17T06:55:06Z</time>
      </trkpt>
      <trkpt lat="44.21655" lon="6.02371">
        <ele>1040</ele>
        <time>2011-08-17T06:55:17Z</time>
      </trkpt>
      <trkpt lat="44.21657" lon="6.02413">
        <ele>1043</ele>
        <time>2011-08-17T06:55:36Z</time>
      </trkpt>
      <trkpt lat="44.21662" lon="6.02446">
        <ele>1046</ele>
        <time>2011-08-17T06:55:51Z</time>
      </trkpt>
      <trkpt lat="44.21666" lon="6.0249">
        <ele>1048</ele>
        <time>2011-08-17T06:56:09Z</time>
      </trkpt>
      <trkpt lat="44.21677" lon="6.02532">
        <ele>1052</ele>
        <time>2011-08-17T06:56:27Z</time>
      </trkpt>
      <trkpt lat="44.21694" lon="6.02569">
        <ele>1054</ele>
        <time>2011-08-17T06:56:48Z</time>
      </trkpt>
      <trkpt lat="44.21676" lon="6.02607">
        <ele>1061</ele>
        <time>2011-08-17T06:57:08Z</time>
      </trkpt>
      <trkpt lat="44.21675" lon="6.02653">
        <ele>1063</ele>
        <time>2011-08-17T06:57:28Z</time>
      </trkpt>
      <trkpt lat="44.21692" lon="6.02706">
        <ele>1069</ele>
        <time>2011-08-17T06:57:53Z</time>
      </trkpt>
      <trkpt lat="44.21699" lon="6.02748">
        <ele>1070</ele>
        <time>2011-08-17T06:58:10Z</time>
      </trkpt>
      <trkpt lat="44.21701" lon="6.02771">
        <ele>1074</ele>
        <time>2011-08-17T06:58:20Z</time>
      </trkpt>
      <trkpt lat="44.21711" lon="6.02765">
        <ele>1075</ele>
        <time>2011-08-17T06:58:28Z</time>
      </trkpt>
      <trkpt lat="44.21714" lon="6.02752">
        <ele>1075</ele>
        <time>2011-08-17T06:58:33Z</time>
      </trkpt>
      <trkpt lat="44.21728" lon="6.02712">
        <ele>1072</ele>
        <time>2011-08-17T06:58:50Z</time>
      </trkpt>
      <trkpt lat="44.21751" lon="6.027">
        <ele>1075</ele>
        <time>2011-08-17T06:59:05Z</time>
      </trkpt>
      <trkpt lat="44.21769" lon="6.02725">
        <ele>1076</ele>
        <time>2011-08-17T06:59:21Z</time>
      </trkpt>
      <trkpt lat="44.2178" lon="6.02746">
        <ele>1077</ele>
        <time>2011-08-17T06:59:32Z</time>
      </trkpt>
      <trkpt lat="44.21785" lon="6.02773">
        <ele>1082</ele>
        <time>2011-08-17T06:59:43Z</time>
      </trkpt>
      <trkpt lat="44.21783" lon="6.02827">
        <ele>1084</ele>
        <time>2011-08-17T07:00:04Z</time>
      </trkpt>
      <trkpt lat="44.21784" lon="6.02879">
        <ele>1092</ele>
        <time>2011-08-17T07:00:23Z</time>
      </trkpt>
      <trkpt lat="44.21786" lon="6.02909">
        <ele>1093</ele>
        <time>2011-08-17T07:00:34Z</time>
      </trkpt>
      <trkpt lat="44.21768" lon="6.02955">
        <ele>1099</ele>
        <time>2011-08-17T07:00:54Z</time>
      </trkpt>
      <trkpt lat="44.21763" lon="6.02962">
        <ele>1100</ele>
        <time>2011-08-17T07:00:58Z</time>
      </trkpt>
      <trkpt lat="44.21773" lon="6.02975">
        <ele>1101</ele>
        <time>2011-08-17T07:01:08Z</time>
      </trkpt>
      <trkpt lat="44.218" lon="6.02962">
        <ele>1102</ele>
        <time>2011-08-17T07:01:23Z</time>
      </trkpt>
      <trkpt lat="44.21806" lon="6.02961">
        <ele>1102</ele>
        <time>2011-08-17T07:01:27Z</time>
      </trkpt>
      <trkpt lat="44.2181" lon="6.02983">
        <ele>1104</ele>
        <time>2011-08-17T07:01:37Z</time>
      </trkpt>
      <trkpt lat="44.21799" lon="6.03">
        <ele>1103</ele>
        <time>2011-08-17T07:01:45Z</time>
      </trkpt>
      <trkpt lat="44.21792" lon="6.03006">
        <ele>1107</ele>
        <time>2011-08-17T07:01:49Z</time>
      </trkpt>
      <trkpt lat="44.21776" lon="6.03052">
        <ele>1108</ele>
        <time>2011-08-17T07:02:07Z</time>
      </trkpt>
      <trkpt lat="44.2179" lon="6.03085">
        <ele>1109</ele>
        <time>2011-08-17T07:02:20Z</time>
      </trkpt>
      <trkpt lat="44.21803" lon="6.0312">
        <ele>1108</ele>
        <time>2011-08-17T07:02:27Z</time>
      </trkpt>
      <trkpt lat="44.21824" lon="6.03147">
        <ele>1106</ele>
        <time>2011-08-17T07:02:33Z</time>
      </trkpt>
      <trkpt lat="44.21839" lon="6.03156">
        <ele>1108</ele>
        <time>2011-08-17T07:02:36Z</time>
      </trkpt>
      <trkpt lat="44.2185" lon="6.03176">
        <ele>1106</ele>
        <time>2011-08-17T07:02:40Z</time>
      </trkpt>
      <trkpt lat="44.21874" lon="6.03254">
        <ele>1102</ele>
        <time>2011-08-17T07:02:53Z</time>
      </trkpt>
      <trkpt lat="44.21885" lon="6.03343">
        <ele>1099</ele>
        <time>2011-08-17T07:03:06Z</time>
      </trkpt>
      <trkpt lat="44.21889" lon="6.03374">
        <ele>1098</ele>
        <time>2011-08-17T07:03:10Z</time>
      </trkpt>
      <trkpt lat="44.21889" lon="6.03422">
        <ele>1096</ele>
        <time>2011-08-17T07:03:16Z</time>
      </trkpt>
      <trkpt lat="44.21892" lon="6.03451">
        <ele>1095</ele>
        <time>2011-08-17T07:03:20Z</time>
      </trkpt>
      <trkpt lat="44.21894" lon="6.03499">
        <ele>1096</ele>
        <time>2011-08-17T07:03:26Z</time>
      </trkpt>
      <trkpt lat="44.21867" lon="6.03593">
        <ele>1091</ele>
        <time>2011-08-17T07:03:37Z</time>
      </trkpt>
      <trkpt lat="44.21862" lon="6.03605">
        <ele>1091</ele>
        <time>2011-08-17T07:03:39Z</time>
      </trkpt>
      <trkpt lat="44.21845" lon="6.03699">
        <ele>1088</ele>
        <time>2011-08-17T07:03:51Z</time>
      </trkpt>
      <trkpt lat="44.21827" lon="6.0375">
        <ele>1080</ele>
        <time>2011-08-17T07:03:58Z</time>
      </trkpt>
      <trkpt lat="44.21813" lon="6.03775">
        <ele>1073</ele>
        <time>2011-08-17T07:04:02Z</time>
      </trkpt>
      <trkpt lat="44.21816" lon="6.03807">
        <ele>1071</ele>
        <time>2011-08-17T07:04:07Z</time>
      </trkpt>
      <trkpt lat="44.21826" lon="6.03833">
        <ele>1070</ele>
        <time>2011-08-17T07:04:11Z</time>
      </trkpt>
      <trkpt lat="44.2186" lon="6.03875">
        <ele>1071</ele>
        <time>2011-08-17T07:04:18Z</time>
      </trkpt>
      <trkpt lat="44.21871" lon="6.03916">
        <ele>1069</ele>
        <time>2011-08-17T07:04:22Z</time>
      </trkpt>
      <trkpt lat="44.21878" lon="6.03964">
        <ele>1063</ele>
        <time>2011-08-17T07:04:26Z</time>
      </trkpt>
      <trkpt lat="44.21876" lon="6.03998">
        <ele>1061</ele>
        <time>2011-08-17T07:04:33Z</time>
      </trkpt>
      <trkpt lat="44.21885" lon="6.04026">
        <ele>1056</ele>
        <time>2011-08-17T07:04:38Z</time>
      </trkpt>
      <trkpt lat="44.21892" lon="6.04068">
        <ele>1054</ele>
        <time>2011-08-17T07:04:45Z</time>
      </trkpt>
      <trkpt lat="44.21908" lon="6.04091">
        <ele>1052</ele>
        <time>2011-08-17T07:04:51Z</time>
      </trkpt>
      <trkpt lat="44.21947" lon="6.04115">
        <ele>1057</ele>
        <time>2011-08-17T07:05:00Z</time>
      </trkpt>
      <trkpt lat="44.21961" lon="6.04151">
        <ele>1056</ele>
        <time>2011-08-17T07:05:06Z</time>
      </trkpt>
      <trkpt lat="44.21962" lon="6.04164">
        <ele>1056</ele>
        <time>2011-08-17T07:05:08Z</time>
      </trkpt>
      <trkpt lat="44.21972" lon="6.04203">
        <ele>1052</ele>
        <time>2011-08-17T07:05:14Z</time>
      </trkpt>
      <trkpt lat="44.21992" lon="6.0424">
        <ele>1053</ele>
        <time>2011-08-17T07:05:20Z</time>
      </trkpt>
      <trkpt lat="44.21997" lon="6.0425">
        <ele>1054</ele>
        <time>2011-08-17T07:05:22Z</time>
      </trkpt>
      <trkpt lat="44.22002" lon="6.04275">
        <ele>1060</ele>
        <time>2011-08-17T07:05:26Z</time>
      </trkpt>
      <trkpt lat="44.22011" lon="6.04324">
        <ele>1059</ele>
        <time>2011-08-17T07:05:36Z</time>
      </trkpt>
      <trkpt lat="44.22001" lon="6.044">
        <ele>1058</ele>
        <time>2011-08-17T07:05:49Z</time>
      </trkpt>
      <trkpt lat="44.21999" lon="6.04427">
        <ele>1052</ele>
        <time>2011-08-17T07:05:53Z</time>
      </trkpt>
      <trkpt lat="44.21992" lon="6.04454">
        <ele>1051</ele>
        <time>2011-08-17T07:05:58Z</time>
      </trkpt>
      <trkpt lat="44.21952" lon="6.04531">
        <ele>1054</ele>
        <time>2011-08-17T07:06:14Z</time>
      </trkpt>
      <trkpt lat="44.21937" lon="6.04567">
        <ele>1055</ele>
        <time>2011-08-17T07:06:26Z</time>
      </trkpt>
      <trkpt lat="44.21927" lon="6.04628">
        <ele>1056</ele>
        <time>2011-08-17T07:06:43Z</time>
      </trkpt>
      <trkpt lat="44.21947" lon="6.04642">
        <ele>1057</ele>
        <time>2011-08-17T07:06:54Z</time>
      </trkpt>
      <trkpt lat="44.21992" lon="6.04643">
        <ele>1059</ele>
        <time>2011-08-17T07:07:10Z</time>
      </trkpt>
      <trkpt lat="44.22023" lon="6.047">
        <ele>1064</ele>
        <time>2011-08-17T07:07:24Z</time>
      </trkpt>
      <trkpt lat="44.22076" lon="6.04825">
        <ele>1064</ele>
        <time>2011-08-17T07:07:52Z</time>
      </trkpt>
      <trkpt lat="44.22109" lon="6.049">
        <ele>1067</ele>
        <time>2011-08-17T07:08:10Z</time>
      </trkpt>
      <trkpt lat="44.22121" lon="6.04966">
        <ele>1064</ele>
        <time>2011-08-17T07:08:23Z</time>
      </trkpt>
      <trkpt lat="44.22126" lon="6.04981">
        <ele>1064</ele>
        <time>2011-08-17T07:08:26Z</time>
      </trkpt>
      <trkpt lat="44.22148" lon="6.04989">
        <ele>1066</ele>
        <time>2011-08-17T07:08:32Z</time>
      </trkpt>
      <trkpt lat="44.22156" lon="6.04987">
        <ele>1066</ele>
        <time>2011-08-17T07:08:34Z</time>
      </trkpt>
      <trkpt lat="44.22183" lon="6.05009">
        <ele>1068</ele>
        <time>2011-08-17T07:08:42Z</time>
      </trkpt>
      <trkpt lat="44.22214" lon="6.05081">
        <ele>1068</ele>
        <time>2011-08-17T07:08:58Z</time>
      </trkpt>
      <trkpt lat="44.22256" lon="6.05101">
        <ele>1070</ele>
        <time>2011-08-17T07:09:11Z</time>
      </trkpt>
      <trkpt lat="44.22306" lon="6.05124">
        <ele>1070</ele>
        <time>2011-08-17T07:09:29Z</time>
      </trkpt>
      <trkpt lat="44.22331" lon="6.0515">
        <ele>1070</ele>
        <time>2011-08-17T07:09:38Z</time>
      </trkpt>
      <trkpt lat="44.22364" lon="6.05148">
        <ele>1071</ele>
        <time>2011-08-17T07:09:46Z</time>
      </trkpt>
      <trkpt lat="44.22388" lon="6.05121">
        <ele>1072</ele>
        <time>2011-08-17T07:09:52Z</time>
      </trkpt>
      <trkpt lat="44.22421" lon="6.05129">
        <ele>1073</ele>
        <time>2011-08-17T07:09:59Z</time>
      </trkpt>
      <trkpt lat="44.22422" lon="6.05131">
        <ele>1073</ele>
        <time>2011-08-17T07:10:00Z</time>
      </trkpt>
      <trkpt lat="44.22424" lon="6.05135">
        <ele>1073</ele>
        <time>2011-08-17T07:10:02Z</time>
      </trkpt>
      <trkpt lat="44.22424" lon="6.05138">
        <ele>1073</ele>
        <time>2011-08-17T07:10:18Z</time>
      </trkpt>
      <trkpt lat="44.22429" lon="6.05128">
        <ele>1074</ele>
        <time>2011-08-17T07:10:33Z</time>
      </trkpt>
      <trkpt lat="44.22432" lon="6.05121">
        <ele>1074</ele>
        <time>2011-08-17T07:10:39Z</time>
      </trkpt>
      <trkpt lat="44.22435" lon="6.05108">
        <ele>1075</ele>
        <time>2011-08-17T07:10:53Z</time>
      </trkpt>
      <trkpt lat="44.22443" lon="6.05106">
        <ele>1075</ele>
        <time>2011-08-17T07:11:06Z</time>
      </trkpt>
      <trkpt lat="44.22455" lon="6.051">
        <ele>1076</ele>
        <time>2011-08-17T07:11:21Z</time>
      </trkpt>
      <trkpt lat="44.2246" lon="6.05103">
        <ele>1076</ele>
        <time>2011-08-17T07:11:28Z</time>
      </trkpt>
      <trkpt lat="44.22473" lon="6.05109">
        <ele>1077</ele>
        <time>2011-08-17T07:11:45Z</time>
      </trkpt>
      <trkpt lat="44.22476" lon="6.05112">
        <ele>1077</ele>
        <time>2011-08-17T07:11:49Z</time>
      </trkpt>
      <trkpt lat="44.22488" lon="6.05115">
        <ele>1077</ele>
        <time>2011-08-17T07:12:02Z</time>
      </trkpt>
      <trkpt lat="44.22502" lon="6.0512">
        <ele>1083</ele>
        <time>2011-08-17T07:12:11Z</time>
      </trkpt>
      <trkpt lat="44.2253" lon="6.05124">
        <ele>1084</ele>
        <time>2011-08-17T07:12:25Z</time>
      </trkpt>
      <trkpt lat="44.22543" lon="6.05129">
        <ele>1085</ele>
        <time>2011-08-17T07:12:35Z</time>
      </trkpt>
      <trkpt lat="44.22557" lon="6.05131">
        <ele>1085</ele>
        <time>2011-08-17T07:12:51Z</time>
      </trkpt>
      <trkpt lat="44.22572" lon="6.05133">
        <ele>1085</ele>
        <time>2011-08-17T07:12:59Z</time>
      </trkpt>
      <trkpt lat="44.22576" lon="6.05133">
        <ele>1085</ele>
        <time>2011-08-17T07:13:01Z</time>
      </trkpt>
      <trkpt lat="44.22581" lon="6.05136">
        <ele>1085</ele>
        <time>2011-08-17T07:13:04Z</time>
      </trkpt>
      <trkpt lat="44.22588" lon="6.05138">
        <ele>1090</ele>
        <time>2011-08-17T07:13:09Z</time>
      </trkpt>
      <trkpt lat="44.22602" lon="6.05134">
        <ele>1091</ele>
        <time>2011-08-17T07:13:17Z</time>
      </trkpt>
      <trkpt lat="44.22616" lon="6.0514">
        <ele>1092</ele>
        <time>2011-08-17T07:13:28Z</time>
      </trkpt>
      <trkpt lat="44.22627" lon="6.05147">
        <ele>1092</ele>
        <time>2011-08-17T07:13:43Z</time>
      </trkpt>
      <trkpt lat="44.2263" lon="6.05152">
        <ele>1092</ele>
        <time>2011-08-17T07:13:48Z</time>
      </trkpt>
      <trkpt lat="44.22631" lon="6.05158">
        <ele>1092</ele>
        <time>2011-08-17T07:14:00Z</time>
      </trkpt>
      <trkpt lat="44.22643" lon="6.05169">
        <ele>1086</ele>
        <time>2011-08-17T07:14:10Z</time>
      </trkpt>
      <trkpt lat="44.22653" lon="6.05169">
        <ele>1088</ele>
        <time>2011-08-17T07:14:14Z</time>
      </trkpt>
      <trkpt lat="44.22673" lon="6.05186">
        <ele>1091</ele>
        <time>2011-08-17T07:14:25Z</time>
      </trkpt>
      <trkpt lat="44.22704" lon="6.05192">
        <ele>1092</ele>
        <time>2011-08-17T07:14:38Z</time>
      </trkpt>
      <trkpt lat="44.22708" lon="6.05185">
        <ele>1092</ele>
        <time>2011-08-17T07:14:45Z</time>
      </trkpt>
      <trkpt lat="44.22712" lon="6.05186">
        <ele>1093</ele>
        <time>2011-08-17T07:14:51Z</time>
      </trkpt>
      <trkpt lat="44.22721" lon="6.05175">
        <ele>1094</ele>
        <time>2011-08-17T07:15:08Z</time>
      </trkpt>
      <trkpt lat="44.22725" lon="6.05172">
        <ele>1095</ele>
        <time>2011-08-17T07:15:13Z</time>
      </trkpt>
      <trkpt lat="44.22728" lon="6.05167">
        <ele>1095</ele>
        <time>2011-08-17T07:15:19Z</time>
      </trkpt>
      <trkpt lat="44.22732" lon="6.05159">
        <ele>1100</ele>
        <time>2011-08-17T07:15:28Z</time>
      </trkpt>
      <trkpt lat="44.2275" lon="6.05155">
        <ele>1100</ele>
        <time>2011-08-17T07:15:52Z</time>
      </trkpt>
      <trkpt lat="44.22753" lon="6.05157">
        <ele>1102</ele>
        <time>2011-08-17T07:16:03Z</time>
      </trkpt>
      <trkpt lat="44.22755" lon="6.0516">
        <ele>1102</ele>
        <time>2011-08-17T07:16:14Z</time>
      </trkpt>
      <trkpt lat="44.2276" lon="6.05164">
        <ele>1102</ele>
        <time>2011-08-17T07:16:17Z</time>
      </trkpt>
      <trkpt lat="44.22789" lon="6.0518">
        <ele>1101</ele>
        <time>2011-08-17T07:16:32Z</time>
      </trkpt>
      <trkpt lat="44.22819" lon="6.05196">
        <ele>1102</ele>
        <time>2011-08-17T07:16:48Z</time>
      </trkpt>
      <trkpt lat="44.22834" lon="6.05205">
        <ele>1106</ele>
        <time>2011-08-17T07:16:57Z</time>
      </trkpt>
      <trkpt lat="44.22848" lon="6.05204">
        <ele>1107</ele>
        <time>2011-08-17T07:17:05Z</time>
      </trkpt>
      <trkpt lat="44.22853" lon="6.05202">
        <ele>1107</ele>
        <time>2011-08-17T07:17:15Z</time>
      </trkpt>
      <trkpt lat="44.22856" lon="6.05202">
        <ele>1107</ele>
        <time>2011-08-17T07:17:18Z</time>
      </trkpt>
      <trkpt lat="44.22866" lon="6.05206">
        <ele>1108</ele>
        <time>2011-08-17T07:17:28Z</time>
      </trkpt>
      <trkpt lat="44.22872" lon="6.05217">
        <ele>1107</ele>
        <time>2011-08-17T07:17:37Z</time>
      </trkpt>
      <trkpt lat="44.22882" lon="6.05226">
        <ele>1108</ele>
        <time>2011-08-17T07:17:53Z</time>
      </trkpt>
      <trkpt lat="44.22914" lon="6.0525">
        <ele>1109</ele>
        <time>2011-08-17T07:18:12Z</time>
      </trkpt>
      <trkpt lat="44.22947" lon="6.05258">
        <ele>1109</ele>
        <time>2011-08-17T07:18:28Z</time>
      </trkpt>
      <trkpt lat="44.2295" lon="6.05257">
        <ele>1109</ele>
        <time>2011-08-17T07:18:29Z</time>
      </trkpt>
      <trkpt lat="44.22953" lon="6.05265">
        <ele>1109</ele>
        <time>2011-08-17T07:18:34Z</time>
      </trkpt>
      <trkpt lat="44.22973" lon="6.05296">
        <ele>1109</ele>
        <time>2011-08-17T07:18:47Z</time>
      </trkpt>
      <trkpt lat="44.2299" lon="6.05309">
        <ele>1109</ele>
        <time>2011-08-17T07:18:56Z</time>
      </trkpt>
      <trkpt lat="44.2299" lon="6.05309">
        <ele>1109</ele>
        <time>2011-08-17T07:18:57Z</time>
      </trkpt>
      <trkpt lat="44.22998" lon="6.05309">
        <ele>1109</ele>
        <time>2011-08-17T07:19:11Z</time>
      </trkpt>
      <trkpt lat="44.22999" lon="6.05309">
        <ele>1109</ele>
        <time>2011-08-17T07:19:14Z</time>
      </trkpt>
      <trkpt lat="44.23001" lon="6.05314">
        <ele>1113</ele>
        <time>2011-08-17T07:19:18Z</time>
      </trkpt>
      <trkpt lat="44.23002" lon="6.05318">
        <ele>1112</ele>
        <time>2011-08-17T07:19:21Z</time>
      </trkpt>
      <trkpt lat="44.23007" lon="6.05338">
        <ele>1110</ele>
        <time>2011-08-17T07:19:39Z</time>
      </trkpt>
      <trkpt lat="44.23009" lon="6.05355">
        <ele>1112</ele>
        <time>2011-08-17T07:19:43Z</time>
      </trkpt>
      <trkpt lat="44.23039" lon="6.05387">
        <ele>1113</ele>
        <time>2011-08-17T07:19:58Z</time>
      </trkpt>
      <trkpt lat="44.23047" lon="6.05399">
        <ele>1114</ele>
        <time>2011-08-17T07:20:08Z</time>
      </trkpt>
      <trkpt lat="44.23047" lon="6.05399">
        <ele>1114</ele>
        <time>2011-08-17T07:20:11Z</time>
      </trkpt>
      <trkpt lat="44.23048" lon="6.05421">
        <ele>1112</ele>
        <time>2011-08-17T07:20:26Z</time>
      </trkpt>
      <trkpt lat="44.23058" lon="6.0546">
        <ele>1111</ele>
        <time>2011-08-17T07:20:38Z</time>
      </trkpt>
      <trkpt lat="44.23059" lon="6.05464">
        <ele>1111</ele>
        <time>2011-08-17T07:20:39Z</time>
      </trkpt>
      <trkpt lat="44.23084" lon="6.05509">
        <ele>1115</ele>
        <time>2011-08-17T07:20:57Z</time>
      </trkpt>
      <trkpt lat="44.23104" lon="6.05526">
        <ele>1115</ele>
        <time>2011-08-17T07:21:07Z</time>
      </trkpt>
      <trkpt lat="44.23126" lon="6.05528">
        <ele>1116</ele>
        <time>2011-08-17T07:21:20Z</time>
      </trkpt>
      <trkpt lat="44.23153" lon="6.05535">
        <ele>1117</ele>
        <time>2011-08-17T07:21:32Z</time>
      </trkpt>
      <trkpt lat="44.2316" lon="6.05539">
        <ele>1117</ele>
        <time>2011-08-17T07:21:36Z</time>
      </trkpt>
      <trkpt lat="44.23176" lon="6.0555">
        <ele>1118</ele>
        <time>2011-08-17T07:21:44Z</time>
      </trkpt>
      <trkpt lat="44.23207" lon="6.05552">
        <ele>1117</ele>
        <time>2011-08-17T07:21:58Z</time>
      </trkpt>
      <trkpt lat="44.23226" lon="6.0554">
        <ele>1117</ele>
        <time>2011-08-17T07:22:02Z</time>
      </trkpt>
      <trkpt lat="44.23243" lon="6.0554">
        <ele>1117</ele>
        <time>2011-08-17T07:22:06Z</time>
      </trkpt>
      <trkpt lat="44.23255" lon="6.05538">
        <ele>1116</ele>
        <time>2011-08-17T07:22:09Z</time>
      </trkpt>
      <trkpt lat="44.23257" lon="6.05539">
        <ele>1116</ele>
        <time>2011-08-17T07:22:11Z</time>
      </trkpt>
      <trkpt lat="44.23268" lon="6.05553">
        <ele>1116</ele>
        <time>2011-08-17T07:22:18Z</time>
      </trkpt>
      <trkpt lat="44.233" lon="6.0555">
        <ele>1116</ele>
        <time>2011-08-17T07:22:29Z</time>
      </trkpt>
      <trkpt lat="44.23308" lon="6.05548">
        <ele>1116</ele>
        <time>2011-08-17T07:22:36Z</time>
      </trkpt>
      <trkpt lat="44.2331" lon="6.05548">
        <ele>1116</ele>
        <time>2011-08-17T07:22:39Z</time>
      </trkpt>
      <trkpt lat="44.23324" lon="6.05551">
        <ele>1115</ele>
        <time>2011-08-17T07:22:56Z</time>
      </trkpt>
      <trkpt lat="44.23344" lon="6.05555">
        <ele>1116</ele>
        <time>2011-08-17T07:23:07Z</time>
      </trkpt>
      <trkpt lat="44.23346" lon="6.05556">
        <ele>1116</ele>
        <time>2011-08-17T07:23:28Z</time>
      </trkpt>
      <trkpt lat="44.23346" lon="6.05557">
        <ele>1116</ele>
        <time>2011-08-17T07:23:50Z</time>
      </trkpt>
      <trkpt lat="44.23347" lon="6.05559">
        <ele>1116</ele>
        <time>2011-08-17T07:23:52Z</time>
      </trkpt>
      <trkpt lat="44.2336" lon="6.05565">
        <ele>1116</ele>
        <time>2011-08-17T07:24:05Z</time>
      </trkpt>
      <trkpt lat="44.23403" lon="6.05568">
        <ele>1116</ele>
        <time>2011-08-17T07:24:22Z</time>
      </trkpt>
      <trkpt lat="44.23441" lon="6.05571">
        <ele>1119</ele>
        <time>2011-08-17T07:24:34Z</time>
      </trkpt>
      <trkpt lat="44.23486" lon="6.05576">
        <ele>1121</ele>
        <time>2011-08-17T07:24:49Z</time>
      </trkpt>
      <trkpt lat="44.23523" lon="6.05593">
        <ele>1118</ele>
        <time>2011-08-17T07:25:07Z</time>
      </trkpt>
      <trkpt lat="44.23568" lon="6.05618">
        <ele>1118</ele>
        <time>2011-08-17T07:25:26Z</time>
      </trkpt>
      <trkpt lat="44.23638" lon="6.05647">
        <ele>1118</ele>
        <time>2011-08-17T07:25:43Z</time>
      </trkpt>
      <trkpt lat="44.23718" lon="6.05676">
        <ele>1109</ele>
        <time>2011-08-17T07:25:55Z</time>
      </trkpt>
      <trkpt lat="44.23748" lon="6.05696">
        <ele>1108</ele>
        <time>2011-08-17T07:25:59Z</time>
      </trkpt>
      <trkpt lat="44.23784" lon="6.05725">
        <ele>1106</ele>
        <time>2011-08-17T07:26:08Z</time>
      </trkpt>
      <trkpt lat="44.23789" lon="6.05728">
        <ele>1105</ele>
        <time>2011-08-17T07:26:10Z</time>
      </trkpt>
      <trkpt lat="44.23792" lon="6.05721">
        <ele>1106</ele>
        <time>2011-08-17T07:26:15Z</time>
      </trkpt>
      <trkpt lat="44.23789" lon="6.05718">
        <ele>1106</ele>
        <time>2011-08-17T07:26:21Z</time>
      </trkpt>
      <trkpt lat="44.23788" lon="6.05715">
        <ele>1106</ele>
        <time>2011-08-17T07:26:23Z</time>
      </trkpt>
      <trkpt lat="44.23789" lon="6.05708">
        <ele>1106</ele>
        <time>2011-08-17T07:26:28Z</time>
      </trkpt>
      <trkpt lat="44.23795" lon="6.05699">
        <ele>1106</ele>
        <time>2011-08-17T07:26:43Z</time>
      </trkpt>
      <trkpt lat="44.2381" lon="6.0568">
        <ele>1107</ele>
        <time>2011-08-17T07:27:01Z</time>
      </trkpt>
      <trkpt lat="44.23842" lon="6.05638">
        <ele>1107</ele>
        <time>2011-08-17T07:27:18Z</time>
      </trkpt>
      <trkpt lat="44.2388" lon="6.05585">
        <ele>1106</ele>
        <time>2011-08-17T07:27:38Z</time>
      </trkpt>
      <trkpt lat="44.23895" lon="6.05536">
        <ele>1109</ele>
        <time>2011-08-17T07:27:48Z</time>
      </trkpt>
      <trkpt lat="44.23914" lon="6.05499">
        <ele>1108</ele>
        <time>2011-08-17T07:27:54Z</time>
      </trkpt>
      <trkpt lat="44.23938" lon="6.05457">
        <ele>1107</ele>
        <time>2011-08-17T07:28:01Z</time>
      </trkpt>
      <trkpt lat="44.23965" lon="6.05411">
        <ele>1108</ele>
        <time>2011-08-17T07:28:12Z</time>
      </trkpt>
      <trkpt lat="44.23999" lon="6.05355">
        <ele>1109</ele>
        <time>2011-08-17T07:28:26Z</time>
      </trkpt>
      <trkpt lat="44.24038" lon="6.05306">
        <ele>1105</ele>
        <time>2011-08-17T07:28:41Z</time>
      </trkpt>
      <trkpt lat="44.24062" lon="6.0525">
        <ele>1106</ele>
        <time>2011-08-17T07:28:53Z</time>
      </trkpt>
      <trkpt lat="44.24066" lon="6.05239">
        <ele>1106</ele>
        <time>2011-08-17T07:28:55Z</time>
      </trkpt>
      <trkpt lat="44.24077" lon="6.05223">
        <ele>1106</ele>
        <time>2011-08-17T07:28:58Z</time>
      </trkpt>
      <trkpt lat="44.24095" lon="6.05215">
        <ele>1102</ele>
        <time>2011-08-17T07:29:02Z</time>
      </trkpt>
      <trkpt lat="44.24118" lon="6.05228">
        <ele>1102</ele>
        <time>2011-08-17T07:29:07Z</time>
      </trkpt>
      <trkpt lat="44.24206" lon="6.0529">
        <ele>1097</ele>
        <time>2011-08-17T07:29:25Z</time>
      </trkpt>
      <trkpt lat="44.24232" lon="6.05305">
        <ele>1097</ele>
        <time>2011-08-17T07:29:30Z</time>
      </trkpt>
      <trkpt lat="44.24245" lon="6.0531">
        <ele>1096</ele>
        <time>2011-08-17T07:29:33Z</time>
      </trkpt>
      <trkpt lat="44.24305" lon="6.05302">
        <ele>1096</ele>
        <time>2011-08-17T07:29:45Z</time>
      </trkpt>
      <trkpt lat="44.24372" lon="6.05281">
        <ele>1101</ele>
        <time>2011-08-17T07:30:00Z</time>
      </trkpt>
      <trkpt lat="44.24373" lon="6.05279">
        <ele>1101</ele>
        <time>2011-08-17T07:30:01Z</time>
      </trkpt>
      <trkpt lat="44.24375" lon="6.05277">
        <ele>1101</ele>
        <time>2011-08-17T07:30:03Z</time>
      </trkpt>
      <trkpt lat="44.2437" lon="6.0528">
        <ele>1101</ele>
        <time>2011-08-17T07:30:10Z</time>
      </trkpt>
      <trkpt lat="44.24373" lon="6.0533">
        <ele>1101</ele>
        <time>2011-08-17T07:30:23Z</time>
      </trkpt>
      <trkpt lat="44.24382" lon="6.05397">
        <ele>1102</ele>
        <time>2011-08-17T07:30:40Z</time>
      </trkpt>
      <trkpt lat="44.24384" lon="6.05412">
        <ele>1103</ele>
        <time>2011-08-17T07:30:44Z</time>
      </trkpt>
      <trkpt lat="44.24361" lon="6.05445">
        <ele>1103</ele>
        <time>2011-08-17T07:30:56Z</time>
      </trkpt>
      <trkpt lat="44.24343" lon="6.05464">
        <ele>1103</ele>
        <time>2011-08-17T07:31:01Z</time>
      </trkpt>
      <trkpt lat="44.24321" lon="6.05484">
        <ele>1099</ele>
        <time>2011-08-17T07:31:07Z</time>
      </trkpt>
      <trkpt lat="44.24311" lon="6.05497">
        <ele>1099</ele>
        <time>2011-08-17T07:31:10Z</time>
      </trkpt>
      <trkpt lat="44.24292" lon="6.05561">
        <ele>1101</ele>
        <time>2011-08-17T07:31:23Z</time>
      </trkpt>
      <trkpt lat="44.24271" lon="6.0564">
        <ele>1105</ele>
        <time>2011-08-17T07:31:43Z</time>
      </trkpt>
      <trkpt lat="44.24267" lon="6.05713">
        <ele>1108</ele>
        <time>2011-08-17T07:32:00Z</time>
      </trkpt>
      <trkpt lat="44.24247" lon="6.05753">
        <ele>1107</ele>
        <time>2011-08-17T07:32:11Z</time>
      </trkpt>
      <trkpt lat="44.24242" lon="6.05761">
        <ele>1106</ele>
        <time>2011-08-17T07:32:13Z</time>
      </trkpt>
      <trkpt lat="44.24212" lon="6.05828">
        <ele>1106</ele>
        <time>2011-08-17T07:32:28Z</time>
      </trkpt>
      <trkpt lat="44.24183" lon="6.05899">
        <ele>1108</ele>
        <time>2011-08-17T07:32:46Z</time>
      </trkpt>
      <trkpt lat="44.24163" lon="6.05967">
        <ele>1111</ele>
        <time>2011-08-17T07:33:06Z</time>
      </trkpt>
      <trkpt lat="44.24165" lon="6.06024">
        <ele>1113</ele>
        <time>2011-08-17T07:33:23Z</time>
      </trkpt>
      <trkpt lat="44.24161" lon="6.06081">
        <ele>1116</ele>
        <time>2011-08-17T07:33:39Z</time>
      </trkpt>
      <trkpt lat="44.24144" lon="6.06166">
        <ele>1117</ele>
        <time>2011-08-17T07:33:57Z</time>
      </trkpt>
      <trkpt lat="44.24128" lon="6.06253">
        <ele>1118</ele>
        <time>2011-08-17T07:34:12Z</time>
      </trkpt>
      <trkpt lat="44.2411" lon="6.06353">
        <ele>1120</ele>
        <time>2011-08-17T07:34:28Z</time>
      </trkpt>
      <trkpt lat="44.24108" lon="6.06359">
        <ele>1120</ele>
        <time>2011-08-17T07:34:29Z</time>
      </trkpt>
      <trkpt lat="44.24102" lon="6.06377">
        <ele>1120</ele>
        <time>2011-08-17T07:34:32Z</time>
      </trkpt>
      <trkpt lat="44.24074" lon="6.06483">
        <ele>1118</ele>
        <time>2011-08-17T07:34:49Z</time>
      </trkpt>
      <trkpt lat="44.2405" lon="6.06542">
        <ele>1120</ele>
        <time>2011-08-17T07:35:02Z</time>
      </trkpt>
      <trkpt lat="44.24042" lon="6.06579">
        <ele>1120</ele>
        <time>2011-08-17T07:35:09Z</time>
      </trkpt>
      <trkpt lat="44.2403" lon="6.06676">
        <ele>1124</ele>
        <time>2011-08-17T07:35:29Z</time>
      </trkpt>
      <trkpt lat="44.24029" lon="6.06723">
        <ele>1124</ele>
        <time>2011-08-17T07:35:41Z</time>
      </trkpt>
      <trkpt lat="44.24031" lon="6.06809">
        <ele>1125</ele>
        <time>2011-08-17T07:35:57Z</time>
      </trkpt>
      <trkpt lat="44.24033" lon="6.06913">
        <ele>1128</ele>
        <time>2011-08-17T07:36:17Z</time>
      </trkpt>
      <trkpt lat="44.24035" lon="6.06963">
        <ele>1129</ele>
        <time>2011-08-17T07:36:29Z</time>
      </trkpt>
      <trkpt lat="44.24034" lon="6.07033">
        <ele>1131</ele>
        <time>2011-08-17T07:36:46Z</time>
      </trkpt>
      <trkpt lat="44.24008" lon="6.07093">
        <ele>1132</ele>
        <time>2011-08-17T07:37:03Z</time>
      </trkpt>
      <trkpt lat="44.23984" lon="6.07169">
        <ele>1136</ele>
        <time>2011-08-17T07:37:22Z</time>
      </trkpt>
      <trkpt lat="44.23965" lon="6.07267">
        <ele>1140</ele>
        <time>2011-08-17T07:37:44Z</time>
      </trkpt>
      <trkpt lat="44.23959" lon="6.07308">
        <ele>1141</ele>
        <time>2011-08-17T07:37:58Z</time>
      </trkpt>
      <trkpt lat="44.23965" lon="6.07342">
        <ele>1143</ele>
        <time>2011-08-17T07:38:09Z</time>
      </trkpt>
      <trkpt lat="44.23958" lon="6.07409">
        <ele>1143</ele>
        <time>2011-08-17T07:38:24Z</time>
      </trkpt>
      <trkpt lat="44.23949" lon="6.07495">
        <ele>1144</ele>
        <time>2011-08-17T07:38:42Z</time>
      </trkpt>
      <trkpt lat="44.23944" lon="6.07591">
        <ele>1148</ele>
        <time>2011-08-17T07:39:03Z</time>
      </trkpt>
      <trkpt lat="44.23932" lon="6.07662">
        <ele>1148</ele>
        <time>2011-08-17T07:39:20Z</time>
      </trkpt>
      <trkpt lat="44.23917" lon="6.07715">
        <ele>1147</ele>
        <time>2011-08-17T07:39:34Z</time>
      </trkpt>
      <trkpt lat="44.23896" lon="6.07793">
        <ele>1149</ele>
        <time>2011-08-17T07:39:52Z</time>
      </trkpt>
      <trkpt lat="44.23891" lon="6.07816">
        <ele>1149</ele>
        <time>2011-08-17T07:39:57Z</time>
      </trkpt>
      <trkpt lat="44.23875" lon="6.0788">
        <ele>1142</ele>
        <time>2011-08-17T07:40:11Z</time>
      </trkpt>
      <trkpt lat="44.23872" lon="6.07887">
        <ele>1142</ele>
        <time>2011-08-17T07:40:16Z</time>
      </trkpt>
      <trkpt lat="44.23876" lon="6.07882">
        <ele>1142</ele>
        <time>2011-08-17T07:40:23Z</time>
      </trkpt>
      <trkpt lat="44.23896" lon="6.07911">
        <ele>1139</ele>
        <time>2011-08-17T07:40:32Z</time>
      </trkpt>
      <trkpt lat="44.23916" lon="6.07932">
        <ele>1131</ele>
        <time>2011-08-17T07:40:38Z</time>
      </trkpt>
      <trkpt lat="44.23919" lon="6.07945">
        <ele>1129</ele>
        <time>2011-08-17T07:40:46Z</time>
      </trkpt>
      <trkpt lat="44.2392" lon="6.07945">
        <ele>1129</ele>
        <time>2011-08-17T07:41:15Z</time>
      </trkpt>
      <trkpt lat="44.23917" lon="6.07944">
        <ele>1129</ele>
        <time>2011-08-17T07:47:38Z</time>
      </trkpt>
      <trkpt lat="44.23913" lon="6.07945">
        <ele>1129</ele>
        <time>2011-08-17T07:47:53Z</time>
      </trkpt>
      <trkpt lat="44.23902" lon="6.07943">
        <ele>1129</ele>
        <time>2011-08-17T07:48:03Z</time>
      </trkpt>
      <trkpt lat="44.2388" lon="6.07952">
        <ele>1128</ele>
        <time>2011-08-17T07:48:07Z</time>
      </trkpt>
      <trkpt lat="44.23851" lon="6.07957">
        <ele>1129</ele>
        <time>2011-08-17T07:48:12Z</time>
      </trkpt>
      <trkpt lat="44.23838" lon="6.07981">
        <ele>1126</ele>
        <time>2011-08-17T07:48:17Z</time>
      </trkpt>
      <trkpt lat="44.23836" lon="6.08008">
        <ele>1120</ele>
        <time>2011-08-17T07:48:20Z</time>
      </trkpt>
      <trkpt lat="44.23832" lon="6.08042">
        <ele>1122</ele>
        <time>2011-08-17T07:48:23Z</time>
      </trkpt>
      <trkpt lat="44.23826" lon="6.08062">
        <ele>1119</ele>
        <time>2011-08-17T07:48:25Z</time>
      </trkpt>
      <trkpt lat="44.23816" lon="6.08089">
        <ele>1111</ele>
        <time>2011-08-17T07:48:28Z</time>
      </trkpt>
      <trkpt lat="44.23811" lon="6.08124">
        <ele>1109</ele>
        <time>2011-08-17T07:48:33Z</time>
      </trkpt>
      <trkpt lat="44.23777" lon="6.0817">
        <ele>1094</ele>
        <time>2011-08-17T07:48:41Z</time>
      </trkpt>
      <trkpt lat="44.2375" lon="6.08195">
        <ele>1102</ele>
        <time>2011-08-17T07:48:46Z</time>
      </trkpt>
      <trkpt lat="44.23716" lon="6.08228">
        <ele>1093</ele>
        <time>2011-08-17T07:48:56Z</time>
      </trkpt>
      <trkpt lat="44.23679" lon="6.08247">
        <ele>1084</ele>
        <time>2011-08-17T07:49:09Z</time>
      </trkpt>
      <trkpt lat="44.23675" lon="6.08247">
        <ele>1082</ele>
        <time>2011-08-17T07:49:14Z</time>
      </trkpt>
      <trkpt lat="44.23669" lon="6.08255">
        <ele>1071</ele>
        <time>2011-08-17T07:49:22Z</time>
      </trkpt>
      <trkpt lat="44.23635" lon="6.08271">
        <ele>1073</ele>
        <time>2011-08-17T07:49:33Z</time>
      </trkpt>
      <trkpt lat="44.23602" lon="6.08286">
        <ele>1075</ele>
        <time>2011-08-17T07:49:43Z</time>
      </trkpt>
      <trkpt lat="44.23571" lon="6.08288">
        <ele>1081</ele>
        <time>2011-08-17T07:49:54Z</time>
      </trkpt>
      <trkpt lat="44.23548" lon="6.08287">
        <ele>1081</ele>
        <time>2011-08-17T07:50:06Z</time>
      </trkpt>
      <trkpt lat="44.23517" lon="6.08289">
        <ele>1080</ele>
        <time>2011-08-17T07:50:22Z</time>
      </trkpt>
      <trkpt lat="44.23495" lon="6.08287">
        <ele>1075</ele>
        <time>2011-08-17T07:50:38Z</time>
      </trkpt>
      <trkpt lat="44.23478" lon="6.08274">
        <ele>1077</ele>
        <time>2011-08-17T07:50:50Z</time>
      </trkpt>
      <trkpt lat="44.23452" lon="6.08254">
        <ele>1075</ele>
        <time>2011-08-17T07:51:01Z</time>
      </trkpt>
      <trkpt lat="44.23422" lon="6.08232">
        <ele>1091</ele>
        <time>2011-08-17T07:51:15Z</time>
      </trkpt>
      <trkpt lat="44.23404" lon="6.08221">
        <ele>1086</ele>
        <time>2011-08-17T07:51:22Z</time>
      </trkpt>
      <trkpt lat="44.23379" lon="6.08213">
        <ele>1087</ele>
        <time>2011-08-17T07:51:27Z</time>
      </trkpt>
      <trkpt lat="44.2335" lon="6.08213">
        <ele>1085</ele>
        <time>2011-08-17T07:51:37Z</time>
      </trkpt>
      <trkpt lat="44.23323" lon="6.08222">
        <ele>1072</ele>
        <time>2011-08-17T07:51:47Z</time>
      </trkpt>
      <trkpt lat="44.23298" lon="6.08223">
        <ele>1070</ele>
        <time>2011-08-17T07:51:54Z</time>
      </trkpt>
      <trkpt lat="44.23282" lon="6.0821">
        <ele>1069</ele>
        <time>2011-08-17T07:52:00Z</time>
      </trkpt>
      <trkpt lat="44.2327" lon="6.08171">
        <ele>1072</ele>
        <time>2011-08-17T07:52:11Z</time>
      </trkpt>
      <trkpt lat="44.23258" lon="6.08139">
        <ele>1086</ele>
        <time>2011-08-17T07:52:22Z</time>
      </trkpt>
      <trkpt lat="44.23237" lon="6.08103">
        <ele>1076</ele>
        <time>2011-08-17T07:52:32Z</time>
      </trkpt>
      <trkpt lat="44.23223" lon="6.08094">
        <ele>1075</ele>
        <time>2011-08-17T07:52:38Z</time>
      </trkpt>
      <trkpt lat="44.23199" lon="6.08075">
        <ele>1081</ele>
        <time>2011-08-17T07:52:47Z</time>
      </trkpt>
      <trkpt lat="44.23189" lon="6.08073">
        <ele>1078</ele>
        <time>2011-08-17T07:52:50Z</time>
      </trkpt>
      <trkpt lat="44.23175" lon="6.08065">
        <ele>1077</ele>
        <time>2011-08-17T07:52:54Z</time>
      </trkpt>
      <trkpt lat="44.23165" lon="6.08054">
        <ele>1068</ele>
        <time>2011-08-17T07:52:59Z</time>
      </trkpt>
      <trkpt lat="44.23155" lon="6.08064">
        <ele>1067</ele>
        <time>2011-08-17T07:53:07Z</time>
      </trkpt>
      <trkpt lat="44.23127" lon="6.08056">
        <ele>1065</ele>
        <time>2011-08-17T07:53:17Z</time>
      </trkpt>
      <trkpt lat="44.23117" lon="6.0805">
        <ele>1065</ele>
        <time>2011-08-17T07:53:22Z</time>
      </trkpt>
      <trkpt lat="44.23079" lon="6.08029">
        <ele>1056</ele>
        <time>2011-08-17T07:53:33Z</time>
      </trkpt>
      <trkpt lat="44.23074" lon="6.08019">
        <ele>1059</ele>
        <time>2011-08-17T07:53:37Z</time>
      </trkpt>
      <trkpt lat="44.2307" lon="6.08016">
        <ele>1059</ele>
        <time>2011-08-17T07:53:39Z</time>
      </trkpt>
      <trkpt lat="44.23059" lon="6.0801">
        <ele>1057</ele>
        <time>2011-08-17T07:53:48Z</time>
      </trkpt>
      <trkpt lat="44.23036" lon="6.08004">
        <ele>1054</ele>
        <time>2011-08-17T07:54:00Z</time>
      </trkpt>
      <trkpt lat="44.23013" lon="6.07991">
        <ele>1064</ele>
        <time>2011-08-17T07:54:10Z</time>
      </trkpt>
      <trkpt lat="44.22997" lon="6.0797">
        <ele>1061</ele>
        <time>2011-08-17T07:54:18Z</time>
      </trkpt>
      <trkpt lat="44.22978" lon="6.07977">
        <ele>1059</ele>
        <time>2011-08-17T07:54:25Z</time>
      </trkpt>
      <trkpt lat="44.22964" lon="6.07965">
        <ele>1060</ele>
        <time>2011-08-17T07:54:31Z</time>
      </trkpt>
      <trkpt lat="44.22956" lon="6.07958">
        <ele>1061</ele>
        <time>2011-08-17T07:54:33Z</time>
      </trkpt>
      <trkpt lat="44.22942" lon="6.07954">
        <ele>1060</ele>
        <time>2011-08-17T07:54:37Z</time>
      </trkpt>
      <trkpt lat="44.22934" lon="6.07954">
        <ele>1060</ele>
        <time>2011-08-17T07:54:39Z</time>
      </trkpt>
      <trkpt lat="44.22924" lon="6.07954">
        <ele>1060</ele>
        <time>2011-08-17T07:54:43Z</time>
      </trkpt>
      <trkpt lat="44.22895" lon="6.07963">
        <ele>1053</ele>
        <time>2011-08-17T07:54:55Z</time>
      </trkpt>
      <trkpt lat="44.22887" lon="6.07961">
        <ele>1054</ele>
        <time>2011-08-17T07:54:59Z</time>
      </trkpt>
      <trkpt lat="44.2287" lon="6.07971">
        <ele>1052</ele>
        <time>2011-08-17T07:55:09Z</time>
      </trkpt>
      <trkpt lat="44.22828" lon="6.07974">
        <ele>1052</ele>
        <time>2011-08-17T07:55:20Z</time>
      </trkpt>
      <trkpt lat="44.22812" lon="6.07978">
        <ele>1052</ele>
        <time>2011-08-17T07:55:25Z</time>
      </trkpt>
      <trkpt lat="44.2279" lon="6.07991">
        <ele>1053</ele>
        <time>2011-08-17T07:55:30Z</time>
      </trkpt>
      <trkpt lat="44.22755" lon="6.08026">
        <ele>1032</ele>
        <time>2011-08-17T07:55:41Z</time>
      </trkpt>
      <trkpt lat="44.22749" lon="6.08032">
        <ele>1030</ele>
        <time>2011-08-17T07:55:43Z</time>
      </trkpt>
      <trkpt lat="44.22729" lon="6.08036">
        <ele>1027</ele>
        <time>2011-08-17T07:55:48Z</time>
      </trkpt>
      <trkpt lat="44.22707" lon="6.08042">
        <ele>1025</ele>
        <time>2011-08-17T07:55:54Z</time>
      </trkpt>
      <trkpt lat="44.22708" lon="6.08049">
        <ele>1024</ele>
        <time>2011-08-17T07:56:01Z</time>
      </trkpt>
      <trkpt lat="44.22707" lon="6.08052">
        <ele>1023</ele>
        <time>2011-08-17T07:56:12Z</time>
      </trkpt>
      <trkpt lat="44.22679" lon="6.08036">
        <ele>1025</ele>
        <time>2011-08-17T07:56:23Z</time>
      </trkpt>
      <trkpt lat="44.22663" lon="6.08022">
        <ele>1019</ele>
        <time>2011-08-17T07:56:32Z</time>
      </trkpt>
      <trkpt lat="44.22643" lon="6.08015">
        <ele>1017</ele>
        <time>2011-08-17T07:56:37Z</time>
      </trkpt>
      <trkpt lat="44.22627" lon="6.08015">
        <ele>1013</ele>
        <time>2011-08-17T07:56:41Z</time>
      </trkpt>
      <trkpt lat="44.22615" lon="6.08009">
        <ele>1011</ele>
        <time>2011-08-17T07:56:44Z</time>
      </trkpt>
      <trkpt lat="44.22607" lon="6.07998">
        <ele>1019</ele>
        <time>2011-08-17T07:56:56Z</time>
      </trkpt>
      <trkpt lat="44.22594" lon="6.0798">
        <ele>1019</ele>
        <time>2011-08-17T07:57:28Z</time>
      </trkpt>
      <trkpt lat="44.22582" lon="6.07962">
        <ele>1006</ele>
        <time>2011-08-17T07:57:32Z</time>
      </trkpt>
      <trkpt lat="44.22545" lon="6.07934">
        <ele>1006</ele>
        <time>2011-08-17T07:57:43Z</time>
      </trkpt>
      <trkpt lat="44.22534" lon="6.07914">
        <ele>1016</ele>
        <time>2011-08-17T07:57:48Z</time>
      </trkpt>
      <trkpt lat="44.22525" lon="6.07912">
        <ele>1014</ele>
        <time>2011-08-17T07:57:51Z</time>
      </trkpt>
      <trkpt lat="44.22519" lon="6.07906">
        <ele>1013</ele>
        <time>2011-08-17T07:57:55Z</time>
      </trkpt>
      <trkpt lat="44.22504" lon="6.07902">
        <ele>1010</ele>
        <time>2011-08-17T07:58:02Z</time>
      </trkpt>
      <trkpt lat="44.22485" lon="6.07887">
        <ele>1004</ele>
        <time>2011-08-17T07:58:11Z</time>
      </trkpt>
      <trkpt lat="44.22472" lon="6.07888">
        <ele>1003</ele>
        <time>2011-08-17T07:58:15Z</time>
      </trkpt>
      <trkpt lat="44.22463" lon="6.07884">
        <ele>1003</ele>
        <time>2011-08-17T07:58:19Z</time>
      </trkpt>
      <trkpt lat="44.22425" lon="6.07879">
        <ele>1000</ele>
        <time>2011-08-17T07:58:35Z</time>
      </trkpt>
      <trkpt lat="44.22419" lon="6.0788">
        <ele>1000</ele>
        <time>2011-08-17T07:58:37Z</time>
      </trkpt>
      <trkpt lat="44.22414" lon="6.07885">
        <ele>988</ele>
        <time>2011-08-17T07:58:39Z</time>
      </trkpt>
      <trkpt lat="44.22403" lon="6.07888">
        <ele>987</ele>
        <time>2011-08-17T07:58:42Z</time>
      </trkpt>
      <trkpt lat="44.22364" lon="6.0789">
        <ele>983</ele>
        <time>2011-08-17T07:58:52Z</time>
      </trkpt>
      <trkpt lat="44.2236" lon="6.07893">
        <ele>982</ele>
        <time>2011-08-17T07:58:54Z</time>
      </trkpt>
      <trkpt lat="44.22371" lon="6.079">
        <ele>983</ele>
        <time>2011-08-17T07:59:05Z</time>
      </trkpt>
      <trkpt lat="44.22367" lon="6.07902">
        <ele>982</ele>
        <time>2011-08-17T07:59:18Z</time>
      </trkpt>
      <trkpt lat="44.22366" lon="6.07903">
        <ele>982</ele>
        <time>2011-08-17T07:59:20Z</time>
      </trkpt>
      <trkpt lat="44.22354" lon="6.07908">
        <ele>979</ele>
        <time>2011-08-17T07:59:26Z</time>
      </trkpt>
      <trkpt lat="44.2233" lon="6.07915">
        <ele>969</ele>
        <time>2011-08-17T07:59:37Z</time>
      </trkpt>
      <trkpt lat="44.22329" lon="6.07917">
        <ele>967</ele>
        <time>2011-08-17T07:59:42Z</time>
      </trkpt>
      <trkpt lat="44.22322" lon="6.07924">
        <ele>964</ele>
        <time>2011-08-17T07:59:55Z</time>
      </trkpt>
      <trkpt lat="44.22318" lon="6.07929">
        <ele>963</ele>
        <time>2011-08-17T07:59:58Z</time>
      </trkpt>
      <trkpt lat="44.22315" lon="6.07935">
        <ele>961</ele>
        <time>2011-08-17T08:00:00Z</time>
      </trkpt>
      <trkpt lat="44.22302" lon="6.07943">
        <ele>959</ele>
        <time>2011-08-17T08:00:04Z</time>
      </trkpt>
      <trkpt lat="44.22295" lon="6.07954">
        <ele>958</ele>
        <time>2011-08-17T08:00:09Z</time>
      </trkpt>
      <trkpt lat="44.22289" lon="6.07962">
        <ele>957</ele>
        <time>2011-08-17T08:00:12Z</time>
      </trkpt>
      <trkpt lat="44.22272" lon="6.07987">
        <ele>956</ele>
        <time>2011-08-17T08:00:19Z</time>
      </trkpt>
      <trkpt lat="44.22273" lon="6.08003">
        <ele>950</ele>
        <time>2011-08-17T08:00:23Z</time>
      </trkpt>
      <trkpt lat="44.22275" lon="6.08014">
        <ele>949</ele>
        <time>2011-08-17T08:00:26Z</time>
      </trkpt>
      <trkpt lat="44.22291" lon="6.08007">
        <ele>949</ele>
        <time>2011-08-17T08:00:34Z</time>
      </trkpt>
      <trkpt lat="44.22324" lon="6.07994">
        <ele>956</ele>
        <time>2011-08-17T08:00:48Z</time>
      </trkpt>
      <trkpt lat="44.22337" lon="6.0799">
        <ele>959</ele>
        <time>2011-08-17T08:00:53Z</time>
      </trkpt>
      <trkpt lat="44.22361" lon="6.08012">
        <ele>954</ele>
        <time>2011-08-17T08:01:04Z</time>
      </trkpt>
      <trkpt lat="44.22381" lon="6.08023">
        <ele>954</ele>
        <time>2011-08-17T08:01:15Z</time>
      </trkpt>
      <trkpt lat="44.22404" lon="6.08049">
        <ele>953</ele>
        <time>2011-08-17T08:01:28Z</time>
      </trkpt>
      <trkpt lat="44.22414" lon="6.08051">
        <ele>953</ele>
        <time>2011-08-17T08:01:33Z</time>
      </trkpt>
      <trkpt lat="44.2243" lon="6.08062">
        <ele>961</ele>
        <time>2011-08-17T08:01:43Z</time>
      </trkpt>
      <trkpt lat="44.22432" lon="6.08075">
        <ele>959</ele>
        <time>2011-08-17T08:01:47Z</time>
      </trkpt>
      <trkpt lat="44.22439" lon="6.08084">
        <ele>955</ele>
        <time>2011-08-17T08:01:51Z</time>
      </trkpt>
      <trkpt lat="44.22444" lon="6.08089">
        <ele>955</ele>
        <time>2011-08-17T08:01:53Z</time>
      </trkpt>
      <trkpt lat="44.2245" lon="6.08108">
        <ele>955</ele>
        <time>2011-08-17T08:02:00Z</time>
      </trkpt>
      <trkpt lat="44.22458" lon="6.0812">
        <ele>956</ele>
        <time>2011-08-17T08:02:04Z</time>
      </trkpt>
      <trkpt lat="44.22456" lon="6.08147">
        <ele>953</ele>
        <time>2011-08-17T08:02:11Z</time>
      </trkpt>
      <trkpt lat="44.22462" lon="6.08161">
        <ele>954</ele>
        <time>2011-08-17T08:02:15Z</time>
      </trkpt>
      <trkpt lat="44.22466" lon="6.08175">
        <ele>946</ele>
        <time>2011-08-17T08:02:19Z</time>
      </trkpt>
      <trkpt lat="44.22476" lon="6.08186">
        <ele>947</ele>
        <time>2011-08-17T08:02:22Z</time>
      </trkpt>
      <trkpt lat="44.22497" lon="6.08214">
        <ele>945</ele>
        <time>2011-08-17T08:02:29Z</time>
      </trkpt>
      <trkpt lat="44.22502" lon="6.08235">
        <ele>954</ele>
        <time>2011-08-17T08:02:34Z</time>
      </trkpt>
      <trkpt lat="44.22519" lon="6.08273">
        <ele>947</ele>
        <time>2011-08-17T08:02:43Z</time>
      </trkpt>
      <trkpt lat="44.22531" lon="6.08294">
        <ele>946</ele>
        <time>2011-08-17T08:02:47Z</time>
      </trkpt>
      <trkpt lat="44.22541" lon="6.08306">
        <ele>946</ele>
        <time>2011-08-17T08:02:51Z</time>
      </trkpt>
      <trkpt lat="44.22545" lon="6.08314">
        <ele>945</ele>
        <time>2011-08-17T08:02:53Z</time>
      </trkpt>
      <trkpt lat="44.22574" lon="6.08327">
        <ele>944</ele>
        <time>2011-08-17T08:03:02Z</time>
      </trkpt>
      <trkpt lat="44.22597" lon="6.08332">
        <ele>946</ele>
        <time>2011-08-17T08:03:11Z</time>
      </trkpt>
      <trkpt lat="44.22623" lon="6.08328">
        <ele>948</ele>
        <time>2011-08-17T08:03:19Z</time>
      </trkpt>
      <trkpt lat="44.22652" lon="6.08332">
        <ele>944</ele>
        <time>2011-08-17T08:03:27Z</time>
      </trkpt>
      <trkpt lat="44.22673" lon="6.0835">
        <ele>933</ele>
        <time>2011-08-17T08:03:35Z</time>
      </trkpt>
      <trkpt lat="44.22676" lon="6.08361">
        <ele>930</ele>
        <time>2011-08-17T08:03:39Z</time>
      </trkpt>
      <trkpt lat="44.22675" lon="6.0837">
        <ele>929</ele>
        <time>2011-08-17T08:03:52Z</time>
      </trkpt>
      <trkpt lat="44.22679" lon="6.08384">
        <ele>926</ele>
        <time>2011-08-17T08:04:07Z</time>
      </trkpt>
      <trkpt lat="44.22678" lon="6.08387">
        <ele>925</ele>
        <time>2011-08-17T08:04:09Z</time>
      </trkpt>
      <trkpt lat="44.22677" lon="6.08405">
        <ele>921</ele>
        <time>2011-08-17T08:04:20Z</time>
      </trkpt>
      <trkpt lat="44.22678" lon="6.08412">
        <ele>920</ele>
        <time>2011-08-17T08:04:23Z</time>
      </trkpt>
      <trkpt lat="44.22677" lon="6.0843">
        <ele>911</ele>
        <time>2011-08-17T08:04:34Z</time>
      </trkpt>
      <trkpt lat="44.22673" lon="6.08436">
        <ele>910</ele>
        <time>2011-08-17T08:04:50Z</time>
      </trkpt>
      <trkpt lat="44.22668" lon="6.0845">
        <ele>908</ele>
        <time>2011-08-17T08:05:09Z</time>
      </trkpt>
      <trkpt lat="44.22667" lon="6.08455">
        <ele>907</ele>
        <time>2011-08-17T08:05:16Z</time>
      </trkpt>
      <trkpt lat="44.22664" lon="6.08463">
        <ele>907</ele>
        <time>2011-08-17T08:05:25Z</time>
      </trkpt>
      <trkpt lat="44.2266" lon="6.08486">
        <ele>902</ele>
        <time>2011-08-17T08:05:44Z</time>
      </trkpt>
      <trkpt lat="44.22655" lon="6.08495">
        <ele>901</ele>
        <time>2011-08-17T08:05:59Z</time>
      </trkpt>
      <trkpt lat="44.22654" lon="6.08496">
        <ele>901</ele>
        <time>2011-08-17T08:06:00Z</time>
      </trkpt>
      <trkpt lat="44.22652" lon="6.08504">
        <ele>893</ele>
        <time>2011-08-17T08:06:10Z</time>
      </trkpt>
      <trkpt lat="44.22647" lon="6.0852">
        <ele>891</ele>
        <time>2011-08-17T08:06:26Z</time>
      </trkpt>
      <trkpt lat="44.2264" lon="6.08549">
        <ele>886</ele>
        <time>2011-08-17T08:06:38Z</time>
      </trkpt>
      <trkpt lat="44.22636" lon="6.08588">
        <ele>866</ele>
        <time>2011-08-17T08:06:51Z</time>
      </trkpt>
      <trkpt lat="44.22634" lon="6.08605">
        <ele>864</ele>
        <time>2011-08-17T08:07:03Z</time>
      </trkpt>
      <trkpt lat="44.22635" lon="6.08614">
        <ele>863</ele>
        <time>2011-08-17T08:07:15Z</time>
      </trkpt>
      <trkpt lat="44.2264" lon="6.0862">
        <ele>862</ele>
        <time>2011-08-17T08:07:28Z</time>
      </trkpt>
      <trkpt lat="44.22639" lon="6.08627">
        <ele>861</ele>
        <time>2011-08-17T08:07:43Z</time>
      </trkpt>
      <trkpt lat="44.22639" lon="6.08631">
        <ele>860</ele>
        <time>2011-08-17T08:07:55Z</time>
      </trkpt>
      <trkpt lat="44.22644" lon="6.0864">
        <ele>858</ele>
        <time>2011-08-17T08:08:11Z</time>
      </trkpt>
      <trkpt lat="44.22647" lon="6.08643">
        <ele>857</ele>
        <time>2011-08-17T08:08:26Z</time>
      </trkpt>
      <trkpt lat="44.2265" lon="6.08643">
        <ele>857</ele>
        <time>2011-08-17T08:08:35Z</time>
      </trkpt>
      <trkpt lat="44.22653" lon="6.08646">
        <ele>856</ele>
        <time>2011-08-17T08:08:44Z</time>
      </trkpt>
      <trkpt lat="44.22651" lon="6.08649">
        <ele>856</ele>
        <time>2011-08-17T08:08:55Z</time>
      </trkpt>
      <trkpt lat="44.22636" lon="6.08663">
        <ele>856</ele>
        <time>2011-08-17T08:09:04Z</time>
      </trkpt>
      <trkpt lat="44.22636" lon="6.08665">
        <ele>855</ele>
        <time>2011-08-17T08:09:12Z</time>
      </trkpt>
      <trkpt lat="44.22642" lon="6.08663">
        <ele>855</ele>
        <time>2011-08-17T08:09:20Z</time>
      </trkpt>
      <trkpt lat="44.2265" lon="6.08663">
        <ele>853</ele>
        <time>2011-08-17T08:09:33Z</time>
      </trkpt>
      <trkpt lat="44.2266" lon="6.08666">
        <ele>850</ele>
        <time>2011-08-17T08:09:42Z</time>
      </trkpt>
      <trkpt lat="44.22659" lon="6.08668">
        <ele>843</ele>
        <time>2011-08-17T08:09:54Z</time>
      </trkpt>
      <trkpt lat="44.2265" lon="6.0868">
        <ele>838</ele>
        <time>2011-08-17T08:10:00Z</time>
      </trkpt>
      <trkpt lat="44.22642" lon="6.08696">
        <ele>834</ele>
        <time>2011-08-17T08:10:05Z</time>
      </trkpt>
      <trkpt lat="44.22636" lon="6.08699">
        <ele>833</ele>
        <time>2011-08-17T08:10:11Z</time>
      </trkpt>
      <trkpt lat="44.22619" lon="6.08701">
        <ele>833</ele>
        <time>2011-08-17T08:10:19Z</time>
      </trkpt>
      <trkpt lat="44.22602" lon="6.08694">
        <ele>835</ele>
        <time>2011-08-17T08:10:29Z</time>
      </trkpt>
      <trkpt lat="44.22599" lon="6.08691">
        <ele>835</ele>
        <time>2011-08-17T08:10:32Z</time>
      </trkpt>
      <trkpt lat="44.22572" lon="6.08686">
        <ele>835</ele>
        <time>2011-08-17T08:10:41Z</time>
      </trkpt>
      <trkpt lat="44.22567" lon="6.08698">
        <ele>831</ele>
        <time>2011-08-17T08:10:44Z</time>
      </trkpt>
      <trkpt lat="44.22562" lon="6.08714">
        <ele>827</ele>
        <time>2011-08-17T08:10:46Z</time>
      </trkpt>
      <trkpt lat="44.22556" lon="6.08744">
        <ele>821</ele>
        <time>2011-08-17T08:10:50Z</time>
      </trkpt>
      <trkpt lat="44.22547" lon="6.08761">
        <ele>799</ele>
        <time>2011-08-17T08:10:56Z</time>
      </trkpt>
      <trkpt lat="44.22541" lon="6.08756">
        <ele>800</ele>
        <time>2011-08-17T08:11:04Z</time>
      </trkpt>
      <trkpt lat="44.22532" lon="6.08757">
        <ele>800</ele>
        <time>2011-08-17T08:11:08Z</time>
      </trkpt>
      <trkpt lat="44.22517" lon="6.08768">
        <ele>800</ele>
        <time>2011-08-17T08:11:12Z</time>
      </trkpt>
      <trkpt lat="44.225" lon="6.08784">
        <ele>787</ele>
        <time>2011-08-17T08:11:17Z</time>
      </trkpt>
      <trkpt lat="44.22494" lon="6.08791">
        <ele>784</ele>
        <time>2011-08-17T08:11:19Z</time>
      </trkpt>
      <trkpt lat="44.22486" lon="6.08786">
        <ele>785</ele>
        <time>2011-08-17T08:11:30Z</time>
      </trkpt>
      <trkpt lat="44.2248" lon="6.08783">
        <ele>785</ele>
        <time>2011-08-17T08:11:44Z</time>
      </trkpt>
      <trkpt lat="44.22469" lon="6.08769">
        <ele>786</ele>
        <time>2011-08-17T08:11:57Z</time>
      </trkpt>
      <trkpt lat="44.22465" lon="6.08761">
        <ele>786</ele>
        <time>2011-08-17T08:12:02Z</time>
      </trkpt>
      <trkpt lat="44.22456" lon="6.08745">
        <ele>803</ele>
        <time>2011-08-17T08:12:13Z</time>
      </trkpt>
      <trkpt lat="44.22443" lon="6.08732">
        <ele>801</ele>
        <time>2011-08-17T08:12:19Z</time>
      </trkpt>
      <trkpt lat="44.22416" lon="6.08699">
        <ele>782</ele>
        <time>2011-08-17T08:12:31Z</time>
      </trkpt>
      <trkpt lat="44.224" lon="6.08686">
        <ele>784</ele>
        <time>2011-08-17T08:12:37Z</time>
      </trkpt>
      <trkpt lat="44.22375" lon="6.08646">
        <ele>791</ele>
        <time>2011-08-17T08:12:49Z</time>
      </trkpt>
      <trkpt lat="44.2237" lon="6.08642">
        <ele>790</ele>
        <time>2011-08-17T08:12:51Z</time>
      </trkpt>
      <trkpt lat="44.22344" lon="6.0862">
        <ele>787</ele>
        <time>2011-08-17T08:13:02Z</time>
      </trkpt>
      <trkpt lat="44.22329" lon="6.08592">
        <ele>773</ele>
        <time>2011-08-17T08:13:12Z</time>
      </trkpt>
      <trkpt lat="44.22322" lon="6.08581">
        <ele>780</ele>
        <time>2011-08-17T08:13:16Z</time>
      </trkpt>
      <trkpt lat="44.22322" lon="6.08575">
        <ele>780</ele>
        <time>2011-08-17T08:13:18Z</time>
      </trkpt>
      <trkpt lat="44.22312" lon="6.08561">
        <ele>782</ele>
        <time>2011-08-17T08:13:25Z</time>
      </trkpt>
      <trkpt lat="44.22311" lon="6.08556">
        <ele>782</ele>
        <time>2011-08-17T08:13:38Z</time>
      </trkpt>
      <trkpt lat="44.22311" lon="6.08552">
        <ele>783</ele>
        <time>2011-08-17T08:13:53Z</time>
      </trkpt>
      <trkpt lat="44.22303" lon="6.08551">
        <ele>782</ele>
        <time>2011-08-17T08:13:57Z</time>
      </trkpt>
      <trkpt lat="44.22276" lon="6.08559">
        <ele>778</ele>
        <time>2011-08-17T08:14:09Z</time>
      </trkpt>
      <trkpt lat="44.22248" lon="6.08554">
        <ele>767</ele>
        <time>2011-08-17T08:14:21Z</time>
      </trkpt>
      <trkpt lat="44.22229" lon="6.08553">
        <ele>766</ele>
        <time>2011-08-17T08:14:28Z</time>
      </trkpt>
      <trkpt lat="44.222" lon="6.08568">
        <ele>762</ele>
        <time>2011-08-17T08:14:39Z</time>
      </trkpt>
      <trkpt lat="44.2218" lon="6.08556">
        <ele>760</ele>
        <time>2011-08-17T08:14:48Z</time>
      </trkpt>
      <trkpt lat="44.22163" lon="6.08533">
        <ele>752</ele>
        <time>2011-08-17T08:14:55Z</time>
      </trkpt>
      <trkpt lat="44.22161" lon="6.08519">
        <ele>756</ele>
        <time>2011-08-17T08:14:58Z</time>
      </trkpt>
      <trkpt lat="44.22156" lon="6.085">
        <ele>760</ele>
        <time>2011-08-17T08:15:05Z</time>
      </trkpt>
      <trkpt lat="44.22156" lon="6.085">
        <ele>764</ele>
        <time>2011-08-17T08:15:07Z</time>
      </trkpt>
      <trkpt lat="44.22142" lon="6.08495">
        <ele>762</ele>
        <time>2011-08-17T08:15:14Z</time>
      </trkpt>
      <trkpt lat="44.22108" lon="6.08479">
        <ele>756</ele>
        <time>2011-08-17T08:15:26Z</time>
      </trkpt>
      <trkpt lat="44.22103" lon="6.0847">
        <ele>756</ele>
        <time>2011-08-17T08:15:29Z</time>
      </trkpt>
      <trkpt lat="44.22093" lon="6.08463">
        <ele>756</ele>
        <time>2011-08-17T08:15:34Z</time>
      </trkpt>
      <trkpt lat="44.22087" lon="6.08456">
        <ele>756</ele>
        <time>2011-08-17T08:15:36Z</time>
      </trkpt>
      <trkpt lat="44.22068" lon="6.08416">
        <ele>750</ele>
        <time>2011-08-17T08:15:46Z</time>
      </trkpt>
      <trkpt lat="44.22066" lon="6.08399">
        <ele>750</ele>
        <time>2011-08-17T08:15:49Z</time>
      </trkpt>
      <trkpt lat="44.22056" lon="6.08382">
        <ele>749</ele>
        <time>2011-08-17T08:15:54Z</time>
      </trkpt>
      <trkpt lat="44.22046" lon="6.08372">
        <ele>748</ele>
        <time>2011-08-17T08:16:00Z</time>
      </trkpt>
      <trkpt lat="44.22023" lon="6.08334">
        <ele>744</ele>
        <time>2011-08-17T08:16:10Z</time>
      </trkpt>
      <trkpt lat="44.21996" lon="6.08301">
        <ele>738</ele>
        <time>2011-08-17T08:16:18Z</time>
      </trkpt>
      <trkpt lat="44.21968" lon="6.08283">
        <ele>737</ele>
        <time>2011-08-17T08:16:26Z</time>
      </trkpt>
      <trkpt lat="44.2195" lon="6.08263">
        <ele>735</ele>
        <time>2011-08-17T08:16:32Z</time>
      </trkpt>
      <trkpt lat="44.21937" lon="6.08256">
        <ele>732</ele>
        <time>2011-08-17T08:16:35Z</time>
      </trkpt>
      <trkpt lat="44.21917" lon="6.0824">
        <ele>732</ele>
        <time>2011-08-17T08:16:40Z</time>
      </trkpt>
      <trkpt lat="44.21896" lon="6.08206">
        <ele>727</ele>
        <time>2011-08-17T08:16:46Z</time>
      </trkpt>
      <trkpt lat="44.21885" lon="6.08153">
        <ele>730</ele>
        <time>2011-08-17T08:16:55Z</time>
      </trkpt>
      <trkpt lat="44.21878" lon="6.08125">
        <ele>730</ele>
        <time>2011-08-17T08:17:01Z</time>
      </trkpt>
      <trkpt lat="44.21873" lon="6.08111">
        <ele>730</ele>
        <time>2011-08-17T08:17:04Z</time>
      </trkpt>
      <trkpt lat="44.21855" lon="6.0808">
        <ele>732</ele>
        <time>2011-08-17T08:17:09Z</time>
      </trkpt>
      <trkpt lat="44.21836" lon="6.0803">
        <ele>735</ele>
        <time>2011-08-17T08:17:19Z</time>
      </trkpt>
      <trkpt lat="44.21803" lon="6.07981">
        <ele>723</ele>
        <time>2011-08-17T08:17:32Z</time>
      </trkpt>
      <trkpt lat="44.21794" lon="6.07965">
        <ele>723</ele>
        <time>2011-08-17T08:17:37Z</time>
      </trkpt>
      <trkpt lat="44.21786" lon="6.07969">
        <ele>721</ele>
        <time>2011-08-17T08:17:41Z</time>
      </trkpt>
      <trkpt lat="44.21762" lon="6.07994">
        <ele>716</ele>
        <time>2011-08-17T08:17:55Z</time>
      </trkpt>
      <trkpt lat="44.21738" lon="6.0802">
        <ele>719</ele>
        <time>2011-08-17T08:18:10Z</time>
      </trkpt>
      <trkpt lat="44.21729" lon="6.08028">
        <ele>721</ele>
        <time>2011-08-17T08:18:25Z</time>
      </trkpt>
      <trkpt lat="44.21728" lon="6.08029">
        <ele>722</ele>
        <time>2011-08-17T08:18:48Z</time>
      </trkpt>
      <trkpt lat="44.21729" lon="6.08029">
        <ele>721</ele>
        <time>2011-08-17T08:21:46Z</time>
      </trkpt>
      <trkpt lat="44.21728" lon="6.0803">
        <ele>722</ele>
        <time>2011-08-17T08:22:44Z</time>
      </trkpt>
      <trkpt lat="44.21726" lon="6.08027">
        <ele>722</ele>
        <time>2011-08-17T08:25:17Z</time>
      </trkpt>
      <trkpt lat="44.21727" lon="6.08028">
        <ele>721</ele>
        <time>2011-08-17T08:27:01Z</time>
      </trkpt>
      <trkpt lat="44.21721" lon="6.08026">
        <ele>722</ele>
        <time>2011-08-17T08:27:06Z</time>
      </trkpt>
      <trkpt lat="44.21713" lon="6.08033">
        <ele>723</ele>
        <time>2011-08-17T08:27:12Z</time>
      </trkpt>
      <trkpt lat="44.21696" lon="6.08036">
        <ele>725</ele>
        <time>2011-08-17T08:27:20Z</time>
      </trkpt>
      <trkpt lat="44.21659" lon="6.08065">
        <ele>739</ele>
        <time>2011-08-17T08:27:38Z</time>
      </trkpt>
      <trkpt lat="44.21648" lon="6.08077">
        <ele>740</ele>
        <time>2011-08-17T08:27:44Z</time>
      </trkpt>
      <trkpt lat="44.21641" lon="6.08085">
        <ele>742</ele>
        <time>2011-08-17T08:27:48Z</time>
      </trkpt>
      <trkpt lat="44.21629" lon="6.08095">
        <ele>744</ele>
        <time>2011-08-17T08:27:55Z</time>
      </trkpt>
      <trkpt lat="44.21613" lon="6.08132">
        <ele>746</ele>
        <time>2011-08-17T08:28:10Z</time>
      </trkpt>
      <trkpt lat="44.21605" lon="6.0816">
        <ele>744</ele>
        <time>2011-08-17T08:28:22Z</time>
      </trkpt>
      <trkpt lat="44.21591" lon="6.08202">
        <ele>751</ele>
        <time>2011-08-17T08:28:42Z</time>
      </trkpt>
      <trkpt lat="44.21581" lon="6.08258">
        <ele>745</ele>
        <time>2011-08-17T08:29:02Z</time>
      </trkpt>
      <trkpt lat="44.21579" lon="6.08277">
        <ele>746</ele>
        <time>2011-08-17T08:29:09Z</time>
      </trkpt>
      <trkpt lat="44.2158" lon="6.08283">
        <ele>746</ele>
        <time>2011-08-17T08:29:11Z</time>
      </trkpt>
      <trkpt lat="44.2158" lon="6.08293">
        <ele>747</ele>
        <time>2011-08-17T08:29:14Z</time>
      </trkpt>
      <trkpt lat="44.2156" lon="6.0834">
        <ele>748</ele>
        <time>2011-08-17T08:29:29Z</time>
      </trkpt>
      <trkpt lat="44.21544" lon="6.08369">
        <ele>749</ele>
        <time>2011-08-17T08:29:40Z</time>
      </trkpt>
      <trkpt lat="44.21517" lon="6.08382">
        <ele>749</ele>
        <time>2011-08-17T08:29:54Z</time>
      </trkpt>
      <trkpt lat="44.21514" lon="6.08384">
        <ele>749</ele>
        <time>2011-08-17T08:29:56Z</time>
      </trkpt>
      <trkpt lat="44.215" lon="6.08382">
        <ele>750</ele>
        <time>2011-08-17T08:30:03Z</time>
      </trkpt>
      <trkpt lat="44.21491" lon="6.08384">
        <ele>750</ele>
        <time>2011-08-17T08:30:08Z</time>
      </trkpt>
      <trkpt lat="44.21474" lon="6.08412">
        <ele>751</ele>
        <time>2011-08-17T08:30:25Z</time>
      </trkpt>
      <trkpt lat="44.21458" lon="6.0844">
        <ele>755</ele>
        <time>2011-08-17T08:30:37Z</time>
      </trkpt>
      <trkpt lat="44.21451" lon="6.08451">
        <ele>755</ele>
        <time>2011-08-17T08:30:42Z</time>
      </trkpt>
      <trkpt lat="44.21412" lon="6.08485">
        <ele>758</ele>
        <time>2011-08-17T08:31:02Z</time>
      </trkpt>
      <trkpt lat="44.21387" lon="6.08506">
        <ele>761</ele>
        <time>2011-08-17T08:31:16Z</time>
      </trkpt>
      <trkpt lat="44.2136" lon="6.08541">
        <ele>762</ele>
        <time>2011-08-17T08:31:36Z</time>
      </trkpt>
      <trkpt lat="44.21337" lon="6.08585">
        <ele>761</ele>
        <time>2011-08-17T08:31:54Z</time>
      </trkpt>
      <trkpt lat="44.21316" lon="6.08635">
        <ele>768</ele>
        <time>2011-08-17T08:32:15Z</time>
      </trkpt>
      <trkpt lat="44.21312" lon="6.08644">
        <ele>768</ele>
        <time>2011-08-17T08:32:18Z</time>
      </trkpt>
      <trkpt lat="44.21311" lon="6.08653">
        <ele>769</ele>
        <time>2011-08-17T08:32:21Z</time>
      </trkpt>
      <trkpt lat="44.213" lon="6.08713">
        <ele>772</ele>
        <time>2011-08-17T08:32:42Z</time>
      </trkpt>
      <trkpt lat="44.21293" lon="6.08755">
        <ele>774</ele>
        <time>2011-08-17T08:32:58Z</time>
      </trkpt>
      <trkpt lat="44.21283" lon="6.08798">
        <ele>775</ele>
        <time>2011-08-17T08:33:11Z</time>
      </trkpt>
      <trkpt lat="44.21281" lon="6.08843">
        <ele>778</ele>
        <time>2011-08-17T08:33:28Z</time>
      </trkpt>
      <trkpt lat="44.21273" lon="6.08892">
        <ele>779</ele>
        <time>2011-08-17T08:33:46Z</time>
      </trkpt>
      <trkpt lat="44.21275" lon="6.08951">
        <ele>783</ele>
        <time>2011-08-17T08:34:07Z</time>
      </trkpt>
      <trkpt lat="44.21275" lon="6.08954">
        <ele>783</ele>
        <time>2011-08-17T08:34:08Z</time>
      </trkpt>
      <trkpt lat="44.21276" lon="6.08982">
        <ele>783</ele>
        <time>2011-08-17T08:34:19Z</time>
      </trkpt>
      <trkpt lat="44.21277" lon="6.08992">
        <ele>784</ele>
        <time>2011-08-17T08:34:24Z</time>
      </trkpt>
      <trkpt lat="44.21291" lon="6.09029">
        <ele>787</ele>
        <time>2011-08-17T08:34:40Z</time>
      </trkpt>
      <trkpt lat="44.21298" lon="6.09058">
        <ele>788</ele>
        <time>2011-08-17T08:34:54Z</time>
      </trkpt>
      <trkpt lat="44.21305" lon="6.09083">
        <ele>788</ele>
        <time>2011-08-17T08:35:05Z</time>
      </trkpt>
      <trkpt lat="44.21312" lon="6.09116">
        <ele>793</ele>
        <time>2011-08-17T08:35:19Z</time>
      </trkpt>
      <trkpt lat="44.21321" lon="6.09151">
        <ele>795</ele>
        <time>2011-08-17T08:35:33Z</time>
      </trkpt>
      <trkpt lat="44.21326" lon="6.09179">
        <ele>799</ele>
        <time>2011-08-17T08:35:42Z</time>
      </trkpt>
      <trkpt lat="44.21331" lon="6.09199">
        <ele>802</ele>
        <time>2011-08-17T08:35:50Z</time>
      </trkpt>
      <trkpt lat="44.21327" lon="6.09218">
        <ele>803</ele>
        <time>2011-08-17T08:35:59Z</time>
      </trkpt>
      <trkpt lat="44.21327" lon="6.09267">
        <ele>809</ele>
        <time>2011-08-17T08:36:19Z</time>
      </trkpt>
      <trkpt lat="44.21334" lon="6.09313">
        <ele>808</ele>
        <time>2011-08-17T08:36:40Z</time>
      </trkpt>
      <trkpt lat="44.2134" lon="6.09343">
        <ele>813</ele>
        <time>2011-08-17T08:36:56Z</time>
      </trkpt>
      <trkpt lat="44.21341" lon="6.09354">
        <ele>814</ele>
        <time>2011-08-17T08:37:11Z</time>
      </trkpt>
      <trkpt lat="44.21343" lon="6.09369">
        <ele>815</ele>
        <time>2011-08-17T08:37:33Z</time>
      </trkpt>
      <trkpt lat="44.21345" lon="6.09381">
        <ele>816</ele>
        <time>2011-08-17T08:37:48Z</time>
      </trkpt>
      <trkpt lat="44.21348" lon="6.09399">
        <ele>818</ele>
        <time>2011-08-17T08:38:06Z</time>
      </trkpt>
      <trkpt lat="44.21355" lon="6.09435">
        <ele>823</ele>
        <time>2011-08-17T08:38:32Z</time>
      </trkpt>
      <trkpt lat="44.21359" lon="6.09447">
        <ele>823</ele>
        <time>2011-08-17T08:38:50Z</time>
      </trkpt>
      <trkpt lat="44.2136" lon="6.0945">
        <ele>823</ele>
        <time>2011-08-17T08:38:52Z</time>
      </trkpt>
      <trkpt lat="44.21394" lon="6.09477">
        <ele>824</ele>
        <time>2011-08-17T08:39:13Z</time>
      </trkpt>
      <trkpt lat="44.21417" lon="6.09466">
        <ele>823</ele>
        <time>2011-08-17T08:39:27Z</time>
      </trkpt>
      <trkpt lat="44.21439" lon="6.09459">
        <ele>823</ele>
        <time>2011-08-17T08:39:40Z</time>
      </trkpt>
      <trkpt lat="44.21448" lon="6.09476">
        <ele>824</ele>
        <time>2011-08-17T08:39:49Z</time>
      </trkpt>
      <trkpt lat="44.21443" lon="6.09496">
        <ele>825</ele>
        <time>2011-08-17T08:40:00Z</time>
      </trkpt>
      <trkpt lat="44.21438" lon="6.09505">
        <ele>829</ele>
        <time>2011-08-17T08:40:07Z</time>
      </trkpt>
      <trkpt lat="44.21437" lon="6.09511">
        <ele>829</ele>
        <time>2011-08-17T08:40:10Z</time>
      </trkpt>
      <trkpt lat="44.21432" lon="6.09521">
        <ele>829</ele>
        <time>2011-08-17T08:40:18Z</time>
      </trkpt>
      <trkpt lat="44.21433" lon="6.09539">
        <ele>831</ele>
        <time>2011-08-17T08:40:24Z</time>
      </trkpt>
      <trkpt lat="44.21429" lon="6.09556">
        <ele>831</ele>
        <time>2011-08-17T08:40:32Z</time>
      </trkpt>
      <trkpt lat="44.21431" lon="6.09564">
        <ele>831</ele>
        <time>2011-08-17T08:40:37Z</time>
      </trkpt>
      <trkpt lat="44.21428" lon="6.09577">
        <ele>832</ele>
        <time>2011-08-17T08:40:42Z</time>
      </trkpt>
      <trkpt lat="44.2142" lon="6.09612">
        <ele>837</ele>
        <time>2011-08-17T08:40:55Z</time>
      </trkpt>
      <trkpt lat="44.21417" lon="6.09628">
        <ele>839</ele>
        <time>2011-08-17T08:41:06Z</time>
      </trkpt>
      <trkpt lat="44.21413" lon="6.09634">
        <ele>840</ele>
        <time>2011-08-17T08:41:10Z</time>
      </trkpt>
      <trkpt lat="44.21408" lon="6.0964">
        <ele>840</ele>
        <time>2011-08-17T08:41:14Z</time>
      </trkpt>
      <trkpt lat="44.214" lon="6.09656">
        <ele>841</ele>
        <time>2011-08-17T08:41:20Z</time>
      </trkpt>
      <trkpt lat="44.21401" lon="6.09669">
        <ele>845</ele>
        <time>2011-08-17T08:41:24Z</time>
      </trkpt>
      <trkpt lat="44.21406" lon="6.09697">
        <ele>847</ele>
        <time>2011-08-17T08:41:36Z</time>
      </trkpt>
      <trkpt lat="44.21405" lon="6.09699">
        <ele>847</ele>
        <time>2011-08-17T08:41:37Z</time>
      </trkpt>
      <trkpt lat="44.21389" lon="6.09722">
        <ele>849</ele>
        <time>2011-08-17T08:41:49Z</time>
      </trkpt>
      <trkpt lat="44.21385" lon="6.09733">
        <ele>849</ele>
        <time>2011-08-17T08:41:53Z</time>
      </trkpt>
      <trkpt lat="44.21383" lon="6.0976">
        <ele>854</ele>
        <time>2011-08-17T08:42:05Z</time>
      </trkpt>
      <trkpt lat="44.21383" lon="6.09761">
        <ele>854</ele>
        <time>2011-08-17T08:42:07Z</time>
      </trkpt>
      <trkpt lat="44.21386" lon="6.09771">
        <ele>854</ele>
        <time>2011-08-17T08:42:22Z</time>
      </trkpt>
      <trkpt lat="44.21384" lon="6.09778">
        <ele>855</ele>
        <time>2011-08-17T08:42:34Z</time>
      </trkpt>
      <trkpt lat="44.21379" lon="6.09783">
        <ele>855</ele>
        <time>2011-08-17T08:42:48Z</time>
      </trkpt>
      <trkpt lat="44.2137" lon="6.09789">
        <ele>855</ele>
        <time>2011-08-17T08:43:00Z</time>
      </trkpt>
      <trkpt lat="44.21363" lon="6.09791">
        <ele>855</ele>
        <time>2011-08-17T08:43:10Z</time>
      </trkpt>
      <trkpt lat="44.21356" lon="6.09805">
        <ele>856</ele>
        <time>2011-08-17T08:43:26Z</time>
      </trkpt>
      <trkpt lat="44.2135" lon="6.09816">
        <ele>856</ele>
        <time>2011-08-17T08:43:44Z</time>
      </trkpt>
      <trkpt lat="44.21351" lon="6.09828">
        <ele>857</ele>
        <time>2011-08-17T08:43:55Z</time>
      </trkpt>
      <trkpt lat="44.2135" lon="6.09849">
        <ele>861</ele>
        <time>2011-08-17T08:44:11Z</time>
      </trkpt>
      <trkpt lat="44.21347" lon="6.09861">
        <ele>861</ele>
        <time>2011-08-17T08:44:30Z</time>
      </trkpt>
      <trkpt lat="44.21346" lon="6.09859">
        <ele>861</ele>
        <time>2011-08-17T08:52:26Z</time>
      </trkpt>
      <trkpt lat="44.21349" lon="6.09882">
        <ele>863</ele>
        <time>2011-08-17T08:52:47Z</time>
      </trkpt>
      <trkpt lat="44.21349" lon="6.09882">
        <ele>863</ele>
        <time>2011-08-17T08:53:03Z</time>
      </trkpt>
      <trkpt lat="44.21351" lon="6.09892">
        <ele>863</ele>
        <time>2011-08-17T08:53:22Z</time>
      </trkpt>
      <trkpt lat="44.21353" lon="6.09901">
        <ele>864</ele>
        <time>2011-08-17T08:53:36Z</time>
      </trkpt>
      <trkpt lat="44.21359" lon="6.09911">
        <ele>864</ele>
        <time>2011-08-17T08:53:53Z</time>
      </trkpt>
      <trkpt lat="44.2136" lon="6.09915">
        <ele>864</ele>
        <time>2011-08-17T08:53:56Z</time>
      </trkpt>
      <trkpt lat="44.2137" lon="6.09935">
        <ele>870</ele>
        <time>2011-08-17T08:54:08Z</time>
      </trkpt>
      <trkpt lat="44.21377" lon="6.09942">
        <ele>870</ele>
        <time>2011-08-17T08:54:14Z</time>
      </trkpt>
      <trkpt lat="44.21382" lon="6.09944">
        <ele>870</ele>
        <time>2011-08-17T08:54:18Z</time>
      </trkpt>
      <trkpt lat="44.21392" lon="6.09962">
        <ele>871</ele>
        <time>2011-08-17T08:54:30Z</time>
      </trkpt>
      <trkpt lat="44.21395" lon="6.09977">
        <ele>871</ele>
        <time>2011-08-17T08:54:44Z</time>
      </trkpt>
      <trkpt lat="44.21394" lon="6.09992">
        <ele>872</ele>
        <time>2011-08-17T08:54:56Z</time>
      </trkpt>
      <trkpt lat="44.21398" lon="6.10016">
        <ele>877</ele>
        <time>2011-08-17T08:55:11Z</time>
      </trkpt>
      <trkpt lat="44.21396" lon="6.10036">
        <ele>879</ele>
        <time>2011-08-17T08:55:28Z</time>
      </trkpt>
      <trkpt lat="44.21392" lon="6.10058">
        <ele>880</ele>
        <time>2011-08-17T08:55:46Z</time>
      </trkpt>
      <trkpt lat="44.21392" lon="6.10071">
        <ele>881</ele>
        <time>2011-08-17T08:55:56Z</time>
      </trkpt>
      <trkpt lat="44.21397" lon="6.10082">
        <ele>881</ele>
        <time>2011-08-17T08:56:08Z</time>
      </trkpt>
      <trkpt lat="44.21402" lon="6.10097">
        <ele>885</ele>
        <time>2011-08-17T08:56:26Z</time>
      </trkpt>
      <trkpt lat="44.21413" lon="6.10126">
        <ele>888</ele>
        <time>2011-08-17T08:56:51Z</time>
      </trkpt>
      <trkpt lat="44.21413" lon="6.10127">
        <ele>888</ele>
        <time>2011-08-17T08:56:52Z</time>
      </trkpt>
      <trkpt lat="44.21416" lon="6.10144">
        <ele>890</ele>
        <time>2011-08-17T08:57:09Z</time>
      </trkpt>
      <trkpt lat="44.21425" lon="6.1017">
        <ele>896</ele>
        <time>2011-08-17T08:57:22Z</time>
      </trkpt>
      <trkpt lat="44.21426" lon="6.10172">
        <ele>896</ele>
        <time>2011-08-17T08:57:24Z</time>
      </trkpt>
      <trkpt lat="44.21428" lon="6.1019">
        <ele>899</ele>
        <time>2011-08-17T08:57:33Z</time>
      </trkpt>
      <trkpt lat="44.21425" lon="6.10197">
        <ele>899</ele>
        <time>2011-08-17T08:57:37Z</time>
      </trkpt>
      <trkpt lat="44.21405" lon="6.10214">
        <ele>900</ele>
        <time>2011-08-17T08:57:55Z</time>
      </trkpt>
      <trkpt lat="44.21403" lon="6.10216">
        <ele>900</ele>
        <time>2011-08-17T08:57:57Z</time>
      </trkpt>
      <trkpt lat="44.21403" lon="6.10226">
        <ele>901</ele>
        <time>2011-08-17T08:58:03Z</time>
      </trkpt>
      <trkpt lat="44.21405" lon="6.10261">
        <ele>909</ele>
        <time>2011-08-17T08:58:18Z</time>
      </trkpt>
      <trkpt lat="44.21404" lon="6.10268">
        <ele>909</ele>
        <time>2011-08-17T08:58:24Z</time>
      </trkpt>
      <trkpt lat="44.21406" lon="6.10288">
        <ele>911</ele>
        <time>2011-08-17T08:58:32Z</time>
      </trkpt>
      <trkpt lat="44.21409" lon="6.10297">
        <ele>912</ele>
        <time>2011-08-17T08:58:39Z</time>
      </trkpt>
      <trkpt lat="44.21416" lon="6.10309">
        <ele>913</ele>
        <time>2011-08-17T08:58:47Z</time>
      </trkpt>
      <trkpt lat="44.21427" lon="6.1031">
        <ele>912</ele>
        <time>2011-08-17T08:58:56Z</time>
      </trkpt>
      <trkpt lat="44.21439" lon="6.10318">
        <ele>912</ele>
        <time>2011-08-17T08:59:06Z</time>
      </trkpt>
      <trkpt lat="44.21443" lon="6.10323">
        <ele>912</ele>
        <time>2011-08-17T08:59:09Z</time>
      </trkpt>
      <trkpt lat="44.21461" lon="6.1034">
        <ele>920</ele>
        <time>2011-08-17T08:59:22Z</time>
      </trkpt>
      <trkpt lat="44.2147" lon="6.1035">
        <ele>920</ele>
        <time>2011-08-17T08:59:36Z</time>
      </trkpt>
      <trkpt lat="44.21474" lon="6.10354">
        <ele>920</ele>
        <time>2011-08-17T08:59:49Z</time>
      </trkpt>
      <trkpt lat="44.21471" lon="6.10366">
        <ele>921</ele>
        <time>2011-08-17T09:00:02Z</time>
      </trkpt>
      <trkpt lat="44.21469" lon="6.10377">
        <ele>922</ele>
        <time>2011-08-17T09:00:17Z</time>
      </trkpt>
      <trkpt lat="44.21472" lon="6.10382">
        <ele>923</ele>
        <time>2011-08-17T09:00:20Z</time>
      </trkpt>
      <trkpt lat="44.21484" lon="6.10388">
        <ele>924</ele>
        <time>2011-08-17T09:00:33Z</time>
      </trkpt>
      <trkpt lat="44.21487" lon="6.10396">
        <ele>925</ele>
        <time>2011-08-17T09:00:46Z</time>
      </trkpt>
      <trkpt lat="44.21487" lon="6.104">
        <ele>926</ele>
        <time>2011-08-17T09:00:58Z</time>
      </trkpt>
      <trkpt lat="44.2149" lon="6.10402">
        <ele>927</ele>
        <time>2011-08-17T09:01:02Z</time>
      </trkpt>
      <trkpt lat="44.21495" lon="6.10411">
        <ele>929</ele>
        <time>2011-08-17T09:01:16Z</time>
      </trkpt>
      <trkpt lat="44.21489" lon="6.10417">
        <ele>935</ele>
        <time>2011-08-17T09:01:25Z</time>
      </trkpt>
      <trkpt lat="44.21483" lon="6.10428">
        <ele>937</ele>
        <time>2011-08-17T09:01:39Z</time>
      </trkpt>
      <trkpt lat="44.21491" lon="6.10434">
        <ele>938</ele>
        <time>2011-08-17T09:01:51Z</time>
      </trkpt>
      <trkpt lat="44.21498" lon="6.10447">
        <ele>941</ele>
        <time>2011-08-17T09:02:07Z</time>
      </trkpt>
      <trkpt lat="44.2149" lon="6.10452">
        <ele>942</ele>
        <time>2011-08-17T09:02:21Z</time>
      </trkpt>
      <trkpt lat="44.21486" lon="6.10458">
        <ele>943</ele>
        <time>2011-08-17T09:02:31Z</time>
      </trkpt>
      <trkpt lat="44.21493" lon="6.10472">
        <ele>947</ele>
        <time>2011-08-17T09:02:49Z</time>
      </trkpt>
      <trkpt lat="44.215" lon="6.10485">
        <ele>951</ele>
        <time>2011-08-17T09:03:06Z</time>
      </trkpt>
      <trkpt lat="44.21495" lon="6.10493">
        <ele>954</ele>
        <time>2011-08-17T09:03:19Z</time>
      </trkpt>
      <trkpt lat="44.21492" lon="6.10492">
        <ele>953</ele>
        <time>2011-08-17T09:03:26Z</time>
      </trkpt>
      <trkpt lat="44.21489" lon="6.10492">
        <ele>952</ele>
        <time>2011-08-17T09:03:29Z</time>
      </trkpt>
      <trkpt lat="44.21493" lon="6.10498">
        <ele>955</ele>
        <time>2011-08-17T09:03:43Z</time>
      </trkpt>
      <trkpt lat="44.21494" lon="6.10508">
        <ele>962</ele>
        <time>2011-08-17T09:03:57Z</time>
      </trkpt>
      <trkpt lat="44.21492" lon="6.1051">
        <ele>963</ele>
        <time>2011-08-17T09:04:03Z</time>
      </trkpt>
      <trkpt lat="44.21488" lon="6.10522">
        <ele>965</ele>
        <time>2011-08-17T09:04:22Z</time>
      </trkpt>
      <trkpt lat="44.21495" lon="6.10523">
        <ele>965</ele>
        <time>2011-08-17T09:04:35Z</time>
      </trkpt>
      <trkpt lat="44.21498" lon="6.10528">
        <ele>966</ele>
        <time>2011-08-17T09:04:41Z</time>
      </trkpt>
      <trkpt lat="44.21502" lon="6.10544">
        <ele>964</ele>
        <time>2011-08-17T09:04:57Z</time>
      </trkpt>
      <trkpt lat="44.21496" lon="6.10546">
        <ele>970</ele>
        <time>2011-08-17T09:05:10Z</time>
      </trkpt>
      <trkpt lat="44.21494" lon="6.10548">
        <ele>970</ele>
        <time>2011-08-17T09:05:23Z</time>
      </trkpt>
      <trkpt lat="44.215" lon="6.10555">
        <ele>972</ele>
        <time>2011-08-17T09:05:37Z</time>
      </trkpt>
      <trkpt lat="44.21508" lon="6.10564">
        <ele>970</ele>
        <time>2011-08-17T09:05:56Z</time>
      </trkpt>
      <trkpt lat="44.21509" lon="6.10568">
        <ele>971</ele>
        <time>2011-08-17T09:06:00Z</time>
      </trkpt>
      <trkpt lat="44.21514" lon="6.10572">
        <ele>971</ele>
        <time>2011-08-17T09:06:04Z</time>
      </trkpt>
      <trkpt lat="44.21513" lon="6.10585">
        <ele>982</ele>
        <time>2011-08-17T09:06:18Z</time>
      </trkpt>
      <trkpt lat="44.21503" lon="6.10592">
        <ele>983</ele>
        <time>2011-08-17T09:06:34Z</time>
      </trkpt>
      <trkpt lat="44.21495" lon="6.10601">
        <ele>986</ele>
        <time>2011-08-17T09:06:48Z</time>
      </trkpt>
      <trkpt lat="44.2149" lon="6.10605">
        <ele>986</ele>
        <time>2011-08-17T09:06:53Z</time>
      </trkpt>
      <trkpt lat="44.21477" lon="6.10614">
        <ele>987</ele>
        <time>2011-08-17T09:07:10Z</time>
      </trkpt>
      <trkpt lat="44.21466" lon="6.10626">
        <ele>987</ele>
        <time>2011-08-17T09:07:29Z</time>
      </trkpt>
      <trkpt lat="44.21464" lon="6.10642">
        <ele>988</ele>
        <time>2011-08-17T09:07:48Z</time>
      </trkpt>
      <trkpt lat="44.2147" lon="6.10655">
        <ele>990</ele>
        <time>2011-08-17T09:08:07Z</time>
      </trkpt>
      <trkpt lat="44.21479" lon="6.10664">
        <ele>993</ele>
        <time>2011-08-17T09:08:24Z</time>
      </trkpt>
      <trkpt lat="44.21484" lon="6.10686">
        <ele>1000</ele>
        <time>2011-08-17T09:08:42Z</time>
      </trkpt>
      <trkpt lat="44.21485" lon="6.107">
        <ele>1001</ele>
        <time>2011-08-17T09:09:00Z</time>
      </trkpt>
      <trkpt lat="44.21484" lon="6.10719">
        <ele>1002</ele>
        <time>2011-08-17T09:09:22Z</time>
      </trkpt>
      <trkpt lat="44.21482" lon="6.10736">
        <ele>1004</ele>
        <time>2011-08-17T09:09:40Z</time>
      </trkpt>
      <trkpt lat="44.21486" lon="6.10765">
        <ele>1012</ele>
        <time>2011-08-17T09:10:02Z</time>
      </trkpt>
      <trkpt lat="44.21491" lon="6.10778">
        <ele>1013</ele>
        <time>2011-08-17T09:10:18Z</time>
      </trkpt>
      <trkpt lat="44.21496" lon="6.10789">
        <ele>1014</ele>
        <time>2011-08-17T09:10:34Z</time>
      </trkpt>
      <trkpt lat="44.21501" lon="6.10803">
        <ele>1017</ele>
        <time>2011-08-17T09:10:52Z</time>
      </trkpt>
      <trkpt lat="44.21498" lon="6.10818">
        <ele>1020</ele>
        <time>2011-08-17T09:11:10Z</time>
      </trkpt>
      <trkpt lat="44.21495" lon="6.10832">
        <ele>1023</ele>
        <time>2011-08-17T09:11:26Z</time>
      </trkpt>
      <trkpt lat="44.21496" lon="6.10849">
        <ele>1029</ele>
        <time>2011-08-17T09:11:41Z</time>
      </trkpt>
      <trkpt lat="44.21497" lon="6.10852">
        <ele>1030</ele>
        <time>2011-08-17T09:11:44Z</time>
      </trkpt>
      <trkpt lat="44.21502" lon="6.10873">
        <ele>1041</ele>
        <time>2011-08-17T09:12:04Z</time>
      </trkpt>
      <trkpt lat="44.21501" lon="6.10887">
        <ele>1044</ele>
        <time>2011-08-17T09:12:20Z</time>
      </trkpt>
      <trkpt lat="44.21507" lon="6.10886">
        <ele>1044</ele>
        <time>2011-08-17T09:12:33Z</time>
      </trkpt>
      <trkpt lat="44.21509" lon="6.1088">
        <ele>1042</ele>
        <time>2011-08-17T09:12:41Z</time>
      </trkpt>
      <trkpt lat="44.21515" lon="6.10871">
        <ele>1040</ele>
        <time>2011-08-17T09:12:51Z</time>
      </trkpt>
      <trkpt lat="44.21527" lon="6.1087">
        <ele>1040</ele>
        <time>2011-08-17T09:13:08Z</time>
      </trkpt>
      <trkpt lat="44.21529" lon="6.1087">
        <ele>1040</ele>
        <time>2011-08-17T09:13:10Z</time>
      </trkpt>
      <trkpt lat="44.21545" lon="6.10874">
        <ele>1042</ele>
        <time>2011-08-17T09:13:31Z</time>
      </trkpt>
      <trkpt lat="44.21544" lon="6.10885">
        <ele>1044</ele>
        <time>2011-08-17T09:13:46Z</time>
      </trkpt>
      <trkpt lat="44.2154" lon="6.10892">
        <ele>1045</ele>
        <time>2011-08-17T09:14:01Z</time>
      </trkpt>
      <trkpt lat="44.21533" lon="6.10903">
        <ele>1047</ele>
        <time>2011-08-17T09:14:19Z</time>
      </trkpt>
      <trkpt lat="44.2153" lon="6.1092">
        <ele>1066</ele>
        <time>2011-08-17T09:14:34Z</time>
      </trkpt>
      <trkpt lat="44.21527" lon="6.10935">
        <ele>1067</ele>
        <time>2011-08-17T09:14:49Z</time>
      </trkpt>
      <trkpt lat="44.2152" lon="6.10946">
        <ele>1068</ele>
        <time>2011-08-17T09:15:04Z</time>
      </trkpt>
      <trkpt lat="44.21508" lon="6.10951">
        <ele>1069</ele>
        <time>2011-08-17T09:15:26Z</time>
      </trkpt>
      <trkpt lat="44.21501" lon="6.10952">
        <ele>1068</ele>
        <time>2011-08-17T09:15:40Z</time>
      </trkpt>
      <trkpt lat="44.21498" lon="6.10953">
        <ele>1058</ele>
        <time>2011-08-17T09:15:43Z</time>
      </trkpt>
      <trkpt lat="44.21486" lon="6.10967">
        <ele>1060</ele>
        <time>2011-08-17T09:16:01Z</time>
      </trkpt>
      <trkpt lat="44.21485" lon="6.10968">
        <ele>1060</ele>
        <time>2011-08-17T09:16:02Z</time>
      </trkpt>
      <trkpt lat="44.21483" lon="6.10982">
        <ele>1063</ele>
        <time>2011-08-17T09:16:10Z</time>
      </trkpt>
      <trkpt lat="44.21483" lon="6.11001">
        <ele>1077</ele>
        <time>2011-08-17T09:16:26Z</time>
      </trkpt>
      <trkpt lat="44.21488" lon="6.11005">
        <ele>1078</ele>
        <time>2011-08-17T09:16:39Z</time>
      </trkpt>
      <trkpt lat="44.21489" lon="6.11002">
        <ele>1078</ele>
        <time>2011-08-17T09:16:42Z</time>
      </trkpt>
      <trkpt lat="44.21495" lon="6.11012">
        <ele>1079</ele>
        <time>2011-08-17T09:16:58Z</time>
      </trkpt>
      <trkpt lat="44.21495" lon="6.11026">
        <ele>1080</ele>
        <time>2011-08-17T09:17:14Z</time>
      </trkpt>
      <trkpt lat="44.21495" lon="6.11048">
        <ele>1085</ele>
        <time>2011-08-17T09:17:32Z</time>
      </trkpt>
      <trkpt lat="44.21495" lon="6.11049">
        <ele>1085</ele>
        <time>2011-08-17T09:17:34Z</time>
      </trkpt>
      <trkpt lat="44.21494" lon="6.11062">
        <ele>1090</ele>
        <time>2011-08-17T09:17:52Z</time>
      </trkpt>
      <trkpt lat="44.2149" lon="6.11081">
        <ele>1097</ele>
        <time>2011-08-17T09:18:13Z</time>
      </trkpt>
      <trkpt lat="44.21495" lon="6.11081">
        <ele>1100</ele>
        <time>2011-08-17T09:18:29Z</time>
      </trkpt>
      <trkpt lat="44.21507" lon="6.11073">
        <ele>1102</ele>
        <time>2011-08-17T09:18:51Z</time>
      </trkpt>
      <trkpt lat="44.21507" lon="6.11084">
        <ele>1108</ele>
        <time>2011-08-17T09:19:07Z</time>
      </trkpt>
      <trkpt lat="44.21512" lon="6.11089">
        <ele>1110</ele>
        <time>2011-08-17T09:19:19Z</time>
      </trkpt>
      <trkpt lat="44.21518" lon="6.11088">
        <ele>1111</ele>
        <time>2011-08-17T09:19:37Z</time>
      </trkpt>
      <trkpt lat="44.21514" lon="6.11096">
        <ele>1111</ele>
        <time>2011-08-17T09:19:51Z</time>
      </trkpt>
      <trkpt lat="44.21518" lon="6.11096">
        <ele>1112</ele>
        <time>2011-08-17T09:20:02Z</time>
      </trkpt>
      <trkpt lat="44.2152" lon="6.11099">
        <ele>1112</ele>
        <time>2011-08-17T09:20:16Z</time>
      </trkpt>
      <trkpt lat="44.21523" lon="6.11105">
        <ele>1113</ele>
        <time>2011-08-17T09:20:30Z</time>
      </trkpt>
      <trkpt lat="44.21528" lon="6.11112">
        <ele>1114</ele>
        <time>2011-08-17T09:20:46Z</time>
      </trkpt>
      <trkpt lat="44.21524" lon="6.11119">
        <ele>1115</ele>
        <time>2011-08-17T09:21:02Z</time>
      </trkpt>
      <trkpt lat="44.21521" lon="6.11127">
        <ele>1116</ele>
        <time>2011-08-17T09:21:18Z</time>
      </trkpt>
      <trkpt lat="44.21516" lon="6.11135">
        <ele>1117</ele>
        <time>2011-08-17T09:21:31Z</time>
      </trkpt>
      <trkpt lat="44.21518" lon="6.1114">
        <ele>1118</ele>
        <time>2011-08-17T09:21:45Z</time>
      </trkpt>
      <trkpt lat="44.21522" lon="6.11145">
        <ele>1118</ele>
        <time>2011-08-17T09:21:58Z</time>
      </trkpt>
      <trkpt lat="44.21526" lon="6.11157">
        <ele>1119</ele>
        <time>2011-08-17T09:22:13Z</time>
      </trkpt>
      <trkpt lat="44.21531" lon="6.11168">
        <ele>1131</ele>
        <time>2011-08-17T09:22:28Z</time>
      </trkpt>
      <trkpt lat="44.21533" lon="6.1118">
        <ele>1132</ele>
        <time>2011-08-17T09:22:43Z</time>
      </trkpt>
      <trkpt lat="44.2153" lon="6.11197">
        <ele>1134</ele>
        <time>2011-08-17T09:22:59Z</time>
      </trkpt>
      <trkpt lat="44.21523" lon="6.11219">
        <ele>1136</ele>
        <time>2011-08-17T09:23:17Z</time>
      </trkpt>
      <trkpt lat="44.21527" lon="6.11219">
        <ele>1136</ele>
        <time>2011-08-17T09:23:24Z</time>
      </trkpt>
      <trkpt lat="44.21546" lon="6.11209">
        <ele>1136</ele>
        <time>2011-08-17T09:23:43Z</time>
      </trkpt>
      <trkpt lat="44.21551" lon="6.11206">
        <ele>1135</ele>
        <time>2011-08-17T09:23:48Z</time>
      </trkpt>
      <trkpt lat="44.21558" lon="6.11211">
        <ele>1136</ele>
        <time>2011-08-17T09:24:02Z</time>
      </trkpt>
      <trkpt lat="44.2155" lon="6.11228">
        <ele>1138</ele>
        <time>2011-08-17T09:24:21Z</time>
      </trkpt>
      <trkpt lat="44.21545" lon="6.11242">
        <ele>1139</ele>
        <time>2011-08-17T09:24:34Z</time>
      </trkpt>
      <trkpt lat="44.21545" lon="6.11244">
        <ele>1139</ele>
        <time>2011-08-17T09:24:36Z</time>
      </trkpt>
      <trkpt lat="44.2154" lon="6.11267">
        <ele>1156</ele>
        <time>2011-08-17T09:24:52Z</time>
      </trkpt>
      <trkpt lat="44.21537" lon="6.1128">
        <ele>1158</ele>
        <time>2011-08-17T09:25:06Z</time>
      </trkpt>
      <trkpt lat="44.21534" lon="6.11294">
        <ele>1159</ele>
        <time>2011-08-17T09:25:19Z</time>
      </trkpt>
      <trkpt lat="44.21529" lon="6.11306">
        <ele>1161</ele>
        <time>2011-08-17T09:25:32Z</time>
      </trkpt>
      <trkpt lat="44.21525" lon="6.11313">
        <ele>1162</ele>
        <time>2011-08-17T09:25:37Z</time>
      </trkpt>
      <trkpt lat="44.21524" lon="6.11323">
        <ele>1162</ele>
        <time>2011-08-17T09:25:45Z</time>
      </trkpt>
      <trkpt lat="44.21519" lon="6.11331">
        <ele>1163</ele>
        <time>2011-08-17T09:25:49Z</time>
      </trkpt>
      <trkpt lat="44.21513" lon="6.11339">
        <ele>1174</ele>
        <time>2011-08-17T09:25:55Z</time>
      </trkpt>
      <trkpt lat="44.21501" lon="6.11341">
        <ele>1171</ele>
        <time>2011-08-17T09:26:07Z</time>
      </trkpt>
      <trkpt lat="44.21494" lon="6.11346">
        <ele>1168</ele>
        <time>2011-08-17T09:26:22Z</time>
      </trkpt>
      <trkpt lat="44.21498" lon="6.1135">
        <ele>1169</ele>
        <time>2011-08-17T09:26:29Z</time>
      </trkpt>
      <trkpt lat="44.21506" lon="6.11349">
        <ele>1176</ele>
        <time>2011-08-17T09:26:45Z</time>
      </trkpt>
      <trkpt lat="44.21524" lon="6.11352">
        <ele>1181</ele>
        <time>2011-08-17T09:27:03Z</time>
      </trkpt>
      <trkpt lat="44.21538" lon="6.11358">
        <ele>1185</ele>
        <time>2011-08-17T09:27:21Z</time>
      </trkpt>
      <trkpt lat="44.21557" lon="6.11356">
        <ele>1187</ele>
        <time>2011-08-17T09:27:41Z</time>
      </trkpt>
      <trkpt lat="44.21562" lon="6.11355">
        <ele>1187</ele>
        <time>2011-08-17T09:27:47Z</time>
      </trkpt>
      <trkpt lat="44.21561" lon="6.11357">
        <ele>1187</ele>
        <time>2011-08-17T09:28:03Z</time>
      </trkpt>
      <trkpt lat="44.21559" lon="6.11356">
        <ele>1187</ele>
        <time>2011-08-17T09:28:18Z</time>
      </trkpt>
      <trkpt lat="44.21546" lon="6.11365">
        <ele>1187</ele>
        <time>2011-08-17T09:28:27Z</time>
      </trkpt>
      <trkpt lat="44.21532" lon="6.11375">
        <ele>1187</ele>
        <time>2011-08-17T09:28:41Z</time>
      </trkpt>
      <trkpt lat="44.21523" lon="6.11391">
        <ele>1190</ele>
        <time>2011-08-17T09:28:54Z</time>
      </trkpt>
      <trkpt lat="44.21515" lon="6.11407">
        <ele>1192</ele>
        <time>2011-08-17T09:29:04Z</time>
      </trkpt>
      <trkpt lat="44.21505" lon="6.11429">
        <ele>1203</ele>
        <time>2011-08-17T09:29:16Z</time>
      </trkpt>
      <trkpt lat="44.21501" lon="6.11437">
        <ele>1206</ele>
        <time>2011-08-17T09:29:20Z</time>
      </trkpt>
      <trkpt lat="44.21486" lon="6.11452">
        <ele>1203</ele>
        <time>2011-08-17T09:29:27Z</time>
      </trkpt>
      <trkpt lat="44.21479" lon="6.11459">
        <ele>1204</ele>
        <time>2011-08-17T09:29:38Z</time>
      </trkpt>
      <trkpt lat="44.21469" lon="6.11461">
        <ele>1203</ele>
        <time>2011-08-17T09:29:48Z</time>
      </trkpt>
      <trkpt lat="44.21457" lon="6.11462">
        <ele>1203</ele>
        <time>2011-08-17T09:30:02Z</time>
      </trkpt>
      <trkpt lat="44.21449" lon="6.11467">
        <ele>1203</ele>
        <time>2011-08-17T09:30:17Z</time>
      </trkpt>
      <trkpt lat="44.21446" lon="6.11468">
        <ele>1203</ele>
        <time>2011-08-17T09:30:24Z</time>
      </trkpt>
      <trkpt lat="44.2143" lon="6.11471">
        <ele>1203</ele>
        <time>2011-08-17T09:30:43Z</time>
      </trkpt>
      <trkpt lat="44.21429" lon="6.11471">
        <ele>1203</ele>
        <time>2011-08-17T09:30:44Z</time>
      </trkpt>
      <trkpt lat="44.21418" lon="6.11483">
        <ele>1206</ele>
        <time>2011-08-17T09:30:55Z</time>
      </trkpt>
      <trkpt lat="44.2139" lon="6.115">
        <ele>1211</ele>
        <time>2011-08-17T09:31:11Z</time>
      </trkpt>
      <trkpt lat="44.21372" lon="6.11515">
        <ele>1211</ele>
        <time>2011-08-17T09:31:25Z</time>
      </trkpt>
      <trkpt lat="44.21351" lon="6.11532">
        <ele>1211</ele>
        <time>2011-08-17T09:31:40Z</time>
      </trkpt>
      <trkpt lat="44.21333" lon="6.11555">
        <ele>1215</ele>
        <time>2011-08-17T09:31:54Z</time>
      </trkpt>
      <trkpt lat="44.21315" lon="6.11587">
        <ele>1225</ele>
        <time>2011-08-17T09:32:10Z</time>
      </trkpt>
      <trkpt lat="44.21304" lon="6.11597">
        <ele>1225</ele>
        <time>2011-08-17T09:32:17Z</time>
      </trkpt>
      <trkpt lat="44.21298" lon="6.11597">
        <ele>1225</ele>
        <time>2011-08-17T09:32:20Z</time>
      </trkpt>
      <trkpt lat="44.21294" lon="6.11591">
        <ele>1224</ele>
        <time>2011-08-17T09:32:25Z</time>
      </trkpt>
      <trkpt lat="44.21286" lon="6.11591">
        <ele>1224</ele>
        <time>2011-08-17T09:32:29Z</time>
      </trkpt>
      <trkpt lat="44.2128" lon="6.11594">
        <ele>1223</ele>
        <time>2011-08-17T09:32:32Z</time>
      </trkpt>
      <trkpt lat="44.21255" lon="6.11607">
        <ele>1222</ele>
        <time>2011-08-17T09:32:46Z</time>
      </trkpt>
      <trkpt lat="44.2124" lon="6.11619">
        <ele>1224</ele>
        <time>2011-08-17T09:33:00Z</time>
      </trkpt>
      <trkpt lat="44.21228" lon="6.1164">
        <ele>1228</ele>
        <time>2011-08-17T09:33:08Z</time>
      </trkpt>
      <trkpt lat="44.21224" lon="6.11661">
        <ele>1230</ele>
        <time>2011-08-17T09:33:17Z</time>
      </trkpt>
      <trkpt lat="44.21208" lon="6.1169">
        <ele>1246</ele>
        <time>2011-08-17T09:33:30Z</time>
      </trkpt>
      <trkpt lat="44.21191" lon="6.11699">
        <ele>1247</ele>
        <time>2011-08-17T09:33:42Z</time>
      </trkpt>
      <trkpt lat="44.21186" lon="6.11696">
        <ele>1246</ele>
        <time>2011-08-17T09:33:45Z</time>
      </trkpt>
      <trkpt lat="44.21173" lon="6.11674">
        <ele>1240</ele>
        <time>2011-08-17T09:33:56Z</time>
      </trkpt>
      <trkpt lat="44.2116" lon="6.11657">
        <ele>1235</ele>
        <time>2011-08-17T09:34:05Z</time>
      </trkpt>
      <trkpt lat="44.21149" lon="6.11651">
        <ele>1233</ele>
        <time>2011-08-17T09:34:14Z</time>
      </trkpt>
      <trkpt lat="44.21145" lon="6.11648">
        <ele>1233</ele>
        <time>2011-08-17T09:34:17Z</time>
      </trkpt>
      <trkpt lat="44.21135" lon="6.11645">
        <ele>1233</ele>
        <time>2011-08-17T09:34:22Z</time>
      </trkpt>
      <trkpt lat="44.21133" lon="6.11637">
        <ele>1232</ele>
        <time>2011-08-17T09:34:26Z</time>
      </trkpt>
      <trkpt lat="44.21126" lon="6.11606">
        <ele>1228</ele>
        <time>2011-08-17T09:34:37Z</time>
      </trkpt>
      <trkpt lat="44.21118" lon="6.11602">
        <ele>1228</ele>
        <time>2011-08-17T09:34:41Z</time>
      </trkpt>
      <trkpt lat="44.21112" lon="6.11601">
        <ele>1228</ele>
        <time>2011-08-17T09:34:45Z</time>
      </trkpt>
      <trkpt lat="44.21085" lon="6.11637">
        <ele>1234</ele>
        <time>2011-08-17T09:35:06Z</time>
      </trkpt>
      <trkpt lat="44.21058" lon="6.11659">
        <ele>1234</ele>
        <time>2011-08-17T09:35:19Z</time>
      </trkpt>
      <trkpt lat="44.21033" lon="6.11667">
        <ele>1248</ele>
        <time>2011-08-17T09:35:30Z</time>
      </trkpt>
      <trkpt lat="44.2102" lon="6.11664">
        <ele>1232</ele>
        <time>2011-08-17T09:35:36Z</time>
      </trkpt>
      <trkpt lat="44.21014" lon="6.1166">
        <ele>1232</ele>
        <time>2011-08-17T09:35:40Z</time>
      </trkpt>
      <trkpt lat="44.2101" lon="6.11658">
        <ele>1233</ele>
        <time>2011-08-17T09:35:42Z</time>
      </trkpt>
      <trkpt lat="44.20973" lon="6.11689">
        <ele>1236</ele>
        <time>2011-08-17T09:35:58Z</time>
      </trkpt>
      <trkpt lat="44.2097" lon="6.11693">
        <ele>1237</ele>
        <time>2011-08-17T09:35:59Z</time>
      </trkpt>
      <trkpt lat="44.20954" lon="6.11709">
        <ele>1237</ele>
        <time>2011-08-17T09:36:03Z</time>
      </trkpt>
      <trkpt lat="44.20925" lon="6.11714">
        <ele>1234</ele>
        <time>2011-08-17T09:36:10Z</time>
      </trkpt>
      <trkpt lat="44.20917" lon="6.11724">
        <ele>1235</ele>
        <time>2011-08-17T09:36:14Z</time>
      </trkpt>
      <trkpt lat="44.20901" lon="6.11727">
        <ele>1226</ele>
        <time>2011-08-17T09:36:24Z</time>
      </trkpt>
      <trkpt lat="44.20893" lon="6.11729">
        <ele>1225</ele>
        <time>2011-08-17T09:36:41Z</time>
      </trkpt>
      <trkpt lat="44.20888" lon="6.11729">
        <ele>1225</ele>
        <time>2011-08-17T09:36:54Z</time>
      </trkpt>
      <trkpt lat="44.20883" lon="6.11733">
        <ele>1225</ele>
        <time>2011-08-17T09:37:10Z</time>
      </trkpt>
      <trkpt lat="44.20881" lon="6.11738">
        <ele>1225</ele>
        <time>2011-08-17T09:37:22Z</time>
      </trkpt>
      <trkpt lat="44.20881" lon="6.11738">
        <ele>1225</ele>
        <time>2011-08-17T09:37:45Z</time>
      </trkpt>
      <trkpt lat="44.20881" lon="6.11739">
        <ele>1225</ele>
        <time>2011-08-17T09:38:12Z</time>
      </trkpt>
      <trkpt lat="44.20882" lon="6.11739">
        <ele>1225</ele>
        <time>2011-08-17T09:38:50Z</time>
      </trkpt>
      <trkpt lat="44.20882" lon="6.11739">
        <ele>1225</ele>
        <time>2011-08-17T09:38:53Z</time>
      </trkpt>
      <trkpt lat="44.20876" lon="6.11746">
        <ele>1225</ele>
        <time>2011-08-17T09:39:08Z</time>
      </trkpt>
      <trkpt lat="44.20867" lon="6.11757">
        <ele>1234</ele>
        <time>2011-08-17T09:39:28Z</time>
      </trkpt>
      <trkpt lat="44.20849" lon="6.11762">
        <ele>1231</ele>
        <time>2011-08-17T09:39:41Z</time>
      </trkpt>
      <trkpt lat="44.20832" lon="6.1178">
        <ele>1228</ele>
        <time>2011-08-17T09:39:54Z</time>
      </trkpt>
      <trkpt lat="44.20834" lon="6.11791">
        <ele>1235</ele>
        <time>2011-08-17T09:40:07Z</time>
      </trkpt>
      <trkpt lat="44.20836" lon="6.11801">
        <ele>1236</ele>
        <time>2011-08-17T09:40:35Z</time>
      </trkpt>
      <trkpt lat="44.20835" lon="6.1181">
        <ele>1236</ele>
        <time>2011-08-17T09:40:44Z</time>
      </trkpt>
      <trkpt lat="44.20824" lon="6.11839">
        <ele>1238</ele>
        <time>2011-08-17T09:40:57Z</time>
      </trkpt>
      <trkpt lat="44.20826" lon="6.11861">
        <ele>1241</ele>
        <time>2011-08-17T09:41:08Z</time>
      </trkpt>
      <trkpt lat="44.2083" lon="6.11868">
        <ele>1242</ele>
        <time>2011-08-17T09:41:19Z</time>
      </trkpt>
      <trkpt lat="44.2083" lon="6.11868">
        <ele>1242</ele>
        <time>2011-08-17T09:41:21Z</time>
      </trkpt>
      <trkpt lat="44.20824" lon="6.11873">
        <ele>1243</ele>
        <time>2011-08-17T09:41:37Z</time>
      </trkpt>
      <trkpt lat="44.20824" lon="6.11873">
        <ele>1243</ele>
        <time>2011-08-17T09:41:39Z</time>
      </trkpt>
      <trkpt lat="44.20809" lon="6.11871">
        <ele>1242</ele>
        <time>2011-08-17T09:41:48Z</time>
      </trkpt>
      <trkpt lat="44.20804" lon="6.11867">
        <ele>1242</ele>
        <time>2011-08-17T09:41:51Z</time>
      </trkpt>
      <trkpt lat="44.20801" lon="6.11844">
        <ele>1240</ele>
        <time>2011-08-17T09:42:03Z</time>
      </trkpt>
      <trkpt lat="44.20803" lon="6.11837">
        <ele>1239</ele>
        <time>2011-08-17T09:42:10Z</time>
      </trkpt>
      <trkpt lat="44.20803" lon="6.11835">
        <ele>1239</ele>
        <time>2011-08-17T09:42:12Z</time>
      </trkpt>
      <trkpt lat="44.20793" lon="6.11834">
        <ele>1239</ele>
        <time>2011-08-17T09:42:25Z</time>
      </trkpt>
      <trkpt lat="44.20787" lon="6.1184">
        <ele>1239</ele>
        <time>2011-08-17T09:42:31Z</time>
      </trkpt>
      <trkpt lat="44.20781" lon="6.11839">
        <ele>1238</ele>
        <time>2011-08-17T09:42:36Z</time>
      </trkpt>
      <trkpt lat="44.2077" lon="6.11823">
        <ele>1231</ele>
        <time>2011-08-17T09:42:53Z</time>
      </trkpt>
      <trkpt lat="44.20764" lon="6.11824">
        <ele>1231</ele>
        <time>2011-08-17T09:43:09Z</time>
      </trkpt>
      <trkpt lat="44.20765" lon="6.11824">
        <ele>1231</ele>
        <time>2011-08-17T09:49:24Z</time>
      </trkpt>
      <trkpt lat="44.20762" lon="6.1178">
        <ele>1229</ele>
        <time>2011-08-17T09:49:39Z</time>
      </trkpt>
      <trkpt lat="44.20769" lon="6.11707">
        <ele>1225</ele>
        <time>2011-08-17T09:49:54Z</time>
      </trkpt>
      <trkpt lat="44.2077" lon="6.11631">
        <ele>1223</ele>
        <time>2011-08-17T09:50:08Z</time>
      </trkpt>
      <trkpt lat="44.20778" lon="6.11603">
        <ele>1223</ele>
        <time>2011-08-17T09:50:21Z</time>
      </trkpt>
      <trkpt lat="44.2078" lon="6.11559">
        <ele>1226</ele>
        <time>2011-08-17T09:50:43Z</time>
      </trkpt>
      <trkpt lat="44.2078" lon="6.11539">
        <ele>1227</ele>
        <time>2011-08-17T09:50:58Z</time>
      </trkpt>
      <trkpt lat="44.20783" lon="6.11522">
        <ele>1228</ele>
        <time>2011-08-17T09:51:21Z</time>
      </trkpt>
      <trkpt lat="44.20784" lon="6.115">
        <ele>1233</ele>
        <time>2011-08-17T09:51:39Z</time>
      </trkpt>
      <trkpt lat="44.20784" lon="6.11497">
        <ele>1233</ele>
        <time>2011-08-17T09:51:41Z</time>
      </trkpt>
      <trkpt lat="44.20782" lon="6.1147">
        <ele>1233</ele>
        <time>2011-08-17T09:52:04Z</time>
      </trkpt>
      <trkpt lat="44.20783" lon="6.11431">
        <ele>1234</ele>
        <time>2011-08-17T09:52:21Z</time>
      </trkpt>
      <trkpt lat="44.20784" lon="6.11377">
        <ele>1236</ele>
        <time>2011-08-17T09:52:37Z</time>
      </trkpt>
      <trkpt lat="44.20795" lon="6.11323">
        <ele>1237</ele>
        <time>2011-08-17T09:52:49Z</time>
      </trkpt>
      <trkpt lat="44.20791" lon="6.11284">
        <ele>1238</ele>
        <time>2011-08-17T09:53:01Z</time>
      </trkpt>
      <trkpt lat="44.20783" lon="6.11244">
        <ele>1241</ele>
        <time>2011-08-17T09:53:19Z</time>
      </trkpt>
      <trkpt lat="44.20782" lon="6.11243">
        <ele>1241</ele>
        <time>2011-08-17T09:53:20Z</time>
      </trkpt>
      <trkpt lat="44.20782" lon="6.11209">
        <ele>1241</ele>
        <time>2011-08-17T09:53:36Z</time>
      </trkpt>
      <trkpt lat="44.20789" lon="6.11157">
        <ele>1244</ele>
        <time>2011-08-17T09:53:50Z</time>
      </trkpt>
      <trkpt lat="44.20796" lon="6.11135">
        <ele>1244</ele>
        <time>2011-08-17T09:54:02Z</time>
      </trkpt>
      <trkpt lat="44.20798" lon="6.11116">
        <ele>1245</ele>
        <time>2011-08-17T09:54:39Z</time>
      </trkpt>
      <trkpt lat="44.20802" lon="6.11092">
        <ele>1245</ele>
        <time>2011-08-17T09:54:56Z</time>
      </trkpt>
      <trkpt lat="44.20801" lon="6.11074">
        <ele>1248</ele>
        <time>2011-08-17T09:55:11Z</time>
      </trkpt>
      <trkpt lat="44.20802" lon="6.11049">
        <ele>1249</ele>
        <time>2011-08-17T09:55:31Z</time>
      </trkpt>
      <trkpt lat="44.20803" lon="6.11043">
        <ele>1249</ele>
        <time>2011-08-17T09:55:35Z</time>
      </trkpt>
      <trkpt lat="44.20801" lon="6.11015">
        <ele>1250</ele>
        <time>2011-08-17T09:55:57Z</time>
      </trkpt>
      <trkpt lat="44.20796" lon="6.10989">
        <ele>1256</ele>
        <time>2011-08-17T09:56:20Z</time>
      </trkpt>
      <trkpt lat="44.20795" lon="6.10978">
        <ele>1257</ele>
        <time>2011-08-17T09:56:35Z</time>
      </trkpt>
      <trkpt lat="44.20793" lon="6.1095">
        <ele>1258</ele>
        <time>2011-08-17T09:56:58Z</time>
      </trkpt>
      <trkpt lat="44.20793" lon="6.10939">
        <ele>1259</ele>
        <time>2011-08-17T09:57:12Z</time>
      </trkpt>
      <trkpt lat="44.20794" lon="6.10916">
        <ele>1266</ele>
        <time>2011-08-17T09:57:34Z</time>
      </trkpt>
      <trkpt lat="44.20796" lon="6.10892">
        <ele>1267</ele>
        <time>2011-08-17T09:57:54Z</time>
      </trkpt>
      <trkpt lat="44.20798" lon="6.10885">
        <ele>1268</ele>
        <time>2011-08-17T09:58:01Z</time>
      </trkpt>
      <trkpt lat="44.20803" lon="6.10866">
        <ele>1269</ele>
        <time>2011-08-17T09:58:17Z</time>
      </trkpt>
      <trkpt lat="44.20809" lon="6.10847">
        <ele>1270</ele>
        <time>2011-08-17T09:58:32Z</time>
      </trkpt>
      <trkpt lat="44.20813" lon="6.10817">
        <ele>1277</ele>
        <time>2011-08-17T09:58:53Z</time>
      </trkpt>
      <trkpt lat="44.20817" lon="6.10801">
        <ele>1278</ele>
        <time>2011-08-17T09:59:12Z</time>
      </trkpt>
      <trkpt lat="44.20822" lon="6.10758">
        <ele>1283</ele>
        <time>2011-08-17T09:59:27Z</time>
      </trkpt>
      <trkpt lat="44.20823" lon="6.10744">
        <ele>1284</ele>
        <time>2011-08-17T09:59:38Z</time>
      </trkpt>
      <trkpt lat="44.20822" lon="6.10732">
        <ele>1283</ele>
        <time>2011-08-17T09:59:43Z</time>
      </trkpt>
      <trkpt lat="44.20816" lon="6.10727">
        <ele>1282</ele>
        <time>2011-08-17T09:59:47Z</time>
      </trkpt>
      <trkpt lat="44.20802" lon="6.10697">
        <ele>1281</ele>
        <time>2011-08-17T09:59:59Z</time>
      </trkpt>
      <trkpt lat="44.20782" lon="6.10662">
        <ele>1277</ele>
        <time>2011-08-17T10:00:19Z</time>
      </trkpt>
      <trkpt lat="44.20758" lon="6.1062">
        <ele>1278</ele>
        <time>2011-08-17T10:00:39Z</time>
      </trkpt>
      <trkpt lat="44.20735" lon="6.10578">
        <ele>1286</ele>
        <time>2011-08-17T10:00:58Z</time>
      </trkpt>
      <trkpt lat="44.20714" lon="6.10537">
        <ele>1286</ele>
        <time>2011-08-17T10:01:20Z</time>
      </trkpt>
      <trkpt lat="44.20695" lon="6.1049">
        <ele>1294</ele>
        <time>2011-08-17T10:01:43Z</time>
      </trkpt>
      <trkpt lat="44.20689" lon="6.10472">
        <ele>1295</ele>
        <time>2011-08-17T10:02:00Z</time>
      </trkpt>
      <trkpt lat="44.20685" lon="6.10458">
        <ele>1296</ele>
        <time>2011-08-17T10:02:15Z</time>
      </trkpt>
      <trkpt lat="44.2068" lon="6.10434">
        <ele>1300</ele>
        <time>2011-08-17T10:02:39Z</time>
      </trkpt>
      <trkpt lat="44.20678" lon="6.10409">
        <ele>1307</ele>
        <time>2011-08-17T10:03:00Z</time>
      </trkpt>
      <trkpt lat="44.20675" lon="6.10387">
        <ele>1307</ele>
        <time>2011-08-17T10:03:22Z</time>
      </trkpt>
      <trkpt lat="44.20673" lon="6.10356">
        <ele>1311</ele>
        <time>2011-08-17T10:03:48Z</time>
      </trkpt>
      <trkpt lat="44.20672" lon="6.10333">
        <ele>1320</ele>
        <time>2011-08-17T10:04:08Z</time>
      </trkpt>
      <trkpt lat="44.20671" lon="6.10313">
        <ele>1316</ele>
        <time>2011-08-17T10:04:27Z</time>
      </trkpt>
      <trkpt lat="44.2067" lon="6.10298">
        <ele>1316</ele>
        <time>2011-08-17T10:04:43Z</time>
      </trkpt>
      <trkpt lat="44.20664" lon="6.10269">
        <ele>1326</ele>
        <time>2011-08-17T10:05:05Z</time>
      </trkpt>
      <trkpt lat="44.20661" lon="6.10261">
        <ele>1327</ele>
        <time>2011-08-17T10:05:21Z</time>
      </trkpt>
      <trkpt lat="44.20653" lon="6.10241">
        <ele>1330</ele>
        <time>2011-08-17T10:05:49Z</time>
      </trkpt>
      <trkpt lat="44.2065" lon="6.10228">
        <ele>1329</ele>
        <time>2011-08-17T10:06:03Z</time>
      </trkpt>
      <trkpt lat="44.20645" lon="6.1021">
        <ele>1329</ele>
        <time>2011-08-17T10:06:20Z</time>
      </trkpt>
      <trkpt lat="44.2063" lon="6.10184">
        <ele>1330</ele>
        <time>2011-08-17T10:06:43Z</time>
      </trkpt>
      <trkpt lat="44.20623" lon="6.10175">
        <ele>1331</ele>
        <time>2011-08-17T10:06:59Z</time>
      </trkpt>
      <trkpt lat="44.206" lon="6.10132">
        <ele>1334</ele>
        <time>2011-08-17T10:07:23Z</time>
      </trkpt>
      <trkpt lat="44.20583" lon="6.10092">
        <ele>1344</ele>
        <time>2011-08-17T10:07:44Z</time>
      </trkpt>
      <trkpt lat="44.20568" lon="6.10062">
        <ele>1340</ele>
        <time>2011-08-17T10:08:05Z</time>
      </trkpt>
      <trkpt lat="44.20569" lon="6.10062">
        <ele>1340</ele>
        <time>2011-08-17T10:08:30Z</time>
      </trkpt>
      <trkpt lat="44.20568" lon="6.10061">
        <ele>1340</ele>
        <time>2011-08-17T10:10:28Z</time>
      </trkpt>
      <trkpt lat="44.20568" lon="6.10061">
        <ele>1340</ele>
        <time>2011-08-17T10:11:10Z</time>
      </trkpt>
      <trkpt lat="44.20568" lon="6.10061">
        <ele>1340</ele>
        <time>2011-08-17T10:12:25Z</time>
      </trkpt>
      <trkpt lat="44.20567" lon="6.10062">
        <ele>1340</ele>
        <time>2011-08-17T10:15:09Z</time>
      </trkpt>
      <trkpt lat="44.2053" lon="6.10048">
        <ele>1340</ele>
        <time>2011-08-17T10:15:21Z</time>
      </trkpt>
      <trkpt lat="44.20513" lon="6.10036">
        <ele>1340</ele>
        <time>2011-08-17T10:15:25Z</time>
      </trkpt>
      <trkpt lat="44.20484" lon="6.09991">
        <ele>1342</ele>
        <time>2011-08-17T10:15:38Z</time>
      </trkpt>
      <trkpt lat="44.2046" lon="6.09939">
        <ele>1339</ele>
        <time>2011-08-17T10:15:56Z</time>
      </trkpt>
      <trkpt lat="44.20458" lon="6.09927">
        <ele>1339</ele>
        <time>2011-08-17T10:16:07Z</time>
      </trkpt>
      <trkpt lat="44.20457" lon="6.09926">
        <ele>1339</ele>
        <time>2011-08-17T10:16:42Z</time>
      </trkpt>
      <trkpt lat="44.20424" lon="6.0992">
        <ele>1343</ele>
        <time>2011-08-17T10:16:55Z</time>
      </trkpt>
      <trkpt lat="44.20373" lon="6.09913">
        <ele>1330</ele>
        <time>2011-08-17T10:17:06Z</time>
      </trkpt>
      <trkpt lat="44.20351" lon="6.09904">
        <ele>1329</ele>
        <time>2011-08-17T10:17:10Z</time>
      </trkpt>
      <trkpt lat="44.2028" lon="6.09893">
        <ele>1317</ele>
        <time>2011-08-17T10:17:22Z</time>
      </trkpt>
      <trkpt lat="44.20241" lon="6.0988">
        <ele>1311</ele>
        <time>2011-08-17T10:17:31Z</time>
      </trkpt>
      <trkpt lat="44.20221" lon="6.09877">
        <ele>1311</ele>
        <time>2011-08-17T10:17:34Z</time>
      </trkpt>
      <trkpt lat="44.20194" lon="6.09885">
        <ele>1312</ele>
        <time>2011-08-17T10:17:41Z</time>
      </trkpt>
      <trkpt lat="44.20178" lon="6.09896">
        <ele>1313</ele>
        <time>2011-08-17T10:17:54Z</time>
      </trkpt>
      <trkpt lat="44.20172" lon="6.099">
        <ele>1314</ele>
        <time>2011-08-17T10:18:08Z</time>
      </trkpt>
      <trkpt lat="44.20167" lon="6.099">
        <ele>1314</ele>
        <time>2011-08-17T10:18:22Z</time>
      </trkpt>
      <trkpt lat="44.20156" lon="6.09896">
        <ele>1318</ele>
        <time>2011-08-17T10:18:40Z</time>
      </trkpt>
      <trkpt lat="44.20137" lon="6.0988">
        <ele>1318</ele>
        <time>2011-08-17T10:18:54Z</time>
      </trkpt>
      <trkpt lat="44.20127" lon="6.09868">
        <ele>1319</ele>
        <time>2011-08-17T10:19:07Z</time>
      </trkpt>
      <trkpt lat="44.20123" lon="6.09865">
        <ele>1319</ele>
        <time>2011-08-17T10:19:18Z</time>
      </trkpt>
      <trkpt lat="44.20119" lon="6.09858">
        <ele>1319</ele>
        <time>2011-08-17T10:21:55Z</time>
      </trkpt>
      <trkpt lat="44.201" lon="6.09846">
        <ele>1322</ele>
        <time>2011-08-17T10:22:53Z</time>
      </trkpt>
      <trkpt lat="44.20034" lon="6.09796">
        <ele>1320</ele>
        <time>2011-08-17T10:23:07Z</time>
      </trkpt>
      <trkpt lat="44.20013" lon="6.09777">
        <ele>1322</ele>
        <time>2011-08-17T10:23:17Z</time>
      </trkpt>
      <trkpt lat="44.19996" lon="6.0975">
        <ele>1332</ele>
        <time>2011-08-17T10:23:33Z</time>
      </trkpt>
      <trkpt lat="44.19991" lon="6.09744">
        <ele>1332</ele>
        <time>2011-08-17T10:23:40Z</time>
      </trkpt>
      <trkpt lat="44.19988" lon="6.09742">
        <ele>1332</ele>
        <time>2011-08-17T10:23:54Z</time>
      </trkpt>
      <trkpt lat="44.19978" lon="6.0974">
        <ele>1332</ele>
        <time>2011-08-17T10:24:13Z</time>
      </trkpt>
      <trkpt lat="44.19969" lon="6.0974">
        <ele>1333</ele>
        <time>2011-08-17T10:24:31Z</time>
      </trkpt>
      <trkpt lat="44.19955" lon="6.09743">
        <ele>1335</ele>
        <time>2011-08-17T10:24:54Z</time>
      </trkpt>
      <trkpt lat="44.19953" lon="6.09743">
        <ele>1335</ele>
        <time>2011-08-17T10:25:09Z</time>
      </trkpt>
      <trkpt lat="44.19932" lon="6.0974">
        <ele>1338</ele>
        <time>2011-08-17T10:25:20Z</time>
      </trkpt>
      <trkpt lat="44.19884" lon="6.0972">
        <ele>1340</ele>
        <time>2011-08-17T10:25:31Z</time>
      </trkpt>
      <trkpt lat="44.19869" lon="6.09713">
        <ele>1340</ele>
        <time>2011-08-17T10:25:34Z</time>
      </trkpt>
      <trkpt lat="44.19813" lon="6.09703">
        <ele>1339</ele>
        <time>2011-08-17T10:25:47Z</time>
      </trkpt>
      <trkpt lat="44.19776" lon="6.09716">
        <ele>1338</ele>
        <time>2011-08-17T10:25:56Z</time>
      </trkpt>
      <trkpt lat="44.1969" lon="6.09737">
        <ele>1334</ele>
        <time>2011-08-17T10:26:11Z</time>
      </trkpt>
      <trkpt lat="44.19617" lon="6.09743">
        <ele>1330</ele>
        <time>2011-08-17T10:26:22Z</time>
      </trkpt>
      <trkpt lat="44.19569" lon="6.09732">
        <ele>1330</ele>
        <time>2011-08-17T10:26:38Z</time>
      </trkpt>
      <trkpt lat="44.19511" lon="6.09735">
        <ele>1332</ele>
        <time>2011-08-17T10:26:57Z</time>
      </trkpt>
      <trkpt lat="44.19502" lon="6.09737">
        <ele>1333</ele>
        <time>2011-08-17T10:26:59Z</time>
      </trkpt>
      <trkpt lat="44.19457" lon="6.09732">
        <ele>1329</ele>
        <time>2011-08-17T10:27:07Z</time>
      </trkpt>
      <trkpt lat="44.1941" lon="6.09707">
        <ele>1325</ele>
        <time>2011-08-17T10:27:19Z</time>
      </trkpt>
      <trkpt lat="44.19375" lon="6.09701">
        <ele>1325</ele>
        <time>2011-08-17T10:27:31Z</time>
      </trkpt>
      <trkpt lat="44.19367" lon="6.09701">
        <ele>1325</ele>
        <time>2011-08-17T10:27:33Z</time>
      </trkpt>
      <trkpt lat="44.19304" lon="6.09717">
        <ele>1321</ele>
        <time>2011-08-17T10:27:44Z</time>
      </trkpt>
      <trkpt lat="44.19276" lon="6.09721">
        <ele>1320</ele>
        <time>2011-08-17T10:27:48Z</time>
      </trkpt>
      <trkpt lat="44.19256" lon="6.09728">
        <ele>1320</ele>
        <time>2011-08-17T10:27:52Z</time>
      </trkpt>
      <trkpt lat="44.19245" lon="6.09731">
        <ele>1317</ele>
        <time>2011-08-17T10:27:54Z</time>
      </trkpt>
      <trkpt lat="44.19223" lon="6.09736">
        <ele>1316</ele>
        <time>2011-08-17T10:27:58Z</time>
      </trkpt>
      <trkpt lat="44.19175" lon="6.09725">
        <ele>1314</ele>
        <time>2011-08-17T10:28:10Z</time>
      </trkpt>
      <trkpt lat="44.19128" lon="6.09722">
        <ele>1310</ele>
        <time>2011-08-17T10:28:23Z</time>
      </trkpt>
      <trkpt lat="44.19026" lon="6.09723">
        <ele>1305</ele>
        <time>2011-08-17T10:28:38Z</time>
      </trkpt>
      <trkpt lat="44.18976" lon="6.09727">
        <ele>1301</ele>
        <time>2011-08-17T10:28:45Z</time>
      </trkpt>
      <trkpt lat="44.18953" lon="6.09734">
        <ele>1301</ele>
        <time>2011-08-17T10:28:49Z</time>
      </trkpt>
      <trkpt lat="44.18934" lon="6.09737">
        <ele>1302</ele>
        <time>2011-08-17T10:28:53Z</time>
      </trkpt>
      <trkpt lat="44.18921" lon="6.09738">
        <ele>1303</ele>
        <time>2011-08-17T10:28:56Z</time>
      </trkpt>
      <trkpt lat="44.18892" lon="6.09747">
        <ele>1295</ele>
        <time>2011-08-17T10:29:02Z</time>
      </trkpt>
      <trkpt lat="44.18881" lon="6.09746">
        <ele>1293</ele>
        <time>2011-08-17T10:29:04Z</time>
      </trkpt>
      <trkpt lat="44.18849" lon="6.09736">
        <ele>1291</ele>
        <time>2011-08-17T10:29:09Z</time>
      </trkpt>
      <trkpt lat="44.188" lon="6.09738">
        <ele>1283</ele>
        <time>2011-08-17T10:29:18Z</time>
      </trkpt>
      <trkpt lat="44.18757" lon="6.09746">
        <ele>1287</ele>
        <time>2011-08-17T10:29:26Z</time>
      </trkpt>
      <trkpt lat="44.18712" lon="6.09738">
        <ele>1288</ele>
        <time>2011-08-17T10:29:38Z</time>
      </trkpt>
      <trkpt lat="44.18683" lon="6.09727">
        <ele>1290</ele>
        <time>2011-08-17T10:29:54Z</time>
      </trkpt>
      <trkpt lat="44.18679" lon="6.09726">
        <ele>1291</ele>
        <time>2011-08-17T10:30:14Z</time>
      </trkpt>
      <trkpt lat="44.18665" lon="6.09718">
        <ele>1295</ele>
        <time>2011-08-17T10:30:29Z</time>
      </trkpt>
      <trkpt lat="44.18651" lon="6.09716">
        <ele>1294</ele>
        <time>2011-08-17T10:30:47Z</time>
      </trkpt>
      <trkpt lat="44.18632" lon="6.09718">
        <ele>1294</ele>
        <time>2011-08-17T10:31:06Z</time>
      </trkpt>
      <trkpt lat="44.18601" lon="6.09729">
        <ele>1297</ele>
        <time>2011-08-17T10:31:17Z</time>
      </trkpt>
      <trkpt lat="44.1856" lon="6.09734">
        <ele>1301</ele>
        <time>2011-08-17T10:31:31Z</time>
      </trkpt>
      <trkpt lat="44.18518" lon="6.09738">
        <ele>1305</ele>
        <time>2011-08-17T10:31:50Z</time>
      </trkpt>
      <trkpt lat="44.18494" lon="6.09726">
        <ele>1313</ele>
        <time>2011-08-17T10:32:09Z</time>
      </trkpt>
      <trkpt lat="44.18492" lon="6.09726">
        <ele>1313</ele>
        <time>2011-08-17T10:32:14Z</time>
      </trkpt>
      <trkpt lat="44.18468" lon="6.0972">
        <ele>1315</ele>
        <time>2011-08-17T10:32:37Z</time>
      </trkpt>
      <trkpt lat="44.18456" lon="6.09721">
        <ele>1316</ele>
        <time>2011-08-17T10:32:52Z</time>
      </trkpt>
      <trkpt lat="44.18443" lon="6.09722">
        <ele>1318</ele>
        <time>2011-08-17T10:33:09Z</time>
      </trkpt>
      <trkpt lat="44.18435" lon="6.09723">
        <ele>1320</ele>
        <time>2011-08-17T10:33:24Z</time>
      </trkpt>
      <trkpt lat="44.18429" lon="6.09732">
        <ele>1323</ele>
        <time>2011-08-17T10:33:43Z</time>
      </trkpt>
      <trkpt lat="44.18425" lon="6.09746">
        <ele>1329</ele>
        <time>2011-08-17T10:34:01Z</time>
      </trkpt>
      <trkpt lat="44.1842" lon="6.09751">
        <ele>1333</ele>
        <time>2011-08-17T10:34:11Z</time>
      </trkpt>
      <trkpt lat="44.18411" lon="6.09742">
        <ele>1336</ele>
        <time>2011-08-17T10:34:28Z</time>
      </trkpt>
      <trkpt lat="44.18398" lon="6.09749">
        <ele>1337</ele>
        <time>2011-08-17T10:34:48Z</time>
      </trkpt>
      <trkpt lat="44.18389" lon="6.0975">
        <ele>1341</ele>
        <time>2011-08-17T10:35:09Z</time>
      </trkpt>
      <trkpt lat="44.18373" lon="6.0975">
        <ele>1341</ele>
        <time>2011-08-17T10:35:30Z</time>
      </trkpt>
      <trkpt lat="44.18366" lon="6.09751">
        <ele>1345</ele>
        <time>2011-08-17T10:35:45Z</time>
      </trkpt>
      <trkpt lat="44.18356" lon="6.09753">
        <ele>1348</ele>
        <time>2011-08-17T10:36:02Z</time>
      </trkpt>
      <trkpt lat="44.18341" lon="6.09759">
        <ele>1351</ele>
        <time>2011-08-17T10:36:24Z</time>
      </trkpt>
      <trkpt lat="44.18333" lon="6.09757">
        <ele>1357</ele>
        <time>2011-08-17T10:36:34Z</time>
      </trkpt>
      <trkpt lat="44.18316" lon="6.09743">
        <ele>1356</ele>
        <time>2011-08-17T10:36:54Z</time>
      </trkpt>
      <trkpt lat="44.18305" lon="6.09736">
        <ele>1355</ele>
        <time>2011-08-17T10:37:07Z</time>
      </trkpt>
      <trkpt lat="44.18291" lon="6.09729">
        <ele>1355</ele>
        <time>2011-08-17T10:37:22Z</time>
      </trkpt>
      <trkpt lat="44.18251" lon="6.09711">
        <ele>1355</ele>
        <time>2011-08-17T10:37:45Z</time>
      </trkpt>
      <trkpt lat="44.18221" lon="6.09702">
        <ele>1357</ele>
        <time>2011-08-17T10:38:04Z</time>
      </trkpt>
      <trkpt lat="44.18183" lon="6.09686">
        <ele>1358</ele>
        <time>2011-08-17T10:38:27Z</time>
      </trkpt>
      <trkpt lat="44.18155" lon="6.09665">
        <ele>1356</ele>
        <time>2011-08-17T10:38:43Z</time>
      </trkpt>
      <trkpt lat="44.18115" lon="6.09631">
        <ele>1353</ele>
        <time>2011-08-17T10:38:58Z</time>
      </trkpt>
      <trkpt lat="44.18077" lon="6.09609">
        <ele>1365</ele>
        <time>2011-08-17T10:39:20Z</time>
      </trkpt>
      <trkpt lat="44.18058" lon="6.09594">
        <ele>1367</ele>
        <time>2011-08-17T10:39:39Z</time>
      </trkpt>
      <trkpt lat="44.18047" lon="6.09585">
        <ele>1370</ele>
        <time>2011-08-17T10:39:56Z</time>
      </trkpt>
      <trkpt lat="44.18034" lon="6.09577">
        <ele>1373</ele>
        <time>2011-08-17T10:40:16Z</time>
      </trkpt>
      <trkpt lat="44.18017" lon="6.09566">
        <ele>1377</ele>
        <time>2011-08-17T10:40:39Z</time>
      </trkpt>
      <trkpt lat="44.17993" lon="6.09553">
        <ele>1394</ele>
        <time>2011-08-17T10:41:08Z</time>
      </trkpt>
      <trkpt lat="44.17981" lon="6.09552">
        <ele>1394</ele>
        <time>2011-08-17T10:41:28Z</time>
      </trkpt>
      <trkpt lat="44.1798" lon="6.09551">
        <ele>1394</ele>
        <time>2011-08-17T10:41:29Z</time>
      </trkpt>
      <trkpt lat="44.17971" lon="6.09551">
        <ele>1395</ele>
        <time>2011-08-17T10:41:46Z</time>
      </trkpt>
      <trkpt lat="44.17961" lon="6.09546">
        <ele>1395</ele>
        <time>2011-08-17T10:41:57Z</time>
      </trkpt>
      <trkpt lat="44.17947" lon="6.09533">
        <ele>1396</ele>
        <time>2011-08-17T10:42:13Z</time>
      </trkpt>
      <trkpt lat="44.17933" lon="6.09507">
        <ele>1399</ele>
        <time>2011-08-17T10:42:33Z</time>
      </trkpt>
      <trkpt lat="44.17926" lon="6.09494">
        <ele>1400</ele>
        <time>2011-08-17T10:42:48Z</time>
      </trkpt>
      <trkpt lat="44.17891" lon="6.09459">
        <ele>1397</ele>
        <time>2011-08-17T10:42:57Z</time>
      </trkpt>
      <trkpt lat="44.17843" lon="6.09415">
        <ele>1397</ele>
        <time>2011-08-17T10:43:08Z</time>
      </trkpt>
      <trkpt lat="44.17812" lon="6.09392">
        <ele>1399</ele>
        <time>2011-08-17T10:43:27Z</time>
      </trkpt>
      <trkpt lat="44.17787" lon="6.09361">
        <ele>1400</ele>
        <time>2011-08-17T10:43:47Z</time>
      </trkpt>
      <trkpt lat="44.17764" lon="6.09345">
        <ele>1403</ele>
        <time>2011-08-17T10:44:04Z</time>
      </trkpt>
      <trkpt lat="44.17744" lon="6.09333">
        <ele>1407</ele>
        <time>2011-08-17T10:44:16Z</time>
      </trkpt>
      <trkpt lat="44.1773" lon="6.0932">
        <ele>1402</ele>
        <time>2011-08-17T10:44:20Z</time>
      </trkpt>
      <trkpt lat="44.17714" lon="6.09306">
        <ele>1400</ele>
        <time>2011-08-17T10:44:24Z</time>
      </trkpt>
      <trkpt lat="44.17703" lon="6.09301">
        <ele>1399</ele>
        <time>2011-08-17T10:44:26Z</time>
      </trkpt>
      <trkpt lat="44.17628" lon="6.09258">
        <ele>1401</ele>
        <time>2011-08-17T10:44:39Z</time>
      </trkpt>
      <trkpt lat="44.17601" lon="6.09251">
        <ele>1404</ele>
        <time>2011-08-17T10:44:52Z</time>
      </trkpt>
      <trkpt lat="44.17593" lon="6.09249">
        <ele>1402</ele>
        <time>2011-08-17T10:44:57Z</time>
      </trkpt>
      <trkpt lat="44.17576" lon="6.09244">
        <ele>1409</ele>
        <time>2011-08-17T10:45:13Z</time>
      </trkpt>
      <trkpt lat="44.17569" lon="6.09242">
        <ele>1409</ele>
        <time>2011-08-17T10:45:26Z</time>
      </trkpt>
      <trkpt lat="44.17546" lon="6.09241">
        <ele>1412</ele>
        <time>2011-08-17T10:45:48Z</time>
      </trkpt>
      <trkpt lat="44.17532" lon="6.09238">
        <ele>1414</ele>
        <time>2011-08-17T10:46:06Z</time>
      </trkpt>
      <trkpt lat="44.17529" lon="6.09237">
        <ele>1415</ele>
        <time>2011-08-17T10:46:20Z</time>
      </trkpt>
      <trkpt lat="44.17517" lon="6.09233">
        <ele>1417</ele>
        <time>2011-08-17T10:46:34Z</time>
      </trkpt>
      <trkpt lat="44.17515" lon="6.09233">
        <ele>1417</ele>
        <time>2011-08-17T10:46:40Z</time>
      </trkpt>
      <trkpt lat="44.17501" lon="6.09212">
        <ele>1416</ele>
        <time>2011-08-17T10:46:59Z</time>
      </trkpt>
      <trkpt lat="44.1749" lon="6.092">
        <ele>1423</ele>
        <time>2011-08-17T10:47:16Z</time>
      </trkpt>
      <trkpt lat="44.17483" lon="6.09182">
        <ele>1424</ele>
        <time>2011-08-17T10:47:30Z</time>
      </trkpt>
      <trkpt lat="44.17475" lon="6.09172">
        <ele>1424</ele>
        <time>2011-08-17T10:47:45Z</time>
      </trkpt>
      <trkpt lat="44.17469" lon="6.09163">
        <ele>1421</ele>
        <time>2011-08-17T10:47:56Z</time>
      </trkpt>
      <trkpt lat="44.17465" lon="6.0916">
        <ele>1421</ele>
        <time>2011-08-17T10:48:05Z</time>
      </trkpt>
      <trkpt lat="44.17446" lon="6.09159">
        <ele>1422</ele>
        <time>2011-08-17T10:48:14Z</time>
      </trkpt>
      <trkpt lat="44.17434" lon="6.09151">
        <ele>1423</ele>
        <time>2011-08-17T10:48:19Z</time>
      </trkpt>
      <trkpt lat="44.17427" lon="6.09146">
        <ele>1423</ele>
        <time>2011-08-17T10:48:23Z</time>
      </trkpt>
      <trkpt lat="44.17423" lon="6.09144">
        <ele>1423</ele>
        <time>2011-08-17T10:48:25Z</time>
      </trkpt>
      <trkpt lat="44.17418" lon="6.09137">
        <ele>1422</ele>
        <time>2011-08-17T10:48:29Z</time>
      </trkpt>
      <trkpt lat="44.17397" lon="6.0912">
        <ele>1416</ele>
        <time>2011-08-17T10:48:38Z</time>
      </trkpt>
      <trkpt lat="44.17393" lon="6.09118">
        <ele>1416</ele>
        <time>2011-08-17T10:48:39Z</time>
      </trkpt>
      <trkpt lat="44.17387" lon="6.09115">
        <ele>1415</ele>
        <time>2011-08-17T10:48:41Z</time>
      </trkpt>
      <trkpt lat="44.17359" lon="6.09064">
        <ele>1405</ele>
        <time>2011-08-17T10:48:53Z</time>
      </trkpt>
      <trkpt lat="44.17333" lon="6.0904">
        <ele>1396</ele>
        <time>2011-08-17T10:49:00Z</time>
      </trkpt>
      <trkpt lat="44.17306" lon="6.08997">
        <ele>1393</ele>
        <time>2011-08-17T10:49:07Z</time>
      </trkpt>
      <trkpt lat="44.17301" lon="6.08963">
        <ele>1391</ele>
        <time>2011-08-17T10:49:12Z</time>
      </trkpt>
      <trkpt lat="44.17288" lon="6.08934">
        <ele>1391</ele>
        <time>2011-08-17T10:49:17Z</time>
      </trkpt>
      <trkpt lat="44.17266" lon="6.089">
        <ele>1390</ele>
        <time>2011-08-17T10:49:30Z</time>
      </trkpt>
      <trkpt lat="44.17264" lon="6.08894">
        <ele>1389</ele>
        <time>2011-08-17T10:49:33Z</time>
      </trkpt>
      <trkpt lat="44.17236" lon="6.08874">
        <ele>1392</ele>
        <time>2011-08-17T10:49:41Z</time>
      </trkpt>
      <trkpt lat="44.17224" lon="6.08864">
        <ele>1391</ele>
        <time>2011-08-17T10:49:56Z</time>
      </trkpt>
      <trkpt lat="44.17218" lon="6.0886">
        <ele>1391</ele>
        <time>2011-08-17T10:51:08Z</time>
      </trkpt>
      <trkpt lat="44.17181" lon="6.08822">
        <ele>1391</ele>
        <time>2011-08-17T10:51:20Z</time>
      </trkpt>
      <trkpt lat="44.17168" lon="6.08807">
        <ele>1391</ele>
        <time>2011-08-17T10:51:23Z</time>
      </trkpt>
      <trkpt lat="44.17158" lon="6.08791">
        <ele>1387</ele>
        <time>2011-08-17T10:51:26Z</time>
      </trkpt>
      <trkpt lat="44.17144" lon="6.08756">
        <ele>1388</ele>
        <time>2011-08-17T10:51:36Z</time>
      </trkpt>
      <trkpt lat="44.17108" lon="6.08731">
        <ele>1382</ele>
        <time>2011-08-17T10:51:48Z</time>
      </trkpt>
      <trkpt lat="44.17071" lon="6.08712">
        <ele>1384</ele>
        <time>2011-08-17T10:52:01Z</time>
      </trkpt>
      <trkpt lat="44.17053" lon="6.08704">
        <ele>1384</ele>
        <time>2011-08-17T10:52:15Z</time>
      </trkpt>
      <trkpt lat="44.17035" lon="6.08696">
        <ele>1385</ele>
        <time>2011-08-17T10:52:34Z</time>
      </trkpt>
      <trkpt lat="44.1701" lon="6.0869">
        <ele>1387</ele>
        <time>2011-08-17T10:52:57Z</time>
      </trkpt>
      <trkpt lat="44.16998" lon="6.08688">
        <ele>1390</ele>
        <time>2011-08-17T10:53:11Z</time>
      </trkpt>
      <trkpt lat="44.16983" lon="6.08684">
        <ele>1390</ele>
        <time>2011-08-17T10:53:25Z</time>
      </trkpt>
      <trkpt lat="44.16959" lon="6.08671">
        <ele>1390</ele>
        <time>2011-08-17T10:53:45Z</time>
      </trkpt>
      <trkpt lat="44.16954" lon="6.08669">
        <ele>1390</ele>
        <time>2011-08-17T10:53:54Z</time>
      </trkpt>
      <trkpt lat="44.16922" lon="6.0864">
        <ele>1390</ele>
        <time>2011-08-17T10:54:10Z</time>
      </trkpt>
      <trkpt lat="44.16881" lon="6.08586">
        <ele>1390</ele>
        <time>2011-08-17T10:54:24Z</time>
      </trkpt>
      <trkpt lat="44.16876" lon="6.08581">
        <ele>1391</ele>
        <time>2011-08-17T10:54:31Z</time>
      </trkpt>
      <trkpt lat="44.16867" lon="6.08572">
        <ele>1392</ele>
        <time>2011-08-17T10:54:48Z</time>
      </trkpt>
      <trkpt lat="44.16848" lon="6.08552">
        <ele>1393</ele>
        <time>2011-08-17T10:55:12Z</time>
      </trkpt>
      <trkpt lat="44.16833" lon="6.08537">
        <ele>1394</ele>
        <time>2011-08-17T10:55:30Z</time>
      </trkpt>
      <trkpt lat="44.16831" lon="6.08534">
        <ele>1403</ele>
        <time>2011-08-17T10:55:45Z</time>
      </trkpt>
      <trkpt lat="44.16817" lon="6.08524">
        <ele>1404</ele>
        <time>2011-08-17T10:56:02Z</time>
      </trkpt>
      <trkpt lat="44.16799" lon="6.08512">
        <ele>1405</ele>
        <time>2011-08-17T10:56:28Z</time>
      </trkpt>
      <trkpt lat="44.16774" lon="6.08499">
        <ele>1408</ele>
        <time>2011-08-17T10:56:53Z</time>
      </trkpt>
      <trkpt lat="44.16752" lon="6.08492">
        <ele>1412</ele>
        <time>2011-08-17T10:57:16Z</time>
      </trkpt>
      <trkpt lat="44.16732" lon="6.08485">
        <ele>1414</ele>
        <time>2011-08-17T10:57:37Z</time>
      </trkpt>
      <trkpt lat="44.16712" lon="6.08481">
        <ele>1414</ele>
        <time>2011-08-17T10:57:57Z</time>
      </trkpt>
      <trkpt lat="44.16687" lon="6.08476">
        <ele>1416</ele>
        <time>2011-08-17T10:58:22Z</time>
      </trkpt>
      <trkpt lat="44.16678" lon="6.08473">
        <ele>1416</ele>
        <time>2011-08-17T10:58:40Z</time>
      </trkpt>
    </trkseg>
  </trk>
  <trk>
    <name><![CDATA[ACTIVE LOG131311]]></name>
    <trkseg>
      <trkpt lat="44.16679" lon="6.08473">
        <ele>1416</ele>
        <time>2011-08-17T11:13:10Z</time>
      </trkpt>
      <trkpt lat="44.1667" lon="6.0844">
        <ele>1415</ele>
        <time>2011-08-17T11:13:26Z</time>
      </trkpt>
      <trkpt lat="44.16668" lon="6.08426">
        <ele>1415</ele>
        <time>2011-08-17T11:13:31Z</time>
      </trkpt>
      <trkpt lat="44.16663" lon="6.08379">
        <ele>1402</ele>
        <time>2011-08-17T11:13:44Z</time>
      </trkpt>
      <trkpt lat="44.16652" lon="6.08323">
        <ele>1393</ele>
        <time>2011-08-17T11:13:54Z</time>
      </trkpt>
      <trkpt lat="44.16613" lon="6.08233">
        <ele>1384</ele>
        <time>2011-08-17T11:14:03Z</time>
      </trkpt>
      <trkpt lat="44.16595" lon="6.08211">
        <ele>1385</ele>
        <time>2011-08-17T11:14:11Z</time>
      </trkpt>
      <trkpt lat="44.16572" lon="6.08187">
        <ele>1386</ele>
        <time>2011-08-17T11:14:26Z</time>
      </trkpt>
      <trkpt lat="44.16542" lon="6.08164">
        <ele>1381</ele>
        <time>2011-08-17T11:14:40Z</time>
      </trkpt>
      <trkpt lat="44.16508" lon="6.08151">
        <ele>1380</ele>
        <time>2011-08-17T11:14:54Z</time>
      </trkpt>
      <trkpt lat="44.16478" lon="6.08142">
        <ele>1369</ele>
        <time>2011-08-17T11:15:07Z</time>
      </trkpt>
      <trkpt lat="44.16448" lon="6.0811">
        <ele>1363</ele>
        <time>2011-08-17T11:15:20Z</time>
      </trkpt>
      <trkpt lat="44.16435" lon="6.08104">
        <ele>1360</ele>
        <time>2011-08-17T11:15:24Z</time>
      </trkpt>
      <trkpt lat="44.16428" lon="6.08105">
        <ele>1359</ele>
        <time>2011-08-17T11:15:26Z</time>
      </trkpt>
      <trkpt lat="44.16395" lon="6.08086">
        <ele>1345</ele>
        <time>2011-08-17T11:15:35Z</time>
      </trkpt>
      <trkpt lat="44.16321" lon="6.08074">
        <ele>1326</ele>
        <time>2011-08-17T11:15:48Z</time>
      </trkpt>
      <trkpt lat="44.16217" lon="6.08087">
        <ele>1315</ele>
        <time>2011-08-17T11:16:03Z</time>
      </trkpt>
      <trkpt lat="44.16176" lon="6.08091">
        <ele>1314</ele>
        <time>2011-08-17T11:16:16Z</time>
      </trkpt>
      <trkpt lat="44.16136" lon="6.08095">
        <ele>1316</ele>
        <time>2011-08-17T11:16:33Z</time>
      </trkpt>
      <trkpt lat="44.16136" lon="6.08094">
        <ele>1316</ele>
        <time>2011-08-17T11:17:30Z</time>
      </trkpt>
      <trkpt lat="44.16136" lon="6.08094">
        <ele>1316</ele>
        <time>2011-08-17T11:18:12Z</time>
      </trkpt>
      <trkpt lat="44.16137" lon="6.08094">
        <ele>1316</ele>
        <time>2011-08-17T11:18:47Z</time>
      </trkpt>
      <trkpt lat="44.16124" lon="6.08093">
        <ele>1316</ele>
        <time>2011-08-17T11:19:04Z</time>
      </trkpt>
      <trkpt lat="44.16112" lon="6.08093">
        <ele>1317</ele>
        <time>2011-08-17T11:19:19Z</time>
      </trkpt>
      <trkpt lat="44.1609" lon="6.08096">
        <ele>1318</ele>
        <time>2011-08-17T11:19:42Z</time>
      </trkpt>
      <trkpt lat="44.1607" lon="6.08095">
        <ele>1321</ele>
        <time>2011-08-17T11:20:00Z</time>
      </trkpt>
      <trkpt lat="44.16054" lon="6.08096">
        <ele>1322</ele>
        <time>2011-08-17T11:20:19Z</time>
      </trkpt>
      <trkpt lat="44.1604" lon="6.08095">
        <ele>1323</ele>
        <time>2011-08-17T11:20:35Z</time>
      </trkpt>
      <trkpt lat="44.16041" lon="6.08095">
        <ele>1323</ele>
        <time>2011-08-17T11:20:37Z</time>
      </trkpt>
      <trkpt lat="44.16049" lon="6.08095">
        <ele>1322</ele>
        <time>2011-08-17T11:20:52Z</time>
      </trkpt>
      <trkpt lat="44.16048" lon="6.08094">
        <ele>1323</ele>
        <time>2011-08-17T11:21:40Z</time>
      </trkpt>
      <trkpt lat="44.16048" lon="6.08092">
        <ele>1323</ele>
        <time>2011-08-17T11:29:16Z</time>
      </trkpt>
      <trkpt lat="44.16048" lon="6.08092">
        <ele>1323</ele>
        <time>2011-08-17T11:32:04Z</time>
      </trkpt>
      <trkpt lat="44.16049" lon="6.08092">
        <ele>1322</ele>
        <time>2011-08-17T11:33:34Z</time>
      </trkpt>
      <trkpt lat="44.16047" lon="6.08094">
        <ele>1323</ele>
        <time>2011-08-17T11:37:48Z</time>
      </trkpt>
      <trkpt lat="44.16047" lon="6.08094">
        <ele>1323</ele>
        <time>2011-08-17T11:41:03Z</time>
      </trkpt>
      <trkpt lat="44.16047" lon="6.08094">
        <ele>1323</ele>
        <time>2011-08-17T11:41:55Z</time>
      </trkpt>
      <trkpt lat="44.16045" lon="6.08096">
        <ele>1323</ele>
        <time>2011-08-17T11:44:33Z</time>
      </trkpt>
      <trkpt lat="44.16045" lon="6.08096">
        <ele>1323</ele>
        <time>2011-08-17T11:47:06Z</time>
      </trkpt>
      <trkpt lat="44.16032" lon="6.08093">
        <ele>1324</ele>
        <time>2011-08-17T11:47:22Z</time>
      </trkpt>
      <trkpt lat="44.16009" lon="6.08089">
        <ele>1327</ele>
        <time>2011-08-17T11:47:42Z</time>
      </trkpt>
      <trkpt lat="44.16008" lon="6.0809">
        <ele>1327</ele>
        <time>2011-08-17T11:48:01Z</time>
      </trkpt>
      <trkpt lat="44.1598" lon="6.08083">
        <ele>1324</ele>
        <time>2011-08-17T11:48:16Z</time>
      </trkpt>
      <trkpt lat="44.15946" lon="6.08048">
        <ele>1320</ele>
        <time>2011-08-17T11:48:28Z</time>
      </trkpt>
      <trkpt lat="44.15937" lon="6.08034">
        <ele>1319</ele>
        <time>2011-08-17T11:48:30Z</time>
      </trkpt>
      <trkpt lat="44.1592" lon="6.0802">
        <ele>1319</ele>
        <time>2011-08-17T11:48:34Z</time>
      </trkpt>
      <trkpt lat="44.15906" lon="6.08006">
        <ele>1317</ele>
        <time>2011-08-17T11:48:41Z</time>
      </trkpt>
      <trkpt lat="44.15895" lon="6.08">
        <ele>1312</ele>
        <time>2011-08-17T11:48:55Z</time>
      </trkpt>
      <trkpt lat="44.15896" lon="6.08">
        <ele>1317</ele>
        <time>2011-08-17T11:49:08Z</time>
      </trkpt>
      <trkpt lat="44.15911" lon="6.0801">
        <ele>1317</ele>
        <time>2011-08-17T11:49:25Z</time>
      </trkpt>
      <trkpt lat="44.15911" lon="6.08018">
        <ele>1317</ele>
        <time>2011-08-17T11:49:36Z</time>
      </trkpt>
      <trkpt lat="44.15912" lon="6.08027">
        <ele>1317</ele>
        <time>2011-08-17T11:49:42Z</time>
      </trkpt>
      <trkpt lat="44.15911" lon="6.0805">
        <ele>1318</ele>
        <time>2011-08-17T11:49:46Z</time>
      </trkpt>
      <trkpt lat="44.15891" lon="6.08142">
        <ele>1311</ele>
        <time>2011-08-17T11:50:00Z</time>
      </trkpt>
      <trkpt lat="44.15865" lon="6.08175">
        <ele>1297</ele>
        <time>2011-08-17T11:50:10Z</time>
      </trkpt>
      <trkpt lat="44.15861" lon="6.08179">
        <ele>1296</ele>
        <time>2011-08-17T11:50:11Z</time>
      </trkpt>
      <trkpt lat="44.15831" lon="6.08199">
        <ele>1284</ele>
        <time>2011-08-17T11:50:21Z</time>
      </trkpt>
      <trkpt lat="44.15829" lon="6.08196">
        <ele>1285</ele>
        <time>2011-08-17T11:50:23Z</time>
      </trkpt>
      <trkpt lat="44.1583" lon="6.08188">
        <ele>1286</ele>
        <time>2011-08-17T11:50:34Z</time>
      </trkpt>
      <trkpt lat="44.15833" lon="6.08181">
        <ele>1296</ele>
        <time>2011-08-17T11:50:57Z</time>
      </trkpt>
      <trkpt lat="44.15834" lon="6.0818">
        <ele>1296</ele>
        <time>2011-08-17T11:50:58Z</time>
      </trkpt>
      <trkpt lat="44.15842" lon="6.08156">
        <ele>1302</ele>
        <time>2011-08-17T11:51:19Z</time>
      </trkpt>
      <trkpt lat="44.15842" lon="6.08157">
        <ele>1302</ele>
        <time>2011-08-17T11:52:22Z</time>
      </trkpt>
      <trkpt lat="44.15844" lon="6.08152">
        <ele>1303</ele>
        <time>2011-08-17T11:53:48Z</time>
      </trkpt>
      <trkpt lat="44.15849" lon="6.08129">
        <ele>1307</ele>
        <time>2011-08-17T11:54:05Z</time>
      </trkpt>
      <trkpt lat="44.15854" lon="6.0811">
        <ele>1308</ele>
        <time>2011-08-17T11:54:24Z</time>
      </trkpt>
      <trkpt lat="44.15858" lon="6.08103">
        <ele>1308</ele>
        <time>2011-08-17T11:54:30Z</time>
      </trkpt>
      <trkpt lat="44.15857" lon="6.08099">
        <ele>1308</ele>
        <time>2011-08-17T11:54:37Z</time>
      </trkpt>
      <trkpt lat="44.15844" lon="6.08075">
        <ele>1308</ele>
        <time>2011-08-17T11:54:46Z</time>
      </trkpt>
      <trkpt lat="44.15812" lon="6.08051">
        <ele>1299</ele>
        <time>2011-08-17T11:54:55Z</time>
      </trkpt>
      <trkpt lat="44.15774" lon="6.08026">
        <ele>1298</ele>
        <time>2011-08-17T11:55:03Z</time>
      </trkpt>
      <trkpt lat="44.1576" lon="6.08019">
        <ele>1298</ele>
        <time>2011-08-17T11:55:06Z</time>
      </trkpt>
      <trkpt lat="44.15744" lon="6.08014">
        <ele>1288</ele>
        <time>2011-08-17T11:55:09Z</time>
      </trkpt>
      <trkpt lat="44.15708" lon="6.07987">
        <ele>1293</ele>
        <time>2011-08-17T11:55:17Z</time>
      </trkpt>
      <trkpt lat="44.15678" lon="6.07948">
        <ele>1293</ele>
        <time>2011-08-17T11:55:28Z</time>
      </trkpt>
      <trkpt lat="44.15664" lon="6.0793">
        <ele>1283</ele>
        <time>2011-08-17T11:55:34Z</time>
      </trkpt>
      <trkpt lat="44.15648" lon="6.07921">
        <ele>1280</ele>
        <time>2011-08-17T11:55:39Z</time>
      </trkpt>
      <trkpt lat="44.15635" lon="6.07917">
        <ele>1288</ele>
        <time>2011-08-17T11:55:42Z</time>
      </trkpt>
      <trkpt lat="44.15603" lon="6.07893">
        <ele>1284</ele>
        <time>2011-08-17T11:55:49Z</time>
      </trkpt>
      <trkpt lat="44.15586" lon="6.07885">
        <ele>1283</ele>
        <time>2011-08-17T11:55:53Z</time>
      </trkpt>
      <trkpt lat="44.15542" lon="6.07855">
        <ele>1272</ele>
        <time>2011-08-17T11:56:02Z</time>
      </trkpt>
      <trkpt lat="44.15487" lon="6.07831">
        <ele>1269</ele>
        <time>2011-08-17T11:56:13Z</time>
      </trkpt>
      <trkpt lat="44.15474" lon="6.0783">
        <ele>1266</ele>
        <time>2011-08-17T11:56:16Z</time>
      </trkpt>
      <trkpt lat="44.15436" lon="6.07819">
        <ele>1258</ele>
        <time>2011-08-17T11:56:25Z</time>
      </trkpt>
      <trkpt lat="44.15417" lon="6.0778">
        <ele>1258</ele>
        <time>2011-08-17T11:56:35Z</time>
      </trkpt>
      <trkpt lat="44.15416" lon="6.07744">
        <ele>1248</ele>
        <time>2011-08-17T11:56:46Z</time>
      </trkpt>
      <trkpt lat="44.1542" lon="6.07736">
        <ele>1259</ele>
        <time>2011-08-17T11:56:51Z</time>
      </trkpt>
      <trkpt lat="44.15419" lon="6.07689">
        <ele>1262</ele>
        <time>2011-08-17T11:57:04Z</time>
      </trkpt>
      <trkpt lat="44.15425" lon="6.0765">
        <ele>1264</ele>
        <time>2011-08-17T11:57:20Z</time>
      </trkpt>
      <trkpt lat="44.15416" lon="6.07615">
        <ele>1256</ele>
        <time>2011-08-17T11:57:35Z</time>
      </trkpt>
      <trkpt lat="44.15384" lon="6.07585">
        <ele>1255</ele>
        <time>2011-08-17T11:57:47Z</time>
      </trkpt>
      <trkpt lat="44.15333" lon="6.07567">
        <ele>1257</ele>
        <time>2011-08-17T11:58:04Z</time>
      </trkpt>
      <trkpt lat="44.15272" lon="6.07554">
        <ele>1260</ele>
        <time>2011-08-17T11:58:20Z</time>
      </trkpt>
      <trkpt lat="44.15231" lon="6.07542">
        <ele>1252</ele>
        <time>2011-08-17T11:58:32Z</time>
      </trkpt>
      <trkpt lat="44.15191" lon="6.07508">
        <ele>1249</ele>
        <time>2011-08-17T11:58:46Z</time>
      </trkpt>
      <trkpt lat="44.15191" lon="6.07425">
        <ele>1254</ele>
        <time>2011-08-17T11:58:59Z</time>
      </trkpt>
      <trkpt lat="44.15193" lon="6.07369">
        <ele>1255</ele>
        <time>2011-08-17T11:59:09Z</time>
      </trkpt>
      <trkpt lat="44.15193" lon="6.07354">
        <ele>1255</ele>
        <time>2011-08-17T11:59:11Z</time>
      </trkpt>
      <trkpt lat="44.15182" lon="6.07262">
        <ele>1254</ele>
        <time>2011-08-17T11:59:24Z</time>
      </trkpt>
      <trkpt lat="44.15174" lon="6.07242">
        <ele>1255</ele>
        <time>2011-08-17T11:59:28Z</time>
      </trkpt>
      <trkpt lat="44.15167" lon="6.07229">
        <ele>1257</ele>
        <time>2011-08-17T11:59:31Z</time>
      </trkpt>
      <trkpt lat="44.15144" lon="6.0722">
        <ele>1252</ele>
        <time>2011-08-17T11:59:37Z</time>
      </trkpt>
      <trkpt lat="44.15125" lon="6.07215">
        <ele>1252</ele>
        <time>2011-08-17T11:59:41Z</time>
      </trkpt>
      <trkpt lat="44.15111" lon="6.07213">
        <ele>1251</ele>
        <time>2011-08-17T11:59:44Z</time>
      </trkpt>
      <trkpt lat="44.15087" lon="6.07212">
        <ele>1250</ele>
        <time>2011-08-17T11:59:49Z</time>
      </trkpt>
      <trkpt lat="44.15054" lon="6.07206">
        <ele>1243</ele>
        <time>2011-08-17T11:59:57Z</time>
      </trkpt>
      <trkpt lat="44.15024" lon="6.072">
        <ele>1242</ele>
        <time>2011-08-17T12:00:04Z</time>
      </trkpt>
      <trkpt lat="44.14995" lon="6.07176">
        <ele>1239</ele>
        <time>2011-08-17T12:00:11Z</time>
      </trkpt>
      <trkpt lat="44.14963" lon="6.07159">
        <ele>1240</ele>
        <time>2011-08-17T12:00:16Z</time>
      </trkpt>
      <trkpt lat="44.14896" lon="6.07133">
        <ele>1225</ele>
        <time>2011-08-17T12:00:26Z</time>
      </trkpt>
      <trkpt lat="44.14853" lon="6.07107">
        <ele>1223</ele>
        <time>2011-08-17T12:00:40Z</time>
      </trkpt>
      <trkpt lat="44.14826" lon="6.07068">
        <ele>1212</ele>
        <time>2011-08-17T12:00:52Z</time>
      </trkpt>
      <trkpt lat="44.14831" lon="6.06996">
        <ele>1213</ele>
        <time>2011-08-17T12:01:04Z</time>
      </trkpt>
      <trkpt lat="44.14853" lon="6.06957">
        <ele>1221</ele>
        <time>2011-08-17T12:01:15Z</time>
      </trkpt>
      <trkpt lat="44.14872" lon="6.06912">
        <ele>1214</ele>
        <time>2011-08-17T12:01:27Z</time>
      </trkpt>
      <trkpt lat="44.1488" lon="6.06877">
        <ele>1213</ele>
        <time>2011-08-17T12:01:35Z</time>
      </trkpt>
      <trkpt lat="44.14886" lon="6.06823">
        <ele>1202</ele>
        <time>2011-08-17T12:01:47Z</time>
      </trkpt>
      <trkpt lat="44.1488" lon="6.06809">
        <ele>1200</ele>
        <time>2011-08-17T12:01:49Z</time>
      </trkpt>
      <trkpt lat="44.14834" lon="6.06751">
        <ele>1200</ele>
        <time>2011-08-17T12:01:58Z</time>
      </trkpt>
      <trkpt lat="44.14822" lon="6.06739">
        <ele>1194</ele>
        <time>2011-08-17T12:02:00Z</time>
      </trkpt>
      <trkpt lat="44.14769" lon="6.06706">
        <ele>1189</ele>
        <time>2011-08-17T12:02:09Z</time>
      </trkpt>
      <trkpt lat="44.14726" lon="6.06688">
        <ele>1184</ele>
        <time>2011-08-17T12:02:18Z</time>
      </trkpt>
      <trkpt lat="44.14699" lon="6.06673">
        <ele>1183</ele>
        <time>2011-08-17T12:02:24Z</time>
      </trkpt>
      <trkpt lat="44.14685" lon="6.06661">
        <ele>1180</ele>
        <time>2011-08-17T12:02:27Z</time>
      </trkpt>
      <trkpt lat="44.14664" lon="6.06649">
        <ele>1178</ele>
        <time>2011-08-17T12:02:32Z</time>
      </trkpt>
      <trkpt lat="44.14636" lon="6.06628">
        <ele>1173</ele>
        <time>2011-08-17T12:02:38Z</time>
      </trkpt>
      <trkpt lat="44.14597" lon="6.06602">
        <ele>1169</ele>
        <time>2011-08-17T12:02:46Z</time>
      </trkpt>
      <trkpt lat="44.14567" lon="6.06591">
        <ele>1170</ele>
        <time>2011-08-17T12:02:55Z</time>
      </trkpt>
      <trkpt lat="44.14543" lon="6.06583">
        <ele>1166</ele>
        <time>2011-08-17T12:03:06Z</time>
      </trkpt>
      <trkpt lat="44.14535" lon="6.06582">
        <ele>1167</ele>
        <time>2011-08-17T12:03:16Z</time>
      </trkpt>
      <trkpt lat="44.14531" lon="6.06584">
        <ele>1175</ele>
        <time>2011-08-17T12:03:36Z</time>
      </trkpt>
      <trkpt lat="44.14519" lon="6.06581">
        <ele>1171</ele>
        <time>2011-08-17T12:03:52Z</time>
      </trkpt>
      <trkpt lat="44.14509" lon="6.06573">
        <ele>1173</ele>
        <time>2011-08-17T12:04:09Z</time>
      </trkpt>
      <trkpt lat="44.145" lon="6.06574">
        <ele>1175</ele>
        <time>2011-08-17T12:04:24Z</time>
      </trkpt>
      <trkpt lat="44.14495" lon="6.0657">
        <ele>1182</ele>
        <time>2011-08-17T12:04:38Z</time>
      </trkpt>
      <trkpt lat="44.14484" lon="6.06566">
        <ele>1183</ele>
        <time>2011-08-17T12:04:52Z</time>
      </trkpt>
      <trkpt lat="44.14472" lon="6.06564">
        <ele>1185</ele>
        <time>2011-08-17T12:05:07Z</time>
      </trkpt>
      <trkpt lat="44.14464" lon="6.06566">
        <ele>1186</ele>
        <time>2011-08-17T12:05:22Z</time>
      </trkpt>
      <trkpt lat="44.1445" lon="6.06563">
        <ele>1189</ele>
        <time>2011-08-17T12:05:40Z</time>
      </trkpt>
      <trkpt lat="44.14436" lon="6.06557">
        <ele>1191</ele>
        <time>2011-08-17T12:06:00Z</time>
      </trkpt>
      <trkpt lat="44.14423" lon="6.06557">
        <ele>1193</ele>
        <time>2011-08-17T12:06:18Z</time>
      </trkpt>
      <trkpt lat="44.14412" lon="6.0656">
        <ele>1203</ele>
        <time>2011-08-17T12:06:36Z</time>
      </trkpt>
      <trkpt lat="44.14402" lon="6.06553">
        <ele>1203</ele>
        <time>2011-08-17T12:06:52Z</time>
      </trkpt>
      <trkpt lat="44.14395" lon="6.0655">
        <ele>1202</ele>
        <time>2011-08-17T12:07:11Z</time>
      </trkpt>
      <trkpt lat="44.14382" lon="6.06535">
        <ele>1202</ele>
        <time>2011-08-17T12:07:27Z</time>
      </trkpt>
      <trkpt lat="44.14365" lon="6.06488">
        <ele>1194</ele>
        <time>2011-08-17T12:07:40Z</time>
      </trkpt>
      <trkpt lat="44.1435" lon="6.06472">
        <ele>1194</ele>
        <time>2011-08-17T12:07:45Z</time>
      </trkpt>
      <trkpt lat="44.14338" lon="6.06447">
        <ele>1192</ele>
        <time>2011-08-17T12:07:50Z</time>
      </trkpt>
      <trkpt lat="44.14317" lon="6.06423">
        <ele>1192</ele>
        <time>2011-08-17T12:07:55Z</time>
      </trkpt>
      <trkpt lat="44.14307" lon="6.06412">
        <ele>1186</ele>
        <time>2011-08-17T12:07:57Z</time>
      </trkpt>
      <trkpt lat="44.14266" lon="6.06385">
        <ele>1185</ele>
        <time>2011-08-17T12:08:06Z</time>
      </trkpt>
      <trkpt lat="44.14235" lon="6.0638">
        <ele>1186</ele>
        <time>2011-08-17T12:08:17Z</time>
      </trkpt>
      <trkpt lat="44.14202" lon="6.06365">
        <ele>1186</ele>
        <time>2011-08-17T12:08:29Z</time>
      </trkpt>
      <trkpt lat="44.14184" lon="6.06341">
        <ele>1187</ele>
        <time>2011-08-17T12:08:36Z</time>
      </trkpt>
      <trkpt lat="44.14164" lon="6.06294">
        <ele>1182</ele>
        <time>2011-08-17T12:08:44Z</time>
      </trkpt>
      <trkpt lat="44.14125" lon="6.06249">
        <ele>1176</ele>
        <time>2011-08-17T12:08:52Z</time>
      </trkpt>
      <trkpt lat="44.14069" lon="6.06227">
        <ele>1177</ele>
        <time>2011-08-17T12:09:05Z</time>
      </trkpt>
      <trkpt lat="44.14038" lon="6.06238">
        <ele>1176</ele>
        <time>2011-08-17T12:09:11Z</time>
      </trkpt>
      <trkpt lat="44.14013" lon="6.06246">
        <ele>1177</ele>
        <time>2011-08-17T12:09:16Z</time>
      </trkpt>
      <trkpt lat="44.13987" lon="6.06242">
        <ele>1173</ele>
        <time>2011-08-17T12:09:22Z</time>
      </trkpt>
      <trkpt lat="44.13969" lon="6.06232">
        <ele>1170</ele>
        <time>2011-08-17T12:09:26Z</time>
      </trkpt>
      <trkpt lat="44.1393" lon="6.06233">
        <ele>1168</ele>
        <time>2011-08-17T12:09:37Z</time>
      </trkpt>
      <trkpt lat="44.13923" lon="6.06246">
        <ele>1169</ele>
        <time>2011-08-17T12:09:42Z</time>
      </trkpt>
      <trkpt lat="44.13905" lon="6.06275">
        <ele>1156</ele>
        <time>2011-08-17T12:09:48Z</time>
      </trkpt>
      <trkpt lat="44.13885" lon="6.06302">
        <ele>1150</ele>
        <time>2011-08-17T12:09:55Z</time>
      </trkpt>
      <trkpt lat="44.13878" lon="6.0635">
        <ele>1144</ele>
        <time>2011-08-17T12:10:08Z</time>
      </trkpt>
      <trkpt lat="44.13867" lon="6.06393">
        <ele>1140</ele>
        <time>2011-08-17T12:10:15Z</time>
      </trkpt>
      <trkpt lat="44.13857" lon="6.06451">
        <ele>1131</ele>
        <time>2011-08-17T12:10:23Z</time>
      </trkpt>
      <trkpt lat="44.13856" lon="6.06482">
        <ele>1130</ele>
        <time>2011-08-17T12:10:27Z</time>
      </trkpt>
      <trkpt lat="44.13856" lon="6.06501">
        <ele>1126</ele>
        <time>2011-08-17T12:10:29Z</time>
      </trkpt>
      <trkpt lat="44.13858" lon="6.06524">
        <ele>1126</ele>
        <time>2011-08-17T12:10:32Z</time>
      </trkpt>
      <trkpt lat="44.13864" lon="6.06541">
        <ele>1125</ele>
        <time>2011-08-17T12:10:35Z</time>
      </trkpt>
      <trkpt lat="44.1386" lon="6.06592">
        <ele>1125</ele>
        <time>2011-08-17T12:10:41Z</time>
      </trkpt>
      <trkpt lat="44.13846" lon="6.0663">
        <ele>1127</ele>
        <time>2011-08-17T12:10:49Z</time>
      </trkpt>
      <trkpt lat="44.13825" lon="6.06661">
        <ele>1129</ele>
        <time>2011-08-17T12:11:06Z</time>
      </trkpt>
      <trkpt lat="44.13806" lon="6.06674">
        <ele>1126</ele>
        <time>2011-08-17T12:11:17Z</time>
      </trkpt>
      <trkpt lat="44.13782" lon="6.06701">
        <ele>1122</ele>
        <time>2011-08-17T12:11:27Z</time>
      </trkpt>
      <trkpt lat="44.13776" lon="6.06722">
        <ele>1121</ele>
        <time>2011-08-17T12:11:32Z</time>
      </trkpt>
      <trkpt lat="44.13767" lon="6.06736">
        <ele>1120</ele>
        <time>2011-08-17T12:11:35Z</time>
      </trkpt>
      <trkpt lat="44.13746" lon="6.06772">
        <ele>1105</ele>
        <time>2011-08-17T12:11:43Z</time>
      </trkpt>
      <trkpt lat="44.13731" lon="6.06785">
        <ele>1101</ele>
        <time>2011-08-17T12:11:50Z</time>
      </trkpt>
      <trkpt lat="44.13729" lon="6.06789">
        <ele>1100</ele>
        <time>2011-08-17T12:11:53Z</time>
      </trkpt>
      <trkpt lat="44.13721" lon="6.06787">
        <ele>1099</ele>
        <time>2011-08-17T12:12:06Z</time>
      </trkpt>
      <trkpt lat="44.13717" lon="6.06785">
        <ele>1098</ele>
        <time>2011-08-17T12:12:24Z</time>
      </trkpt>
      <trkpt lat="44.13714" lon="6.06795">
        <ele>1097</ele>
        <time>2011-08-17T12:12:39Z</time>
      </trkpt>
      <trkpt lat="44.13711" lon="6.06802">
        <ele>1097</ele>
        <time>2011-08-17T12:12:53Z</time>
      </trkpt>
      <trkpt lat="44.13711" lon="6.06801">
        <ele>1097</ele>
        <time>2011-08-17T12:12:54Z</time>
      </trkpt>
      <trkpt lat="44.13705" lon="6.0681">
        <ele>1096</ele>
        <time>2011-08-17T12:13:05Z</time>
      </trkpt>
      <trkpt lat="44.13704" lon="6.06818">
        <ele>1096</ele>
        <time>2011-08-17T12:13:11Z</time>
      </trkpt>
      <trkpt lat="44.13697" lon="6.06831">
        <ele>1095</ele>
        <time>2011-08-17T12:13:27Z</time>
      </trkpt>
      <trkpt lat="44.13689" lon="6.06841">
        <ele>1093</ele>
        <time>2011-08-17T12:13:42Z</time>
      </trkpt>
      <trkpt lat="44.13678" lon="6.06857">
        <ele>1093</ele>
        <time>2011-08-17T12:13:46Z</time>
      </trkpt>
      <trkpt lat="44.13673" lon="6.06878">
        <ele>1093</ele>
        <time>2011-08-17T12:13:50Z</time>
      </trkpt>
      <trkpt lat="44.13675" lon="6.06896">
        <ele>1092</ele>
        <time>2011-08-17T12:13:53Z</time>
      </trkpt>
      <trkpt lat="44.13657" lon="6.06942">
        <ele>1089</ele>
        <time>2011-08-17T12:14:05Z</time>
      </trkpt>
      <trkpt lat="44.13631" lon="6.06956">
        <ele>1089</ele>
        <time>2011-08-17T12:14:15Z</time>
      </trkpt>
      <trkpt lat="44.13625" lon="6.06955">
        <ele>1089</ele>
        <time>2011-08-17T12:14:17Z</time>
      </trkpt>
      <trkpt lat="44.13595" lon="6.06958">
        <ele>1090</ele>
        <time>2011-08-17T12:14:30Z</time>
      </trkpt>
      <trkpt lat="44.13579" lon="6.06941">
        <ele>1086</ele>
        <time>2011-08-17T12:14:39Z</time>
      </trkpt>
      <trkpt lat="44.13575" lon="6.06939">
        <ele>1086</ele>
        <time>2011-08-17T12:14:45Z</time>
      </trkpt>
      <trkpt lat="44.13563" lon="6.06947">
        <ele>1086</ele>
        <time>2011-08-17T12:15:04Z</time>
      </trkpt>
      <trkpt lat="44.13559" lon="6.06953">
        <ele>1086</ele>
        <time>2011-08-17T12:15:19Z</time>
      </trkpt>
      <trkpt lat="44.13549" lon="6.06963">
        <ele>1086</ele>
        <time>2011-08-17T12:15:41Z</time>
      </trkpt>
      <trkpt lat="44.13535" lon="6.06979">
        <ele>1087</ele>
        <time>2011-08-17T12:16:05Z</time>
      </trkpt>
      <trkpt lat="44.13533" lon="6.06985">
        <ele>1088</ele>
        <time>2011-08-17T12:16:11Z</time>
      </trkpt>
      <trkpt lat="44.13522" lon="6.07008">
        <ele>1097</ele>
        <time>2011-08-17T12:16:30Z</time>
      </trkpt>
      <trkpt lat="44.13514" lon="6.07028">
        <ele>1099</ele>
        <time>2011-08-17T12:16:48Z</time>
      </trkpt>
      <trkpt lat="44.13513" lon="6.07032">
        <ele>1099</ele>
        <time>2011-08-17T12:16:52Z</time>
      </trkpt>
      <trkpt lat="44.13501" lon="6.0706">
        <ele>1103</ele>
        <time>2011-08-17T12:17:10Z</time>
      </trkpt>
      <trkpt lat="44.13487" lon="6.07085">
        <ele>1110</ele>
        <time>2011-08-17T12:17:32Z</time>
      </trkpt>
      <trkpt lat="44.13479" lon="6.07102">
        <ele>1111</ele>
        <time>2011-08-17T12:17:53Z</time>
      </trkpt>
      <trkpt lat="44.13466" lon="6.07123">
        <ele>1112</ele>
        <time>2011-08-17T12:18:14Z</time>
      </trkpt>
      <trkpt lat="44.1345" lon="6.07138">
        <ele>1114</ele>
        <time>2011-08-17T12:18:36Z</time>
      </trkpt>
      <trkpt lat="44.13435" lon="6.07154">
        <ele>1117</ele>
        <time>2011-08-17T12:18:56Z</time>
      </trkpt>
      <trkpt lat="44.1342" lon="6.0716">
        <ele>1122</ele>
        <time>2011-08-17T12:19:16Z</time>
      </trkpt>
      <trkpt lat="44.13406" lon="6.07167">
        <ele>1125</ele>
        <time>2011-08-17T12:19:27Z</time>
      </trkpt>
      <trkpt lat="44.13399" lon="6.07166">
        <ele>1118</ele>
        <time>2011-08-17T12:19:30Z</time>
      </trkpt>
      <trkpt lat="44.13375" lon="6.0718">
        <ele>1126</ele>
        <time>2011-08-17T12:19:41Z</time>
      </trkpt>
      <trkpt lat="44.13339" lon="6.07187">
        <ele>1126</ele>
        <time>2011-08-17T12:19:54Z</time>
      </trkpt>
      <trkpt lat="44.13309" lon="6.07185">
        <ele>1124</ele>
        <time>2011-08-17T12:20:04Z</time>
      </trkpt>
      <trkpt lat="44.13288" lon="6.07191">
        <ele>1124</ele>
        <time>2011-08-17T12:20:08Z</time>
      </trkpt>
      <trkpt lat="44.1327" lon="6.072">
        <ele>1123</ele>
        <time>2011-08-17T12:20:12Z</time>
      </trkpt>
      <trkpt lat="44.13243" lon="6.07217">
        <ele>1123</ele>
        <time>2011-08-17T12:20:18Z</time>
      </trkpt>
      <trkpt lat="44.13238" lon="6.07218">
        <ele>1123</ele>
        <time>2011-08-17T12:20:19Z</time>
      </trkpt>
      <trkpt lat="44.13209" lon="6.07238">
        <ele>1125</ele>
        <time>2011-08-17T12:20:30Z</time>
      </trkpt>
      <trkpt lat="44.13184" lon="6.07242">
        <ele>1126</ele>
        <time>2011-08-17T12:20:40Z</time>
      </trkpt>
      <trkpt lat="44.13166" lon="6.07237">
        <ele>1130</ele>
        <time>2011-08-17T12:20:48Z</time>
      </trkpt>
      <trkpt lat="44.13146" lon="6.07231">
        <ele>1130</ele>
        <time>2011-08-17T12:20:58Z</time>
      </trkpt>
      <trkpt lat="44.1313" lon="6.07221">
        <ele>1129</ele>
        <time>2011-08-17T12:21:07Z</time>
      </trkpt>
      <trkpt lat="44.13079" lon="6.072">
        <ele>1137</ele>
        <time>2011-08-17T12:21:28Z</time>
      </trkpt>
      <trkpt lat="44.13042" lon="6.07203">
        <ele>1139</ele>
        <time>2011-08-17T12:21:45Z</time>
      </trkpt>
      <trkpt lat="44.12992" lon="6.07207">
        <ele>1146</ele>
        <time>2011-08-17T12:22:06Z</time>
      </trkpt>
      <trkpt lat="44.12952" lon="6.07209">
        <ele>1147</ele>
        <time>2011-08-17T12:22:24Z</time>
      </trkpt>
      <trkpt lat="44.12906" lon="6.07206">
        <ele>1151</ele>
        <time>2011-08-17T12:22:43Z</time>
      </trkpt>
      <trkpt lat="44.12858" lon="6.07203">
        <ele>1151</ele>
        <time>2011-08-17T12:23:03Z</time>
      </trkpt>
      <trkpt lat="44.1284" lon="6.072">
        <ele>1150</ele>
        <time>2011-08-17T12:23:17Z</time>
      </trkpt>
      <trkpt lat="44.12839" lon="6.07202">
        <ele>1151</ele>
        <time>2011-08-17T12:23:19Z</time>
      </trkpt>
      <trkpt lat="44.12838" lon="6.07205">
        <ele>1151</ele>
        <time>2011-08-17T12:23:21Z</time>
      </trkpt>
      <trkpt lat="44.12834" lon="6.07214">
        <ele>1153</ele>
        <time>2011-08-17T12:23:36Z</time>
      </trkpt>
      <trkpt lat="44.12801" lon="6.07246">
        <ele>1150</ele>
        <time>2011-08-17T12:23:49Z</time>
      </trkpt>
      <trkpt lat="44.12786" lon="6.07261">
        <ele>1153</ele>
        <time>2011-08-17T12:23:54Z</time>
      </trkpt>
      <trkpt lat="44.1276" lon="6.07282">
        <ele>1151</ele>
        <time>2011-08-17T12:24:03Z</time>
      </trkpt>
      <trkpt lat="44.12748" lon="6.07297">
        <ele>1137</ele>
        <time>2011-08-17T12:24:07Z</time>
      </trkpt>
      <trkpt lat="44.12733" lon="6.07313">
        <ele>1137</ele>
        <time>2011-08-17T12:24:11Z</time>
      </trkpt>
      <trkpt lat="44.12706" lon="6.07344">
        <ele>1137</ele>
        <time>2011-08-17T12:24:19Z</time>
      </trkpt>
      <trkpt lat="44.12677" lon="6.0737">
        <ele>1134</ele>
        <time>2011-08-17T12:24:28Z</time>
      </trkpt>
      <trkpt lat="44.1266" lon="6.07386">
        <ele>1123</ele>
        <time>2011-08-17T12:24:33Z</time>
      </trkpt>
      <trkpt lat="44.12649" lon="6.074">
        <ele>1124</ele>
        <time>2011-08-17T12:24:37Z</time>
      </trkpt>
      <trkpt lat="44.12641" lon="6.07407">
        <ele>1123</ele>
        <time>2011-08-17T12:24:40Z</time>
      </trkpt>
      <trkpt lat="44.12614" lon="6.07447">
        <ele>1128</ele>
        <time>2011-08-17T12:24:51Z</time>
      </trkpt>
      <trkpt lat="44.12612" lon="6.07449">
        <ele>1128</ele>
        <time>2011-08-17T12:25:01Z</time>
      </trkpt>
      <trkpt lat="44.126" lon="6.07471">
        <ele>1129</ele>
        <time>2011-08-17T12:25:11Z</time>
      </trkpt>
      <trkpt lat="44.12596" lon="6.07473">
        <ele>1129</ele>
        <time>2011-08-17T12:25:22Z</time>
      </trkpt>
      <trkpt lat="44.12595" lon="6.07476">
        <ele>1129</ele>
        <time>2011-08-17T12:25:40Z</time>
      </trkpt>
      <trkpt lat="44.12579" lon="6.07491">
        <ele>1121</ele>
        <time>2011-08-17T12:26:01Z</time>
      </trkpt>
      <trkpt lat="44.12574" lon="6.07494">
        <ele>1121</ele>
        <time>2011-08-17T12:26:07Z</time>
      </trkpt>
      <trkpt lat="44.12573" lon="6.07495">
        <ele>1121</ele>
        <time>2011-08-17T12:26:09Z</time>
      </trkpt>
      <trkpt lat="44.1257" lon="6.07497">
        <ele>1120</ele>
        <time>2011-08-17T12:26:16Z</time>
      </trkpt>
      <trkpt lat="44.12545" lon="6.07522">
        <ele>1125</ele>
        <time>2011-08-17T12:26:29Z</time>
      </trkpt>
      <trkpt lat="44.1253" lon="6.07533">
        <ele>1124</ele>
        <time>2011-08-17T12:26:35Z</time>
      </trkpt>
      <trkpt lat="44.12518" lon="6.07547">
        <ele>1124</ele>
        <time>2011-08-17T12:26:40Z</time>
      </trkpt>
      <trkpt lat="44.12517" lon="6.07549">
        <ele>1124</ele>
        <time>2011-08-17T12:26:43Z</time>
      </trkpt>
      <trkpt lat="44.12515" lon="6.07551">
        <ele>1124</ele>
        <time>2011-08-17T12:26:45Z</time>
      </trkpt>
      <trkpt lat="44.12495" lon="6.0757">
        <ele>1114</ele>
        <time>2011-08-17T12:26:57Z</time>
      </trkpt>
      <trkpt lat="44.12493" lon="6.07574">
        <ele>1115</ele>
        <time>2011-08-17T12:27:09Z</time>
      </trkpt>
      <trkpt lat="44.12487" lon="6.07581">
        <ele>1115</ele>
        <time>2011-08-17T12:27:23Z</time>
      </trkpt>
      <trkpt lat="44.12485" lon="6.07586">
        <ele>1123</ele>
        <time>2011-08-17T12:27:33Z</time>
      </trkpt>
      <trkpt lat="44.12482" lon="6.07589">
        <ele>1123</ele>
        <time>2011-08-17T12:27:46Z</time>
      </trkpt>
      <trkpt lat="44.12473" lon="6.07596">
        <ele>1122</ele>
        <time>2011-08-17T12:27:59Z</time>
      </trkpt>
      <trkpt lat="44.12468" lon="6.07599">
        <ele>1122</ele>
        <time>2011-08-17T12:28:14Z</time>
      </trkpt>
      <trkpt lat="44.12463" lon="6.07605">
        <ele>1121</ele>
        <time>2011-08-17T12:28:21Z</time>
      </trkpt>
      <trkpt lat="44.12462" lon="6.07611">
        <ele>1122</ele>
        <time>2011-08-17T12:28:30Z</time>
      </trkpt>
      <trkpt lat="44.12457" lon="6.07617">
        <ele>1122</ele>
        <time>2011-08-17T12:28:42Z</time>
      </trkpt>
      <trkpt lat="44.12456" lon="6.07618">
        <ele>1122</ele>
        <time>2011-08-17T12:28:44Z</time>
      </trkpt>
      <trkpt lat="44.12443" lon="6.07635">
        <ele>1123</ele>
        <time>2011-08-17T12:29:02Z</time>
      </trkpt>
      <trkpt lat="44.12435" lon="6.07642">
        <ele>1123</ele>
        <time>2011-08-17T12:29:15Z</time>
      </trkpt>
      <trkpt lat="44.12415" lon="6.07655">
        <ele>1117</ele>
        <time>2011-08-17T12:29:36Z</time>
      </trkpt>
      <trkpt lat="44.12396" lon="6.07666">
        <ele>1114</ele>
        <time>2011-08-17T12:29:55Z</time>
      </trkpt>
      <trkpt lat="44.12382" lon="6.07674">
        <ele>1126</ele>
        <time>2011-08-17T12:30:11Z</time>
      </trkpt>
      <trkpt lat="44.12371" lon="6.07682">
        <ele>1125</ele>
        <time>2011-08-17T12:30:27Z</time>
      </trkpt>
      <trkpt lat="44.12353" lon="6.07697">
        <ele>1126</ele>
        <time>2011-08-17T12:30:49Z</time>
      </trkpt>
      <trkpt lat="44.12333" lon="6.07709">
        <ele>1123</ele>
        <time>2011-08-17T12:31:11Z</time>
      </trkpt>
      <trkpt lat="44.12321" lon="6.07715">
        <ele>1124</ele>
        <time>2011-08-17T12:31:28Z</time>
      </trkpt>
      <trkpt lat="44.12302" lon="6.07731">
        <ele>1126</ele>
        <time>2011-08-17T12:31:51Z</time>
      </trkpt>
      <trkpt lat="44.12289" lon="6.07751">
        <ele>1131</ele>
        <time>2011-08-17T12:32:12Z</time>
      </trkpt>
      <trkpt lat="44.12291" lon="6.07754">
        <ele>1131</ele>
        <time>2011-08-17T12:32:18Z</time>
      </trkpt>
      <trkpt lat="44.12295" lon="6.07776">
        <ele>1129</ele>
        <time>2011-08-17T12:32:26Z</time>
      </trkpt>
      <trkpt lat="44.123" lon="6.07783">
        <ele>1129</ele>
        <time>2011-08-17T12:32:29Z</time>
      </trkpt>
      <trkpt lat="44.12304" lon="6.078">
        <ele>1127</ele>
        <time>2011-08-17T12:32:34Z</time>
      </trkpt>
      <trkpt lat="44.12308" lon="6.07808">
        <ele>1126</ele>
        <time>2011-08-17T12:32:36Z</time>
      </trkpt>
      <trkpt lat="44.12319" lon="6.07822">
        <ele>1123</ele>
        <time>2011-08-17T12:32:41Z</time>
      </trkpt>
      <trkpt lat="44.12327" lon="6.07835">
        <ele>1114</ele>
        <time>2011-08-17T12:32:46Z</time>
      </trkpt>
      <trkpt lat="44.12363" lon="6.07846">
        <ele>1102</ele>
        <time>2011-08-17T12:32:58Z</time>
      </trkpt>
      <trkpt lat="44.12368" lon="6.07848">
        <ele>1101</ele>
        <time>2011-08-17T12:33:00Z</time>
      </trkpt>
      <trkpt lat="44.1235" lon="6.07869">
        <ele>1098</ele>
        <time>2011-08-17T12:33:10Z</time>
      </trkpt>
      <trkpt lat="44.12323" lon="6.07888">
        <ele>1097</ele>
        <time>2011-08-17T12:33:19Z</time>
      </trkpt>
      <trkpt lat="44.12305" lon="6.07895">
        <ele>1097</ele>
        <time>2011-08-17T12:33:25Z</time>
      </trkpt>
      <trkpt lat="44.12301" lon="6.07901">
        <ele>1096</ele>
        <time>2011-08-17T12:33:30Z</time>
      </trkpt>
      <trkpt lat="44.12328" lon="6.07904">
        <ele>1089</ele>
        <time>2011-08-17T12:33:40Z</time>
      </trkpt>
      <trkpt lat="44.12349" lon="6.07894">
        <ele>1091</ele>
        <time>2011-08-17T12:33:47Z</time>
      </trkpt>
      <trkpt lat="44.1239" lon="6.07889">
        <ele>1092</ele>
        <time>2011-08-17T12:33:56Z</time>
      </trkpt>
      <trkpt lat="44.12418" lon="6.07897">
        <ele>1090</ele>
        <time>2011-08-17T12:34:03Z</time>
      </trkpt>
      <trkpt lat="44.1242" lon="6.079">
        <ele>1089</ele>
        <time>2011-08-17T12:34:04Z</time>
      </trkpt>
      <trkpt lat="44.12417" lon="6.07909">
        <ele>1084</ele>
        <time>2011-08-17T12:34:10Z</time>
      </trkpt>
      <trkpt lat="44.12407" lon="6.07908">
        <ele>1086</ele>
        <time>2011-08-17T12:34:13Z</time>
      </trkpt>
      <trkpt lat="44.1239" lon="6.07923">
        <ele>1073</ele>
        <time>2011-08-17T12:34:18Z</time>
      </trkpt>
      <trkpt lat="44.12371" lon="6.07946">
        <ele>1070</ele>
        <time>2011-08-17T12:34:23Z</time>
      </trkpt>
      <trkpt lat="44.12314" lon="6.07994">
        <ele>1061</ele>
        <time>2011-08-17T12:34:36Z</time>
      </trkpt>
      <trkpt lat="44.12305" lon="6.08">
        <ele>1063</ele>
        <time>2011-08-17T12:34:39Z</time>
      </trkpt>
      <trkpt lat="44.12307" lon="6.0801">
        <ele>1048</ele>
        <time>2011-08-17T12:34:46Z</time>
      </trkpt>
      <trkpt lat="44.12294" lon="6.08019">
        <ele>1047</ele>
        <time>2011-08-17T12:34:51Z</time>
      </trkpt>
      <trkpt lat="44.12287" lon="6.08029">
        <ele>1046</ele>
        <time>2011-08-17T12:34:55Z</time>
      </trkpt>
      <trkpt lat="44.12296" lon="6.0805">
        <ele>1044</ele>
        <time>2011-08-17T12:35:01Z</time>
      </trkpt>
      <trkpt lat="44.12294" lon="6.08067">
        <ele>1042</ele>
        <time>2011-08-17T12:35:05Z</time>
      </trkpt>
      <trkpt lat="44.12285" lon="6.08078">
        <ele>1040</ele>
        <time>2011-08-17T12:35:08Z</time>
      </trkpt>
      <trkpt lat="44.12268" lon="6.08078">
        <ele>1038</ele>
        <time>2011-08-17T12:35:12Z</time>
      </trkpt>
      <trkpt lat="44.12242" lon="6.08104">
        <ele>1031</ele>
        <time>2011-08-17T12:35:18Z</time>
      </trkpt>
      <trkpt lat="44.12239" lon="6.08115">
        <ele>1031</ele>
        <time>2011-08-17T12:35:20Z</time>
      </trkpt>
      <trkpt lat="44.12247" lon="6.08148">
        <ele>1023</ele>
        <time>2011-08-17T12:35:29Z</time>
      </trkpt>
      <trkpt lat="44.12247" lon="6.08166">
        <ele>1015</ele>
        <time>2011-08-17T12:35:32Z</time>
      </trkpt>
      <trkpt lat="44.12253" lon="6.0819">
        <ele>1011</ele>
        <time>2011-08-17T12:35:35Z</time>
      </trkpt>
      <trkpt lat="44.12256" lon="6.08254">
        <ele>996</ele>
        <time>2011-08-17T12:35:43Z</time>
      </trkpt>
      <trkpt lat="44.12269" lon="6.08295">
        <ele>994</ele>
        <time>2011-08-17T12:35:48Z</time>
      </trkpt>
      <trkpt lat="44.12276" lon="6.08312">
        <ele>992</ele>
        <time>2011-08-17T12:35:51Z</time>
      </trkpt>
      <trkpt lat="44.12308" lon="6.08385">
        <ele>979</ele>
        <time>2011-08-17T12:36:02Z</time>
      </trkpt>
      <trkpt lat="44.1231" lon="6.08428">
        <ele>971</ele>
        <time>2011-08-17T12:36:08Z</time>
      </trkpt>
      <trkpt lat="44.12339" lon="6.08501">
        <ele>954</ele>
        <time>2011-08-17T12:36:18Z</time>
      </trkpt>
      <trkpt lat="44.12346" lon="6.08517">
        <ele>953</ele>
        <time>2011-08-17T12:36:20Z</time>
      </trkpt>
      <trkpt lat="44.12368" lon="6.08579">
        <ele>950</ele>
        <time>2011-08-17T12:36:29Z</time>
      </trkpt>
      <trkpt lat="44.12376" lon="6.08605">
        <ele>944</ele>
        <time>2011-08-17T12:36:38Z</time>
      </trkpt>
      <trkpt lat="44.12381" lon="6.08607">
        <ele>944</ele>
        <time>2011-08-17T12:36:52Z</time>
      </trkpt>
      <trkpt lat="44.12387" lon="6.08632">
        <ele>942</ele>
        <time>2011-08-17T12:36:56Z</time>
      </trkpt>
      <trkpt lat="44.12395" lon="6.08667">
        <ele>935</ele>
        <time>2011-08-17T12:37:01Z</time>
      </trkpt>
      <trkpt lat="44.12397" lon="6.08695">
        <ele>934</ele>
        <time>2011-08-17T12:37:05Z</time>
      </trkpt>
      <trkpt lat="44.12395" lon="6.08715">
        <ele>932</ele>
        <time>2011-08-17T12:37:08Z</time>
      </trkpt>
      <trkpt lat="44.12401" lon="6.08754">
        <ele>924</ele>
        <time>2011-08-17T12:37:13Z</time>
      </trkpt>
      <trkpt lat="44.12409" lon="6.08784">
        <ele>923</ele>
        <time>2011-08-17T12:37:17Z</time>
      </trkpt>
      <trkpt lat="44.12424" lon="6.08811">
        <ele>924</ele>
        <time>2011-08-17T12:37:22Z</time>
      </trkpt>
      <trkpt lat="44.12431" lon="6.08839">
        <ele>916</ele>
        <time>2011-08-17T12:37:26Z</time>
      </trkpt>
      <trkpt lat="44.12434" lon="6.08864">
        <ele>917</ele>
        <time>2011-08-17T12:37:29Z</time>
      </trkpt>
      <trkpt lat="44.12429" lon="6.08896">
        <ele>913</ele>
        <time>2011-08-17T12:37:33Z</time>
      </trkpt>
      <trkpt lat="44.12424" lon="6.08919">
        <ele>904</ele>
        <time>2011-08-17T12:37:36Z</time>
      </trkpt>
      <trkpt lat="44.12431" lon="6.08954">
        <ele>904</ele>
        <time>2011-08-17T12:37:41Z</time>
      </trkpt>
      <trkpt lat="44.12432" lon="6.09004">
        <ele>894</ele>
        <time>2011-08-17T12:37:47Z</time>
      </trkpt>
      <trkpt lat="44.12432" lon="6.09025">
        <ele>894</ele>
        <time>2011-08-17T12:37:50Z</time>
      </trkpt>
      <trkpt lat="44.12439" lon="6.09046">
        <ele>893</ele>
        <time>2011-08-17T12:37:54Z</time>
      </trkpt>
      <trkpt lat="44.12473" lon="6.09094">
        <ele>888</ele>
        <time>2011-08-17T12:38:05Z</time>
      </trkpt>
      <trkpt lat="44.12478" lon="6.09113">
        <ele>888</ele>
        <time>2011-08-17T12:38:08Z</time>
      </trkpt>
      <trkpt lat="44.12502" lon="6.09136">
        <ele>883</ele>
        <time>2011-08-17T12:38:13Z</time>
      </trkpt>
      <trkpt lat="44.12523" lon="6.09145">
        <ele>883</ele>
        <time>2011-08-17T12:38:16Z</time>
      </trkpt>
      <trkpt lat="44.12557" lon="6.09185">
        <ele>876</ele>
        <time>2011-08-17T12:38:23Z</time>
      </trkpt>
      <trkpt lat="44.12589" lon="6.09262">
        <ele>866</ele>
        <time>2011-08-17T12:38:33Z</time>
      </trkpt>
      <trkpt lat="44.12606" lon="6.09284">
        <ele>868</ele>
        <time>2011-08-17T12:38:36Z</time>
      </trkpt>
      <trkpt lat="44.12621" lon="6.09316">
        <ele>867</ele>
        <time>2011-08-17T12:38:39Z</time>
      </trkpt>
      <trkpt lat="44.12634" lon="6.09399">
        <ele>859</ele>
        <time>2011-08-17T12:38:47Z</time>
      </trkpt>
      <trkpt lat="44.12644" lon="6.0944">
        <ele>854</ele>
        <time>2011-08-17T12:38:51Z</time>
      </trkpt>
      <trkpt lat="44.12668" lon="6.09568">
        <ele>845</ele>
        <time>2011-08-17T12:39:02Z</time>
      </trkpt>
      <trkpt lat="44.12707" lon="6.09679">
        <ele>832</ele>
        <time>2011-08-17T12:39:12Z</time>
      </trkpt>
      <trkpt lat="44.12776" lon="6.09788">
        <ele>820</ele>
        <time>2011-08-17T12:39:24Z</time>
      </trkpt>
      <trkpt lat="44.12801" lon="6.09823">
        <ele>818</ele>
        <time>2011-08-17T12:39:28Z</time>
      </trkpt>
      <trkpt lat="44.12843" lon="6.09899">
        <ele>810</ele>
        <time>2011-08-17T12:39:35Z</time>
      </trkpt>
      <trkpt lat="44.12929" lon="6.10043">
        <ele>799</ele>
        <time>2011-08-17T12:39:49Z</time>
      </trkpt>
      <trkpt lat="44.12934" lon="6.10055">
        <ele>798</ele>
        <time>2011-08-17T12:39:50Z</time>
      </trkpt>
      <trkpt lat="44.12952" lon="6.10184">
        <ele>782</ele>
        <time>2011-08-17T12:40:00Z</time>
      </trkpt>
      <trkpt lat="44.12952" lon="6.10232">
        <ele>780</ele>
        <time>2011-08-17T12:40:04Z</time>
      </trkpt>
      <trkpt lat="44.12954" lon="6.10264">
        <ele>775</ele>
        <time>2011-08-17T12:40:07Z</time>
      </trkpt>
      <trkpt lat="44.12988" lon="6.1038">
        <ele>766</ele>
        <time>2011-08-17T12:40:19Z</time>
      </trkpt>
      <trkpt lat="44.13019" lon="6.10473">
        <ele>759</ele>
        <time>2011-08-17T12:40:30Z</time>
      </trkpt>
      <trkpt lat="44.13031" lon="6.10513">
        <ele>761</ele>
        <time>2011-08-17T12:40:40Z</time>
      </trkpt>
      <trkpt lat="44.13002" lon="6.10587">
        <ele>756</ele>
        <time>2011-08-17T12:40:53Z</time>
      </trkpt>
      <trkpt lat="44.1297" lon="6.10678">
        <ele>753</ele>
        <time>2011-08-17T12:41:05Z</time>
      </trkpt>
      <trkpt lat="44.12945" lon="6.10797">
        <ele>751</ele>
        <time>2011-08-17T12:41:17Z</time>
      </trkpt>
      <trkpt lat="44.12936" lon="6.10898">
        <ele>749</ele>
        <time>2011-08-17T12:41:31Z</time>
      </trkpt>
      <trkpt lat="44.12931" lon="6.11029">
        <ele>746</ele>
        <time>2011-08-17T12:41:48Z</time>
      </trkpt>
      <trkpt lat="44.12943" lon="6.11145">
        <ele>745</ele>
        <time>2011-08-17T12:42:01Z</time>
      </trkpt>
      <trkpt lat="44.12944" lon="6.11166">
        <ele>744</ele>
        <time>2011-08-17T12:42:03Z</time>
      </trkpt>
      <trkpt lat="44.1294" lon="6.11212">
        <ele>742</ele>
        <time>2011-08-17T12:42:08Z</time>
      </trkpt>
      <trkpt lat="44.1295" lon="6.11281">
        <ele>740</ele>
        <time>2011-08-17T12:42:14Z</time>
      </trkpt>
      <trkpt lat="44.12952" lon="6.11454">
        <ele>732</ele>
        <time>2011-08-17T12:42:29Z</time>
      </trkpt>
      <trkpt lat="44.12927" lon="6.11601">
        <ele>724</ele>
        <time>2011-08-17T12:42:42Z</time>
      </trkpt>
      <trkpt lat="44.12921" lon="6.11643">
        <ele>724</ele>
        <time>2011-08-17T12:42:46Z</time>
      </trkpt>
      <trkpt lat="44.12927" lon="6.1168">
        <ele>723</ele>
        <time>2011-08-17T12:42:51Z</time>
      </trkpt>
      <trkpt lat="44.12974" lon="6.11731">
        <ele>726</ele>
        <time>2011-08-17T12:43:06Z</time>
      </trkpt>
      <trkpt lat="44.13027" lon="6.11759">
        <ele>727</ele>
        <time>2011-08-17T12:43:21Z</time>
      </trkpt>
      <trkpt lat="44.13031" lon="6.11762">
        <ele>727</ele>
        <time>2011-08-17T12:43:22Z</time>
      </trkpt>
      <trkpt lat="44.13067" lon="6.11781">
        <ele>727</ele>
        <time>2011-08-17T12:43:33Z</time>
      </trkpt>
      <trkpt lat="44.13097" lon="6.11803">
        <ele>730</ele>
        <time>2011-08-17T12:43:46Z</time>
      </trkpt>
      <trkpt lat="44.13138" lon="6.11806">
        <ele>733</ele>
        <time>2011-08-17T12:44:00Z</time>
      </trkpt>
      <trkpt lat="44.13188" lon="6.11841">
        <ele>737</ele>
        <time>2011-08-17T12:44:17Z</time>
      </trkpt>
      <trkpt lat="44.13225" lon="6.11858">
        <ele>739</ele>
        <time>2011-08-17T12:44:30Z</time>
      </trkpt>
      <trkpt lat="44.13249" lon="6.11874">
        <ele>739</ele>
        <time>2011-08-17T12:44:42Z</time>
      </trkpt>
      <trkpt lat="44.1326" lon="6.11886">
        <ele>743</ele>
        <time>2011-08-17T12:44:56Z</time>
      </trkpt>
      <trkpt lat="44.1326" lon="6.11886">
        <ele>743</ele>
        <time>2011-08-17T12:45:17Z</time>
      </trkpt>
      <trkpt lat="44.13249" lon="6.11873">
        <ele>739</ele>
        <time>2011-08-17T12:45:23Z</time>
      </trkpt>
      <trkpt lat="44.13226" lon="6.11859">
        <ele>739</ele>
        <time>2011-08-17T12:45:28Z</time>
      </trkpt>
      <trkpt lat="44.1321" lon="6.11856">
        <ele>738</ele>
        <time>2011-08-17T12:45:31Z</time>
      </trkpt>
      <trkpt lat="44.13182" lon="6.11835">
        <ele>737</ele>
        <time>2011-08-17T12:45:37Z</time>
      </trkpt>
      <trkpt lat="44.13163" lon="6.1182">
        <ele>734</ele>
        <time>2011-08-17T12:45:41Z</time>
      </trkpt>
      <trkpt lat="44.13134" lon="6.11804">
        <ele>732</ele>
        <time>2011-08-17T12:45:46Z</time>
      </trkpt>
      <trkpt lat="44.13088" lon="6.11801">
        <ele>730</ele>
        <time>2011-08-17T12:45:53Z</time>
      </trkpt>
      <trkpt lat="44.13061" lon="6.11777">
        <ele>727</ele>
        <time>2011-08-17T12:46:00Z</time>
      </trkpt>
      <trkpt lat="44.13045" lon="6.1177">
        <ele>727</ele>
        <time>2011-08-17T12:46:04Z</time>
      </trkpt>
      <trkpt lat="44.13019" lon="6.11754">
        <ele>727</ele>
        <time>2011-08-17T12:46:10Z</time>
      </trkpt>
      <trkpt lat="44.1295" lon="6.11709">
        <ele>725</ele>
        <time>2011-08-17T12:46:24Z</time>
      </trkpt>
      <trkpt lat="44.12928" lon="6.11683">
        <ele>724</ele>
        <time>2011-08-17T12:46:29Z</time>
      </trkpt>
      <trkpt lat="44.12908" lon="6.11686">
        <ele>721</ele>
        <time>2011-08-17T12:46:34Z</time>
      </trkpt>
      <trkpt lat="44.12901" lon="6.11696">
        <ele>721</ele>
        <time>2011-08-17T12:46:36Z</time>
      </trkpt>
      <trkpt lat="44.12871" lon="6.11712">
        <ele>721</ele>
        <time>2011-08-17T12:46:41Z</time>
      </trkpt>
      <trkpt lat="44.1285" lon="6.11727">
        <ele>720</ele>
        <time>2011-08-17T12:46:44Z</time>
      </trkpt>
      <trkpt lat="44.12813" lon="6.11745">
        <ele>717</ele>
        <time>2011-08-17T12:46:49Z</time>
      </trkpt>
      <trkpt lat="44.12786" lon="6.11764">
        <ele>721</ele>
        <time>2011-08-17T12:46:53Z</time>
      </trkpt>
      <trkpt lat="44.12727" lon="6.11799">
        <ele>717</ele>
        <time>2011-08-17T12:47:03Z</time>
      </trkpt>
      <trkpt lat="44.12703" lon="6.11831">
        <ele>716</ele>
        <time>2011-08-17T12:47:08Z</time>
      </trkpt>
      <trkpt lat="44.1269" lon="6.11864">
        <ele>721</ele>
        <time>2011-08-17T12:47:12Z</time>
      </trkpt>
      <trkpt lat="44.12675" lon="6.11892">
        <ele>720</ele>
        <time>2011-08-17T12:47:16Z</time>
      </trkpt>
      <trkpt lat="44.12647" lon="6.11924">
        <ele>717</ele>
        <time>2011-08-17T12:47:22Z</time>
      </trkpt>
      <trkpt lat="44.12632" lon="6.11953">
        <ele>717</ele>
        <time>2011-08-17T12:47:28Z</time>
      </trkpt>
      <trkpt lat="44.12583" lon="6.12045">
        <ele>713</ele>
        <time>2011-08-17T12:47:44Z</time>
      </trkpt>
      <trkpt lat="44.1258" lon="6.12051">
        <ele>713</ele>
        <time>2011-08-17T12:47:45Z</time>
      </trkpt>
      <trkpt lat="44.12548" lon="6.12155">
        <ele>717</ele>
        <time>2011-08-17T12:48:02Z</time>
      </trkpt>
      <trkpt lat="44.12508" lon="6.12256">
        <ele>722</ele>
        <time>2011-08-17T12:48:19Z</time>
      </trkpt>
      <trkpt lat="44.12478" lon="6.12318">
        <ele>714</ele>
        <time>2011-08-17T12:48:28Z</time>
      </trkpt>
      <trkpt lat="44.12433" lon="6.12457">
        <ele>714</ele>
        <time>2011-08-17T12:48:40Z</time>
      </trkpt>
      <trkpt lat="44.12372" lon="6.12675">
        <ele>693</ele>
        <time>2011-08-17T12:48:56Z</time>
      </trkpt>
      <trkpt lat="44.12364" lon="6.12727">
        <ele>690</ele>
        <time>2011-08-17T12:49:01Z</time>
      </trkpt>
      <trkpt lat="44.12375" lon="6.12756">
        <ele>683</ele>
        <time>2011-08-17T12:49:08Z</time>
      </trkpt>
      <trkpt lat="44.12379" lon="6.12756">
        <ele>683</ele>
        <time>2011-08-17T12:49:09Z</time>
      </trkpt>
      <trkpt lat="44.12461" lon="6.12736">
        <ele>694</ele>
        <time>2011-08-17T12:49:25Z</time>
      </trkpt>
      <trkpt lat="44.12572" lon="6.12722">
        <ele>694</ele>
        <time>2011-08-17T12:49:45Z</time>
      </trkpt>
      <trkpt lat="44.12578" lon="6.12721">
        <ele>694</ele>
        <time>2011-08-17T12:49:46Z</time>
      </trkpt>
      <trkpt lat="44.12593" lon="6.12723">
        <ele>694</ele>
        <time>2011-08-17T12:49:49Z</time>
      </trkpt>
      <trkpt lat="44.12695" lon="6.12741">
        <ele>695</ele>
        <time>2011-08-17T12:50:08Z</time>
      </trkpt>
      <trkpt lat="44.12764" lon="6.12761">
        <ele>693</ele>
        <time>2011-08-17T12:50:21Z</time>
      </trkpt>
      <trkpt lat="44.12844" lon="6.12803">
        <ele>694</ele>
        <time>2011-08-17T12:50:39Z</time>
      </trkpt>
      <trkpt lat="44.1292" lon="6.12848">
        <ele>690</ele>
        <time>2011-08-17T12:50:54Z</time>
      </trkpt>
      <trkpt lat="44.13064" lon="6.12924">
        <ele>689</ele>
        <time>2011-08-17T12:51:19Z</time>
      </trkpt>
      <trkpt lat="44.1315" lon="6.12993">
        <ele>690</ele>
        <time>2011-08-17T12:51:35Z</time>
      </trkpt>
      <trkpt lat="44.13208" lon="6.13057">
        <ele>693</ele>
        <time>2011-08-17T12:51:49Z</time>
      </trkpt>
      <trkpt lat="44.13247" lon="6.13101">
        <ele>693</ele>
        <time>2011-08-17T12:51:59Z</time>
      </trkpt>
      <trkpt lat="44.13329" lon="6.1315">
        <ele>695</ele>
        <time>2011-08-17T12:52:17Z</time>
      </trkpt>
      <trkpt lat="44.13476" lon="6.13191">
        <ele>696</ele>
        <time>2011-08-17T12:52:45Z</time>
      </trkpt>
      <trkpt lat="44.13591" lon="6.13234">
        <ele>704</ele>
        <time>2011-08-17T12:53:08Z</time>
      </trkpt>
      <trkpt lat="44.1369" lon="6.13298">
        <ele>708</ele>
        <time>2011-08-17T12:53:31Z</time>
      </trkpt>
      <trkpt lat="44.13779" lon="6.13364">
        <ele>710</ele>
        <time>2011-08-17T12:53:52Z</time>
      </trkpt>
      <trkpt lat="44.13864" lon="6.13434">
        <ele>711</ele>
        <time>2011-08-17T12:54:13Z</time>
      </trkpt>
      <trkpt lat="44.13935" lon="6.13484">
        <ele>717</ele>
        <time>2011-08-17T12:54:32Z</time>
      </trkpt>
      <trkpt lat="44.13943" lon="6.1349">
        <ele>717</ele>
        <time>2011-08-17T12:54:34Z</time>
      </trkpt>
      <trkpt lat="44.13955" lon="6.13499">
        <ele>718</ele>
        <time>2011-08-17T12:54:37Z</time>
      </trkpt>
      <trkpt lat="44.1401" lon="6.13542">
        <ele>719</ele>
        <time>2011-08-17T12:54:50Z</time>
      </trkpt>
      <trkpt lat="44.14018" lon="6.13547">
        <ele>719</ele>
        <time>2011-08-17T12:54:52Z</time>
      </trkpt>
      <trkpt lat="44.1403" lon="6.13559">
        <ele>718</ele>
        <time>2011-08-17T12:54:55Z</time>
      </trkpt>
      <trkpt lat="44.14137" lon="6.13605">
        <ele>716</ele>
        <time>2011-08-17T12:55:16Z</time>
      </trkpt>
      <trkpt lat="44.14207" lon="6.13629">
        <ele>722</ele>
        <time>2011-08-17T12:55:32Z</time>
      </trkpt>
      <trkpt lat="44.14287" lon="6.13659">
        <ele>727</ele>
        <time>2011-08-17T12:55:52Z</time>
      </trkpt>
      <trkpt lat="44.14339" lon="6.13693">
        <ele>727</ele>
        <time>2011-08-17T12:56:06Z</time>
      </trkpt>
      <trkpt lat="44.14348" lon="6.13708">
        <ele>727</ele>
        <time>2011-08-17T12:56:10Z</time>
      </trkpt>
      <trkpt lat="44.14431" lon="6.13777">
        <ele>724</ele>
        <time>2011-08-17T12:56:26Z</time>
      </trkpt>
      <trkpt lat="44.14505" lon="6.13821">
        <ele>724</ele>
        <time>2011-08-17T12:56:42Z</time>
      </trkpt>
      <trkpt lat="44.14516" lon="6.13845">
        <ele>723</ele>
        <time>2011-08-17T12:56:46Z</time>
      </trkpt>
      <trkpt lat="44.14546" lon="6.1399">
        <ele>721</ele>
        <time>2011-08-17T12:57:04Z</time>
      </trkpt>
      <trkpt lat="44.14538" lon="6.14116">
        <ele>725</ele>
        <time>2011-08-17T12:57:20Z</time>
      </trkpt>
      <trkpt lat="44.14543" lon="6.14214">
        <ele>733</ele>
        <time>2011-08-17T12:57:35Z</time>
      </trkpt>
      <trkpt lat="44.14557" lon="6.14286">
        <ele>740</ele>
        <time>2011-08-17T12:57:53Z</time>
      </trkpt>
      <trkpt lat="44.14549" lon="6.14349">
        <ele>745</ele>
        <time>2011-08-17T12:58:09Z</time>
      </trkpt>
      <trkpt lat="44.14565" lon="6.14389">
        <ele>746</ele>
        <time>2011-08-17T12:58:23Z</time>
      </trkpt>
      <trkpt lat="44.14588" lon="6.1436">
        <ele>747</ele>
        <time>2011-08-17T12:58:34Z</time>
      </trkpt>
      <trkpt lat="44.14604" lon="6.14311">
        <ele>743</ele>
        <time>2011-08-17T12:58:48Z</time>
      </trkpt>
      <trkpt lat="44.14623" lon="6.14253">
        <ele>742</ele>
        <time>2011-08-17T12:59:03Z</time>
      </trkpt>
      <trkpt lat="44.14654" lon="6.14235">
        <ele>737</ele>
        <time>2011-08-17T12:59:16Z</time>
      </trkpt>
      <trkpt lat="44.1469" lon="6.14276">
        <ele>745</ele>
        <time>2011-08-17T12:59:33Z</time>
      </trkpt>
      <trkpt lat="44.14733" lon="6.14321">
        <ele>749</ele>
        <time>2011-08-17T12:59:52Z</time>
      </trkpt>
      <trkpt lat="44.14789" lon="6.14343">
        <ele>753</ele>
        <time>2011-08-17T13:00:12Z</time>
      </trkpt>
      <trkpt lat="44.14808" lon="6.1439">
        <ele>754</ele>
        <time>2011-08-17T13:00:25Z</time>
      </trkpt>
      <trkpt lat="44.1481" lon="6.14437">
        <ele>761</ele>
        <time>2011-08-17T13:00:38Z</time>
      </trkpt>
      <trkpt lat="44.14814" lon="6.14529">
        <ele>767</ele>
        <time>2011-08-17T13:01:02Z</time>
      </trkpt>
      <trkpt lat="44.14816" lon="6.1461">
        <ele>772</ele>
        <time>2011-08-17T13:01:22Z</time>
      </trkpt>
      <trkpt lat="44.14813" lon="6.14707">
        <ele>780</ele>
        <time>2011-08-17T13:01:46Z</time>
      </trkpt>
      <trkpt lat="44.14826" lon="6.14764">
        <ele>786</ele>
        <time>2011-08-17T13:02:02Z</time>
      </trkpt>
      <trkpt lat="44.14872" lon="6.14808">
        <ele>786</ele>
        <time>2011-08-17T13:02:21Z</time>
      </trkpt>
      <trkpt lat="44.14897" lon="6.14854">
        <ele>792</ele>
        <time>2011-08-17T13:02:36Z</time>
      </trkpt>
      <trkpt lat="44.14933" lon="6.14877">
        <ele>789</ele>
        <time>2011-08-17T13:02:51Z</time>
      </trkpt>
      <trkpt lat="44.14963" lon="6.14879">
        <ele>789</ele>
        <time>2011-08-17T13:03:04Z</time>
      </trkpt>
      <trkpt lat="44.14997" lon="6.14886">
        <ele>789</ele>
        <time>2011-08-17T13:03:18Z</time>
      </trkpt>
      <trkpt lat="44.15014" lon="6.1489">
        <ele>788</ele>
        <time>2011-08-17T13:03:30Z</time>
      </trkpt>
      <trkpt lat="44.15015" lon="6.14893">
        <ele>788</ele>
        <time>2011-08-17T13:03:51Z</time>
      </trkpt>
      <trkpt lat="44.15019" lon="6.14893">
        <ele>787</ele>
        <time>2011-08-17T13:26:21Z</time>
      </trkpt>
      <trkpt lat="44.15027" lon="6.14893">
        <ele>787</ele>
        <time>2011-08-17T13:27:09Z</time>
      </trkpt>
      <trkpt lat="44.15028" lon="6.14901">
        <ele>787</ele>
        <time>2011-08-17T13:27:13Z</time>
      </trkpt>
      <trkpt lat="44.15024" lon="6.14939">
        <ele>793</ele>
        <time>2011-08-17T13:27:29Z</time>
      </trkpt>
      <trkpt lat="44.15024" lon="6.14942">
        <ele>794</ele>
        <time>2011-08-17T13:27:42Z</time>
      </trkpt>
      <trkpt lat="44.15021" lon="6.14949">
        <ele>794</ele>
        <time>2011-08-17T13:27:47Z</time>
      </trkpt>
      <trkpt lat="44.1501" lon="6.14978">
        <ele>795</ele>
        <time>2011-08-17T13:27:58Z</time>
      </trkpt>
      <trkpt lat="44.15002" lon="6.15007">
        <ele>799</ele>
        <time>2011-08-17T13:28:09Z</time>
      </trkpt>
      <trkpt lat="44.14989" lon="6.15061">
        <ele>805</ele>
        <time>2011-08-17T13:28:28Z</time>
      </trkpt>
      <trkpt lat="44.14994" lon="6.15105">
        <ele>811</ele>
        <time>2011-08-17T13:28:45Z</time>
      </trkpt>
      <trkpt lat="44.14992" lon="6.15114">
        <ele>812</ele>
        <time>2011-08-17T13:28:49Z</time>
      </trkpt>
      <trkpt lat="44.14993" lon="6.15154">
        <ele>814</ele>
        <time>2011-08-17T13:29:07Z</time>
      </trkpt>
      <trkpt lat="44.14999" lon="6.15172">
        <ele>816</ele>
        <time>2011-08-17T13:29:17Z</time>
      </trkpt>
      <trkpt lat="44.15013" lon="6.15208">
        <ele>823</ele>
        <time>2011-08-17T13:29:34Z</time>
      </trkpt>
      <trkpt lat="44.15033" lon="6.15251">
        <ele>830</ele>
        <time>2011-08-17T13:29:52Z</time>
      </trkpt>
      <trkpt lat="44.15046" lon="6.15279">
        <ele>831</ele>
        <time>2011-08-17T13:30:06Z</time>
      </trkpt>
      <trkpt lat="44.15069" lon="6.1531">
        <ele>832</ele>
        <time>2011-08-17T13:30:23Z</time>
      </trkpt>
      <trkpt lat="44.15074" lon="6.15343">
        <ele>835</ele>
        <time>2011-08-17T13:30:36Z</time>
      </trkpt>
      <trkpt lat="44.15074" lon="6.15373">
        <ele>837</ele>
        <time>2011-08-17T13:30:49Z</time>
      </trkpt>
      <trkpt lat="44.1508" lon="6.15406">
        <ele>837</ele>
        <time>2011-08-17T13:31:04Z</time>
      </trkpt>
      <trkpt lat="44.15089" lon="6.15453">
        <ele>845</ele>
        <time>2011-08-17T13:31:24Z</time>
      </trkpt>
      <trkpt lat="44.15095" lon="6.15481">
        <ele>846</ele>
        <time>2011-08-17T13:31:35Z</time>
      </trkpt>
      <trkpt lat="44.15096" lon="6.1549">
        <ele>846</ele>
        <time>2011-08-17T13:31:39Z</time>
      </trkpt>
      <trkpt lat="44.15107" lon="6.15548">
        <ele>854</ele>
        <time>2011-08-17T13:32:03Z</time>
      </trkpt>
      <trkpt lat="44.15125" lon="6.15579">
        <ele>856</ele>
        <time>2011-08-17T13:32:22Z</time>
      </trkpt>
      <trkpt lat="44.15125" lon="6.15581">
        <ele>856</ele>
        <time>2011-08-17T13:32:23Z</time>
      </trkpt>
      <trkpt lat="44.15136" lon="6.15631">
        <ele>863</ele>
        <time>2011-08-17T13:32:44Z</time>
      </trkpt>
      <trkpt lat="44.15125" lon="6.15655">
        <ele>864</ele>
        <time>2011-08-17T13:32:56Z</time>
      </trkpt>
      <trkpt lat="44.15102" lon="6.15623">
        <ele>863</ele>
        <time>2011-08-17T13:33:11Z</time>
      </trkpt>
      <trkpt lat="44.15072" lon="6.15589">
        <ele>863</ele>
        <time>2011-08-17T13:33:30Z</time>
      </trkpt>
      <trkpt lat="44.15054" lon="6.15552">
        <ele>859</ele>
        <time>2011-08-17T13:33:46Z</time>
      </trkpt>
      <trkpt lat="44.15033" lon="6.15521">
        <ele>859</ele>
        <time>2011-08-17T13:34:02Z</time>
      </trkpt>
      <trkpt lat="44.15008" lon="6.15514">
        <ele>862</ele>
        <time>2011-08-17T13:34:18Z</time>
      </trkpt>
      <trkpt lat="44.14974" lon="6.15522">
        <ele>870</ele>
        <time>2011-08-17T13:34:35Z</time>
      </trkpt>
      <trkpt lat="44.14948" lon="6.15537">
        <ele>872</ele>
        <time>2011-08-17T13:34:51Z</time>
      </trkpt>
      <trkpt lat="44.14926" lon="6.15547">
        <ele>874</ele>
        <time>2011-08-17T13:35:06Z</time>
      </trkpt>
      <trkpt lat="44.14904" lon="6.1557">
        <ele>882</ele>
        <time>2011-08-17T13:35:27Z</time>
      </trkpt>
      <trkpt lat="44.14898" lon="6.15583">
        <ele>883</ele>
        <time>2011-08-17T13:35:35Z</time>
      </trkpt>
      <trkpt lat="44.14888" lon="6.15588">
        <ele>891</ele>
        <time>2011-08-17T13:35:49Z</time>
      </trkpt>
      <trkpt lat="44.14882" lon="6.15586">
        <ele>892</ele>
        <time>2011-08-17T13:35:56Z</time>
      </trkpt>
      <trkpt lat="44.14878" lon="6.15581">
        <ele>885</ele>
        <time>2011-08-17T13:36:18Z</time>
      </trkpt>
      <trkpt lat="44.14871" lon="6.15578">
        <ele>886</ele>
        <time>2011-08-17T13:36:41Z</time>
      </trkpt>
      <trkpt lat="44.14861" lon="6.15575">
        <ele>887</ele>
        <time>2011-08-17T13:36:59Z</time>
      </trkpt>
      <trkpt lat="44.14829" lon="6.1558">
        <ele>897</ele>
        <time>2011-08-17T13:37:19Z</time>
      </trkpt>
      <trkpt lat="44.14804" lon="6.15568">
        <ele>899</ele>
        <time>2011-08-17T13:37:36Z</time>
      </trkpt>
      <trkpt lat="44.14788" lon="6.15546">
        <ele>900</ele>
        <time>2011-08-17T13:37:49Z</time>
      </trkpt>
      <trkpt lat="44.14778" lon="6.15557">
        <ele>902</ele>
        <time>2011-08-17T13:38:00Z</time>
      </trkpt>
      <trkpt lat="44.14788" lon="6.15573">
        <ele>901</ele>
        <time>2011-08-17T13:38:09Z</time>
      </trkpt>
      <trkpt lat="44.14793" lon="6.1558">
        <ele>901</ele>
        <time>2011-08-17T13:38:13Z</time>
      </trkpt>
      <trkpt lat="44.1481" lon="6.15606">
        <ele>907</ele>
        <time>2011-08-17T13:38:26Z</time>
      </trkpt>
      <trkpt lat="44.1482" lon="6.15627">
        <ele>908</ele>
        <time>2011-08-17T13:38:37Z</time>
      </trkpt>
      <trkpt lat="44.14809" lon="6.15641">
        <ele>910</ele>
        <time>2011-08-17T13:38:50Z</time>
      </trkpt>
      <trkpt lat="44.14784" lon="6.15631">
        <ele>911</ele>
        <time>2011-08-17T13:39:05Z</time>
      </trkpt>
      <trkpt lat="44.14767" lon="6.15631">
        <ele>913</ele>
        <time>2011-08-17T13:39:17Z</time>
      </trkpt>
      <trkpt lat="44.14744" lon="6.15643">
        <ele>921</ele>
        <time>2011-08-17T13:39:30Z</time>
      </trkpt>
      <trkpt lat="44.14741" lon="6.15642">
        <ele>921</ele>
        <time>2011-08-17T13:39:32Z</time>
      </trkpt>
      <trkpt lat="44.1472" lon="6.1563">
        <ele>921</ele>
        <time>2011-08-17T13:39:46Z</time>
      </trkpt>
      <trkpt lat="44.14698" lon="6.15628">
        <ele>922</ele>
        <time>2011-08-17T13:39:57Z</time>
      </trkpt>
      <trkpt lat="44.14676" lon="6.15629">
        <ele>923</ele>
        <time>2011-08-17T13:40:07Z</time>
      </trkpt>
      <trkpt lat="44.14644" lon="6.15629">
        <ele>928</ele>
        <time>2011-08-17T13:40:21Z</time>
      </trkpt>
      <trkpt lat="44.14611" lon="6.15621">
        <ele>929</ele>
        <time>2011-08-17T13:40:39Z</time>
      </trkpt>
      <trkpt lat="44.14582" lon="6.1561">
        <ele>933</ele>
        <time>2011-08-17T13:40:56Z</time>
      </trkpt>
      <trkpt lat="44.1456" lon="6.15594">
        <ele>933</ele>
        <time>2011-08-17T13:41:11Z</time>
      </trkpt>
      <trkpt lat="44.14525" lon="6.15601">
        <ele>935</ele>
        <time>2011-08-17T13:41:30Z</time>
      </trkpt>
      <trkpt lat="44.14487" lon="6.15624">
        <ele>940</ele>
        <time>2011-08-17T13:41:51Z</time>
      </trkpt>
      <trkpt lat="44.14465" lon="6.1566">
        <ele>941</ele>
        <time>2011-08-17T13:42:12Z</time>
      </trkpt>
      <trkpt lat="44.14455" lon="6.15697">
        <ele>947</ele>
        <time>2011-08-17T13:42:30Z</time>
      </trkpt>
      <trkpt lat="44.14425" lon="6.15716">
        <ele>949</ele>
        <time>2011-08-17T13:42:49Z</time>
      </trkpt>
      <trkpt lat="44.14381" lon="6.15725">
        <ele>949</ele>
        <time>2011-08-17T13:43:08Z</time>
      </trkpt>
      <trkpt lat="44.14354" lon="6.1575">
        <ele>951</ele>
        <time>2011-08-17T13:43:25Z</time>
      </trkpt>
      <trkpt lat="44.14359" lon="6.15812">
        <ele>953</ele>
        <time>2011-08-17T13:43:46Z</time>
      </trkpt>
      <trkpt lat="44.1436" lon="6.15817">
        <ele>953</ele>
        <time>2011-08-17T13:43:48Z</time>
      </trkpt>
      <trkpt lat="44.14363" lon="6.15873">
        <ele>960</ele>
        <time>2011-08-17T13:44:11Z</time>
      </trkpt>
      <trkpt lat="44.14367" lon="6.15894">
        <ele>961</ele>
        <time>2011-08-17T13:44:22Z</time>
      </trkpt>
      <trkpt lat="44.14369" lon="6.15901">
        <ele>962</ele>
        <time>2011-08-17T13:44:26Z</time>
      </trkpt>
      <trkpt lat="44.14371" lon="6.15941">
        <ele>969</ele>
        <time>2011-08-17T13:44:47Z</time>
      </trkpt>
      <trkpt lat="44.14358" lon="6.15987">
        <ele>970</ele>
        <time>2011-08-17T13:45:08Z</time>
      </trkpt>
      <trkpt lat="44.14371" lon="6.16024">
        <ele>974</ele>
        <time>2011-08-17T13:45:26Z</time>
      </trkpt>
      <trkpt lat="44.14382" lon="6.16043">
        <ele>975</ele>
        <time>2011-08-17T13:45:36Z</time>
      </trkpt>
      <trkpt lat="44.14391" lon="6.16044">
        <ele>976</ele>
        <time>2011-08-17T13:45:42Z</time>
      </trkpt>
      <trkpt lat="44.14395" lon="6.16033">
        <ele>976</ele>
        <time>2011-08-17T13:45:48Z</time>
      </trkpt>
      <trkpt lat="44.14395" lon="6.16004">
        <ele>977</ele>
        <time>2011-08-17T13:46:03Z</time>
      </trkpt>
      <trkpt lat="44.14411" lon="6.16017">
        <ele>978</ele>
        <time>2011-08-17T13:46:16Z</time>
      </trkpt>
      <trkpt lat="44.14431" lon="6.16055">
        <ele>986</ele>
        <time>2011-08-17T13:46:36Z</time>
      </trkpt>
      <trkpt lat="44.14441" lon="6.1607">
        <ele>987</ele>
        <time>2011-08-17T13:46:50Z</time>
      </trkpt>
      <trkpt lat="44.1446" lon="6.16099">
        <ele>991</ele>
        <time>2011-08-17T13:47:09Z</time>
      </trkpt>
      <trkpt lat="44.14475" lon="6.16123">
        <ele>994</ele>
        <time>2011-08-17T13:47:24Z</time>
      </trkpt>
      <trkpt lat="44.14478" lon="6.16127">
        <ele>994</ele>
        <time>2011-08-17T13:47:27Z</time>
      </trkpt>
      <trkpt lat="44.14484" lon="6.16146">
        <ele>997</ele>
        <time>2011-08-17T13:47:47Z</time>
      </trkpt>
      <trkpt lat="44.14484" lon="6.1615">
        <ele>997</ele>
        <time>2011-08-17T13:47:49Z</time>
      </trkpt>
      <trkpt lat="44.14491" lon="6.16195">
        <ele>1001</ele>
        <time>2011-08-17T13:48:08Z</time>
      </trkpt>
      <trkpt lat="44.14495" lon="6.16242">
        <ele>1009</ele>
        <time>2011-08-17T13:48:28Z</time>
      </trkpt>
      <trkpt lat="44.14497" lon="6.16309">
        <ele>1012</ele>
        <time>2011-08-17T13:48:50Z</time>
      </trkpt>
      <trkpt lat="44.14495" lon="6.1632">
        <ele>1015</ele>
        <time>2011-08-17T13:48:52Z</time>
      </trkpt>
      <trkpt lat="44.14477" lon="6.16374">
        <ele>1017</ele>
        <time>2011-08-17T13:48:58Z</time>
      </trkpt>
      <trkpt lat="44.14458" lon="6.1641">
        <ele>1016</ele>
        <time>2011-08-17T13:49:02Z</time>
      </trkpt>
      <trkpt lat="44.14428" lon="6.16449">
        <ele>1020</ele>
        <time>2011-08-17T13:49:16Z</time>
      </trkpt>
      <trkpt lat="44.14391" lon="6.16502">
        <ele>1007</ele>
        <time>2011-08-17T13:49:34Z</time>
      </trkpt>
      <trkpt lat="44.1438" lon="6.16551">
        <ele>1005</ele>
        <time>2011-08-17T13:49:48Z</time>
      </trkpt>
      <trkpt lat="44.14397" lon="6.16589">
        <ele>1011</ele>
        <time>2011-08-17T13:50:04Z</time>
      </trkpt>
      <trkpt lat="44.1442" lon="6.16642">
        <ele>1024</ele>
        <time>2011-08-17T13:50:21Z</time>
      </trkpt>
      <trkpt lat="44.14438" lon="6.1669">
        <ele>1025</ele>
        <time>2011-08-17T13:50:27Z</time>
      </trkpt>
      <trkpt lat="44.14435" lon="6.16713">
        <ele>1025</ele>
        <time>2011-08-17T13:50:31Z</time>
      </trkpt>
      <trkpt lat="44.14425" lon="6.16725">
        <ele>1023</ele>
        <time>2011-08-17T13:50:34Z</time>
      </trkpt>
      <trkpt lat="44.14419" lon="6.1675">
        <ele>1017</ele>
        <time>2011-08-17T13:50:39Z</time>
      </trkpt>
      <trkpt lat="44.14403" lon="6.16803">
        <ele>1015</ele>
        <time>2011-08-17T13:50:48Z</time>
      </trkpt>
      <trkpt lat="44.14371" lon="6.16844">
        <ele>1019</ele>
        <time>2011-08-17T13:50:59Z</time>
      </trkpt>
      <trkpt lat="44.1434" lon="6.16873">
        <ele>1019</ele>
        <time>2011-08-17T13:51:10Z</time>
      </trkpt>
      <trkpt lat="44.14302" lon="6.16896">
        <ele>1013</ele>
        <time>2011-08-17T13:51:23Z</time>
      </trkpt>
      <trkpt lat="44.1429" lon="6.16915">
        <ele>1013</ele>
        <time>2011-08-17T13:51:30Z</time>
      </trkpt>
      <trkpt lat="44.14287" lon="6.16952">
        <ele>1019</ele>
        <time>2011-08-17T13:51:35Z</time>
      </trkpt>
      <trkpt lat="44.14275" lon="6.16977">
        <ele>1019</ele>
        <time>2011-08-17T13:51:39Z</time>
      </trkpt>
      <trkpt lat="44.14244" lon="6.17024">
        <ele>1014</ele>
        <time>2011-08-17T13:51:49Z</time>
      </trkpt>
      <trkpt lat="44.1424" lon="6.17035">
        <ele>1014</ele>
        <time>2011-08-17T13:51:51Z</time>
      </trkpt>
      <trkpt lat="44.14195" lon="6.17078">
        <ele>1012</ele>
        <time>2011-08-17T13:52:01Z</time>
      </trkpt>
      <trkpt lat="44.14162" lon="6.17091">
        <ele>1011</ele>
        <time>2011-08-17T13:52:06Z</time>
      </trkpt>
      <trkpt lat="44.14126" lon="6.17115">
        <ele>1014</ele>
        <time>2011-08-17T13:52:14Z</time>
      </trkpt>
      <trkpt lat="44.14101" lon="6.17138">
        <ele>1016</ele>
        <time>2011-08-17T13:52:21Z</time>
      </trkpt>
      <trkpt lat="44.14059" lon="6.17139">
        <ele>1016</ele>
        <time>2011-08-17T13:52:32Z</time>
      </trkpt>
      <trkpt lat="44.1404" lon="6.17143">
        <ele>1016</ele>
        <time>2011-08-17T13:52:37Z</time>
      </trkpt>
      <trkpt lat="44.14018" lon="6.17122">
        <ele>1015</ele>
        <time>2011-08-17T13:52:44Z</time>
      </trkpt>
      <trkpt lat="44.14015" lon="6.17113">
        <ele>1014</ele>
        <time>2011-08-17T13:52:46Z</time>
      </trkpt>
      <trkpt lat="44.14" lon="6.17103">
        <ele>1016</ele>
        <time>2011-08-17T13:52:51Z</time>
      </trkpt>
      <trkpt lat="44.13962" lon="6.1707">
        <ele>1011</ele>
        <time>2011-08-17T13:53:04Z</time>
      </trkpt>
      <trkpt lat="44.13927" lon="6.1707">
        <ele>1014</ele>
        <time>2011-08-17T13:53:22Z</time>
      </trkpt>
      <trkpt lat="44.13899" lon="6.17098">
        <ele>1024</ele>
        <time>2011-08-17T13:53:38Z</time>
      </trkpt>
      <trkpt lat="44.1385" lon="6.17097">
        <ele>1026</ele>
        <time>2011-08-17T13:53:59Z</time>
      </trkpt>
      <trkpt lat="44.13823" lon="6.17082">
        <ele>1023</ele>
        <time>2011-08-17T13:54:05Z</time>
      </trkpt>
      <trkpt lat="44.138" lon="6.17056">
        <ele>1022</ele>
        <time>2011-08-17T13:54:10Z</time>
      </trkpt>
      <trkpt lat="44.13776" lon="6.17036">
        <ele>1022</ele>
        <time>2011-08-17T13:54:15Z</time>
      </trkpt>
      <trkpt lat="44.13718" lon="6.17014">
        <ele>1026</ele>
        <time>2011-08-17T13:54:27Z</time>
      </trkpt>
      <trkpt lat="44.13706" lon="6.17011">
        <ele>1027</ele>
        <time>2011-08-17T13:54:30Z</time>
      </trkpt>
      <trkpt lat="44.13645" lon="6.16989">
        <ele>1022</ele>
        <time>2011-08-17T13:54:44Z</time>
      </trkpt>
      <trkpt lat="44.13603" lon="6.16977">
        <ele>1023</ele>
        <time>2011-08-17T13:54:56Z</time>
      </trkpt>
      <trkpt lat="44.13544" lon="6.16954">
        <ele>1027</ele>
        <time>2011-08-17T13:55:15Z</time>
      </trkpt>
      <trkpt lat="44.13533" lon="6.16949">
        <ele>1028</ele>
        <time>2011-08-17T13:55:18Z</time>
      </trkpt>
      <trkpt lat="44.13519" lon="6.16936">
        <ele>1027</ele>
        <time>2011-08-17T13:55:22Z</time>
      </trkpt>
      <trkpt lat="44.13511" lon="6.16925">
        <ele>1027</ele>
        <time>2011-08-17T13:55:25Z</time>
      </trkpt>
      <trkpt lat="44.13485" lon="6.169">
        <ele>1023</ele>
        <time>2011-08-17T13:55:31Z</time>
      </trkpt>
      <trkpt lat="44.13457" lon="6.16899">
        <ele>1022</ele>
        <time>2011-08-17T13:55:36Z</time>
      </trkpt>
      <trkpt lat="44.13422" lon="6.16915">
        <ele>1025</ele>
        <time>2011-08-17T13:55:44Z</time>
      </trkpt>
      <trkpt lat="44.13383" lon="6.16929">
        <ele>1032</ele>
        <time>2011-08-17T13:55:56Z</time>
      </trkpt>
      <trkpt lat="44.13334" lon="6.16934">
        <ele>1033</ele>
        <time>2011-08-17T13:56:14Z</time>
      </trkpt>
      <trkpt lat="44.133" lon="6.16939">
        <ele>1037</ele>
        <time>2011-08-17T13:56:31Z</time>
      </trkpt>
      <trkpt lat="44.13256" lon="6.1696">
        <ele>1038</ele>
        <time>2011-08-17T13:56:54Z</time>
      </trkpt>
      <trkpt lat="44.13215" lon="6.16978">
        <ele>1040</ele>
        <time>2011-08-17T13:57:14Z</time>
      </trkpt>
      <trkpt lat="44.13188" lon="6.17015">
        <ele>1046</ele>
        <time>2011-08-17T13:57:30Z</time>
      </trkpt>
      <trkpt lat="44.13177" lon="6.17011">
        <ele>1046</ele>
        <time>2011-08-17T13:57:35Z</time>
      </trkpt>
      <trkpt lat="44.13145" lon="6.16947">
        <ele>1046</ele>
        <time>2011-08-17T13:57:56Z</time>
      </trkpt>
      <trkpt lat="44.13132" lon="6.16878">
        <ele>1043</ele>
        <time>2011-08-17T13:58:16Z</time>
      </trkpt>
      <trkpt lat="44.13118" lon="6.16817">
        <ele>1040</ele>
        <time>2011-08-17T13:58:34Z</time>
      </trkpt>
      <trkpt lat="44.13099" lon="6.16773">
        <ele>1040</ele>
        <time>2011-08-17T13:58:46Z</time>
      </trkpt>
      <trkpt lat="44.13087" lon="6.16772">
        <ele>1040</ele>
        <time>2011-08-17T13:58:51Z</time>
      </trkpt>
      <trkpt lat="44.13052" lon="6.16816">
        <ele>1040</ele>
        <time>2011-08-17T13:59:08Z</time>
      </trkpt>
      <trkpt lat="44.13031" lon="6.16861">
        <ele>1050</ele>
        <time>2011-08-17T13:59:21Z</time>
      </trkpt>
      <trkpt lat="44.12991" lon="6.16883">
        <ele>1050</ele>
        <time>2011-08-17T13:59:35Z</time>
      </trkpt>
      <trkpt lat="44.12928" lon="6.16895">
        <ele>1050</ele>
        <time>2011-08-17T13:59:56Z</time>
      </trkpt>
      <trkpt lat="44.1288" lon="6.16904">
        <ele>1047</ele>
        <time>2011-08-17T14:00:13Z</time>
      </trkpt>
      <trkpt lat="44.12816" lon="6.16922">
        <ele>1065</ele>
        <time>2011-08-17T14:00:31Z</time>
      </trkpt>
      <trkpt lat="44.12789" lon="6.16891">
        <ele>1055</ele>
        <time>2011-08-17T14:00:42Z</time>
      </trkpt>
      <trkpt lat="44.12748" lon="6.16845">
        <ele>1058</ele>
        <time>2011-08-17T14:01:01Z</time>
      </trkpt>
      <trkpt lat="44.12703" lon="6.16796">
        <ele>1054</ele>
        <time>2011-08-17T14:01:22Z</time>
      </trkpt>
      <trkpt lat="44.12697" lon="6.16788">
        <ele>1054</ele>
        <time>2011-08-17T14:01:26Z</time>
      </trkpt>
      <trkpt lat="44.12693" lon="6.16797">
        <ele>1055</ele>
        <time>2011-08-17T14:01:32Z</time>
      </trkpt>
      <trkpt lat="44.12703" lon="6.1684">
        <ele>1061</ele>
        <time>2011-08-17T14:01:53Z</time>
      </trkpt>
      <trkpt lat="44.12704" lon="6.16848">
        <ele>1061</ele>
        <time>2011-08-17T14:02:05Z</time>
      </trkpt>
      <trkpt lat="44.12706" lon="6.16866">
        <ele>1062</ele>
        <time>2011-08-17T14:02:21Z</time>
      </trkpt>
      <trkpt lat="44.1271" lon="6.16888">
        <ele>1064</ele>
        <time>2011-08-17T14:02:41Z</time>
      </trkpt>
      <trkpt lat="44.12714" lon="6.16909">
        <ele>1065</ele>
        <time>2011-08-17T14:03:01Z</time>
      </trkpt>
      <trkpt lat="44.12726" lon="6.16939">
        <ele>1075</ele>
        <time>2011-08-17T14:03:26Z</time>
      </trkpt>
      <trkpt lat="44.12736" lon="6.1695">
        <ele>1076</ele>
        <time>2011-08-17T14:03:42Z</time>
      </trkpt>
      <trkpt lat="44.12742" lon="6.1696">
        <ele>1077</ele>
        <time>2011-08-17T14:03:58Z</time>
      </trkpt>
      <trkpt lat="44.12768" lon="6.16993">
        <ele>1080</ele>
        <time>2011-08-17T14:04:19Z</time>
      </trkpt>
      <trkpt lat="44.12771" lon="6.17032">
        <ele>1087</ele>
        <time>2011-08-17T14:04:36Z</time>
      </trkpt>
      <trkpt lat="44.12786" lon="6.1708">
        <ele>1089</ele>
        <time>2011-08-17T14:04:51Z</time>
      </trkpt>
      <trkpt lat="44.12824" lon="6.17145">
        <ele>1090</ele>
        <time>2011-08-17T14:05:10Z</time>
      </trkpt>
      <trkpt lat="44.12859" lon="6.17189">
        <ele>1095</ele>
        <time>2011-08-17T14:05:26Z</time>
      </trkpt>
      <trkpt lat="44.12884" lon="6.1725">
        <ele>1089</ele>
        <time>2011-08-17T14:05:39Z</time>
      </trkpt>
      <trkpt lat="44.12896" lon="6.17302">
        <ele>1088</ele>
        <time>2011-08-17T14:05:47Z</time>
      </trkpt>
      <trkpt lat="44.12934" lon="6.17374">
        <ele>1090</ele>
        <time>2011-08-17T14:05:58Z</time>
      </trkpt>
      <trkpt lat="44.12944" lon="6.17438">
        <ele>1088</ele>
        <time>2011-08-17T14:06:08Z</time>
      </trkpt>
      <trkpt lat="44.12951" lon="6.17498">
        <ele>1087</ele>
        <time>2011-08-17T14:06:17Z</time>
      </trkpt>
      <trkpt lat="44.12951" lon="6.17524">
        <ele>1088</ele>
        <time>2011-08-17T14:06:21Z</time>
      </trkpt>
      <trkpt lat="44.1294" lon="6.17567">
        <ele>1086</ele>
        <time>2011-08-17T14:06:27Z</time>
      </trkpt>
      <trkpt lat="44.12939" lon="6.17594">
        <ele>1088</ele>
        <time>2011-08-17T14:06:31Z</time>
      </trkpt>
      <trkpt lat="44.12944" lon="6.1765">
        <ele>1091</ele>
        <time>2011-08-17T14:06:40Z</time>
      </trkpt>
      <trkpt lat="44.12947" lon="6.17671">
        <ele>1097</ele>
        <time>2011-08-17T14:06:44Z</time>
      </trkpt>
      <trkpt lat="44.12931" lon="6.17713">
        <ele>1098</ele>
        <time>2011-08-17T14:06:58Z</time>
      </trkpt>
      <trkpt lat="44.12927" lon="6.17759">
        <ele>1099</ele>
        <time>2011-08-17T14:07:13Z</time>
      </trkpt>
      <trkpt lat="44.1292" lon="6.17804">
        <ele>1105</ele>
        <time>2011-08-17T14:07:29Z</time>
      </trkpt>
      <trkpt lat="44.12921" lon="6.17832">
        <ele>1101</ele>
        <time>2011-08-17T14:07:42Z</time>
      </trkpt>
      <trkpt lat="44.12918" lon="6.17874">
        <ele>1107</ele>
        <time>2011-08-17T14:08:03Z</time>
      </trkpt>
      <trkpt lat="44.12901" lon="6.17907">
        <ele>1090</ele>
        <time>2011-08-17T14:08:12Z</time>
      </trkpt>
      <trkpt lat="44.12875" lon="6.17941">
        <ele>1082</ele>
        <time>2011-08-17T14:08:22Z</time>
      </trkpt>
      <trkpt lat="44.12868" lon="6.17957">
        <ele>1081</ele>
        <time>2011-08-17T14:08:27Z</time>
      </trkpt>
      <trkpt lat="44.12857" lon="6.17967">
        <ele>1079</ele>
        <time>2011-08-17T14:08:31Z</time>
      </trkpt>
      <trkpt lat="44.12854" lon="6.17975">
        <ele>1078</ele>
        <time>2011-08-17T14:08:36Z</time>
      </trkpt>
      <trkpt lat="44.12883" lon="6.18003">
        <ele>1077</ele>
        <time>2011-08-17T14:08:47Z</time>
      </trkpt>
      <trkpt lat="44.12897" lon="6.18018">
        <ele>1079</ele>
        <time>2011-08-17T14:08:51Z</time>
      </trkpt>
      <trkpt lat="44.12904" lon="6.18028">
        <ele>1078</ele>
        <time>2011-08-17T14:08:53Z</time>
      </trkpt>
      <trkpt lat="44.12914" lon="6.18039">
        <ele>1077</ele>
        <time>2011-08-17T14:08:56Z</time>
      </trkpt>
      <trkpt lat="44.1292" lon="6.18061">
        <ele>1088</ele>
        <time>2011-08-17T14:09:01Z</time>
      </trkpt>
      <trkpt lat="44.1291" lon="6.18083">
        <ele>1072</ele>
        <time>2011-08-17T14:09:09Z</time>
      </trkpt>
      <trkpt lat="44.12917" lon="6.18104">
        <ele>1067</ele>
        <time>2011-08-17T14:09:14Z</time>
      </trkpt>
      <trkpt lat="44.12912" lon="6.1811">
        <ele>1066</ele>
        <time>2011-08-17T14:09:18Z</time>
      </trkpt>
      <trkpt lat="44.12906" lon="6.1812">
        <ele>1064</ele>
        <time>2011-08-17T14:09:23Z</time>
      </trkpt>
      <trkpt lat="44.12901" lon="6.18134">
        <ele>1062</ele>
        <time>2011-08-17T14:09:27Z</time>
      </trkpt>
      <trkpt lat="44.12894" lon="6.18181">
        <ele>1054</ele>
        <time>2011-08-17T14:09:38Z</time>
      </trkpt>
      <trkpt lat="44.12894" lon="6.18196">
        <ele>1053</ele>
        <time>2011-08-17T14:09:41Z</time>
      </trkpt>
      <trkpt lat="44.12883" lon="6.18241">
        <ele>1049</ele>
        <time>2011-08-17T14:09:52Z</time>
      </trkpt>
      <trkpt lat="44.12881" lon="6.18249">
        <ele>1049</ele>
        <time>2011-08-17T14:09:54Z</time>
      </trkpt>
      <trkpt lat="44.12881" lon="6.18276">
        <ele>1041</ele>
        <time>2011-08-17T14:10:02Z</time>
      </trkpt>
      <trkpt lat="44.12892" lon="6.18303">
        <ele>1041</ele>
        <time>2011-08-17T14:10:09Z</time>
      </trkpt>
      <trkpt lat="44.12899" lon="6.18347">
        <ele>1036</ele>
        <time>2011-08-17T14:10:16Z</time>
      </trkpt>
      <trkpt lat="44.12906" lon="6.18366">
        <ele>1034</ele>
        <time>2011-08-17T14:10:20Z</time>
      </trkpt>
      <trkpt lat="44.12918" lon="6.18406">
        <ele>1038</ele>
        <time>2011-08-17T14:10:29Z</time>
      </trkpt>
      <trkpt lat="44.12917" lon="6.18445">
        <ele>1042</ele>
        <time>2011-08-17T14:10:38Z</time>
      </trkpt>
      <trkpt lat="44.12911" lon="6.18448">
        <ele>1034</ele>
        <time>2011-08-17T14:10:42Z</time>
      </trkpt>
      <trkpt lat="44.12902" lon="6.18442">
        <ele>1033</ele>
        <time>2011-08-17T14:10:53Z</time>
      </trkpt>
      <trkpt lat="44.12896" lon="6.1843">
        <ele>1032</ele>
        <time>2011-08-17T14:11:02Z</time>
      </trkpt>
      <trkpt lat="44.12886" lon="6.18424">
        <ele>1031</ele>
        <time>2011-08-17T14:11:15Z</time>
      </trkpt>
      <trkpt lat="44.12867" lon="6.18416">
        <ele>1026</ele>
        <time>2011-08-17T14:11:29Z</time>
      </trkpt>
      <trkpt lat="44.12858" lon="6.1841">
        <ele>1025</ele>
        <time>2011-08-17T14:11:32Z</time>
      </trkpt>
      <trkpt lat="44.12838" lon="6.18407">
        <ele>1021</ele>
        <time>2011-08-17T14:11:40Z</time>
      </trkpt>
      <trkpt lat="44.12819" lon="6.18412">
        <ele>1013</ele>
        <time>2011-08-17T14:11:49Z</time>
      </trkpt>
      <trkpt lat="44.12813" lon="6.18414">
        <ele>1012</ele>
        <time>2011-08-17T14:12:01Z</time>
      </trkpt>
      <trkpt lat="44.12804" lon="6.18423">
        <ele>1020</ele>
        <time>2011-08-17T14:12:19Z</time>
      </trkpt>
      <trkpt lat="44.12795" lon="6.18428">
        <ele>1020</ele>
        <time>2011-08-17T14:12:34Z</time>
      </trkpt>
      <trkpt lat="44.12793" lon="6.18429">
        <ele>1020</ele>
        <time>2011-08-17T14:13:29Z</time>
      </trkpt>
      <trkpt lat="44.12785" lon="6.18436">
        <ele>1020</ele>
        <time>2011-08-17T14:13:41Z</time>
      </trkpt>
      <trkpt lat="44.12773" lon="6.18449">
        <ele>1021</ele>
        <time>2011-08-17T14:13:55Z</time>
      </trkpt>
      <trkpt lat="44.12772" lon="6.1845">
        <ele>1021</ele>
        <time>2011-08-17T14:13:56Z</time>
      </trkpt>
      <trkpt lat="44.12766" lon="6.18458">
        <ele>1022</ele>
        <time>2011-08-17T14:14:04Z</time>
      </trkpt>
      <trkpt lat="44.12756" lon="6.18463">
        <ele>1023</ele>
        <time>2011-08-17T14:14:22Z</time>
      </trkpt>
      <trkpt lat="44.12755" lon="6.18462">
        <ele>1023</ele>
        <time>2011-08-17T14:14:24Z</time>
      </trkpt>
      <trkpt lat="44.12745" lon="6.18461">
        <ele>1016</ele>
        <time>2011-08-17T14:14:31Z</time>
      </trkpt>
      <trkpt lat="44.12737" lon="6.18457">
        <ele>1015</ele>
        <time>2011-08-17T14:14:34Z</time>
      </trkpt>
      <trkpt lat="44.12722" lon="6.18461">
        <ele>1015</ele>
        <time>2011-08-17T14:14:40Z</time>
      </trkpt>
      <trkpt lat="44.12703" lon="6.18481">
        <ele>1018</ele>
        <time>2011-08-17T14:14:53Z</time>
      </trkpt>
      <trkpt lat="44.12677" lon="6.18478">
        <ele>1018</ele>
        <time>2011-08-17T14:15:04Z</time>
      </trkpt>
      <trkpt lat="44.12667" lon="6.18477">
        <ele>1017</ele>
        <time>2011-08-17T14:15:08Z</time>
      </trkpt>
      <trkpt lat="44.12648" lon="6.18492">
        <ele>1018</ele>
        <time>2011-08-17T14:15:19Z</time>
      </trkpt>
      <trkpt lat="44.12629" lon="6.18495">
        <ele>1017</ele>
        <time>2011-08-17T14:15:34Z</time>
      </trkpt>
      <trkpt lat="44.1262" lon="6.18501">
        <ele>1038</ele>
        <time>2011-08-17T14:15:52Z</time>
      </trkpt>
      <trkpt lat="44.12617" lon="6.18501">
        <ele>1038</ele>
        <time>2011-08-17T14:15:55Z</time>
      </trkpt>
      <trkpt lat="44.1261" lon="6.18498">
        <ele>1018</ele>
        <time>2011-08-17T14:16:06Z</time>
      </trkpt>
      <trkpt lat="44.12592" lon="6.18498">
        <ele>1023</ele>
        <time>2011-08-17T14:16:17Z</time>
      </trkpt>
      <trkpt lat="44.12585" lon="6.18498">
        <ele>1025</ele>
        <time>2011-08-17T14:16:21Z</time>
      </trkpt>
      <trkpt lat="44.12581" lon="6.185">
        <ele>1026</ele>
        <time>2011-08-17T14:16:24Z</time>
      </trkpt>
      <trkpt lat="44.12547" lon="6.18493">
        <ele>1023</ele>
        <time>2011-08-17T14:16:42Z</time>
      </trkpt>
      <trkpt lat="44.12524" lon="6.18491">
        <ele>1025</ele>
        <time>2011-08-17T14:16:55Z</time>
      </trkpt>
      <trkpt lat="44.12515" lon="6.18492">
        <ele>1026</ele>
        <time>2011-08-17T14:17:11Z</time>
      </trkpt>
      <trkpt lat="44.12514" lon="6.18492">
        <ele>1026</ele>
        <time>2011-08-17T14:23:11Z</time>
      </trkpt>
      <trkpt lat="44.12513" lon="6.18493">
        <ele>1026</ele>
        <time>2011-08-17T14:23:53Z</time>
      </trkpt>
      <trkpt lat="44.12493" lon="6.18498">
        <ele>1026</ele>
        <time>2011-08-17T14:32:14Z</time>
      </trkpt>
      <trkpt lat="44.1249" lon="6.18498">
        <ele>1025</ele>
        <time>2011-08-17T14:32:15Z</time>
      </trkpt>
      <trkpt lat="44.12483" lon="6.18508">
        <ele>1026</ele>
        <time>2011-08-17T14:32:19Z</time>
      </trkpt>
      <trkpt lat="44.12474" lon="6.18523">
        <ele>1024</ele>
        <time>2011-08-17T14:32:24Z</time>
      </trkpt>
      <trkpt lat="44.12456" lon="6.18569">
        <ele>1023</ele>
        <time>2011-08-17T14:32:35Z</time>
      </trkpt>
      <trkpt lat="44.12428" lon="6.18602">
        <ele>1024</ele>
        <time>2011-08-17T14:32:45Z</time>
      </trkpt>
      <trkpt lat="44.12425" lon="6.18606">
        <ele>1024</ele>
        <time>2011-08-17T14:32:46Z</time>
      </trkpt>
      <trkpt lat="44.12417" lon="6.18626">
        <ele>1028</ele>
        <time>2011-08-17T14:32:50Z</time>
      </trkpt>
      <trkpt lat="44.12398" lon="6.1867">
        <ele>1008</ele>
        <time>2011-08-17T14:33:03Z</time>
      </trkpt>
      <trkpt lat="44.12386" lon="6.187">
        <ele>1001</ele>
        <time>2011-08-17T14:33:12Z</time>
      </trkpt>
      <trkpt lat="44.12379" lon="6.18714">
        <ele>999</ele>
        <time>2011-08-17T14:33:21Z</time>
      </trkpt>
      <trkpt lat="44.12376" lon="6.18733">
        <ele>998</ele>
        <time>2011-08-17T14:33:28Z</time>
      </trkpt>
      <trkpt lat="44.12379" lon="6.18747">
        <ele>999</ele>
        <time>2011-08-17T14:33:31Z</time>
      </trkpt>
      <trkpt lat="44.12377" lon="6.18763">
        <ele>998</ele>
        <time>2011-08-17T14:33:35Z</time>
      </trkpt>
      <trkpt lat="44.1238" lon="6.18771">
        <ele>999</ele>
        <time>2011-08-17T14:33:38Z</time>
      </trkpt>
      <trkpt lat="44.1238" lon="6.18785">
        <ele>998</ele>
        <time>2011-08-17T14:33:50Z</time>
      </trkpt>
      <trkpt lat="44.12383" lon="6.18789">
        <ele>999</ele>
        <time>2011-08-17T14:33:52Z</time>
      </trkpt>
      <trkpt lat="44.1239" lon="6.18802">
        <ele>1001</ele>
        <time>2011-08-17T14:33:57Z</time>
      </trkpt>
      <trkpt lat="44.12402" lon="6.18823">
        <ele>1005</ele>
        <time>2011-08-17T14:34:05Z</time>
      </trkpt>
      <trkpt lat="44.12401" lon="6.18832">
        <ele>1006</ele>
        <time>2011-08-17T14:34:15Z</time>
      </trkpt>
      <trkpt lat="44.124" lon="6.18833">
        <ele>1006</ele>
        <time>2011-08-17T14:34:18Z</time>
      </trkpt>
      <trkpt lat="44.12387" lon="6.18832">
        <ele>1001</ele>
        <time>2011-08-17T14:34:34Z</time>
      </trkpt>
      <trkpt lat="44.12371" lon="6.18835">
        <ele>1006</ele>
        <time>2011-08-17T14:34:45Z</time>
      </trkpt>
      <trkpt lat="44.12369" lon="6.18836">
        <ele>1006</ele>
        <time>2011-08-17T14:34:46Z</time>
      </trkpt>
      <trkpt lat="44.12364" lon="6.18843">
        <ele>1005</ele>
        <time>2011-08-17T14:34:52Z</time>
      </trkpt>
      <trkpt lat="44.12356" lon="6.18841">
        <ele>1001</ele>
        <time>2011-08-17T14:35:01Z</time>
      </trkpt>
      <trkpt lat="44.12336" lon="6.18839">
        <ele>988</ele>
        <time>2011-08-17T14:35:11Z</time>
      </trkpt>
      <trkpt lat="44.12326" lon="6.1884">
        <ele>982</ele>
        <time>2011-08-17T14:35:14Z</time>
      </trkpt>
      <trkpt lat="44.12303" lon="6.18866">
        <ele>983</ele>
        <time>2011-08-17T14:35:24Z</time>
      </trkpt>
      <trkpt lat="44.12298" lon="6.18876">
        <ele>984</ele>
        <time>2011-08-17T14:35:28Z</time>
      </trkpt>
      <trkpt lat="44.12293" lon="6.18882">
        <ele>984</ele>
        <time>2011-08-17T14:35:40Z</time>
      </trkpt>
      <trkpt lat="44.12288" lon="6.18884">
        <ele>983</ele>
        <time>2011-08-17T14:35:55Z</time>
      </trkpt>
      <trkpt lat="44.12287" lon="6.18885">
        <ele>983</ele>
        <time>2011-08-17T14:35:59Z</time>
      </trkpt>
      <trkpt lat="44.12278" lon="6.18895">
        <ele>983</ele>
        <time>2011-08-17T14:36:11Z</time>
      </trkpt>
      <trkpt lat="44.12264" lon="6.18929">
        <ele>988</ele>
        <time>2011-08-17T14:36:23Z</time>
      </trkpt>
      <trkpt lat="44.1226" lon="6.18951">
        <ele>991</ele>
        <time>2011-08-17T14:36:29Z</time>
      </trkpt>
      <trkpt lat="44.12257" lon="6.19006">
        <ele>985</ele>
        <time>2011-08-17T14:36:41Z</time>
      </trkpt>
      <trkpt lat="44.1227" lon="6.19041">
        <ele>995</ele>
        <time>2011-08-17T14:36:52Z</time>
      </trkpt>
      <trkpt lat="44.12267" lon="6.19049">
        <ele>995</ele>
        <time>2011-08-17T14:37:05Z</time>
      </trkpt>
      <trkpt lat="44.12264" lon="6.19055">
        <ele>995</ele>
        <time>2011-08-17T14:37:17Z</time>
      </trkpt>
      <trkpt lat="44.12262" lon="6.19062">
        <ele>995</ele>
        <time>2011-08-17T14:37:31Z</time>
      </trkpt>
      <trkpt lat="44.12257" lon="6.19061">
        <ele>994</ele>
        <time>2011-08-17T14:37:44Z</time>
      </trkpt>
      <trkpt lat="44.12253" lon="6.19056">
        <ele>994</ele>
        <time>2011-08-17T14:37:54Z</time>
      </trkpt>
      <trkpt lat="44.12251" lon="6.19053">
        <ele>994</ele>
        <time>2011-08-17T14:37:57Z</time>
      </trkpt>
      <trkpt lat="44.12248" lon="6.19044">
        <ele>981</ele>
        <time>2011-08-17T14:38:02Z</time>
      </trkpt>
      <trkpt lat="44.12243" lon="6.19038">
        <ele>980</ele>
        <time>2011-08-17T14:38:06Z</time>
      </trkpt>
      <trkpt lat="44.12239" lon="6.19036">
        <ele>980</ele>
        <time>2011-08-17T14:38:08Z</time>
      </trkpt>
      <trkpt lat="44.1223" lon="6.19036">
        <ele>979</ele>
        <time>2011-08-17T14:38:11Z</time>
      </trkpt>
      <trkpt lat="44.12202" lon="6.19033">
        <ele>977</ele>
        <time>2011-08-17T14:38:22Z</time>
      </trkpt>
      <trkpt lat="44.12179" lon="6.19033">
        <ele>975</ele>
        <time>2011-08-17T14:38:30Z</time>
      </trkpt>
      <trkpt lat="44.12166" lon="6.19048">
        <ele>977</ele>
        <time>2011-08-17T14:38:40Z</time>
      </trkpt>
      <trkpt lat="44.1216" lon="6.19059">
        <ele>980</ele>
        <time>2011-08-17T14:39:01Z</time>
      </trkpt>
      <trkpt lat="44.12151" lon="6.19073">
        <ele>982</ele>
        <time>2011-08-17T14:39:18Z</time>
      </trkpt>
      <trkpt lat="44.12145" lon="6.19078">
        <ele>982</ele>
        <time>2011-08-17T14:39:31Z</time>
      </trkpt>
      <trkpt lat="44.12137" lon="6.1909">
        <ele>999</ele>
        <time>2011-08-17T14:39:44Z</time>
      </trkpt>
      <trkpt lat="44.12137" lon="6.1909">
        <ele>999</ele>
        <time>2011-08-17T14:39:46Z</time>
      </trkpt>
      <trkpt lat="44.12126" lon="6.19098">
        <ele>1001</ele>
        <time>2011-08-17T14:39:56Z</time>
      </trkpt>
      <trkpt lat="44.12118" lon="6.19117">
        <ele>1003</ele>
        <time>2011-08-17T14:40:12Z</time>
      </trkpt>
      <trkpt lat="44.12116" lon="6.19119">
        <ele>1004</ele>
        <time>2011-08-17T14:40:14Z</time>
      </trkpt>
      <trkpt lat="44.12105" lon="6.19126">
        <ele>1005</ele>
        <time>2011-08-17T14:40:28Z</time>
      </trkpt>
      <trkpt lat="44.12101" lon="6.19108">
        <ele>1000</ele>
        <time>2011-08-17T14:40:46Z</time>
      </trkpt>
      <trkpt lat="44.12101" lon="6.19097">
        <ele>998</ele>
        <time>2011-08-17T14:40:58Z</time>
      </trkpt>
      <trkpt lat="44.12101" lon="6.19078">
        <ele>983</ele>
        <time>2011-08-17T14:41:22Z</time>
      </trkpt>
      <trkpt lat="44.12093" lon="6.19057">
        <ele>980</ele>
        <time>2011-08-17T14:41:30Z</time>
      </trkpt>
      <trkpt lat="44.12092" lon="6.19055">
        <ele>980</ele>
        <time>2011-08-17T14:41:31Z</time>
      </trkpt>
      <trkpt lat="44.12068" lon="6.19058">
        <ele>982</ele>
        <time>2011-08-17T14:41:43Z</time>
      </trkpt>
      <trkpt lat="44.12037" lon="6.19053">
        <ele>980</ele>
        <time>2011-08-17T14:41:53Z</time>
      </trkpt>
      <trkpt lat="44.12011" lon="6.1905">
        <ele>980</ele>
        <time>2011-08-17T14:41:58Z</time>
      </trkpt>
      <trkpt lat="44.11984" lon="6.19057">
        <ele>976</ele>
        <time>2011-08-17T14:42:07Z</time>
      </trkpt>
      <trkpt lat="44.11944" lon="6.19061">
        <ele>973</ele>
        <time>2011-08-17T14:42:16Z</time>
      </trkpt>
      <trkpt lat="44.11933" lon="6.19061">
        <ele>972</ele>
        <time>2011-08-17T14:42:18Z</time>
      </trkpt>
      <trkpt lat="44.11925" lon="6.19068">
        <ele>972</ele>
        <time>2011-08-17T14:42:22Z</time>
      </trkpt>
      <trkpt lat="44.11919" lon="6.19074">
        <ele>972</ele>
        <time>2011-08-17T14:42:24Z</time>
      </trkpt>
      <trkpt lat="44.1191" lon="6.19081">
        <ele>969</ele>
        <time>2011-08-17T14:42:28Z</time>
      </trkpt>
      <trkpt lat="44.11897" lon="6.19084">
        <ele>975</ele>
        <time>2011-08-17T14:42:32Z</time>
      </trkpt>
      <trkpt lat="44.11894" lon="6.19082">
        <ele>964</ele>
        <time>2011-08-17T14:42:36Z</time>
      </trkpt>
      <trkpt lat="44.1189" lon="6.19079">
        <ele>963</ele>
        <time>2011-08-17T14:42:40Z</time>
      </trkpt>
      <trkpt lat="44.11885" lon="6.19082">
        <ele>962</ele>
        <time>2011-08-17T14:42:43Z</time>
      </trkpt>
      <trkpt lat="44.11881" lon="6.19091">
        <ele>975</ele>
        <time>2011-08-17T14:42:48Z</time>
      </trkpt>
      <trkpt lat="44.11874" lon="6.19102">
        <ele>975</ele>
        <time>2011-08-17T14:42:53Z</time>
      </trkpt>
      <trkpt lat="44.11872" lon="6.19107">
        <ele>976</ele>
        <time>2011-08-17T14:42:55Z</time>
      </trkpt>
      <trkpt lat="44.11867" lon="6.19108">
        <ele>975</ele>
        <time>2011-08-17T14:42:59Z</time>
      </trkpt>
      <trkpt lat="44.11856" lon="6.19106">
        <ele>973</ele>
        <time>2011-08-17T14:43:10Z</time>
      </trkpt>
      <trkpt lat="44.11842" lon="6.19103">
        <ele>970</ele>
        <time>2011-08-17T14:43:29Z</time>
      </trkpt>
      <trkpt lat="44.11842" lon="6.19102">
        <ele>970</ele>
        <time>2011-08-17T14:43:30Z</time>
      </trkpt>
      <trkpt lat="44.11838" lon="6.19101">
        <ele>969</ele>
        <time>2011-08-17T14:43:42Z</time>
      </trkpt>
      <trkpt lat="44.11835" lon="6.19094">
        <ele>965</ele>
        <time>2011-08-17T14:43:57Z</time>
      </trkpt>
      <trkpt lat="44.11835" lon="6.19094">
        <ele>965</ele>
        <time>2011-08-17T14:44:00Z</time>
      </trkpt>
      <trkpt lat="44.11829" lon="6.19091">
        <ele>965</ele>
        <time>2011-08-17T14:44:05Z</time>
      </trkpt>
      <trkpt lat="44.11825" lon="6.19083">
        <ele>959</ele>
        <time>2011-08-17T14:44:09Z</time>
      </trkpt>
      <trkpt lat="44.11806" lon="6.19038">
        <ele>959</ele>
        <time>2011-08-17T14:44:25Z</time>
      </trkpt>
      <trkpt lat="44.11803" lon="6.19008">
        <ele>956</ele>
        <time>2011-08-17T14:44:32Z</time>
      </trkpt>
      <trkpt lat="44.11787" lon="6.18975">
        <ele>946</ele>
        <time>2011-08-17T14:44:41Z</time>
      </trkpt>
      <trkpt lat="44.11781" lon="6.18965">
        <ele>945</ele>
        <time>2011-08-17T14:44:44Z</time>
      </trkpt>
      <trkpt lat="44.11768" lon="6.18959">
        <ele>946</ele>
        <time>2011-08-17T14:44:49Z</time>
      </trkpt>
      <trkpt lat="44.11756" lon="6.18963">
        <ele>947</ele>
        <time>2011-08-17T14:44:53Z</time>
      </trkpt>
      <trkpt lat="44.11741" lon="6.18953">
        <ele>954</ele>
        <time>2011-08-17T14:45:00Z</time>
      </trkpt>
      <trkpt lat="44.1173" lon="6.18953">
        <ele>955</ele>
        <time>2011-08-17T14:45:07Z</time>
      </trkpt>
      <trkpt lat="44.11692" lon="6.18952">
        <ele>958</ele>
        <time>2011-08-17T14:45:27Z</time>
      </trkpt>
      <trkpt lat="44.11659" lon="6.18933">
        <ele>959</ele>
        <time>2011-08-17T14:45:44Z</time>
      </trkpt>
      <trkpt lat="44.1162" lon="6.18908">
        <ele>948</ele>
        <time>2011-08-17T14:46:01Z</time>
      </trkpt>
      <trkpt lat="44.11572" lon="6.18895">
        <ele>950</ele>
        <time>2011-08-17T14:46:16Z</time>
      </trkpt>
      <trkpt lat="44.11518" lon="6.18899">
        <ele>949</ele>
        <time>2011-08-17T14:46:33Z</time>
      </trkpt>
      <trkpt lat="44.115" lon="6.18914">
        <ele>953</ele>
        <time>2011-08-17T14:46:44Z</time>
      </trkpt>
      <trkpt lat="44.11483" lon="6.18942">
        <ele>958</ele>
        <time>2011-08-17T14:47:01Z</time>
      </trkpt>
      <trkpt lat="44.11464" lon="6.18978">
        <ele>961</ele>
        <time>2011-08-17T14:47:20Z</time>
      </trkpt>
      <trkpt lat="44.11441" lon="6.19019">
        <ele>976</ele>
        <time>2011-08-17T14:47:41Z</time>
      </trkpt>
      <trkpt lat="44.11417" lon="6.19047">
        <ele>979</ele>
        <time>2011-08-17T14:47:56Z</time>
      </trkpt>
      <trkpt lat="44.11388" lon="6.19089">
        <ele>977</ele>
        <time>2011-08-17T14:48:16Z</time>
      </trkpt>
      <trkpt lat="44.11381" lon="6.19117">
        <ele>978</ele>
        <time>2011-08-17T14:48:23Z</time>
      </trkpt>
      <trkpt lat="44.11367" lon="6.19138">
        <ele>977</ele>
        <time>2011-08-17T14:48:28Z</time>
      </trkpt>
      <trkpt lat="44.11359" lon="6.19144">
        <ele>976</ele>
        <time>2011-08-17T14:48:30Z</time>
      </trkpt>
      <trkpt lat="44.11342" lon="6.19168">
        <ele>979</ele>
        <time>2011-08-17T14:48:38Z</time>
      </trkpt>
      <trkpt lat="44.11342" lon="6.1917">
        <ele>979</ele>
        <time>2011-08-17T14:49:05Z</time>
      </trkpt>
      <trkpt lat="44.11342" lon="6.19172">
        <ele>980</ele>
        <time>2011-08-17T14:49:07Z</time>
      </trkpt>
      <trkpt lat="44.11335" lon="6.19177">
        <ele>980</ele>
        <time>2011-08-17T14:49:16Z</time>
      </trkpt>
      <trkpt lat="44.11331" lon="6.19177">
        <ele>973</ele>
        <time>2011-08-17T14:49:19Z</time>
      </trkpt>
      <trkpt lat="44.11298" lon="6.19192">
        <ele>974</ele>
        <time>2011-08-17T14:49:31Z</time>
      </trkpt>
      <trkpt lat="44.11249" lon="6.19224">
        <ele>965</ele>
        <time>2011-08-17T14:49:46Z</time>
      </trkpt>
      <trkpt lat="44.11239" lon="6.19239">
        <ele>968</ele>
        <time>2011-08-17T14:49:49Z</time>
      </trkpt>
      <trkpt lat="44.11211" lon="6.19272">
        <ele>975</ele>
        <time>2011-08-17T14:49:56Z</time>
      </trkpt>
      <trkpt lat="44.11172" lon="6.19297">
        <ele>974</ele>
        <time>2011-08-17T14:50:07Z</time>
      </trkpt>
      <trkpt lat="44.1116" lon="6.19307">
        <ele>963</ele>
        <time>2011-08-17T14:50:10Z</time>
      </trkpt>
      <trkpt lat="44.11151" lon="6.19334">
        <ele>974</ele>
        <time>2011-08-17T14:50:16Z</time>
      </trkpt>
      <trkpt lat="44.11135" lon="6.19363">
        <ele>973</ele>
        <time>2011-08-17T14:50:28Z</time>
      </trkpt>
      <trkpt lat="44.11134" lon="6.19394">
        <ele>976</ele>
        <time>2011-08-17T14:50:39Z</time>
      </trkpt>
      <trkpt lat="44.1113" lon="6.19394">
        <ele>976</ele>
        <time>2011-08-17T14:50:43Z</time>
      </trkpt>
      <trkpt lat="44.11107" lon="6.19383">
        <ele>972</ele>
        <time>2011-08-17T14:50:57Z</time>
      </trkpt>
      <trkpt lat="44.11086" lon="6.19408">
        <ele>970</ele>
        <time>2011-08-17T14:51:13Z</time>
      </trkpt>
      <trkpt lat="44.11073" lon="6.19441">
        <ele>968</ele>
        <time>2011-08-17T14:51:25Z</time>
      </trkpt>
      <trkpt lat="44.1107" lon="6.19455">
        <ele>969</ele>
        <time>2011-08-17T14:51:30Z</time>
      </trkpt>
      <trkpt lat="44.11059" lon="6.19489">
        <ele>971</ele>
        <time>2011-08-17T14:51:42Z</time>
      </trkpt>
      <trkpt lat="44.11052" lon="6.19501">
        <ele>980</ele>
        <time>2011-08-17T14:51:54Z</time>
      </trkpt>
      <trkpt lat="44.11047" lon="6.19511">
        <ele>979</ele>
        <time>2011-08-17T14:52:08Z</time>
      </trkpt>
      <trkpt lat="44.11041" lon="6.19521">
        <ele>979</ele>
        <time>2011-08-17T14:52:24Z</time>
      </trkpt>
      <trkpt lat="44.11026" lon="6.19556">
        <ele>980</ele>
        <time>2011-08-17T14:52:39Z</time>
      </trkpt>
      <trkpt lat="44.11025" lon="6.19558">
        <ele>980</ele>
        <time>2011-08-17T14:52:40Z</time>
      </trkpt>
      <trkpt lat="44.11007" lon="6.19585">
        <ele>980</ele>
        <time>2011-08-17T14:52:50Z</time>
      </trkpt>
      <trkpt lat="44.10998" lon="6.19588">
        <ele>973</ele>
        <time>2011-08-17T14:52:54Z</time>
      </trkpt>
      <trkpt lat="44.10995" lon="6.19593">
        <ele>972</ele>
        <time>2011-08-17T14:52:57Z</time>
      </trkpt>
      <trkpt lat="44.10985" lon="6.19599">
        <ele>971</ele>
        <time>2011-08-17T14:53:02Z</time>
      </trkpt>
      <trkpt lat="44.10982" lon="6.19608">
        <ele>971</ele>
        <time>2011-08-17T14:53:06Z</time>
      </trkpt>
      <trkpt lat="44.1098" lon="6.19616">
        <ele>971</ele>
        <time>2011-08-17T14:53:10Z</time>
      </trkpt>
      <trkpt lat="44.10963" lon="6.19631">
        <ele>970</ele>
        <time>2011-08-17T14:53:20Z</time>
      </trkpt>
      <trkpt lat="44.10955" lon="6.19667">
        <ele>971</ele>
        <time>2011-08-17T14:53:31Z</time>
      </trkpt>
      <trkpt lat="44.10957" lon="6.19685">
        <ele>979</ele>
        <time>2011-08-17T14:53:39Z</time>
      </trkpt>
      <trkpt lat="44.10948" lon="6.19689">
        <ele>978</ele>
        <time>2011-08-17T14:53:45Z</time>
      </trkpt>
      <trkpt lat="44.10922" lon="6.19709">
        <ele>977</ele>
        <time>2011-08-17T14:54:00Z</time>
      </trkpt>
      <trkpt lat="44.10903" lon="6.19744">
        <ele>970</ele>
        <time>2011-08-17T14:54:13Z</time>
      </trkpt>
      <trkpt lat="44.10876" lon="6.1976">
        <ele>969</ele>
        <time>2011-08-17T14:54:24Z</time>
      </trkpt>
      <trkpt lat="44.10865" lon="6.19799">
        <ele>968</ele>
        <time>2011-08-17T14:54:34Z</time>
      </trkpt>
      <trkpt lat="44.10866" lon="6.19843">
        <ele>970</ele>
        <time>2011-08-17T14:54:45Z</time>
      </trkpt>
      <trkpt lat="44.10878" lon="6.19905">
        <ele>972</ele>
        <time>2011-08-17T14:54:57Z</time>
      </trkpt>
      <trkpt lat="44.10883" lon="6.19937">
        <ele>974</ele>
        <time>2011-08-17T14:55:05Z</time>
      </trkpt>
      <trkpt lat="44.1087" lon="6.1996">
        <ele>972</ele>
        <time>2011-08-17T14:55:11Z</time>
      </trkpt>
      <trkpt lat="44.1085" lon="6.20005">
        <ele>971</ele>
        <time>2011-08-17T14:55:18Z</time>
      </trkpt>
      <trkpt lat="44.10831" lon="6.2003">
        <ele>964</ele>
        <time>2011-08-17T14:55:25Z</time>
      </trkpt>
      <trkpt lat="44.10831" lon="6.20031">
        <ele>964</ele>
        <time>2011-08-17T14:55:35Z</time>
      </trkpt>
      <trkpt lat="44.10818" lon="6.20043">
        <ele>965</ele>
        <time>2011-08-17T14:55:57Z</time>
      </trkpt>
      <trkpt lat="44.10811" lon="6.2005">
        <ele>965</ele>
        <time>2011-08-17T14:56:08Z</time>
      </trkpt>
      <trkpt lat="44.108" lon="6.20088">
        <ele>972</ele>
        <time>2011-08-17T14:56:20Z</time>
      </trkpt>
      <trkpt lat="44.10798" lon="6.20097">
        <ele>972</ele>
        <time>2011-08-17T14:56:22Z</time>
      </trkpt>
      <trkpt lat="44.10793" lon="6.20113">
        <ele>971</ele>
        <time>2011-08-17T14:56:25Z</time>
      </trkpt>
      <trkpt lat="44.10787" lon="6.20132">
        <ele>971</ele>
        <time>2011-08-17T14:56:28Z</time>
      </trkpt>
      <trkpt lat="44.10777" lon="6.20151">
        <ele>970</ele>
        <time>2011-08-17T14:56:31Z</time>
      </trkpt>
      <trkpt lat="44.10766" lon="6.20172">
        <ele>971</ele>
        <time>2011-08-17T14:56:34Z</time>
      </trkpt>
      <trkpt lat="44.10752" lon="6.20202">
        <ele>973</ele>
        <time>2011-08-17T14:56:39Z</time>
      </trkpt>
      <trkpt lat="44.10741" lon="6.20238">
        <ele>963</ele>
        <time>2011-08-17T14:56:44Z</time>
      </trkpt>
      <trkpt lat="44.10738" lon="6.20287">
        <ele>958</ele>
        <time>2011-08-17T14:56:55Z</time>
      </trkpt>
      <trkpt lat="44.10733" lon="6.20324">
        <ele>958</ele>
        <time>2011-08-17T14:57:05Z</time>
      </trkpt>
      <trkpt lat="44.10722" lon="6.20361">
        <ele>953</ele>
        <time>2011-08-17T14:57:15Z</time>
      </trkpt>
      <trkpt lat="44.10721" lon="6.20359">
        <ele>953</ele>
        <time>2011-08-17T14:57:35Z</time>
      </trkpt>
      <trkpt lat="44.10725" lon="6.20377">
        <ele>953</ele>
        <time>2011-08-17T15:00:17Z</time>
      </trkpt>
      <trkpt lat="44.10728" lon="6.20402">
        <ele>954</ele>
        <time>2011-08-17T15:00:23Z</time>
      </trkpt>
      <trkpt lat="44.10723" lon="6.20428">
        <ele>953</ele>
        <time>2011-08-17T15:00:28Z</time>
      </trkpt>
      <trkpt lat="44.10717" lon="6.20438">
        <ele>952</ele>
        <time>2011-08-17T15:00:30Z</time>
      </trkpt>
      <trkpt lat="44.10705" lon="6.2049">
        <ele>950</ele>
        <time>2011-08-17T15:00:42Z</time>
      </trkpt>
      <trkpt lat="44.10694" lon="6.20543">
        <ele>954</ele>
        <time>2011-08-17T15:00:55Z</time>
      </trkpt>
      <trkpt lat="44.1067" lon="6.206">
        <ele>951</ele>
        <time>2011-08-17T15:01:07Z</time>
      </trkpt>
      <trkpt lat="44.10659" lon="6.20624">
        <ele>941</ele>
        <time>2011-08-17T15:01:17Z</time>
      </trkpt>
      <trkpt lat="44.10655" lon="6.20631">
        <ele>941</ele>
        <time>2011-08-17T15:08:41Z</time>
      </trkpt>
      <trkpt lat="44.1065" lon="6.20644">
        <ele>941</ele>
        <time>2011-08-17T15:08:45Z</time>
      </trkpt>
      <trkpt lat="44.10643" lon="6.2067">
        <ele>941</ele>
        <time>2011-08-17T15:08:50Z</time>
      </trkpt>
      <trkpt lat="44.10621" lon="6.20697">
        <ele>938</ele>
        <time>2011-08-17T15:08:56Z</time>
      </trkpt>
      <trkpt lat="44.10571" lon="6.20729">
        <ele>924</ele>
        <time>2011-08-17T15:09:06Z</time>
      </trkpt>
      <trkpt lat="44.10533" lon="6.20712">
        <ele>920</ele>
        <time>2011-08-17T15:09:17Z</time>
      </trkpt>
      <trkpt lat="44.10528" lon="6.20695">
        <ele>921</ele>
        <time>2011-08-17T15:09:22Z</time>
      </trkpt>
      <trkpt lat="44.10533" lon="6.20675">
        <ele>922</ele>
        <time>2011-08-17T15:09:27Z</time>
      </trkpt>
      <trkpt lat="44.10535" lon="6.20662">
        <ele>923</ele>
        <time>2011-08-17T15:09:30Z</time>
      </trkpt>
      <trkpt lat="44.10538" lon="6.20646">
        <ele>923</ele>
        <time>2011-08-17T15:09:33Z</time>
      </trkpt>
      <trkpt lat="44.10529" lon="6.20644">
        <ele>922</ele>
        <time>2011-08-17T15:09:39Z</time>
      </trkpt>
      <trkpt lat="44.10508" lon="6.207">
        <ele>918</ele>
        <time>2011-08-17T15:09:50Z</time>
      </trkpt>
      <trkpt lat="44.10506" lon="6.20713">
        <ele>917</ele>
        <time>2011-08-17T15:09:52Z</time>
      </trkpt>
      <trkpt lat="44.10515" lon="6.20753">
        <ele>907</ele>
        <time>2011-08-17T15:09:58Z</time>
      </trkpt>
      <trkpt lat="44.1052" lon="6.2076">
        <ele>907</ele>
        <time>2011-08-17T15:10:00Z</time>
      </trkpt>
      <trkpt lat="44.10522" lon="6.2077">
        <ele>907</ele>
        <time>2011-08-17T15:10:12Z</time>
      </trkpt>
      <trkpt lat="44.10518" lon="6.20771">
        <ele>907</ele>
        <time>2011-08-17T15:10:33Z</time>
      </trkpt>
      <trkpt lat="44.10512" lon="6.2077">
        <ele>907</ele>
        <time>2011-08-17T15:10:43Z</time>
      </trkpt>
      <trkpt lat="44.10498" lon="6.20779">
        <ele>893</ele>
        <time>2011-08-17T15:10:52Z</time>
      </trkpt>
      <trkpt lat="44.10492" lon="6.20796">
        <ele>890</ele>
        <time>2011-08-17T15:10:57Z</time>
      </trkpt>
      <trkpt lat="44.10455" lon="6.20838">
        <ele>876</ele>
        <time>2011-08-17T15:11:12Z</time>
      </trkpt>
      <trkpt lat="44.10434" lon="6.20852">
        <ele>872</ele>
        <time>2011-08-17T15:11:19Z</time>
      </trkpt>
      <trkpt lat="44.10415" lon="6.20864">
        <ele>858</ele>
        <time>2011-08-17T15:11:27Z</time>
      </trkpt>
      <trkpt lat="44.10403" lon="6.20882">
        <ele>856</ele>
        <time>2011-08-17T15:11:38Z</time>
      </trkpt>
      <trkpt lat="44.10402" lon="6.20884">
        <ele>856</ele>
        <time>2011-08-17T15:11:56Z</time>
      </trkpt>
      <trkpt lat="44.10401" lon="6.20884">
        <ele>856</ele>
        <time>2011-08-17T15:12:13Z</time>
      </trkpt>
      <trkpt lat="44.10385" lon="6.20903">
        <ele>854</ele>
        <time>2011-08-17T15:12:22Z</time>
      </trkpt>
      <trkpt lat="44.10369" lon="6.20937">
        <ele>846</ele>
        <time>2011-08-17T15:12:32Z</time>
      </trkpt>
      <trkpt lat="44.10367" lon="6.2094">
        <ele>846</ele>
        <time>2011-08-17T15:12:33Z</time>
      </trkpt>
      <trkpt lat="44.10329" lon="6.20963">
        <ele>831</ele>
        <time>2011-08-17T15:12:47Z</time>
      </trkpt>
      <trkpt lat="44.10314" lon="6.20964">
        <ele>830</ele>
        <time>2011-08-17T15:12:52Z</time>
      </trkpt>
      <trkpt lat="44.10306" lon="6.21002">
        <ele>825</ele>
        <time>2011-08-17T15:13:02Z</time>
      </trkpt>
      <trkpt lat="44.10307" lon="6.21025">
        <ele>823</ele>
        <time>2011-08-17T15:13:07Z</time>
      </trkpt>
      <trkpt lat="44.10292" lon="6.21033">
        <ele>820</ele>
        <time>2011-08-17T15:13:13Z</time>
      </trkpt>
      <trkpt lat="44.10286" lon="6.21032">
        <ele>820</ele>
        <time>2011-08-17T15:13:16Z</time>
      </trkpt>
      <trkpt lat="44.10278" lon="6.2105">
        <ele>818</ele>
        <time>2011-08-17T15:13:22Z</time>
      </trkpt>
      <trkpt lat="44.10279" lon="6.21055">
        <ele>818</ele>
        <time>2011-08-17T15:13:24Z</time>
      </trkpt>
      <trkpt lat="44.10273" lon="6.21069">
        <ele>816</ele>
        <time>2011-08-17T15:13:31Z</time>
      </trkpt>
      <trkpt lat="44.10274" lon="6.21071">
        <ele>816</ele>
        <time>2011-08-17T15:13:35Z</time>
      </trkpt>
      <trkpt lat="44.10275" lon="6.21079">
        <ele>815</ele>
        <time>2011-08-17T15:13:39Z</time>
      </trkpt>
      <trkpt lat="44.10282" lon="6.21095">
        <ele>809</ele>
        <time>2011-08-17T15:13:44Z</time>
      </trkpt>
      <trkpt lat="44.10268" lon="6.21119">
        <ele>807</ele>
        <time>2011-08-17T15:13:53Z</time>
      </trkpt>
      <trkpt lat="44.10261" lon="6.21126">
        <ele>807</ele>
        <time>2011-08-17T15:13:57Z</time>
      </trkpt>
      <trkpt lat="44.10244" lon="6.21122">
        <ele>797</ele>
        <time>2011-08-17T15:14:03Z</time>
      </trkpt>
      <trkpt lat="44.10234" lon="6.21125">
        <ele>795</ele>
        <time>2011-08-17T15:14:07Z</time>
      </trkpt>
      <trkpt lat="44.10212" lon="6.21161">
        <ele>792</ele>
        <time>2011-08-17T15:14:18Z</time>
      </trkpt>
    </trkseg>
  </trk>
  <trk>
    <name><![CDATA[ACTIVE LOG171908]]></name>
    <trkseg>
      <trkpt lat="44.10161" lon="6.21147">
        <ele>775</ele>
        <time>2011-08-17T15:19:08Z</time>
      </trkpt>
      <trkpt lat="44.10163" lon="6.21151">
        <ele>775</ele>
        <time>2011-08-17T15:19:43Z</time>
      </trkpt>
      <trkpt lat="44.10159" lon="6.2115">
        <ele>775</ele>
        <time>2011-08-17T15:19:59Z</time>
      </trkpt>
      <trkpt lat="44.10159" lon="6.21151">
        <ele>775</ele>
        <time>2011-08-17T15:20:00Z</time>
      </trkpt>
      <trkpt lat="44.10155" lon="6.2115">
        <ele>775</ele>
        <time>2011-08-17T15:20:08Z</time>
      </trkpt>
      <trkpt lat="44.10127" lon="6.21151">
        <ele>772</ele>
        <time>2011-08-17T15:20:19Z</time>
      </trkpt>
      <trkpt lat="44.10092" lon="6.21185">
        <ele>763</ele>
        <time>2011-08-17T15:20:31Z</time>
      </trkpt>
      <trkpt lat="44.10067" lon="6.21204">
        <ele>751</ele>
        <time>2011-08-17T15:20:41Z</time>
      </trkpt>
      <trkpt lat="44.10046" lon="6.21216">
        <ele>749</ele>
        <time>2011-08-17T15:20:56Z</time>
      </trkpt>
      <trkpt lat="44.10038" lon="6.21224">
        <ele>748</ele>
        <time>2011-08-17T15:21:02Z</time>
      </trkpt>
      <trkpt lat="44.10029" lon="6.21224">
        <ele>747</ele>
        <time>2011-08-17T15:21:10Z</time>
      </trkpt>
      <trkpt lat="44.10021" lon="6.21227">
        <ele>746</ele>
        <time>2011-08-17T15:21:23Z</time>
      </trkpt>
      <trkpt lat="44.10018" lon="6.21227">
        <ele>745</ele>
        <time>2011-08-17T15:21:37Z</time>
      </trkpt>
      <trkpt lat="44.09985" lon="6.21228">
        <ele>735</ele>
        <time>2011-08-17T15:21:49Z</time>
      </trkpt>
      <trkpt lat="44.0997" lon="6.21231">
        <ele>733</ele>
        <time>2011-08-17T15:21:52Z</time>
      </trkpt>
      <trkpt lat="44.09937" lon="6.21259">
        <ele>736</ele>
        <time>2011-08-17T15:22:03Z</time>
      </trkpt>
      <trkpt lat="44.09921" lon="6.21283">
        <ele>739</ele>
        <time>2011-08-17T15:22:13Z</time>
      </trkpt>
      <trkpt lat="44.09927" lon="6.2129">
        <ele>741</ele>
        <time>2011-08-17T15:22:18Z</time>
      </trkpt>
      <trkpt lat="44.09936" lon="6.21286">
        <ele>741</ele>
        <time>2011-08-17T15:22:23Z</time>
      </trkpt>
      <trkpt lat="44.09955" lon="6.2128">
        <ele>741</ele>
        <time>2011-08-17T15:22:34Z</time>
      </trkpt>
      <trkpt lat="44.09955" lon="6.2131">
        <ele>745</ele>
        <time>2011-08-17T15:22:52Z</time>
      </trkpt>
      <trkpt lat="44.09928" lon="6.2134">
        <ele>753</ele>
        <time>2011-08-17T15:23:14Z</time>
      </trkpt>
      <trkpt lat="44.09914" lon="6.21371">
        <ele>747</ele>
        <time>2011-08-17T15:23:32Z</time>
      </trkpt>
      <trkpt lat="44.09911" lon="6.21416">
        <ele>758</ele>
        <time>2011-08-17T15:23:52Z</time>
      </trkpt>
      <trkpt lat="44.09907" lon="6.21454">
        <ele>759</ele>
        <time>2011-08-17T15:24:09Z</time>
      </trkpt>
      <trkpt lat="44.09892" lon="6.21498">
        <ele>761</ele>
        <time>2011-08-17T15:24:23Z</time>
      </trkpt>
      <trkpt lat="44.0988" lon="6.21568">
        <ele>766</ele>
        <time>2011-08-17T15:24:40Z</time>
      </trkpt>
      <trkpt lat="44.09884" lon="6.21663">
        <ele>772</ele>
        <time>2011-08-17T15:24:59Z</time>
      </trkpt>
      <trkpt lat="44.09887" lon="6.2173">
        <ele>771</ele>
        <time>2011-08-17T15:25:16Z</time>
      </trkpt>
      <trkpt lat="44.09884" lon="6.21747">
        <ele>771</ele>
        <time>2011-08-17T15:25:20Z</time>
      </trkpt>
      <trkpt lat="44.09875" lon="6.21757">
        <ele>769</ele>
        <time>2011-08-17T15:25:24Z</time>
      </trkpt>
      <trkpt lat="44.09864" lon="6.21796">
        <ele>769</ele>
        <time>2011-08-17T15:25:33Z</time>
      </trkpt>
      <trkpt lat="44.09857" lon="6.21816">
        <ele>768</ele>
        <time>2011-08-17T15:25:39Z</time>
      </trkpt>
      <trkpt lat="44.09858" lon="6.21822">
        <ele>768</ele>
        <time>2011-08-17T15:25:41Z</time>
      </trkpt>
      <trkpt lat="44.09853" lon="6.21832">
        <ele>767</ele>
        <time>2011-08-17T15:25:45Z</time>
      </trkpt>
      <trkpt lat="44.09843" lon="6.21839">
        <ele>769</ele>
        <time>2011-08-17T15:25:56Z</time>
      </trkpt>
      <trkpt lat="44.09832" lon="6.21854">
        <ele>766</ele>
        <time>2011-08-17T15:26:13Z</time>
      </trkpt>
      <trkpt lat="44.09827" lon="6.21861">
        <ele>766</ele>
        <time>2011-08-17T15:26:21Z</time>
      </trkpt>
      <trkpt lat="44.09816" lon="6.21881">
        <ele>768</ele>
        <time>2011-08-17T15:26:40Z</time>
      </trkpt>
      <trkpt lat="44.09807" lon="6.21895">
        <ele>769</ele>
        <time>2011-08-17T15:26:52Z</time>
      </trkpt>
      <trkpt lat="44.09782" lon="6.2192">
        <ele>779</ele>
        <time>2011-08-17T15:27:06Z</time>
      </trkpt>
      <trkpt lat="44.0974" lon="6.21939">
        <ele>777</ele>
        <time>2011-08-17T15:27:23Z</time>
      </trkpt>
      <trkpt lat="44.09704" lon="6.21952">
        <ele>778</ele>
        <time>2011-08-17T15:27:38Z</time>
      </trkpt>
      <trkpt lat="44.09657" lon="6.21983">
        <ele>780</ele>
        <time>2011-08-17T15:27:59Z</time>
      </trkpt>
      <trkpt lat="44.09626" lon="6.21987">
        <ele>777</ele>
        <time>2011-08-17T15:28:14Z</time>
      </trkpt>
      <trkpt lat="44.09594" lon="6.22007">
        <ele>785</ele>
        <time>2011-08-17T15:28:30Z</time>
      </trkpt>
      <trkpt lat="44.09561" lon="6.22036">
        <ele>785</ele>
        <time>2011-08-17T15:28:42Z</time>
      </trkpt>
      <trkpt lat="44.09514" lon="6.2204">
        <ele>782</ele>
        <time>2011-08-17T15:28:56Z</time>
      </trkpt>
      <trkpt lat="44.0948" lon="6.22044">
        <ele>776</ele>
        <time>2011-08-17T15:29:04Z</time>
      </trkpt>
      <trkpt lat="44.09456" lon="6.22039">
        <ele>775</ele>
        <time>2011-08-17T15:29:08Z</time>
      </trkpt>
      <trkpt lat="44.09435" lon="6.22049">
        <ele>775</ele>
        <time>2011-08-17T15:29:14Z</time>
      </trkpt>
      <trkpt lat="44.09389" lon="6.22068">
        <ele>769</ele>
        <time>2011-08-17T15:29:26Z</time>
      </trkpt>
      <trkpt lat="44.09337" lon="6.22101">
        <ele>762</ele>
        <time>2011-08-17T15:29:39Z</time>
      </trkpt>
      <trkpt lat="44.09289" lon="6.22141">
        <ele>746</ele>
        <time>2011-08-17T15:29:53Z</time>
      </trkpt>
      <trkpt lat="44.09281" lon="6.22155">
        <ele>744</ele>
        <time>2011-08-17T15:29:57Z</time>
      </trkpt>
      <trkpt lat="44.0927" lon="6.22163">
        <ele>742</ele>
        <time>2011-08-17T15:30:01Z</time>
      </trkpt>
      <trkpt lat="44.09249" lon="6.22163">
        <ele>735</ele>
        <time>2011-08-17T15:30:06Z</time>
      </trkpt>
      <trkpt lat="44.0925" lon="6.22171">
        <ele>732</ele>
        <time>2011-08-17T15:30:10Z</time>
      </trkpt>
      <trkpt lat="44.09255" lon="6.22179">
        <ele>734</ele>
        <time>2011-08-17T15:30:12Z</time>
      </trkpt>
      <trkpt lat="44.09261" lon="6.22189">
        <ele>732</ele>
        <time>2011-08-17T15:30:15Z</time>
      </trkpt>
      <trkpt lat="44.09291" lon="6.22212">
        <ele>730</ele>
        <time>2011-08-17T15:30:26Z</time>
      </trkpt>
      <trkpt lat="44.09274" lon="6.22218">
        <ele>728</ele>
        <time>2011-08-17T15:30:33Z</time>
      </trkpt>
      <trkpt lat="44.09268" lon="6.22219">
        <ele>728</ele>
        <time>2011-08-17T15:30:35Z</time>
      </trkpt>
      <trkpt lat="44.0927" lon="6.22225">
        <ele>727</ele>
        <time>2011-08-17T15:30:39Z</time>
      </trkpt>
      <trkpt lat="44.09273" lon="6.22245">
        <ele>724</ele>
        <time>2011-08-17T15:30:45Z</time>
      </trkpt>
      <trkpt lat="44.09264" lon="6.22303">
        <ele>715</ele>
        <time>2011-08-17T15:30:58Z</time>
      </trkpt>
      <trkpt lat="44.09254" lon="6.22334">
        <ele>703</ele>
        <time>2011-08-17T15:31:03Z</time>
      </trkpt>
      <trkpt lat="44.09249" lon="6.22392">
        <ele>692</ele>
        <time>2011-08-17T15:31:14Z</time>
      </trkpt>
      <trkpt lat="44.09249" lon="6.22396">
        <ele>692</ele>
        <time>2011-08-17T15:31:15Z</time>
      </trkpt>
      <trkpt lat="44.09237" lon="6.22392">
        <ele>691</ele>
        <time>2011-08-17T15:31:21Z</time>
      </trkpt>
      <trkpt lat="44.09232" lon="6.22384">
        <ele>690</ele>
        <time>2011-08-17T15:31:23Z</time>
      </trkpt>
      <trkpt lat="44.0922" lon="6.22383">
        <ele>689</ele>
        <time>2011-08-17T15:31:27Z</time>
      </trkpt>
      <trkpt lat="44.09207" lon="6.22388">
        <ele>687</ele>
        <time>2011-08-17T15:31:31Z</time>
      </trkpt>
      <trkpt lat="44.09197" lon="6.22382">
        <ele>686</ele>
        <time>2011-08-17T15:31:35Z</time>
      </trkpt>
      <trkpt lat="44.09175" lon="6.22379">
        <ele>683</ele>
        <time>2011-08-17T15:31:39Z</time>
      </trkpt>
      <trkpt lat="44.09155" lon="6.22381">
        <ele>668</ele>
        <time>2011-08-17T15:31:43Z</time>
      </trkpt>
      <trkpt lat="44.09133" lon="6.22382">
        <ele>665</ele>
        <time>2011-08-17T15:31:54Z</time>
      </trkpt>
      <trkpt lat="44.09132" lon="6.22384">
        <ele>665</ele>
        <time>2011-08-17T15:32:17Z</time>
      </trkpt>
      <trkpt lat="44.09132" lon="6.22383">
        <ele>665</ele>
        <time>2011-08-17T15:32:39Z</time>
      </trkpt>
      <trkpt lat="44.09132" lon="6.22383">
        <ele>665</ele>
        <time>2011-08-17T15:32:50Z</time>
      </trkpt>
      <trkpt lat="44.09128" lon="6.22408">
        <ele>664</ele>
        <time>2011-08-17T15:32:56Z</time>
      </trkpt>
      <trkpt lat="44.09126" lon="6.22433">
        <ele>659</ele>
        <time>2011-08-17T15:33:00Z</time>
      </trkpt>
      <trkpt lat="44.09123" lon="6.22458">
        <ele>658</ele>
        <time>2011-08-17T15:33:03Z</time>
      </trkpt>
      <trkpt lat="44.09122" lon="6.22486">
        <ele>657</ele>
        <time>2011-08-17T15:33:06Z</time>
      </trkpt>
      <trkpt lat="44.09114" lon="6.22513">
        <ele>651</ele>
        <time>2011-08-17T15:33:10Z</time>
      </trkpt>
      <trkpt lat="44.09109" lon="6.22525">
        <ele>650</ele>
        <time>2011-08-17T15:33:12Z</time>
      </trkpt>
      <trkpt lat="44.09097" lon="6.22528">
        <ele>649</ele>
        <time>2011-08-17T15:33:16Z</time>
      </trkpt>
      <trkpt lat="44.09077" lon="6.22457">
        <ele>640</ele>
        <time>2011-08-17T15:33:32Z</time>
      </trkpt>
      <trkpt lat="44.09072" lon="6.22428">
        <ele>643</ele>
        <time>2011-08-17T15:33:38Z</time>
      </trkpt>
      <trkpt lat="44.09062" lon="6.22393">
        <ele>642</ele>
        <time>2011-08-17T15:33:44Z</time>
      </trkpt>
      <trkpt lat="44.09057" lon="6.2238">
        <ele>642</ele>
        <time>2011-08-17T15:33:46Z</time>
      </trkpt>
      <trkpt lat="44.09041" lon="6.22348">
        <ele>640</ele>
        <time>2011-08-17T15:33:51Z</time>
      </trkpt>
      <trkpt lat="44.09022" lon="6.2235">
        <ele>636</ele>
        <time>2011-08-17T15:33:58Z</time>
      </trkpt>
      <trkpt lat="44.09025" lon="6.22371">
        <ele>637</ele>
        <time>2011-08-17T15:34:01Z</time>
      </trkpt>
      <trkpt lat="44.0903" lon="6.22395">
        <ele>637</ele>
        <time>2011-08-17T15:34:04Z</time>
      </trkpt>
      <trkpt lat="44.09018" lon="6.22436">
        <ele>633</ele>
        <time>2011-08-17T15:34:11Z</time>
      </trkpt>
      <trkpt lat="44.09014" lon="6.22415">
        <ele>632</ele>
        <time>2011-08-17T15:34:14Z</time>
      </trkpt>
      <trkpt lat="44.09" lon="6.22398">
        <ele>632</ele>
        <time>2011-08-17T15:34:21Z</time>
      </trkpt>
      <trkpt lat="44.09" lon="6.22405">
        <ele>622</ele>
        <time>2011-08-17T15:34:22Z</time>
      </trkpt>
      <trkpt lat="44.08997" lon="6.2242">
        <ele>624</ele>
        <time>2011-08-17T15:34:24Z</time>
      </trkpt>
      <trkpt lat="44.08992" lon="6.22433">
        <ele>620</ele>
        <time>2011-08-17T15:34:26Z</time>
      </trkpt>
      <trkpt lat="44.08982" lon="6.22458">
        <ele>617</ele>
        <time>2011-08-17T15:34:30Z</time>
      </trkpt>
      <trkpt lat="44.08957" lon="6.22462">
        <ele>615</ele>
        <time>2011-08-17T15:34:35Z</time>
      </trkpt>
      <trkpt lat="44.0894" lon="6.22437">
        <ele>612</ele>
        <time>2011-08-17T15:34:40Z</time>
      </trkpt>
      <trkpt lat="44.08916" lon="6.22319">
        <ele>602</ele>
        <time>2011-08-17T15:34:51Z</time>
      </trkpt>
      <trkpt lat="44.08912" lon="6.22296">
        <ele>601</ele>
        <time>2011-08-17T15:34:55Z</time>
      </trkpt>
      <trkpt lat="44.08905" lon="6.22293">
        <ele>601</ele>
        <time>2011-08-17T15:34:59Z</time>
      </trkpt>
      <trkpt lat="44.08906" lon="6.22301">
        <ele>601</ele>
        <time>2011-08-17T15:35:01Z</time>
      </trkpt>
      <trkpt lat="44.08909" lon="6.22321">
        <ele>602</ele>
        <time>2011-08-17T15:35:04Z</time>
      </trkpt>
      <trkpt lat="44.08918" lon="6.22417">
        <ele>605</ele>
        <time>2011-08-17T15:35:15Z</time>
      </trkpt>
      <trkpt lat="44.08912" lon="6.22489">
        <ele>602</ele>
        <time>2011-08-17T15:35:22Z</time>
      </trkpt>
      <trkpt lat="44.08896" lon="6.2251">
        <ele>599</ele>
        <time>2011-08-17T15:35:28Z</time>
      </trkpt>
      <trkpt lat="44.0887" lon="6.22538">
        <ele>595</ele>
        <time>2011-08-17T15:35:38Z</time>
      </trkpt>
      <trkpt lat="44.08877" lon="6.2256">
        <ele>595</ele>
        <time>2011-08-17T15:35:42Z</time>
      </trkpt>
      <trkpt lat="44.08888" lon="6.22583">
        <ele>596</ele>
        <time>2011-08-17T15:35:46Z</time>
      </trkpt>
      <trkpt lat="44.08918" lon="6.22651">
        <ele>600</ele>
        <time>2011-08-17T15:35:58Z</time>
      </trkpt>
      <trkpt lat="44.08954" lon="6.22761">
        <ele>597</ele>
        <time>2011-08-17T15:36:18Z</time>
      </trkpt>
      <trkpt lat="44.08954" lon="6.22764">
        <ele>597</ele>
        <time>2011-08-17T15:36:19Z</time>
      </trkpt>
      <trkpt lat="44.08947" lon="6.22782">
        <ele>596</ele>
        <time>2011-08-17T15:36:24Z</time>
      </trkpt>
      <trkpt lat="44.08948" lon="6.22802">
        <ele>595</ele>
        <time>2011-08-17T15:36:28Z</time>
      </trkpt>
      <trkpt lat="44.08944" lon="6.22859">
        <ele>591</ele>
        <time>2011-08-17T15:36:38Z</time>
      </trkpt>
      <trkpt lat="44.08935" lon="6.22949">
        <ele>591</ele>
        <time>2011-08-17T15:36:53Z</time>
      </trkpt>
      <trkpt lat="44.08912" lon="6.22969">
        <ele>591</ele>
        <time>2011-08-17T15:37:01Z</time>
      </trkpt>
      <trkpt lat="44.08909" lon="6.22935">
        <ele>590</ele>
        <time>2011-08-17T15:37:08Z</time>
      </trkpt>
      <trkpt lat="44.08934" lon="6.22946">
        <ele>590</ele>
        <time>2011-08-17T15:37:14Z</time>
      </trkpt>
      <trkpt lat="44.08943" lon="6.22955">
        <ele>591</ele>
        <time>2011-08-17T15:37:19Z</time>
      </trkpt>
      <trkpt lat="44.08959" lon="6.22965">
        <ele>591</ele>
        <time>2011-08-17T15:37:24Z</time>
      </trkpt>
      <trkpt lat="44.09012" lon="6.23011">
        <ele>591</ele>
        <time>2011-08-17T15:37:42Z</time>
      </trkpt>
      <trkpt lat="44.09028" lon="6.23024">
        <ele>592</ele>
        <time>2011-08-17T15:37:48Z</time>
      </trkpt>
      <trkpt lat="44.09034" lon="6.23043">
        <ele>592</ele>
        <time>2011-08-17T15:37:53Z</time>
      </trkpt>
      <trkpt lat="44.09059" lon="6.2305">
        <ele>592</ele>
        <time>2011-08-17T15:38:05Z</time>
      </trkpt>
      <trkpt lat="44.09063" lon="6.23067">
        <ele>592</ele>
        <time>2011-08-17T15:38:11Z</time>
      </trkpt>
      <trkpt lat="44.09094" lon="6.23076">
        <ele>593</ele>
        <time>2011-08-17T15:38:21Z</time>
      </trkpt>
      <trkpt lat="44.09103" lon="6.23071">
        <ele>592</ele>
        <time>2011-08-17T15:38:27Z</time>
      </trkpt>
      <trkpt lat="44.09108" lon="6.2307">
        <ele>592</ele>
        <time>2011-08-17T15:38:30Z</time>
      </trkpt>
      <trkpt lat="44.09114" lon="6.23065">
        <ele>592</ele>
        <time>2011-08-17T15:38:43Z</time>
      </trkpt>
      <trkpt lat="44.09142" lon="6.23079">
        <ele>593</ele>
        <time>2011-08-17T15:38:55Z</time>
      </trkpt>
      <trkpt lat="44.09144" lon="6.23079">
        <ele>593</ele>
        <time>2011-08-17T15:38:56Z</time>
      </trkpt>
      <trkpt lat="44.09143" lon="6.23092">
        <ele>594</ele>
        <time>2011-08-17T15:39:00Z</time>
      </trkpt>
      <trkpt lat="44.09139" lon="6.23108">
        <ele>595</ele>
        <time>2011-08-17T15:39:06Z</time>
      </trkpt>
      <trkpt lat="44.09125" lon="6.23122">
        <ele>595</ele>
        <time>2011-08-17T15:39:14Z</time>
      </trkpt>
      <trkpt lat="44.09116" lon="6.23113">
        <ele>594</ele>
        <time>2011-08-17T15:39:18Z</time>
      </trkpt>
      <trkpt lat="44.0909" lon="6.23127">
        <ele>595</ele>
        <time>2011-08-17T15:39:27Z</time>
      </trkpt>
      <trkpt lat="44.09109" lon="6.23153">
        <ele>595</ele>
        <time>2011-08-17T15:39:34Z</time>
      </trkpt>
      <trkpt lat="44.09116" lon="6.23163">
        <ele>595</ele>
        <time>2011-08-17T15:39:37Z</time>
      </trkpt>
      <trkpt lat="44.09138" lon="6.23208">
        <ele>597</ele>
        <time>2011-08-17T15:39:50Z</time>
      </trkpt>
      <trkpt lat="44.0915" lon="6.23263">
        <ele>598</ele>
        <time>2011-08-17T15:40:03Z</time>
      </trkpt>
      <trkpt lat="44.09153" lon="6.23265">
        <ele>598</ele>
        <time>2011-08-17T15:40:04Z</time>
      </trkpt>
      <trkpt lat="44.09172" lon="6.23297">
        <ele>600</ele>
        <time>2011-08-17T15:40:12Z</time>
      </trkpt>
      <trkpt lat="44.0918" lon="6.23307">
        <ele>600</ele>
        <time>2011-08-17T15:40:16Z</time>
      </trkpt>
      <trkpt lat="44.09178" lon="6.23319">
        <ele>600</ele>
        <time>2011-08-17T15:40:29Z</time>
      </trkpt>
    </trkseg>
  </trk>
  <trk>
    <name><![CDATA[ACTIVE LOG180846]]></name>
    <trkseg>
      <trkpt lat="44.09186" lon="6.23325">
        <ele>600</ele>
        <time>2011-08-17T16:08:46Z</time>
      </trkpt>
      <trkpt lat="44.09186" lon="6.23326">
        <ele>600</ele>
        <time>2011-08-17T16:10:32Z</time>
      </trkpt>
      <trkpt lat="44.09194" lon="6.2332">
        <ele>600</ele>
        <time>2011-08-17T16:17:42Z</time>
      </trkpt>
      <trkpt lat="44.09193" lon="6.23318">
        <ele>600</ele>
        <time>2011-08-17T16:17:47Z</time>
      </trkpt>
      <trkpt lat="44.09194" lon="6.23305">
        <ele>600</ele>
        <time>2011-08-17T16:18:02Z</time>
      </trkpt>
      <trkpt lat="44.09174" lon="6.23286">
        <ele>600</ele>
        <time>2011-08-17T16:18:19Z</time>
      </trkpt>
      <trkpt lat="44.09168" lon="6.23265">
        <ele>599</ele>
        <time>2011-08-17T16:18:40Z</time>
      </trkpt>
      <trkpt lat="44.09166" lon="6.23258">
        <ele>599</ele>
        <time>2011-08-17T16:18:47Z</time>
      </trkpt>
      <trkpt lat="44.09161" lon="6.23245">
        <ele>598</ele>
        <time>2011-08-17T16:19:03Z</time>
      </trkpt>
      <trkpt lat="44.09165" lon="6.23244">
        <ele>598</ele>
        <time>2011-08-17T16:19:10Z</time>
      </trkpt>
      <trkpt lat="44.09163" lon="6.23242">
        <ele>598</ele>
        <time>2011-08-17T16:19:12Z</time>
      </trkpt>
      <trkpt lat="44.09152" lon="6.23222">
        <ele>597</ele>
        <time>2011-08-17T16:19:28Z</time>
      </trkpt>
      <trkpt lat="44.09149" lon="6.23212">
        <ele>597</ele>
        <time>2011-08-17T16:19:43Z</time>
      </trkpt>
      <trkpt lat="44.09142" lon="6.23196">
        <ele>597</ele>
        <time>2011-08-17T16:19:57Z</time>
      </trkpt>
      <trkpt lat="44.09122" lon="6.23178">
        <ele>596</ele>
        <time>2011-08-17T16:20:13Z</time>
      </trkpt>
      <trkpt lat="44.09107" lon="6.23176">
        <ele>596</ele>
        <time>2011-08-17T16:20:28Z</time>
      </trkpt>
      <trkpt lat="44.09102" lon="6.23176">
        <ele>596</ele>
        <time>2011-08-17T16:21:41Z</time>
      </trkpt>
      <trkpt lat="44.091" lon="6.23174">
        <ele>596</ele>
        <time>2011-08-17T16:21:43Z</time>
      </trkpt>
      <trkpt lat="44.09089" lon="6.23207">
        <ele>596</ele>
        <time>2011-08-17T16:21:52Z</time>
      </trkpt>
      <trkpt lat="44.09076" lon="6.23271">
        <ele>595</ele>
        <time>2011-08-17T16:22:06Z</time>
      </trkpt>
      <trkpt lat="44.09059" lon="6.23349">
        <ele>597</ele>
        <time>2011-08-17T16:22:23Z</time>
      </trkpt>
      <trkpt lat="44.09049" lon="6.2345">
        <ele>599</ele>
        <time>2011-08-17T16:22:43Z</time>
      </trkpt>
      <trkpt lat="44.09046" lon="6.23528">
        <ele>601</ele>
        <time>2011-08-17T16:22:59Z</time>
      </trkpt>
      <trkpt lat="44.09028" lon="6.23631">
        <ele>602</ele>
        <time>2011-08-17T16:23:20Z</time>
      </trkpt>
      <trkpt lat="44.09006" lon="6.23693">
        <ele>601</ele>
        <time>2011-08-17T16:23:34Z</time>
      </trkpt>
      <trkpt lat="44.09006" lon="6.23723">
        <ele>601</ele>
        <time>2011-08-17T16:23:40Z</time>
      </trkpt>
      <trkpt lat="44.08982" lon="6.2384">
        <ele>601</ele>
        <time>2011-08-17T16:24:03Z</time>
      </trkpt>
      <trkpt lat="44.08965" lon="6.23965">
        <ele>606</ele>
        <time>2011-08-17T16:24:27Z</time>
      </trkpt>
      <trkpt lat="44.08981" lon="6.2405">
        <ele>608</ele>
        <time>2011-08-17T16:24:44Z</time>
      </trkpt>
      <trkpt lat="44.09019" lon="6.24131">
        <ele>605</ele>
        <time>2011-08-17T16:25:02Z</time>
      </trkpt>
      <trkpt lat="44.0906" lon="6.24211">
        <ele>606</ele>
        <time>2011-08-17T16:25:20Z</time>
      </trkpt>
      <trkpt lat="44.09113" lon="6.24314">
        <ele>617</ele>
        <time>2011-08-17T16:25:43Z</time>
      </trkpt>
      <trkpt lat="44.0912" lon="6.24369">
        <ele>622</ele>
        <time>2011-08-17T16:25:56Z</time>
      </trkpt>
      <trkpt lat="44.09107" lon="6.24418">
        <ele>621</ele>
        <time>2011-08-17T16:26:13Z</time>
      </trkpt>
      <trkpt lat="44.09071" lon="6.24479">
        <ele>614</ele>
        <time>2011-08-17T16:26:31Z</time>
      </trkpt>
      <trkpt lat="44.0907" lon="6.24549">
        <ele>612</ele>
        <time>2011-08-17T16:26:44Z</time>
      </trkpt>
      <trkpt lat="44.09049" lon="6.24612">
        <ele>612</ele>
        <time>2011-08-17T16:26:57Z</time>
      </trkpt>
      <trkpt lat="44.09004" lon="6.24702">
        <ele>613</ele>
        <time>2011-08-17T16:27:18Z</time>
      </trkpt>
      <trkpt lat="44.08983" lon="6.24791">
        <ele>614</ele>
        <time>2011-08-17T16:27:37Z</time>
      </trkpt>
      <trkpt lat="44.08971" lon="6.24869">
        <ele>615</ele>
        <time>2011-08-17T16:27:54Z</time>
      </trkpt>
      <trkpt lat="44.08926" lon="6.24907">
        <ele>616</ele>
        <time>2011-08-17T16:28:10Z</time>
      </trkpt>
      <trkpt lat="44.08878" lon="6.24931">
        <ele>616</ele>
        <time>2011-08-17T16:28:27Z</time>
      </trkpt>
      <trkpt lat="44.0882" lon="6.24964">
        <ele>620</ele>
        <time>2011-08-17T16:28:46Z</time>
      </trkpt>
      <trkpt lat="44.08781" lon="6.24987">
        <ele>621</ele>
        <time>2011-08-17T16:28:59Z</time>
      </trkpt>
      <trkpt lat="44.08747" lon="6.25021">
        <ele>627</ele>
        <time>2011-08-17T16:29:14Z</time>
      </trkpt>
      <trkpt lat="44.08735" lon="6.25039">
        <ele>629</ele>
        <time>2011-08-17T16:29:20Z</time>
      </trkpt>
      <trkpt lat="44.08727" lon="6.25043">
        <ele>630</ele>
        <time>2011-08-17T16:29:30Z</time>
      </trkpt>
      <trkpt lat="44.08726" lon="6.25042">
        <ele>629</ele>
        <time>2011-08-17T16:29:32Z</time>
      </trkpt>
      <trkpt lat="44.08724" lon="6.25034">
        <ele>629</ele>
        <time>2011-08-17T16:29:35Z</time>
      </trkpt>
      <trkpt lat="44.08698" lon="6.25014">
        <ele>627</ele>
        <time>2011-08-17T16:29:47Z</time>
      </trkpt>
      <trkpt lat="44.08662" lon="6.25005">
        <ele>624</ele>
        <time>2011-08-17T16:29:59Z</time>
      </trkpt>
      <trkpt lat="44.08617" lon="6.24997">
        <ele>625</ele>
        <time>2011-08-17T16:30:14Z</time>
      </trkpt>
      <trkpt lat="44.08572" lon="6.24997">
        <ele>629</ele>
        <time>2011-08-17T16:30:30Z</time>
      </trkpt>
      <trkpt lat="44.08545" lon="6.25009">
        <ele>627</ele>
        <time>2011-08-17T16:30:39Z</time>
      </trkpt>
      <trkpt lat="44.08517" lon="6.25039">
        <ele>627</ele>
        <time>2011-08-17T16:30:52Z</time>
      </trkpt>
      <trkpt lat="44.08478" lon="6.25093">
        <ele>629</ele>
        <time>2011-08-17T16:31:08Z</time>
      </trkpt>
      <trkpt lat="44.08456" lon="6.2516">
        <ele>630</ele>
        <time>2011-08-17T16:31:24Z</time>
      </trkpt>
      <trkpt lat="44.08454" lon="6.25187">
        <ele>631</ele>
        <time>2011-08-17T16:31:31Z</time>
      </trkpt>
      <trkpt lat="44.08453" lon="6.25247">
        <ele>633</ele>
        <time>2011-08-17T16:31:45Z</time>
      </trkpt>
      <trkpt lat="44.08459" lon="6.2528">
        <ele>648</ele>
        <time>2011-08-17T16:31:55Z</time>
      </trkpt>
      <trkpt lat="44.08459" lon="6.25283">
        <ele>648</ele>
        <time>2011-08-17T16:31:56Z</time>
      </trkpt>
      <trkpt lat="44.08451" lon="6.25286">
        <ele>648</ele>
        <time>2011-08-17T16:32:00Z</time>
      </trkpt>
      <trkpt lat="44.08426" lon="6.25274">
        <ele>643</ele>
        <time>2011-08-17T16:32:10Z</time>
      </trkpt>
      <trkpt lat="44.08409" lon="6.2528">
        <ele>637</ele>
        <time>2011-08-17T16:32:15Z</time>
      </trkpt>
      <trkpt lat="44.08347" lon="6.25342">
        <ele>642</ele>
        <time>2011-08-17T16:32:35Z</time>
      </trkpt>
      <trkpt lat="44.08318" lon="6.2537">
        <ele>639</ele>
        <time>2011-08-17T16:32:45Z</time>
      </trkpt>
      <trkpt lat="44.08278" lon="6.25424">
        <ele>643</ele>
        <time>2011-08-17T16:33:01Z</time>
      </trkpt>
      <trkpt lat="44.08239" lon="6.25448">
        <ele>640</ele>
        <time>2011-08-17T16:33:14Z</time>
      </trkpt>
      <trkpt lat="44.08204" lon="6.25469">
        <ele>641</ele>
        <time>2011-08-17T16:33:24Z</time>
      </trkpt>
      <trkpt lat="44.08196" lon="6.25504">
        <ele>641</ele>
        <time>2011-08-17T16:33:34Z</time>
      </trkpt>
      <trkpt lat="44.08186" lon="6.25503">
        <ele>641</ele>
        <time>2011-08-17T16:33:40Z</time>
      </trkpt>
      <trkpt lat="44.08143" lon="6.25463">
        <ele>652</ele>
        <time>2011-08-17T16:33:57Z</time>
      </trkpt>
      <trkpt lat="44.08122" lon="6.25479">
        <ele>654</ele>
        <time>2011-08-17T16:34:05Z</time>
      </trkpt>
      <trkpt lat="44.08115" lon="6.25492">
        <ele>655</ele>
        <time>2011-08-17T16:34:09Z</time>
      </trkpt>
      <trkpt lat="44.08089" lon="6.25538">
        <ele>648</ele>
        <time>2011-08-17T16:34:24Z</time>
      </trkpt>
      <trkpt lat="44.08071" lon="6.25556">
        <ele>664</ele>
        <time>2011-08-17T16:34:34Z</time>
      </trkpt>
      <trkpt lat="44.08056" lon="6.25591">
        <ele>655</ele>
        <time>2011-08-17T16:34:46Z</time>
      </trkpt>
      <trkpt lat="44.08034" lon="6.25629">
        <ele>659</ele>
        <time>2011-08-17T16:34:58Z</time>
      </trkpt>
      <trkpt lat="44.08016" lon="6.25665">
        <ele>660</ele>
        <time>2011-08-17T16:35:08Z</time>
      </trkpt>
      <trkpt lat="44.08009" lon="6.25699">
        <ele>654</ele>
        <time>2011-08-17T16:35:16Z</time>
      </trkpt>
      <trkpt lat="44.07995" lon="6.25742">
        <ele>662</ele>
        <time>2011-08-17T16:35:28Z</time>
      </trkpt>
      <trkpt lat="44.07977" lon="6.25785">
        <ele>667</ele>
        <time>2011-08-17T16:35:40Z</time>
      </trkpt>
      <trkpt lat="44.0796" lon="6.25815">
        <ele>670</ele>
        <time>2011-08-17T16:35:48Z</time>
      </trkpt>
      <trkpt lat="44.07958" lon="6.25828">
        <ele>670</ele>
        <time>2011-08-17T16:35:52Z</time>
      </trkpt>
      <trkpt lat="44.07956" lon="6.25837">
        <ele>667</ele>
        <time>2011-08-17T16:35:55Z</time>
      </trkpt>
      <trkpt lat="44.07954" lon="6.25845">
        <ele>668</ele>
        <time>2011-08-17T16:35:57Z</time>
      </trkpt>
      <trkpt lat="44.07943" lon="6.25863">
        <ele>670</ele>
        <time>2011-08-17T16:36:01Z</time>
      </trkpt>
      <trkpt lat="44.07948" lon="6.25875">
        <ele>668</ele>
        <time>2011-08-17T16:36:07Z</time>
      </trkpt>
      <trkpt lat="44.0796" lon="6.25879">
        <ele>666</ele>
        <time>2011-08-17T16:36:10Z</time>
      </trkpt>
      <trkpt lat="44.07976" lon="6.25896">
        <ele>662</ele>
        <time>2011-08-17T16:36:17Z</time>
      </trkpt>
      <trkpt lat="44.07985" lon="6.25915">
        <ele>658</ele>
        <time>2011-08-17T16:36:23Z</time>
      </trkpt>
      <trkpt lat="44.08001" lon="6.25956">
        <ele>661</ele>
        <time>2011-08-17T16:36:37Z</time>
      </trkpt>
      <trkpt lat="44.07982" lon="6.2599">
        <ele>656</ele>
        <time>2011-08-17T16:36:48Z</time>
      </trkpt>
      <trkpt lat="44.07977" lon="6.26014">
        <ele>655</ele>
        <time>2011-08-17T16:37:00Z</time>
      </trkpt>
      <trkpt lat="44.07977" lon="6.26012">
        <ele>655</ele>
        <time>2011-08-17T16:37:20Z</time>
      </trkpt>
      <trkpt lat="44.07977" lon="6.26007">
        <ele>655</ele>
        <time>2011-08-17T16:37:24Z</time>
      </trkpt>
    </trkseg>
  </trk>
</gpx>